<?xml version="1.0" encoding="UTF-8" standalone="no" ?>
<gpx xmlns="http://www.topografix.com/GPX/1/1" xmlns:xsi="http://www.w3.org/2001/XMLSchema-instance" xsi:schemaLocation="http://www.topografix.com/GPX/1/1 http://www.topografix.com/GPX/1/1/gpx.xsd" version="1.1" creator="VisuGPX - https://www.visugpx.com">
  <metadata>
    <name>VTT - Annot</name>
    <desc><![CDATA[VTT - Relevé terrain - Colle Basse/Rent/Allons/Le Fugeret/Col d'Argenton/Méailles/Annot - Réel:   1500 m / -2 300 m / 45 km 

CR 1001 sentiers:
[url]http://www.1001sentiers.fr/forum/viewtopic.php?f=35&t=1683&p=36280#p36280[/url]

et ASCVTT
[url]http://www.ascvtt.com/wordpress/2010/10/31/les-boucles-dorees-de-lautomne/#more-1784[/url]]]></desc>
  </metadata>
  <trk>
    <name><![CDATA[2010-10-30T06:57:28Z]]></name>
    <trkseg>
      <trkpt lat="43.95888" lon="6.62988">
        <ele>1479.1254883</ele>
        <time>2010-10-30T06:57:29Z</time>
      </trkpt>
      <trkpt lat="43.95888" lon="6.62988">
        <ele>1479.6062012</ele>
        <time>2010-10-30T06:57:30Z</time>
      </trkpt>
      <trkpt lat="43.95894" lon="6.62988">
        <ele>1480.567627</ele>
        <time>2010-10-30T06:57:34Z</time>
      </trkpt>
      <trkpt lat="43.9591" lon="6.62988">
        <ele>1482.0095215</ele>
        <time>2010-10-30T06:57:40Z</time>
      </trkpt>
      <trkpt lat="43.95922" lon="6.62993">
        <ele>1481.0483398</ele>
        <time>2010-10-30T06:57:45Z</time>
      </trkpt>
      <trkpt lat="43.95943" lon="6.63002">
        <ele>1478.1643066</ele>
        <time>2010-10-30T06:57:51Z</time>
      </trkpt>
      <trkpt lat="43.95967" lon="6.63011">
        <ele>1476.2416992</ele>
        <time>2010-10-30T06:57:59Z</time>
      </trkpt>
      <trkpt lat="43.95989" lon="6.63018">
        <ele>1473.8383789</ele>
        <time>2010-10-30T06:58:05Z</time>
      </trkpt>
      <trkpt lat="43.95997" lon="6.63019">
        <ele>1473.3579102</ele>
        <time>2010-10-30T06:58:07Z</time>
      </trkpt>
      <trkpt lat="43.96026" lon="6.63017">
        <ele>1472.8771973</ele>
        <time>2010-10-30T06:58:14Z</time>
      </trkpt>
      <trkpt lat="43.96048" lon="6.63017">
        <ele>1472.8771973</ele>
        <time>2010-10-30T06:58:20Z</time>
      </trkpt>
      <trkpt lat="43.96068" lon="6.63013">
        <ele>1476.7224121</ele>
        <time>2010-10-30T06:58:27Z</time>
      </trkpt>
      <trkpt lat="43.96092" lon="6.63006">
        <ele>1477.6835938</ele>
        <time>2010-10-30T06:58:35Z</time>
      </trkpt>
      <trkpt lat="43.96122" lon="6.62995">
        <ele>1479.1254883</ele>
        <time>2010-10-30T06:58:44Z</time>
      </trkpt>
      <trkpt lat="43.96145" lon="6.62996">
        <ele>1479.6062012</ele>
        <time>2010-10-30T06:58:51Z</time>
      </trkpt>
      <trkpt lat="43.96163" lon="6.63005">
        <ele>1481.5288086</ele>
        <time>2010-10-30T06:58:57Z</time>
      </trkpt>
      <trkpt lat="43.96187" lon="6.63025">
        <ele>1482.9707031</ele>
        <time>2010-10-30T06:59:05Z</time>
      </trkpt>
      <trkpt lat="43.96214" lon="6.6304">
        <ele>1482.9707031</ele>
        <time>2010-10-30T06:59:13Z</time>
      </trkpt>
      <trkpt lat="43.96239" lon="6.6305">
        <ele>1484.8937988</ele>
        <time>2010-10-30T06:59:21Z</time>
      </trkpt>
      <trkpt lat="43.9626" lon="6.63057">
        <ele>1484.8937988</ele>
        <time>2010-10-30T06:59:27Z</time>
      </trkpt>
      <trkpt lat="43.96272" lon="6.63072">
        <ele>1487.7775879</ele>
        <time>2010-10-30T06:59:33Z</time>
      </trkpt>
      <trkpt lat="43.96287" lon="6.63101">
        <ele>1492.1035156</ele>
        <time>2010-10-30T06:59:41Z</time>
      </trkpt>
      <trkpt lat="43.963" lon="6.6312">
        <ele>1496.9099121</ele>
        <time>2010-10-30T06:59:47Z</time>
      </trkpt>
      <trkpt lat="43.9632" lon="6.63139">
        <ele>1500.7553711</ele>
        <time>2010-10-30T06:59:53Z</time>
      </trkpt>
      <trkpt lat="43.96339" lon="6.63154">
        <ele>1500.7553711</ele>
        <time>2010-10-30T06:59:59Z</time>
      </trkpt>
      <trkpt lat="43.96362" lon="6.63168">
        <ele>1500.2749023</ele>
        <time>2010-10-30T07:00:06Z</time>
      </trkpt>
      <trkpt lat="43.96383" lon="6.63176">
        <ele>1498.3518066</ele>
        <time>2010-10-30T07:00:12Z</time>
      </trkpt>
      <trkpt lat="43.96404" lon="6.63181">
        <ele>1496.9099121</ele>
        <time>2010-10-30T07:00:18Z</time>
      </trkpt>
      <trkpt lat="43.96424" lon="6.63183">
        <ele>1497.390625</ele>
        <time>2010-10-30T07:00:23Z</time>
      </trkpt>
      <trkpt lat="43.96448" lon="6.63188">
        <ele>1499.7939453</ele>
        <time>2010-10-30T07:00:30Z</time>
      </trkpt>
      <trkpt lat="43.96473" lon="6.63192">
        <ele>1499.3132324</ele>
        <time>2010-10-30T07:00:37Z</time>
      </trkpt>
      <trkpt lat="43.96491" lon="6.63191">
        <ele>1500.7553711</ele>
        <time>2010-10-30T07:00:42Z</time>
      </trkpt>
      <trkpt lat="43.96519" lon="6.6319">
        <ele>1497.390625</ele>
        <time>2010-10-30T07:00:50Z</time>
      </trkpt>
      <trkpt lat="43.96543" lon="6.63188">
        <ele>1501.236084</ele>
        <time>2010-10-30T07:00:57Z</time>
      </trkpt>
      <trkpt lat="43.9657" lon="6.63193">
        <ele>1502.6779785</ele>
        <time>2010-10-30T07:01:05Z</time>
      </trkpt>
      <trkpt lat="43.96592" lon="6.63191">
        <ele>1506.0424805</ele>
        <time>2010-10-30T07:01:12Z</time>
      </trkpt>
      <trkpt lat="43.9661" lon="6.6318">
        <ele>1515.6557617</ele>
        <time>2010-10-30T07:01:19Z</time>
      </trkpt>
      <trkpt lat="43.96634" lon="6.63171">
        <ele>1515.6557617</ele>
        <time>2010-10-30T07:01:26Z</time>
      </trkpt>
      <trkpt lat="43.96656" lon="6.6316">
        <ele>1514.213623</ele>
        <time>2010-10-30T07:01:33Z</time>
      </trkpt>
      <trkpt lat="43.96683" lon="6.63153">
        <ele>1510.3684082</ele>
        <time>2010-10-30T07:01:40Z</time>
      </trkpt>
      <trkpt lat="43.96713" lon="6.63143">
        <ele>1513.7329102</ele>
        <time>2010-10-30T07:01:49Z</time>
      </trkpt>
      <trkpt lat="43.96737" lon="6.63135">
        <ele>1511.8105469</ele>
        <time>2010-10-30T07:01:56Z</time>
      </trkpt>
      <trkpt lat="43.96768" lon="6.63117">
        <ele>1513.2524414</ele>
        <time>2010-10-30T07:02:05Z</time>
      </trkpt>
      <trkpt lat="43.96791" lon="6.63094">
        <ele>1514.6943359</ele>
        <time>2010-10-30T07:02:13Z</time>
      </trkpt>
      <trkpt lat="43.9681" lon="6.63075">
        <ele>1516.1364746</ele>
        <time>2010-10-30T07:02:20Z</time>
      </trkpt>
      <trkpt lat="43.96832" lon="6.63055">
        <ele>1519.9816895</ele>
        <time>2010-10-30T07:02:28Z</time>
      </trkpt>
      <trkpt lat="43.96855" lon="6.63034">
        <ele>1524.3076172</ele>
        <time>2010-10-30T07:02:36Z</time>
      </trkpt>
      <trkpt lat="43.96881" lon="6.63014">
        <ele>1516.6171875</ele>
        <time>2010-10-30T07:02:43Z</time>
      </trkpt>
      <trkpt lat="43.96904" lon="6.62991">
        <ele>1519.0205078</ele>
        <time>2010-10-30T07:02:50Z</time>
      </trkpt>
      <trkpt lat="43.96942" lon="6.62957">
        <ele>1519.9816895</ele>
        <time>2010-10-30T07:03:01Z</time>
      </trkpt>
      <trkpt lat="43.96968" lon="6.6293">
        <ele>1521.423584</ele>
        <time>2010-10-30T07:03:09Z</time>
      </trkpt>
      <trkpt lat="43.96975" lon="6.62922">
        <ele>1520.4624023</ele>
        <time>2010-10-30T07:03:11Z</time>
      </trkpt>
      <trkpt lat="43.96994" lon="6.62902">
        <ele>1516.6171875</ele>
        <time>2010-10-30T07:03:16Z</time>
      </trkpt>
      <trkpt lat="43.97002" lon="6.62897">
        <ele>1514.6943359</ele>
        <time>2010-10-30T07:03:18Z</time>
      </trkpt>
      <trkpt lat="43.97029" lon="6.62889">
        <ele>1514.6943359</ele>
        <time>2010-10-30T07:03:25Z</time>
      </trkpt>
      <trkpt lat="43.97055" lon="6.62888">
        <ele>1515.6557617</ele>
        <time>2010-10-30T07:03:31Z</time>
      </trkpt>
      <trkpt lat="43.97086" lon="6.6288">
        <ele>1513.2524414</ele>
        <time>2010-10-30T07:03:38Z</time>
      </trkpt>
      <trkpt lat="43.971" lon="6.62881">
        <ele>1512.7717285</ele>
        <time>2010-10-30T07:03:41Z</time>
      </trkpt>
      <trkpt lat="43.97115" lon="6.62894">
        <ele>1507.965332</ele>
        <time>2010-10-30T07:03:45Z</time>
      </trkpt>
      <trkpt lat="43.97118" lon="6.62898">
        <ele>1508.4458008</ele>
        <time>2010-10-30T07:03:46Z</time>
      </trkpt>
      <trkpt lat="43.97125" lon="6.62883">
        <ele>1507.965332</ele>
        <time>2010-10-30T07:03:50Z</time>
      </trkpt>
      <trkpt lat="43.97129" lon="6.62875">
        <ele>1507.965332</ele>
        <time>2010-10-30T07:03:53Z</time>
      </trkpt>
      <trkpt lat="43.97143" lon="6.62871">
        <ele>1509.8876953</ele>
        <time>2010-10-30T07:03:59Z</time>
      </trkpt>
      <trkpt lat="43.97145" lon="6.6287">
        <ele>1510.8491211</ele>
        <time>2010-10-30T07:04:00Z</time>
      </trkpt>
      <trkpt lat="43.97158" lon="6.62864">
        <ele>1513.7329102</ele>
        <time>2010-10-30T07:04:06Z</time>
      </trkpt>
      <trkpt lat="43.97171" lon="6.62859">
        <ele>1515.6557617</ele>
        <time>2010-10-30T07:04:11Z</time>
      </trkpt>
      <trkpt lat="43.9719" lon="6.6285">
        <ele>1516.1364746</ele>
        <time>2010-10-30T07:04:18Z</time>
      </trkpt>
      <trkpt lat="43.97209" lon="6.62838">
        <ele>1518.5397949</ele>
        <time>2010-10-30T07:04:25Z</time>
      </trkpt>
      <trkpt lat="43.97227" lon="6.62822">
        <ele>1519.0205078</ele>
        <time>2010-10-30T07:04:30Z</time>
      </trkpt>
      <trkpt lat="43.97245" lon="6.62803">
        <ele>1519.5012207</ele>
        <time>2010-10-30T07:04:34Z</time>
      </trkpt>
      <trkpt lat="43.9727" lon="6.62781">
        <ele>1516.6171875</ele>
        <time>2010-10-30T07:04:39Z</time>
      </trkpt>
      <trkpt lat="43.97289" lon="6.62772">
        <ele>1518.5397949</ele>
        <time>2010-10-30T07:04:43Z</time>
      </trkpt>
      <trkpt lat="43.97328" lon="6.62766">
        <ele>1519.0205078</ele>
        <time>2010-10-30T07:04:49Z</time>
      </trkpt>
      <trkpt lat="43.97376" lon="6.62759">
        <ele>1518.059082</ele>
        <time>2010-10-30T07:04:56Z</time>
      </trkpt>
      <trkpt lat="43.97382" lon="6.6276">
        <ele>1517.5783691</ele>
        <time>2010-10-30T07:04:57Z</time>
      </trkpt>
      <trkpt lat="43.97409" lon="6.62765">
        <ele>1517.5783691</ele>
        <time>2010-10-30T07:05:02Z</time>
      </trkpt>
      <trkpt lat="43.97412" lon="6.62764">
        <ele>1516.6171875</ele>
        <time>2010-10-30T07:05:07Z</time>
      </trkpt>
      <trkpt lat="43.97413" lon="6.62763">
        <ele>1517.5783691</ele>
        <time>2010-10-30T07:05:38Z</time>
      </trkpt>
      <trkpt lat="43.97425" lon="6.6276">
        <ele>1517.5783691</ele>
        <time>2010-10-30T07:05:43Z</time>
      </trkpt>
      <trkpt lat="43.97445" lon="6.6275">
        <ele>1518.059082</ele>
        <time>2010-10-30T07:05:48Z</time>
      </trkpt>
      <trkpt lat="43.97452" lon="6.62745">
        <ele>1518.059082</ele>
        <time>2010-10-30T07:05:50Z</time>
      </trkpt>
      <trkpt lat="43.97488" lon="6.62716">
        <ele>1519.9816895</ele>
        <time>2010-10-30T07:06:00Z</time>
      </trkpt>
      <trkpt lat="43.97516" lon="6.62693">
        <ele>1521.9042969</ele>
        <time>2010-10-30T07:06:08Z</time>
      </trkpt>
      <trkpt lat="43.97545" lon="6.62677">
        <ele>1521.9042969</ele>
        <time>2010-10-30T07:06:15Z</time>
      </trkpt>
      <trkpt lat="43.97549" lon="6.62675">
        <ele>1521.9042969</ele>
        <time>2010-10-30T07:06:16Z</time>
      </trkpt>
      <trkpt lat="43.9757" lon="6.62668">
        <ele>1521.9042969</ele>
        <time>2010-10-30T07:06:21Z</time>
      </trkpt>
      <trkpt lat="43.97593" lon="6.62661">
        <ele>1521.423584</ele>
        <time>2010-10-30T07:06:27Z</time>
      </trkpt>
      <trkpt lat="43.97609" lon="6.62649">
        <ele>1520.9431152</ele>
        <time>2010-10-30T07:06:33Z</time>
      </trkpt>
      <trkpt lat="43.97627" lon="6.62646">
        <ele>1521.423584</ele>
        <time>2010-10-30T07:06:40Z</time>
      </trkpt>
      <trkpt lat="43.97649" lon="6.62646">
        <ele>1520.4624023</ele>
        <time>2010-10-30T07:06:47Z</time>
      </trkpt>
      <trkpt lat="43.97675" lon="6.62653">
        <ele>1519.0205078</ele>
        <time>2010-10-30T07:06:53Z</time>
      </trkpt>
      <trkpt lat="43.97707" lon="6.62663">
        <ele>1517.5783691</ele>
        <time>2010-10-30T07:07:00Z</time>
      </trkpt>
      <trkpt lat="43.97712" lon="6.62665">
        <ele>1517.5783691</ele>
        <time>2010-10-30T07:07:01Z</time>
      </trkpt>
      <trkpt lat="43.97743" lon="6.62674">
        <ele>1515.1750488</ele>
        <time>2010-10-30T07:07:07Z</time>
      </trkpt>
      <trkpt lat="43.97783" lon="6.62677">
        <ele>1512.7717285</ele>
        <time>2010-10-30T07:07:14Z</time>
      </trkpt>
      <trkpt lat="43.97804" lon="6.62673">
        <ele>1513.2524414</ele>
        <time>2010-10-30T07:07:18Z</time>
      </trkpt>
      <trkpt lat="43.97829" lon="6.62674">
        <ele>1513.2524414</ele>
        <time>2010-10-30T07:07:24Z</time>
      </trkpt>
      <trkpt lat="43.97858" lon="6.62672">
        <ele>1512.2910156</ele>
        <time>2010-10-30T07:07:32Z</time>
      </trkpt>
      <trkpt lat="43.97869" lon="6.62673">
        <ele>1511.8105469</ele>
        <time>2010-10-30T07:07:35Z</time>
      </trkpt>
      <trkpt lat="43.97881" lon="6.62671">
        <ele>1510.8491211</ele>
        <time>2010-10-30T07:07:38Z</time>
      </trkpt>
      <trkpt lat="43.97893" lon="6.62665">
        <ele>1510.8491211</ele>
        <time>2010-10-30T07:07:41Z</time>
      </trkpt>
      <trkpt lat="43.97913" lon="6.6265">
        <ele>1508.9265137</ele>
        <time>2010-10-30T07:07:46Z</time>
      </trkpt>
      <trkpt lat="43.97948" lon="6.62626">
        <ele>1500.7553711</ele>
        <time>2010-10-30T07:07:52Z</time>
      </trkpt>
      <trkpt lat="43.97969" lon="6.62612">
        <ele>1498.8325195</ele>
        <time>2010-10-30T07:07:56Z</time>
      </trkpt>
      <trkpt lat="43.9798" lon="6.62604">
        <ele>1497.8713379</ele>
        <time>2010-10-30T07:08:00Z</time>
      </trkpt>
      <trkpt lat="43.97993" lon="6.62595">
        <ele>1499.7939453</ele>
        <time>2010-10-30T07:08:08Z</time>
      </trkpt>
      <trkpt lat="43.97998" lon="6.62592">
        <ele>1500.7553711</ele>
        <time>2010-10-30T07:08:12Z</time>
      </trkpt>
      <trkpt lat="43.98005" lon="6.62588">
        <ele>1505.0812988</ele>
        <time>2010-10-30T07:08:19Z</time>
      </trkpt>
      <trkpt lat="43.98008" lon="6.62582">
        <ele>1506.5231934</ele>
        <time>2010-10-30T07:08:23Z</time>
      </trkpt>
      <trkpt lat="43.9801" lon="6.62577">
        <ele>1507.965332</ele>
        <time>2010-10-30T07:08:26Z</time>
      </trkpt>
      <trkpt lat="43.98013" lon="6.62571">
        <ele>1507.4846191</ele>
        <time>2010-10-30T07:08:30Z</time>
      </trkpt>
      <trkpt lat="43.98024" lon="6.62559">
        <ele>1507.0039062</ele>
        <time>2010-10-30T07:08:39Z</time>
      </trkpt>
      <trkpt lat="43.98031" lon="6.62551">
        <ele>1512.2910156</ele>
        <time>2010-10-30T07:08:47Z</time>
      </trkpt>
      <trkpt lat="43.98032" lon="6.6255">
        <ele>1512.2910156</ele>
        <time>2010-10-30T07:08:48Z</time>
      </trkpt>
      <trkpt lat="43.98038" lon="6.62543">
        <ele>1514.6943359</ele>
        <time>2010-10-30T07:08:55Z</time>
      </trkpt>
      <trkpt lat="43.9804" lon="6.62537">
        <ele>1515.6557617</ele>
        <time>2010-10-30T07:08:59Z</time>
      </trkpt>
      <trkpt lat="43.98046" lon="6.62525">
        <ele>1518.059082</ele>
        <time>2010-10-30T07:09:08Z</time>
      </trkpt>
      <trkpt lat="43.98053" lon="6.62511">
        <ele>1520.4624023</ele>
        <time>2010-10-30T07:09:17Z</time>
      </trkpt>
      <trkpt lat="43.98056" lon="6.62509">
        <ele>1521.9042969</ele>
        <time>2010-10-30T07:09:19Z</time>
      </trkpt>
      <trkpt lat="43.98058" lon="6.62503">
        <ele>1522.8657227</ele>
        <time>2010-10-30T07:09:23Z</time>
      </trkpt>
      <trkpt lat="43.9806" lon="6.625">
        <ele>1523.8269043</ele>
        <time>2010-10-30T07:09:25Z</time>
      </trkpt>
      <trkpt lat="43.98067" lon="6.62493">
        <ele>1522.3850098</ele>
        <time>2010-10-30T07:09:32Z</time>
      </trkpt>
      <trkpt lat="43.98074" lon="6.62487">
        <ele>1523.8269043</ele>
        <time>2010-10-30T07:09:39Z</time>
      </trkpt>
      <trkpt lat="43.98079" lon="6.62486">
        <ele>1522.3850098</ele>
        <time>2010-10-30T07:09:45Z</time>
      </trkpt>
      <trkpt lat="43.98079" lon="6.62488">
        <ele>1519.9816895</ele>
        <time>2010-10-30T07:10:02Z</time>
      </trkpt>
      <trkpt lat="43.98078" lon="6.62485">
        <ele>1519.9816895</ele>
        <time>2010-10-30T07:12:14Z</time>
      </trkpt>
      <trkpt lat="43.98077" lon="6.62484">
        <ele>1525.2687988</ele>
        <time>2010-10-30T07:13:17Z</time>
      </trkpt>
      <trkpt lat="43.98076" lon="6.62484">
        <ele>1524.7883301</ele>
        <time>2010-10-30T07:13:23Z</time>
      </trkpt>
      <trkpt lat="43.98076" lon="6.62486">
        <ele>1524.3076172</ele>
        <time>2010-10-30T07:13:28Z</time>
      </trkpt>
      <trkpt lat="43.98079" lon="6.62487">
        <ele>1521.9042969</ele>
        <time>2010-10-30T07:14:09Z</time>
      </trkpt>
      <trkpt lat="43.98087" lon="6.62476">
        <ele>1522.3850098</ele>
        <time>2010-10-30T07:14:14Z</time>
      </trkpt>
      <trkpt lat="43.98094" lon="6.62472">
        <ele>1523.8269043</ele>
        <time>2010-10-30T07:14:17Z</time>
      </trkpt>
      <trkpt lat="43.98113" lon="6.62457">
        <ele>1525.7495117</ele>
        <time>2010-10-30T07:14:24Z</time>
      </trkpt>
      <trkpt lat="43.98126" lon="6.62448">
        <ele>1525.7495117</ele>
        <time>2010-10-30T07:14:29Z</time>
      </trkpt>
      <trkpt lat="43.9814" lon="6.62436">
        <ele>1525.7495117</ele>
        <time>2010-10-30T07:14:34Z</time>
      </trkpt>
      <trkpt lat="43.98156" lon="6.62411">
        <ele>1524.3076172</ele>
        <time>2010-10-30T07:14:40Z</time>
      </trkpt>
      <trkpt lat="43.98162" lon="6.62403">
        <ele>1523.8269043</ele>
        <time>2010-10-30T07:14:42Z</time>
      </trkpt>
      <trkpt lat="43.98182" lon="6.62392">
        <ele>1522.3850098</ele>
        <time>2010-10-30T07:14:46Z</time>
      </trkpt>
      <trkpt lat="43.98229" lon="6.62381">
        <ele>1516.6171875</ele>
        <time>2010-10-30T07:14:53Z</time>
      </trkpt>
      <trkpt lat="43.98244" lon="6.62375">
        <ele>1514.6943359</ele>
        <time>2010-10-30T07:14:55Z</time>
      </trkpt>
      <trkpt lat="43.98275" lon="6.62375">
        <ele>1510.8491211</ele>
        <time>2010-10-30T07:14:59Z</time>
      </trkpt>
      <trkpt lat="43.9831" lon="6.62379">
        <ele>1507.0039062</ele>
        <time>2010-10-30T07:15:04Z</time>
      </trkpt>
      <trkpt lat="43.98346" lon="6.62367">
        <ele>1505.0812988</ele>
        <time>2010-10-30T07:15:10Z</time>
      </trkpt>
      <trkpt lat="43.9835" lon="6.62365">
        <ele>1505.0812988</ele>
        <time>2010-10-30T07:15:11Z</time>
      </trkpt>
      <trkpt lat="43.98381" lon="6.62354">
        <ele>1505.0812988</ele>
        <time>2010-10-30T07:15:19Z</time>
      </trkpt>
      <trkpt lat="43.98403" lon="6.62349">
        <ele>1505.0812988</ele>
        <time>2010-10-30T07:15:25Z</time>
      </trkpt>
      <trkpt lat="43.98407" lon="6.62348">
        <ele>1505.0812988</ele>
        <time>2010-10-30T07:15:26Z</time>
      </trkpt>
      <trkpt lat="43.98428" lon="6.62334">
        <ele>1502.1972656</ele>
        <time>2010-10-30T07:15:31Z</time>
      </trkpt>
      <trkpt lat="43.98445" lon="6.62323">
        <ele>1501.236084</ele>
        <time>2010-10-30T07:15:36Z</time>
      </trkpt>
      <trkpt lat="43.98453" lon="6.62312">
        <ele>1501.236084</ele>
        <time>2010-10-30T07:15:41Z</time>
      </trkpt>
      <trkpt lat="43.98463" lon="6.62308">
        <ele>1502.6779785</ele>
        <time>2010-10-30T07:15:46Z</time>
      </trkpt>
      <trkpt lat="43.98476" lon="6.6231">
        <ele>1505.0812988</ele>
        <time>2010-10-30T07:15:52Z</time>
      </trkpt>
      <trkpt lat="43.98488" lon="6.62314">
        <ele>1507.0039062</ele>
        <time>2010-10-30T07:15:58Z</time>
      </trkpt>
      <trkpt lat="43.98505" lon="6.62323">
        <ele>1508.9265137</ele>
        <time>2010-10-30T07:16:06Z</time>
      </trkpt>
      <trkpt lat="43.98523" lon="6.62331">
        <ele>1512.2910156</ele>
        <time>2010-10-30T07:16:15Z</time>
      </trkpt>
      <trkpt lat="43.98537" lon="6.62334">
        <ele>1512.7717285</ele>
        <time>2010-10-30T07:16:22Z</time>
      </trkpt>
      <trkpt lat="43.98551" lon="6.62332">
        <ele>1515.6557617</ele>
        <time>2010-10-30T07:16:29Z</time>
      </trkpt>
      <trkpt lat="43.98566" lon="6.62324">
        <ele>1516.1364746</ele>
        <time>2010-10-30T07:16:37Z</time>
      </trkpt>
      <trkpt lat="43.98582" lon="6.62311">
        <ele>1518.059082</ele>
        <time>2010-10-30T07:16:46Z</time>
      </trkpt>
      <trkpt lat="43.98595" lon="6.62303">
        <ele>1520.9431152</ele>
        <time>2010-10-30T07:16:53Z</time>
      </trkpt>
      <trkpt lat="43.98608" lon="6.62296">
        <ele>1522.3850098</ele>
        <time>2010-10-30T07:17:00Z</time>
      </trkpt>
      <trkpt lat="43.98625" lon="6.62296">
        <ele>1522.3850098</ele>
        <time>2010-10-30T07:17:08Z</time>
      </trkpt>
      <trkpt lat="43.98634" lon="6.62307">
        <ele>1522.3850098</ele>
        <time>2010-10-30T07:17:14Z</time>
      </trkpt>
      <trkpt lat="43.98638" lon="6.62326">
        <ele>1525.2687988</ele>
        <time>2010-10-30T07:17:22Z</time>
      </trkpt>
      <trkpt lat="43.98644" lon="6.6234">
        <ele>1525.2687988</ele>
        <time>2010-10-30T07:17:28Z</time>
      </trkpt>
      <trkpt lat="43.98653" lon="6.62355">
        <ele>1525.7495117</ele>
        <time>2010-10-30T07:17:35Z</time>
      </trkpt>
      <trkpt lat="43.98662" lon="6.62371">
        <ele>1529.1140137</ele>
        <time>2010-10-30T07:17:43Z</time>
      </trkpt>
      <trkpt lat="43.98664" lon="6.62375">
        <ele>1529.5947266</ele>
        <time>2010-10-30T07:17:45Z</time>
      </trkpt>
      <trkpt lat="43.98665" lon="6.62377">
        <ele>1529.5947266</ele>
        <time>2010-10-30T07:17:51Z</time>
      </trkpt>
      <trkpt lat="43.98666" lon="6.62378">
        <ele>1528.152832</ele>
        <time>2010-10-30T07:18:05Z</time>
      </trkpt>
      <trkpt lat="43.98665" lon="6.62377">
        <ele>1533.4401855</ele>
        <time>2010-10-30T07:18:18Z</time>
      </trkpt>
      <trkpt lat="43.98674" lon="6.62386">
        <ele>1531.517334</ele>
        <time>2010-10-30T07:18:23Z</time>
      </trkpt>
      <trkpt lat="43.98686" lon="6.62397">
        <ele>1531.517334</ele>
        <time>2010-10-30T07:18:28Z</time>
      </trkpt>
      <trkpt lat="43.98705" lon="6.62401">
        <ele>1531.517334</ele>
        <time>2010-10-30T07:18:35Z</time>
      </trkpt>
      <trkpt lat="43.98725" lon="6.62398">
        <ele>1531.517334</ele>
        <time>2010-10-30T07:18:43Z</time>
      </trkpt>
      <trkpt lat="43.98746" lon="6.62396">
        <ele>1532.4790039</ele>
        <time>2010-10-30T07:18:52Z</time>
      </trkpt>
      <trkpt lat="43.98766" lon="6.62401">
        <ele>1534.4016113</ele>
        <time>2010-10-30T07:19:01Z</time>
      </trkpt>
      <trkpt lat="43.98779" lon="6.62409">
        <ele>1533.9208984</ele>
        <time>2010-10-30T07:19:07Z</time>
      </trkpt>
      <trkpt lat="43.98798" lon="6.62418">
        <ele>1534.8823242</ele>
        <time>2010-10-30T07:19:16Z</time>
      </trkpt>
      <trkpt lat="43.98817" lon="6.62425">
        <ele>1537.7661133</ele>
        <time>2010-10-30T07:19:25Z</time>
      </trkpt>
      <trkpt lat="43.9883" lon="6.62437">
        <ele>1537.7661133</ele>
        <time>2010-10-30T07:19:32Z</time>
      </trkpt>
      <trkpt lat="43.9883" lon="6.62449">
        <ele>1539.2080078</ele>
        <time>2010-10-30T07:19:37Z</time>
      </trkpt>
      <trkpt lat="43.98827" lon="6.62466">
        <ele>1543.5339355</ele>
        <time>2010-10-30T07:19:43Z</time>
      </trkpt>
      <trkpt lat="43.98827" lon="6.62485">
        <ele>1545.9372559</ele>
        <time>2010-10-30T07:19:50Z</time>
      </trkpt>
      <trkpt lat="43.98831" lon="6.62513">
        <ele>1549.302002</ele>
        <time>2010-10-30T07:19:59Z</time>
      </trkpt>
      <trkpt lat="43.98838" lon="6.62531">
        <ele>1553.1472168</ele>
        <time>2010-10-30T07:20:07Z</time>
      </trkpt>
      <trkpt lat="43.98843" lon="6.62551">
        <ele>1557.9538574</ele>
        <time>2010-10-30T07:20:16Z</time>
      </trkpt>
      <trkpt lat="43.98849" lon="6.62573">
        <ele>1556.0310059</ele>
        <time>2010-10-30T07:20:24Z</time>
      </trkpt>
      <trkpt lat="43.98855" lon="6.62595">
        <ele>1554.1086426</ele>
        <time>2010-10-30T07:20:32Z</time>
      </trkpt>
      <trkpt lat="43.9886" lon="6.62609">
        <ele>1555.5505371</ele>
        <time>2010-10-30T07:20:38Z</time>
      </trkpt>
      <trkpt lat="43.9887" lon="6.62621">
        <ele>1557.9538574</ele>
        <time>2010-10-30T07:20:45Z</time>
      </trkpt>
      <trkpt lat="43.98885" lon="6.62626">
        <ele>1556.9924316</ele>
        <time>2010-10-30T07:20:53Z</time>
      </trkpt>
      <trkpt lat="43.989" lon="6.62624">
        <ele>1556.0310059</ele>
        <time>2010-10-30T07:21:00Z</time>
      </trkpt>
      <trkpt lat="43.98916" lon="6.62622">
        <ele>1556.0310059</ele>
        <time>2010-10-30T07:21:08Z</time>
      </trkpt>
      <trkpt lat="43.98935" lon="6.62615">
        <ele>1556.9924316</ele>
        <time>2010-10-30T07:21:18Z</time>
      </trkpt>
      <trkpt lat="43.9895" lon="6.62607">
        <ele>1558.4343262</ele>
        <time>2010-10-30T07:21:27Z</time>
      </trkpt>
      <trkpt lat="43.9897" lon="6.62597">
        <ele>1560.8376465</ele>
        <time>2010-10-30T07:21:39Z</time>
      </trkpt>
      <trkpt lat="43.98986" lon="6.62589">
        <ele>1562.7602539</ele>
        <time>2010-10-30T07:21:49Z</time>
      </trkpt>
      <trkpt lat="43.98999" lon="6.62584">
        <ele>1564.2023926</ele>
        <time>2010-10-30T07:21:57Z</time>
      </trkpt>
      <trkpt lat="43.99014" lon="6.62577">
        <ele>1566.6057129</ele>
        <time>2010-10-30T07:22:06Z</time>
      </trkpt>
      <trkpt lat="43.99026" lon="6.62571">
        <ele>1568.0476074</ele>
        <time>2010-10-30T07:22:13Z</time>
      </trkpt>
      <trkpt lat="43.99041" lon="6.6256">
        <ele>1569.9702148</ele>
        <time>2010-10-30T07:22:23Z</time>
      </trkpt>
      <trkpt lat="43.99052" lon="6.62554">
        <ele>1570.9316406</ele>
        <time>2010-10-30T07:22:30Z</time>
      </trkpt>
      <trkpt lat="43.9906" lon="6.62549">
        <ele>1573.3349609</ele>
        <time>2010-10-30T07:22:36Z</time>
      </trkpt>
      <trkpt lat="43.99074" lon="6.62541">
        <ele>1573.3349609</ele>
        <time>2010-10-30T07:22:45Z</time>
      </trkpt>
      <trkpt lat="43.99085" lon="6.62535">
        <ele>1573.8154297</ele>
        <time>2010-10-30T07:22:52Z</time>
      </trkpt>
      <trkpt lat="43.991" lon="6.62531">
        <ele>1574.2961426</ele>
        <time>2010-10-30T07:23:01Z</time>
      </trkpt>
      <trkpt lat="43.99111" lon="6.62525">
        <ele>1575.2573242</ele>
        <time>2010-10-30T07:23:07Z</time>
      </trkpt>
      <trkpt lat="43.99113" lon="6.62521">
        <ele>1575.2573242</ele>
        <time>2010-10-30T07:23:09Z</time>
      </trkpt>
      <trkpt lat="43.99108" lon="6.6251">
        <ele>1577.1801758</ele>
        <time>2010-10-30T07:23:14Z</time>
      </trkpt>
      <trkpt lat="43.99106" lon="6.6251">
        <ele>1577.1801758</ele>
        <time>2010-10-30T07:23:15Z</time>
      </trkpt>
      <trkpt lat="43.99082" lon="6.62513">
        <ele>1579.583252</ele>
        <time>2010-10-30T07:23:25Z</time>
      </trkpt>
      <trkpt lat="43.99067" lon="6.62514">
        <ele>1579.1025391</ele>
        <time>2010-10-30T07:23:32Z</time>
      </trkpt>
      <trkpt lat="43.99049" lon="6.62511">
        <ele>1580.064209</ele>
        <time>2010-10-30T07:23:40Z</time>
      </trkpt>
      <trkpt lat="43.99031" lon="6.62502">
        <ele>1581.9868164</ele>
        <time>2010-10-30T07:23:49Z</time>
      </trkpt>
      <trkpt lat="43.99017" lon="6.62491">
        <ele>1583.4287109</ele>
        <time>2010-10-30T07:23:57Z</time>
      </trkpt>
      <trkpt lat="43.99007" lon="6.6248">
        <ele>1586.3127441</ele>
        <time>2010-10-30T07:24:03Z</time>
      </trkpt>
      <trkpt lat="43.98997" lon="6.62462">
        <ele>1589.1965332</ele>
        <time>2010-10-30T07:24:11Z</time>
      </trkpt>
      <trkpt lat="43.98996" lon="6.62442">
        <ele>1588.2353516</ele>
        <time>2010-10-30T07:24:18Z</time>
      </trkpt>
      <trkpt lat="43.99002" lon="6.62427">
        <ele>1588.7160645</ele>
        <time>2010-10-30T07:24:25Z</time>
      </trkpt>
      <trkpt lat="43.99012" lon="6.62406">
        <ele>1588.7160645</ele>
        <time>2010-10-30T07:24:34Z</time>
      </trkpt>
      <trkpt lat="43.9902" lon="6.62388">
        <ele>1589.6772461</ele>
        <time>2010-10-30T07:24:42Z</time>
      </trkpt>
      <trkpt lat="43.99029" lon="6.62371">
        <ele>1589.6772461</ele>
        <time>2010-10-30T07:24:50Z</time>
      </trkpt>
      <trkpt lat="43.99031" lon="6.62354">
        <ele>1590.6384277</ele>
        <time>2010-10-30T07:24:56Z</time>
      </trkpt>
      <trkpt lat="43.99018" lon="6.62342">
        <ele>1592.0805664</ele>
        <time>2010-10-30T07:25:03Z</time>
      </trkpt>
      <trkpt lat="43.98999" lon="6.62336">
        <ele>1595.4450684</ele>
        <time>2010-10-30T07:25:12Z</time>
      </trkpt>
      <trkpt lat="43.98985" lon="6.62331">
        <ele>1596.887207</ele>
        <time>2010-10-30T07:25:19Z</time>
      </trkpt>
      <trkpt lat="43.9897" lon="6.62326">
        <ele>1599.2905273</ele>
        <time>2010-10-30T07:25:27Z</time>
      </trkpt>
      <trkpt lat="43.98951" lon="6.6232">
        <ele>1600.7324219</ele>
        <time>2010-10-30T07:25:36Z</time>
      </trkpt>
      <trkpt lat="43.98933" lon="6.62312">
        <ele>1600.2519531</ele>
        <time>2010-10-30T07:25:44Z</time>
      </trkpt>
      <trkpt lat="43.98916" lon="6.62301">
        <ele>1602.1743164</ele>
        <time>2010-10-30T07:25:52Z</time>
      </trkpt>
      <trkpt lat="43.98898" lon="6.62285">
        <ele>1605.5390625</ele>
        <time>2010-10-30T07:26:02Z</time>
      </trkpt>
      <trkpt lat="43.98881" lon="6.62267">
        <ele>1606.980957</ele>
        <time>2010-10-30T07:26:11Z</time>
      </trkpt>
      <trkpt lat="43.98868" lon="6.62248">
        <ele>1606.980957</ele>
        <time>2010-10-30T07:26:19Z</time>
      </trkpt>
      <trkpt lat="43.98857" lon="6.62227">
        <ele>1607.9423828</ele>
        <time>2010-10-30T07:26:27Z</time>
      </trkpt>
      <trkpt lat="43.98848" lon="6.62205">
        <ele>1610.345459</ele>
        <time>2010-10-30T07:26:35Z</time>
      </trkpt>
      <trkpt lat="43.98841" lon="6.62177">
        <ele>1611.3068848</ele>
        <time>2010-10-30T07:26:44Z</time>
      </trkpt>
      <trkpt lat="43.98837" lon="6.62148">
        <ele>1611.3068848</ele>
        <time>2010-10-30T07:26:53Z</time>
      </trkpt>
      <trkpt lat="43.98836" lon="6.6212">
        <ele>1610.345459</ele>
        <time>2010-10-30T07:27:01Z</time>
      </trkpt>
      <trkpt lat="43.9884" lon="6.6209">
        <ele>1610.345459</ele>
        <time>2010-10-30T07:27:10Z</time>
      </trkpt>
      <trkpt lat="43.98844" lon="6.62064">
        <ele>1609.8647461</ele>
        <time>2010-10-30T07:27:18Z</time>
      </trkpt>
      <trkpt lat="43.98848" lon="6.62041">
        <ele>1611.7875977</ele>
        <time>2010-10-30T07:27:26Z</time>
      </trkpt>
      <trkpt lat="43.98853" lon="6.6202">
        <ele>1612.2683105</ele>
        <time>2010-10-30T07:27:33Z</time>
      </trkpt>
      <trkpt lat="43.98859" lon="6.61998">
        <ele>1612.7490234</ele>
        <time>2010-10-30T07:27:41Z</time>
      </trkpt>
      <trkpt lat="43.98868" lon="6.61981">
        <ele>1612.7490234</ele>
        <time>2010-10-30T07:27:48Z</time>
      </trkpt>
      <trkpt lat="43.98883" lon="6.61968">
        <ele>1612.7490234</ele>
        <time>2010-10-30T07:27:56Z</time>
      </trkpt>
      <trkpt lat="43.98897" lon="6.61957">
        <ele>1613.7102051</ele>
        <time>2010-10-30T07:28:03Z</time>
      </trkpt>
      <trkpt lat="43.98908" lon="6.61936">
        <ele>1616.5942383</ele>
        <time>2010-10-30T07:28:11Z</time>
      </trkpt>
      <trkpt lat="43.98913" lon="6.61915">
        <ele>1619.9587402</ele>
        <time>2010-10-30T07:28:18Z</time>
      </trkpt>
      <trkpt lat="43.98919" lon="6.61889">
        <ele>1623.3234863</ele>
        <time>2010-10-30T07:28:27Z</time>
      </trkpt>
      <trkpt lat="43.98932" lon="6.61863">
        <ele>1624.7653809</ele>
        <time>2010-10-30T07:28:37Z</time>
      </trkpt>
      <trkpt lat="43.98947" lon="6.61842">
        <ele>1622.8427734</ele>
        <time>2010-10-30T07:28:46Z</time>
      </trkpt>
      <trkpt lat="43.98961" lon="6.61822">
        <ele>1621.4006348</ele>
        <time>2010-10-30T07:28:55Z</time>
      </trkpt>
      <trkpt lat="43.9897" lon="6.61809">
        <ele>1621.8813477</ele>
        <time>2010-10-30T07:29:02Z</time>
      </trkpt>
      <trkpt lat="43.98976" lon="6.61802">
        <ele>1621.8813477</ele>
        <time>2010-10-30T07:29:09Z</time>
      </trkpt>
      <trkpt lat="43.98976" lon="6.61803">
        <ele>1628.6108398</ele>
        <time>2010-10-30T07:29:24Z</time>
      </trkpt>
      <trkpt lat="43.98975" lon="6.61799">
        <ele>1631.0141602</ele>
        <time>2010-10-30T07:29:29Z</time>
      </trkpt>
      <trkpt lat="43.98983" lon="6.61785">
        <ele>1631.4946289</ele>
        <time>2010-10-30T07:29:35Z</time>
      </trkpt>
      <trkpt lat="43.9899" lon="6.61789">
        <ele>1631.9753418</ele>
        <time>2010-10-30T07:29:39Z</time>
      </trkpt>
      <trkpt lat="43.98988" lon="6.61802">
        <ele>1633.8979492</ele>
        <time>2010-10-30T07:29:43Z</time>
      </trkpt>
      <trkpt lat="43.98976" lon="6.61828">
        <ele>1634.3786621</ele>
        <time>2010-10-30T07:29:52Z</time>
      </trkpt>
      <trkpt lat="43.98968" lon="6.61852">
        <ele>1636.3012695</ele>
        <time>2010-10-30T07:30:00Z</time>
      </trkpt>
      <trkpt lat="43.98962" lon="6.61882">
        <ele>1644.4724121</ele>
        <time>2010-10-30T07:30:09Z</time>
      </trkpt>
      <trkpt lat="43.98962" lon="6.61899">
        <ele>1646.3952637</ele>
        <time>2010-10-30T07:30:14Z</time>
      </trkpt>
      <trkpt lat="43.98963" lon="6.61921">
        <ele>1654.0856934</ele>
        <time>2010-10-30T07:30:21Z</time>
      </trkpt>
      <trkpt lat="43.98965" lon="6.61937">
        <ele>1660.8149414</ele>
        <time>2010-10-30T07:30:27Z</time>
      </trkpt>
      <trkpt lat="43.98965" lon="6.61957">
        <ele>1655.046875</ele>
        <time>2010-10-30T07:30:33Z</time>
      </trkpt>
      <trkpt lat="43.98962" lon="6.61975">
        <ele>1651.682373</ele>
        <time>2010-10-30T07:30:39Z</time>
      </trkpt>
      <trkpt lat="43.98963" lon="6.61996">
        <ele>1653.6049805</ele>
        <time>2010-10-30T07:30:46Z</time>
      </trkpt>
      <trkpt lat="43.98971" lon="6.6202">
        <ele>1656.4887695</ele>
        <time>2010-10-30T07:30:54Z</time>
      </trkpt>
      <trkpt lat="43.98979" lon="6.6204">
        <ele>1658.8920898</ele>
        <time>2010-10-30T07:31:02Z</time>
      </trkpt>
      <trkpt lat="43.98993" lon="6.62062">
        <ele>1657.9309082</ele>
        <time>2010-10-30T07:31:12Z</time>
      </trkpt>
      <trkpt lat="43.99007" lon="6.62071">
        <ele>1654.0856934</ele>
        <time>2010-10-30T07:31:18Z</time>
      </trkpt>
      <trkpt lat="43.99023" lon="6.62082">
        <ele>1651.682373</ele>
        <time>2010-10-30T07:31:26Z</time>
      </trkpt>
      <trkpt lat="43.99041" lon="6.62093">
        <ele>1647.8371582</ele>
        <time>2010-10-30T07:31:35Z</time>
      </trkpt>
      <trkpt lat="43.99056" lon="6.62101">
        <ele>1647.3564453</ele>
        <time>2010-10-30T07:31:43Z</time>
      </trkpt>
      <trkpt lat="43.99073" lon="6.62109">
        <ele>1649.2790527</ele>
        <time>2010-10-30T07:31:52Z</time>
      </trkpt>
      <trkpt lat="43.99091" lon="6.62116">
        <ele>1654.5661621</ele>
        <time>2010-10-30T07:32:02Z</time>
      </trkpt>
      <trkpt lat="43.99106" lon="6.62117">
        <ele>1656.4887695</ele>
        <time>2010-10-30T07:32:10Z</time>
      </trkpt>
      <trkpt lat="43.99119" lon="6.62118">
        <ele>1657.4501953</ele>
        <time>2010-10-30T07:32:17Z</time>
      </trkpt>
      <trkpt lat="43.99131" lon="6.62121">
        <ele>1657.9309082</ele>
        <time>2010-10-30T07:32:24Z</time>
      </trkpt>
      <trkpt lat="43.99144" lon="6.62121">
        <ele>1658.411377</ele>
        <time>2010-10-30T07:32:31Z</time>
      </trkpt>
      <trkpt lat="43.99164" lon="6.62121">
        <ele>1659.3728027</ele>
        <time>2010-10-30T07:32:41Z</time>
      </trkpt>
      <trkpt lat="43.99181" lon="6.62122">
        <ele>1661.7763672</ele>
        <time>2010-10-30T07:32:50Z</time>
      </trkpt>
      <trkpt lat="43.99197" lon="6.62122">
        <ele>1663.6987305</ele>
        <time>2010-10-30T07:32:59Z</time>
      </trkpt>
      <trkpt lat="43.99216" lon="6.6212">
        <ele>1664.1794434</ele>
        <time>2010-10-30T07:33:09Z</time>
      </trkpt>
      <trkpt lat="43.9923" lon="6.62115">
        <ele>1665.621582</ele>
        <time>2010-10-30T07:33:17Z</time>
      </trkpt>
      <trkpt lat="43.99241" lon="6.62115">
        <ele>1666.5827637</ele>
        <time>2010-10-30T07:33:23Z</time>
      </trkpt>
      <trkpt lat="43.99243" lon="6.62114">
        <ele>1667.0634766</ele>
        <time>2010-10-30T07:33:24Z</time>
      </trkpt>
      <trkpt lat="43.9925" lon="6.62111">
        <ele>1668.5053711</ele>
        <time>2010-10-30T07:33:30Z</time>
      </trkpt>
      <trkpt lat="43.99253" lon="6.62113">
        <ele>1670.4279785</ele>
        <time>2010-10-30T07:33:35Z</time>
      </trkpt>
      <trkpt lat="43.99253" lon="6.62114">
        <ele>1670.4279785</ele>
        <time>2010-10-30T07:33:39Z</time>
      </trkpt>
      <trkpt lat="43.9925" lon="6.6211">
        <ele>1677.1574707</ele>
        <time>2010-10-30T07:34:29Z</time>
      </trkpt>
      <trkpt lat="43.99247" lon="6.62097">
        <ele>1677.6379395</ele>
        <time>2010-10-30T07:34:35Z</time>
      </trkpt>
      <trkpt lat="43.99238" lon="6.62092">
        <ele>1676.1960449</ele>
        <time>2010-10-30T07:34:40Z</time>
      </trkpt>
      <trkpt lat="43.9923" lon="6.62091">
        <ele>1674.2731934</ele>
        <time>2010-10-30T07:34:46Z</time>
      </trkpt>
      <trkpt lat="43.99231" lon="6.62092">
        <ele>1674.2731934</ele>
        <time>2010-10-30T07:34:52Z</time>
      </trkpt>
      <trkpt lat="43.99231" lon="6.62094">
        <ele>1676.6767578</ele>
        <time>2010-10-30T07:35:13Z</time>
      </trkpt>
      <trkpt lat="43.99231" lon="6.62095">
        <ele>1677.6379395</ele>
        <time>2010-10-30T07:35:22Z</time>
      </trkpt>
      <trkpt lat="43.99229" lon="6.62096">
        <ele>1677.6379395</ele>
        <time>2010-10-30T07:35:26Z</time>
      </trkpt>
      <trkpt lat="43.99218" lon="6.62088">
        <ele>1675.234375</ele>
        <time>2010-10-30T07:35:32Z</time>
      </trkpt>
      <trkpt lat="43.99199" lon="6.62075">
        <ele>1674.7539062</ele>
        <time>2010-10-30T07:35:41Z</time>
      </trkpt>
      <trkpt lat="43.99184" lon="6.62059">
        <ele>1676.6767578</ele>
        <time>2010-10-30T07:35:49Z</time>
      </trkpt>
      <trkpt lat="43.9917" lon="6.62036">
        <ele>1677.6379395</ele>
        <time>2010-10-30T07:35:58Z</time>
      </trkpt>
      <trkpt lat="43.99158" lon="6.62011">
        <ele>1680.0412598</ele>
        <time>2010-10-30T07:36:08Z</time>
      </trkpt>
      <trkpt lat="43.99149" lon="6.61987">
        <ele>1681.4831543</ele>
        <time>2010-10-30T07:36:17Z</time>
      </trkpt>
      <trkpt lat="43.99147" lon="6.61966">
        <ele>1682.4445801</ele>
        <time>2010-10-30T07:36:24Z</time>
      </trkpt>
      <trkpt lat="43.9915" lon="6.61941">
        <ele>1683.8864746</ele>
        <time>2010-10-30T07:36:32Z</time>
      </trkpt>
      <trkpt lat="43.99157" lon="6.61914">
        <ele>1684.8479004</ele>
        <time>2010-10-30T07:36:41Z</time>
      </trkpt>
      <trkpt lat="43.99168" lon="6.61886">
        <ele>1685.3283691</ele>
        <time>2010-10-30T07:36:51Z</time>
      </trkpt>
      <trkpt lat="43.99178" lon="6.61862">
        <ele>1685.809082</ele>
        <time>2010-10-30T07:37:00Z</time>
      </trkpt>
      <trkpt lat="43.99187" lon="6.61836">
        <ele>1687.2509766</ele>
        <time>2010-10-30T07:37:09Z</time>
      </trkpt>
      <trkpt lat="43.99198" lon="6.61803">
        <ele>1688.2124023</ele>
        <time>2010-10-30T07:37:20Z</time>
      </trkpt>
      <trkpt lat="43.99205" lon="6.61778">
        <ele>1687.2509766</ele>
        <time>2010-10-30T07:37:28Z</time>
      </trkpt>
      <trkpt lat="43.99204" lon="6.61755">
        <ele>1686.7702637</ele>
        <time>2010-10-30T07:37:35Z</time>
      </trkpt>
      <trkpt lat="43.99197" lon="6.61728">
        <ele>1686.7702637</ele>
        <time>2010-10-30T07:37:44Z</time>
      </trkpt>
      <trkpt lat="43.99194" lon="6.61703">
        <ele>1688.2124023</ele>
        <time>2010-10-30T07:37:52Z</time>
      </trkpt>
      <trkpt lat="43.99196" lon="6.61681">
        <ele>1691.0961914</ele>
        <time>2010-10-30T07:37:59Z</time>
      </trkpt>
      <trkpt lat="43.99202" lon="6.61655">
        <ele>1692.0578613</ele>
        <time>2010-10-30T07:38:07Z</time>
      </trkpt>
      <trkpt lat="43.9921" lon="6.61626">
        <ele>1695.4223633</ele>
        <time>2010-10-30T07:38:15Z</time>
      </trkpt>
      <trkpt lat="43.99221" lon="6.61595">
        <ele>1695.4223633</ele>
        <time>2010-10-30T07:38:24Z</time>
      </trkpt>
      <trkpt lat="43.99232" lon="6.61592">
        <ele>1697.8256836</ele>
        <time>2010-10-30T07:38:29Z</time>
      </trkpt>
      <trkpt lat="43.99239" lon="6.6159">
        <ele>1699.2675781</ele>
        <time>2010-10-30T07:38:34Z</time>
      </trkpt>
      <trkpt lat="43.99239" lon="6.61591">
        <ele>1700.2290039</ele>
        <time>2010-10-30T07:38:40Z</time>
      </trkpt>
      <trkpt lat="43.99238" lon="6.61594">
        <ele>1701.6708984</ele>
        <time>2010-10-30T07:46:43Z</time>
      </trkpt>
      <trkpt lat="43.99235" lon="6.61602">
        <ele>1701.6708984</ele>
        <time>2010-10-30T07:46:47Z</time>
      </trkpt>
      <trkpt lat="43.99234" lon="6.61609">
        <ele>1701.6708984</ele>
        <time>2010-10-30T07:46:52Z</time>
      </trkpt>
      <trkpt lat="43.99233" lon="6.61614">
        <ele>1702.1513672</ele>
        <time>2010-10-30T07:47:02Z</time>
      </trkpt>
      <trkpt lat="43.99232" lon="6.61639">
        <ele>1703.5935059</ele>
        <time>2010-10-30T07:47:09Z</time>
      </trkpt>
      <trkpt lat="43.99233" lon="6.61645">
        <ele>1703.5935059</ele>
        <time>2010-10-30T07:47:11Z</time>
      </trkpt>
      <trkpt lat="43.99237" lon="6.61655">
        <ele>1703.5935059</ele>
        <time>2010-10-30T07:47:15Z</time>
      </trkpt>
      <trkpt lat="43.99238" lon="6.61663">
        <ele>1705.0354004</ele>
        <time>2010-10-30T07:47:17Z</time>
      </trkpt>
      <trkpt lat="43.99255" lon="6.61688">
        <ele>1705.5161133</ele>
        <time>2010-10-30T07:47:24Z</time>
      </trkpt>
      <trkpt lat="43.99271" lon="6.61705">
        <ele>1706.4772949</ele>
        <time>2010-10-30T07:47:30Z</time>
      </trkpt>
      <trkpt lat="43.99286" lon="6.61716">
        <ele>1705.996582</ele>
        <time>2010-10-30T07:47:36Z</time>
      </trkpt>
      <trkpt lat="43.99306" lon="6.61724">
        <ele>1705.0354004</ele>
        <time>2010-10-30T07:47:43Z</time>
      </trkpt>
      <trkpt lat="43.99325" lon="6.61736">
        <ele>1704.5546875</ele>
        <time>2010-10-30T07:47:50Z</time>
      </trkpt>
      <trkpt lat="43.99345" lon="6.61747">
        <ele>1705.0354004</ele>
        <time>2010-10-30T07:47:57Z</time>
      </trkpt>
      <trkpt lat="43.99365" lon="6.6176">
        <ele>1705.5161133</ele>
        <time>2010-10-30T07:48:05Z</time>
      </trkpt>
      <trkpt lat="43.99367" lon="6.61761">
        <ele>1705.5161133</ele>
        <time>2010-10-30T07:48:06Z</time>
      </trkpt>
      <trkpt lat="43.99376" lon="6.6176">
        <ele>1705.996582</ele>
        <time>2010-10-30T07:48:12Z</time>
      </trkpt>
      <trkpt lat="43.99376" lon="6.61764">
        <ele>1710.8034668</ele>
        <time>2010-10-30T07:49:03Z</time>
      </trkpt>
      <trkpt lat="43.99387" lon="6.61767">
        <ele>1708.8808594</ele>
        <time>2010-10-30T07:49:07Z</time>
      </trkpt>
      <trkpt lat="43.99408" lon="6.61781">
        <ele>1707.4387207</ele>
        <time>2010-10-30T07:49:12Z</time>
      </trkpt>
      <trkpt lat="43.99435" lon="6.61791">
        <ele>1705.996582</ele>
        <time>2010-10-30T07:49:17Z</time>
      </trkpt>
      <trkpt lat="43.99485" lon="6.61793">
        <ele>1704.5546875</ele>
        <time>2010-10-30T07:49:26Z</time>
      </trkpt>
      <trkpt lat="43.99491" lon="6.61793">
        <ele>1704.0742188</ele>
        <time>2010-10-30T07:49:27Z</time>
      </trkpt>
      <trkpt lat="43.99513" lon="6.61796">
        <ele>1703.5935059</ele>
        <time>2010-10-30T07:49:31Z</time>
      </trkpt>
      <trkpt lat="43.99553" lon="6.61794">
        <ele>1702.6320801</ele>
        <time>2010-10-30T07:49:38Z</time>
      </trkpt>
      <trkpt lat="43.99581" lon="6.61794">
        <ele>1702.6320801</ele>
        <time>2010-10-30T07:49:43Z</time>
      </trkpt>
      <trkpt lat="43.99603" lon="6.61795">
        <ele>1701.6708984</ele>
        <time>2010-10-30T07:49:47Z</time>
      </trkpt>
      <trkpt lat="43.99635" lon="6.61782">
        <ele>1700.7094727</ele>
        <time>2010-10-30T07:49:53Z</time>
      </trkpt>
      <trkpt lat="43.99649" lon="6.61773">
        <ele>1699.748291</ele>
        <time>2010-10-30T07:49:56Z</time>
      </trkpt>
      <trkpt lat="43.99668" lon="6.61745">
        <ele>1698.7868652</ele>
        <time>2010-10-30T07:50:03Z</time>
      </trkpt>
      <trkpt lat="43.99675" lon="6.61719">
        <ele>1701.1901855</ele>
        <time>2010-10-30T07:50:09Z</time>
      </trkpt>
      <trkpt lat="43.99681" lon="6.61688">
        <ele>1705.0354004</ele>
        <time>2010-10-30T07:50:18Z</time>
      </trkpt>
      <trkpt lat="43.99685" lon="6.61665">
        <ele>1708.4001465</ele>
        <time>2010-10-30T07:50:25Z</time>
      </trkpt>
      <trkpt lat="43.99694" lon="6.61628">
        <ele>1710.3227539</ele>
        <time>2010-10-30T07:50:35Z</time>
      </trkpt>
      <trkpt lat="43.99706" lon="6.61602">
        <ele>1711.2841797</ele>
        <time>2010-10-30T07:50:42Z</time>
      </trkpt>
      <trkpt lat="43.9972" lon="6.61579">
        <ele>1711.2841797</ele>
        <time>2010-10-30T07:50:49Z</time>
      </trkpt>
      <trkpt lat="43.99739" lon="6.61553">
        <ele>1710.8034668</ele>
        <time>2010-10-30T07:50:56Z</time>
      </trkpt>
      <trkpt lat="43.99767" lon="6.61531">
        <ele>1708.8808594</ele>
        <time>2010-10-30T07:51:04Z</time>
      </trkpt>
      <trkpt lat="43.99794" lon="6.61513">
        <ele>1705.996582</ele>
        <time>2010-10-30T07:51:10Z</time>
      </trkpt>
      <trkpt lat="43.99821" lon="6.61495">
        <ele>1705.996582</ele>
        <time>2010-10-30T07:51:16Z</time>
      </trkpt>
      <trkpt lat="43.99848" lon="6.61465">
        <ele>1705.5161133</ele>
        <time>2010-10-30T07:51:24Z</time>
      </trkpt>
      <trkpt lat="43.99862" lon="6.61447">
        <ele>1705.996582</ele>
        <time>2010-10-30T07:51:29Z</time>
      </trkpt>
      <trkpt lat="43.99866" lon="6.61424">
        <ele>1705.5161133</ele>
        <time>2010-10-30T07:51:34Z</time>
      </trkpt>
      <trkpt lat="43.99865" lon="6.61419">
        <ele>1705.5161133</ele>
        <time>2010-10-30T07:51:35Z</time>
      </trkpt>
      <trkpt lat="43.99853" lon="6.61385">
        <ele>1703.112793</ele>
        <time>2010-10-30T07:51:42Z</time>
      </trkpt>
      <trkpt lat="43.99843" lon="6.61377">
        <ele>1701.6708984</ele>
        <time>2010-10-30T07:51:45Z</time>
      </trkpt>
      <trkpt lat="43.99825" lon="6.61364">
        <ele>1699.2675781</ele>
        <time>2010-10-30T07:51:49Z</time>
      </trkpt>
      <trkpt lat="43.99815" lon="6.6136">
        <ele>1697.8256836</ele>
        <time>2010-10-30T07:51:51Z</time>
      </trkpt>
      <trkpt lat="43.99798" lon="6.61342">
        <ele>1693.9804688</ele>
        <time>2010-10-30T07:51:55Z</time>
      </trkpt>
      <trkpt lat="43.99795" lon="6.61325">
        <ele>1691.5769043</ele>
        <time>2010-10-30T07:51:58Z</time>
      </trkpt>
      <trkpt lat="43.99796" lon="6.61321">
        <ele>1691.0961914</ele>
        <time>2010-10-30T07:51:59Z</time>
      </trkpt>
      <trkpt lat="43.99796" lon="6.61301">
        <ele>1688.2124023</ele>
        <time>2010-10-30T07:52:04Z</time>
      </trkpt>
      <trkpt lat="43.99794" lon="6.6129">
        <ele>1686.7702637</ele>
        <time>2010-10-30T07:52:06Z</time>
      </trkpt>
      <trkpt lat="43.99789" lon="6.61239">
        <ele>1680.5219727</ele>
        <time>2010-10-30T07:52:13Z</time>
      </trkpt>
      <trkpt lat="43.99791" lon="6.61208">
        <ele>1678.5993652</ele>
        <time>2010-10-30T07:52:17Z</time>
      </trkpt>
      <trkpt lat="43.99785" lon="6.61184">
        <ele>1677.1574707</ele>
        <time>2010-10-30T07:52:22Z</time>
      </trkpt>
      <trkpt lat="43.99782" lon="6.6118">
        <ele>1676.6767578</ele>
        <time>2010-10-30T07:52:23Z</time>
      </trkpt>
      <trkpt lat="43.9977" lon="6.61166">
        <ele>1675.234375</ele>
        <time>2010-10-30T07:52:26Z</time>
      </trkpt>
      <trkpt lat="43.99751" lon="6.61164">
        <ele>1673.3120117</ele>
        <time>2010-10-30T07:52:30Z</time>
      </trkpt>
      <trkpt lat="43.99745" lon="6.61158">
        <ele>1671.869873</ele>
        <time>2010-10-30T07:52:33Z</time>
      </trkpt>
      <trkpt lat="43.99745" lon="6.61143">
        <ele>1670.4279785</ele>
        <time>2010-10-30T07:52:37Z</time>
      </trkpt>
      <trkpt lat="43.99742" lon="6.61125">
        <ele>1667.5439453</ele>
        <time>2010-10-30T07:52:43Z</time>
      </trkpt>
      <trkpt lat="43.99741" lon="6.61119">
        <ele>1665.1408691</ele>
        <time>2010-10-30T07:52:50Z</time>
      </trkpt>
      <trkpt lat="43.99741" lon="6.61117">
        <ele>1664.6601562</ele>
        <time>2010-10-30T07:52:55Z</time>
      </trkpt>
      <trkpt lat="43.99742" lon="6.61117">
        <ele>1664.1794434</ele>
        <time>2010-10-30T07:53:02Z</time>
      </trkpt>
      <trkpt lat="43.99746" lon="6.61102">
        <ele>1663.6987305</ele>
        <time>2010-10-30T07:53:08Z</time>
      </trkpt>
      <trkpt lat="43.9974" lon="6.61097">
        <ele>1662.2568359</ele>
        <time>2010-10-30T07:53:12Z</time>
      </trkpt>
      <trkpt lat="43.99737" lon="6.61097">
        <ele>1661.7763672</ele>
        <time>2010-10-30T07:53:13Z</time>
      </trkpt>
      <trkpt lat="43.99723" lon="6.61096">
        <ele>1658.411377</ele>
        <time>2010-10-30T07:53:18Z</time>
      </trkpt>
      <trkpt lat="43.99712" lon="6.61093">
        <ele>1655.5275879</ele>
        <time>2010-10-30T07:53:22Z</time>
      </trkpt>
      <trkpt lat="43.99699" lon="6.61075">
        <ele>1652.1628418</ele>
        <time>2010-10-30T07:53:29Z</time>
      </trkpt>
      <trkpt lat="43.99694" lon="6.61069">
        <ele>1651.2016602</ele>
        <time>2010-10-30T07:53:32Z</time>
      </trkpt>
      <trkpt lat="43.99692" lon="6.61062">
        <ele>1649.7597656</ele>
        <time>2010-10-30T07:53:37Z</time>
      </trkpt>
      <trkpt lat="43.99692" lon="6.61056">
        <ele>1651.682373</ele>
        <time>2010-10-30T07:53:42Z</time>
      </trkpt>
      <trkpt lat="43.99687" lon="6.6105">
        <ele>1658.411377</ele>
        <time>2010-10-30T07:53:51Z</time>
      </trkpt>
      <trkpt lat="43.99688" lon="6.61041">
        <ele>1659.3728027</ele>
        <time>2010-10-30T07:53:57Z</time>
      </trkpt>
      <trkpt lat="43.99687" lon="6.61039">
        <ele>1659.3728027</ele>
        <time>2010-10-30T07:53:58Z</time>
      </trkpt>
      <trkpt lat="43.99685" lon="6.61032">
        <ele>1660.3342285</ele>
        <time>2010-10-30T07:54:03Z</time>
      </trkpt>
      <trkpt lat="43.99692" lon="6.61024">
        <ele>1660.8149414</ele>
        <time>2010-10-30T07:54:09Z</time>
      </trkpt>
      <trkpt lat="43.99696" lon="6.6102">
        <ele>1660.8149414</ele>
        <time>2010-10-30T07:54:12Z</time>
      </trkpt>
      <trkpt lat="43.99704" lon="6.6101">
        <ele>1660.3342285</ele>
        <time>2010-10-30T07:54:19Z</time>
      </trkpt>
      <trkpt lat="43.99708" lon="6.61007">
        <ele>1659.3728027</ele>
        <time>2010-10-30T07:54:26Z</time>
      </trkpt>
      <trkpt lat="43.99706" lon="6.61006">
        <ele>1659.8532715</ele>
        <time>2010-10-30T07:54:44Z</time>
      </trkpt>
      <trkpt lat="43.99708" lon="6.61007">
        <ele>1661.2956543</ele>
        <time>2010-10-30T07:55:19Z</time>
      </trkpt>
      <trkpt lat="43.99709" lon="6.61009">
        <ele>1660.3342285</ele>
        <time>2010-10-30T07:55:41Z</time>
      </trkpt>
      <trkpt lat="43.99711" lon="6.61009">
        <ele>1655.5275879</ele>
        <time>2010-10-30T07:55:55Z</time>
      </trkpt>
      <trkpt lat="43.99711" lon="6.61007">
        <ele>1656.9694824</ele>
        <time>2010-10-30T07:56:19Z</time>
      </trkpt>
      <trkpt lat="43.99702" lon="6.60999">
        <ele>1657.4501953</ele>
        <time>2010-10-30T07:56:24Z</time>
      </trkpt>
      <trkpt lat="43.99674" lon="6.60995">
        <ele>1654.0856934</ele>
        <time>2010-10-30T07:56:30Z</time>
      </trkpt>
      <trkpt lat="43.99646" lon="6.60998">
        <ele>1651.2016602</ele>
        <time>2010-10-30T07:56:36Z</time>
      </trkpt>
      <trkpt lat="43.99623" lon="6.61009">
        <ele>1648.317627</ele>
        <time>2010-10-30T07:56:41Z</time>
      </trkpt>
      <trkpt lat="43.99612" lon="6.61018">
        <ele>1645.9145508</ele>
        <time>2010-10-30T07:56:45Z</time>
      </trkpt>
      <trkpt lat="43.99613" lon="6.6101">
        <ele>1643.9916992</ele>
        <time>2010-10-30T07:56:48Z</time>
      </trkpt>
      <trkpt lat="43.99618" lon="6.60998">
        <ele>1641.5883789</ele>
        <time>2010-10-30T07:56:51Z</time>
      </trkpt>
      <trkpt lat="43.99627" lon="6.60983">
        <ele>1638.7045898</ele>
        <time>2010-10-30T07:56:54Z</time>
      </trkpt>
      <trkpt lat="43.99647" lon="6.60958">
        <ele>1634.3786621</ele>
        <time>2010-10-30T07:57:00Z</time>
      </trkpt>
      <trkpt lat="43.99674" lon="6.60935">
        <ele>1629.5720215</ele>
        <time>2010-10-30T07:57:06Z</time>
      </trkpt>
      <trkpt lat="43.99704" lon="6.60913">
        <ele>1624.284668</ele>
        <time>2010-10-30T07:57:12Z</time>
      </trkpt>
      <trkpt lat="43.99724" lon="6.60905">
        <ele>1620.920166</ele>
        <time>2010-10-30T07:57:16Z</time>
      </trkpt>
      <trkpt lat="43.9974" lon="6.60894">
        <ele>1617.5554199</ele>
        <time>2010-10-30T07:57:20Z</time>
      </trkpt>
      <trkpt lat="43.99748" lon="6.60888">
        <ele>1616.1135254</ele>
        <time>2010-10-30T07:57:24Z</time>
      </trkpt>
      <trkpt lat="43.99742" lon="6.60886">
        <ele>1614.190918</ele>
        <time>2010-10-30T07:57:28Z</time>
      </trkpt>
      <trkpt lat="43.99727" lon="6.60891">
        <ele>1611.3068848</ele>
        <time>2010-10-30T07:57:33Z</time>
      </trkpt>
      <trkpt lat="43.99709" lon="6.60889">
        <ele>1610.345459</ele>
        <time>2010-10-30T07:57:37Z</time>
      </trkpt>
      <trkpt lat="43.99686" lon="6.60883">
        <ele>1609.3842773</ele>
        <time>2010-10-30T07:57:41Z</time>
      </trkpt>
      <trkpt lat="43.9968" lon="6.60884">
        <ele>1609.8647461</ele>
        <time>2010-10-30T07:57:42Z</time>
      </trkpt>
      <trkpt lat="43.99646" lon="6.60888">
        <ele>1607.4616699</ele>
        <time>2010-10-30T07:57:48Z</time>
      </trkpt>
      <trkpt lat="43.99634" lon="6.60887">
        <ele>1605.0583496</ele>
        <time>2010-10-30T07:57:50Z</time>
      </trkpt>
      <trkpt lat="43.99617" lon="6.60886">
        <ele>1603.1357422</ele>
        <time>2010-10-30T07:57:53Z</time>
      </trkpt>
      <trkpt lat="43.9958" lon="6.60897">
        <ele>1596.887207</ele>
        <time>2010-10-30T07:58:00Z</time>
      </trkpt>
      <trkpt lat="43.9957" lon="6.60901">
        <ele>1594.4836426</ele>
        <time>2010-10-30T07:58:02Z</time>
      </trkpt>
      <trkpt lat="43.99553" lon="6.60918">
        <ele>1586.7932129</ele>
        <time>2010-10-30T07:58:07Z</time>
      </trkpt>
      <trkpt lat="43.99541" lon="6.60941">
        <ele>1582.4675293</ele>
        <time>2010-10-30T07:58:13Z</time>
      </trkpt>
      <trkpt lat="43.99537" lon="6.60948">
        <ele>1581.0256348</ele>
        <time>2010-10-30T07:58:15Z</time>
      </trkpt>
      <trkpt lat="43.99534" lon="6.60945">
        <ele>1580.064209</ele>
        <time>2010-10-30T07:58:19Z</time>
      </trkpt>
      <trkpt lat="43.99535" lon="6.60941">
        <ele>1580.064209</ele>
        <time>2010-10-30T07:58:20Z</time>
      </trkpt>
      <trkpt lat="43.99539" lon="6.60915">
        <ele>1580.064209</ele>
        <time>2010-10-30T07:58:26Z</time>
      </trkpt>
      <trkpt lat="43.99538" lon="6.60916">
        <ele>1582.947998</ele>
        <time>2010-10-30T07:58:33Z</time>
      </trkpt>
      <trkpt lat="43.9954" lon="6.60911">
        <ele>1582.4675293</ele>
        <time>2010-10-30T07:58:38Z</time>
      </trkpt>
      <trkpt lat="43.99539" lon="6.60908">
        <ele>1583.9094238</ele>
        <time>2010-10-30T07:58:44Z</time>
      </trkpt>
      <trkpt lat="43.99543" lon="6.60903">
        <ele>1581.5061035</ele>
        <time>2010-10-30T07:58:49Z</time>
      </trkpt>
      <trkpt lat="43.99544" lon="6.60897">
        <ele>1580.064209</ele>
        <time>2010-10-30T07:58:55Z</time>
      </trkpt>
      <trkpt lat="43.99547" lon="6.60885">
        <ele>1578.6220703</ele>
        <time>2010-10-30T07:58:59Z</time>
      </trkpt>
      <trkpt lat="43.99562" lon="6.60865">
        <ele>1576.21875</ele>
        <time>2010-10-30T07:59:05Z</time>
      </trkpt>
      <trkpt lat="43.99579" lon="6.60843">
        <ele>1572.854248</ele>
        <time>2010-10-30T07:59:11Z</time>
      </trkpt>
      <trkpt lat="43.99589" lon="6.60834">
        <ele>1569.4897461</ele>
        <time>2010-10-30T07:59:15Z</time>
      </trkpt>
      <trkpt lat="43.9959" lon="6.60834">
        <ele>1566.125</ele>
        <time>2010-10-30T07:59:22Z</time>
      </trkpt>
      <trkpt lat="43.9959" lon="6.60834">
        <ele>1565.1638184</ele>
        <time>2010-10-30T07:59:40Z</time>
      </trkpt>
      <trkpt lat="43.9959" lon="6.60832">
        <ele>1565.1638184</ele>
        <time>2010-10-30T07:59:45Z</time>
      </trkpt>
      <trkpt lat="43.9959" lon="6.60831">
        <ele>1565.1638184</ele>
        <time>2010-10-30T07:59:56Z</time>
      </trkpt>
      <trkpt lat="43.99597" lon="6.60825">
        <ele>1563.7214355</ele>
        <time>2010-10-30T08:00:01Z</time>
      </trkpt>
      <trkpt lat="43.99596" lon="6.60822">
        <ele>1564.2023926</ele>
        <time>2010-10-30T08:00:04Z</time>
      </trkpt>
      <trkpt lat="43.99581" lon="6.60828">
        <ele>1565.6445312</ele>
        <time>2010-10-30T08:00:11Z</time>
      </trkpt>
      <trkpt lat="43.99565" lon="6.60832">
        <ele>1564.2023926</ele>
        <time>2010-10-30T08:00:16Z</time>
      </trkpt>
      <trkpt lat="43.9956" lon="6.60834">
        <ele>1562.7602539</ele>
        <time>2010-10-30T08:00:17Z</time>
      </trkpt>
      <trkpt lat="43.9954" lon="6.60846">
        <ele>1561.3183594</ele>
        <time>2010-10-30T08:00:22Z</time>
      </trkpt>
      <trkpt lat="43.99519" lon="6.60859">
        <ele>1554.5891113</ele>
        <time>2010-10-30T08:00:28Z</time>
      </trkpt>
      <trkpt lat="43.99501" lon="6.60872">
        <ele>1550.7438965</ele>
        <time>2010-10-30T08:00:33Z</time>
      </trkpt>
      <trkpt lat="43.99489" lon="6.60887">
        <ele>1544.9758301</ele>
        <time>2010-10-30T08:00:38Z</time>
      </trkpt>
      <trkpt lat="43.99478" lon="6.60901">
        <ele>1548.8212891</ele>
        <time>2010-10-30T08:00:45Z</time>
      </trkpt>
      <trkpt lat="43.99473" lon="6.60909">
        <ele>1546.8984375</ele>
        <time>2010-10-30T08:00:47Z</time>
      </trkpt>
      <trkpt lat="43.99466" lon="6.60934">
        <ele>1543.5339355</ele>
        <time>2010-10-30T08:00:52Z</time>
      </trkpt>
      <trkpt lat="43.99467" lon="6.60958">
        <ele>1534.4016113</ele>
        <time>2010-10-30T08:00:57Z</time>
      </trkpt>
      <trkpt lat="43.99461" lon="6.60981">
        <ele>1528.6335449</ele>
        <time>2010-10-30T08:01:02Z</time>
      </trkpt>
      <trkpt lat="43.99459" lon="6.60997">
        <ele>1526.7109375</ele>
        <time>2010-10-30T08:01:05Z</time>
      </trkpt>
      <trkpt lat="43.99447" lon="6.61007">
        <ele>1523.3464355</ele>
        <time>2010-10-30T08:01:09Z</time>
      </trkpt>
      <trkpt lat="43.99443" lon="6.60997">
        <ele>1525.7495117</ele>
        <time>2010-10-30T08:01:12Z</time>
      </trkpt>
      <trkpt lat="43.9944" lon="6.6099">
        <ele>1525.2687988</ele>
        <time>2010-10-30T08:01:14Z</time>
      </trkpt>
      <trkpt lat="43.99435" lon="6.60973">
        <ele>1521.423584</ele>
        <time>2010-10-30T08:01:18Z</time>
      </trkpt>
      <trkpt lat="43.99422" lon="6.60958">
        <ele>1511.8105469</ele>
        <time>2010-10-30T08:01:23Z</time>
      </trkpt>
      <trkpt lat="43.99405" lon="6.60938">
        <ele>1501.236084</ele>
        <time>2010-10-30T08:01:28Z</time>
      </trkpt>
      <trkpt lat="43.99397" lon="6.60924">
        <ele>1497.8713379</ele>
        <time>2010-10-30T08:01:31Z</time>
      </trkpt>
      <trkpt lat="43.99395" lon="6.60916">
        <ele>1496.4294434</ele>
        <time>2010-10-30T08:01:36Z</time>
      </trkpt>
      <trkpt lat="43.99403" lon="6.60914">
        <ele>1499.3132324</ele>
        <time>2010-10-30T08:01:45Z</time>
      </trkpt>
      <trkpt lat="43.99398" lon="6.60906">
        <ele>1524.3076172</ele>
        <time>2010-10-30T08:02:55Z</time>
      </trkpt>
      <trkpt lat="43.99384" lon="6.60898">
        <ele>1519.9816895</ele>
        <time>2010-10-30T08:03:01Z</time>
      </trkpt>
      <trkpt lat="43.99366" lon="6.6089">
        <ele>1514.213623</ele>
        <time>2010-10-30T08:03:06Z</time>
      </trkpt>
      <trkpt lat="43.9934" lon="6.60875">
        <ele>1502.1972656</ele>
        <time>2010-10-30T08:03:12Z</time>
      </trkpt>
      <trkpt lat="43.99324" lon="6.60861">
        <ele>1494.9873047</ele>
        <time>2010-10-30T08:03:17Z</time>
      </trkpt>
      <trkpt lat="43.99305" lon="6.60839">
        <ele>1492.1035156</ele>
        <time>2010-10-30T08:03:22Z</time>
      </trkpt>
      <trkpt lat="43.99284" lon="6.60826">
        <ele>1488.7390137</ele>
        <time>2010-10-30T08:03:27Z</time>
      </trkpt>
      <trkpt lat="43.99258" lon="6.60817">
        <ele>1486.3356934</ele>
        <time>2010-10-30T08:03:33Z</time>
      </trkpt>
      <trkpt lat="43.99254" lon="6.60815">
        <ele>1484.8937988</ele>
        <time>2010-10-30T08:03:37Z</time>
      </trkpt>
      <trkpt lat="43.99249" lon="6.60813">
        <ele>1483.451416</ele>
        <time>2010-10-30T08:03:41Z</time>
      </trkpt>
      <trkpt lat="43.9925" lon="6.6081">
        <ele>1482.9707031</ele>
        <time>2010-10-30T08:03:46Z</time>
      </trkpt>
      <trkpt lat="43.99257" lon="6.60808">
        <ele>1483.451416</ele>
        <time>2010-10-30T08:03:50Z</time>
      </trkpt>
      <trkpt lat="43.99276" lon="6.60801">
        <ele>1487.296875</ele>
        <time>2010-10-30T08:03:56Z</time>
      </trkpt>
      <trkpt lat="43.99299" lon="6.60797">
        <ele>1489.7001953</ele>
        <time>2010-10-30T08:04:01Z</time>
      </trkpt>
      <trkpt lat="43.99315" lon="6.60796">
        <ele>1491.1420898</ele>
        <time>2010-10-30T08:04:05Z</time>
      </trkpt>
      <trkpt lat="43.99325" lon="6.60801">
        <ele>1490.661377</ele>
        <time>2010-10-30T08:04:10Z</time>
      </trkpt>
      <trkpt lat="43.99325" lon="6.60798">
        <ele>1492.1035156</ele>
        <time>2010-10-30T08:04:13Z</time>
      </trkpt>
      <trkpt lat="43.99314" lon="6.60791">
        <ele>1483.451416</ele>
        <time>2010-10-30T08:04:18Z</time>
      </trkpt>
      <trkpt lat="43.99301" lon="6.60782">
        <ele>1477.203125</ele>
        <time>2010-10-30T08:04:21Z</time>
      </trkpt>
      <trkpt lat="43.99281" lon="6.60775">
        <ele>1469.5126953</ele>
        <time>2010-10-30T08:04:26Z</time>
      </trkpt>
      <trkpt lat="43.99279" lon="6.60774">
        <ele>1467.1091309</ele>
        <time>2010-10-30T08:04:29Z</time>
      </trkpt>
      <trkpt lat="43.99271" lon="6.60773">
        <ele>1463.263916</ele>
        <time>2010-10-30T08:04:55Z</time>
      </trkpt>
      <trkpt lat="43.99275" lon="6.60776">
        <ele>1463.7443848</ele>
        <time>2010-10-30T08:05:12Z</time>
      </trkpt>
      <trkpt lat="43.99276" lon="6.60774">
        <ele>1466.1477051</ele>
        <time>2010-10-30T08:05:19Z</time>
      </trkpt>
      <trkpt lat="43.99276" lon="6.6077">
        <ele>1469.9931641</ele>
        <time>2010-10-30T08:05:27Z</time>
      </trkpt>
      <trkpt lat="43.99276" lon="6.60769">
        <ele>1468.5512695</ele>
        <time>2010-10-30T08:05:35Z</time>
      </trkpt>
      <trkpt lat="43.99276" lon="6.60769">
        <ele>1469.0319824</ele>
        <time>2010-10-30T08:05:43Z</time>
      </trkpt>
      <trkpt lat="43.9927" lon="6.60768">
        <ele>1468.5512695</ele>
        <time>2010-10-30T08:05:47Z</time>
      </trkpt>
      <trkpt lat="43.99258" lon="6.60765">
        <ele>1468.5512695</ele>
        <time>2010-10-30T08:05:53Z</time>
      </trkpt>
      <trkpt lat="43.99245" lon="6.60764">
        <ele>1464.7058105</ele>
        <time>2010-10-30T08:05:57Z</time>
      </trkpt>
      <trkpt lat="43.99227" lon="6.60764">
        <ele>1459.4187012</ele>
        <time>2010-10-30T08:06:02Z</time>
      </trkpt>
      <trkpt lat="43.99211" lon="6.60762">
        <ele>1457.4960938</ele>
        <time>2010-10-30T08:06:07Z</time>
      </trkpt>
      <trkpt lat="43.992" lon="6.60765">
        <ele>1455.0927734</ele>
        <time>2010-10-30T08:06:10Z</time>
      </trkpt>
      <trkpt lat="43.9918" lon="6.60768">
        <ele>1450.7666016</ele>
        <time>2010-10-30T08:06:15Z</time>
      </trkpt>
      <trkpt lat="43.99168" lon="6.60772">
        <ele>1449.8054199</ele>
        <time>2010-10-30T08:06:19Z</time>
      </trkpt>
      <trkpt lat="43.99166" lon="6.60773">
        <ele>1447.8828125</ele>
        <time>2010-10-30T08:06:25Z</time>
      </trkpt>
      <trkpt lat="43.99155" lon="6.60776">
        <ele>1445.4794922</ele>
        <time>2010-10-30T08:06:30Z</time>
      </trkpt>
      <trkpt lat="43.99137" lon="6.60779">
        <ele>1443.0761719</ele>
        <time>2010-10-30T08:06:35Z</time>
      </trkpt>
      <trkpt lat="43.99132" lon="6.60781">
        <ele>1441.6342773</ele>
        <time>2010-10-30T08:06:36Z</time>
      </trkpt>
      <trkpt lat="43.99105" lon="6.60787">
        <ele>1436.8276367</ele>
        <time>2010-10-30T08:06:42Z</time>
      </trkpt>
      <trkpt lat="43.99087" lon="6.60788">
        <ele>1434.4243164</ele>
        <time>2010-10-30T08:06:46Z</time>
      </trkpt>
      <trkpt lat="43.99073" lon="6.60792">
        <ele>1431.0598145</ele>
        <time>2010-10-30T08:06:49Z</time>
      </trkpt>
      <trkpt lat="43.99046" lon="6.60798">
        <ele>1425.291748</ele>
        <time>2010-10-30T08:06:55Z</time>
      </trkpt>
      <trkpt lat="43.99025" lon="6.60806">
        <ele>1421.4465332</ele>
        <time>2010-10-30T08:07:00Z</time>
      </trkpt>
      <trkpt lat="43.99018" lon="6.60808">
        <ele>1420.9660645</ele>
        <time>2010-10-30T08:07:04Z</time>
      </trkpt>
      <trkpt lat="43.99015" lon="6.60809">
        <ele>1419.0432129</ele>
        <time>2010-10-30T08:07:11Z</time>
      </trkpt>
      <trkpt lat="43.99011" lon="6.6081">
        <ele>1421.4465332</ele>
        <time>2010-10-30T08:07:16Z</time>
      </trkpt>
      <trkpt lat="43.99006" lon="6.60813">
        <ele>1420.4853516</ele>
        <time>2010-10-30T08:07:22Z</time>
      </trkpt>
      <trkpt lat="43.99002" lon="6.60816">
        <ele>1421.9272461</ele>
        <time>2010-10-30T08:07:27Z</time>
      </trkpt>
      <trkpt lat="43.9899" lon="6.60825">
        <ele>1420.0046387</ele>
        <time>2010-10-30T08:07:33Z</time>
      </trkpt>
      <trkpt lat="43.98983" lon="6.60831">
        <ele>1417.1206055</ele>
        <time>2010-10-30T08:07:39Z</time>
      </trkpt>
      <trkpt lat="43.9898" lon="6.60834">
        <ele>1417.1206055</ele>
        <time>2010-10-30T08:07:47Z</time>
      </trkpt>
      <trkpt lat="43.98968" lon="6.60839">
        <ele>1414.7172852</ele>
        <time>2010-10-30T08:07:51Z</time>
      </trkpt>
      <trkpt lat="43.98957" lon="6.60843">
        <ele>1413.7558594</ele>
        <time>2010-10-30T08:07:54Z</time>
      </trkpt>
      <trkpt lat="43.98932" lon="6.60857">
        <ele>1411.3527832</ele>
        <time>2010-10-30T08:08:01Z</time>
      </trkpt>
      <trkpt lat="43.9891" lon="6.6087">
        <ele>1407.5075684</ele>
        <time>2010-10-30T08:08:07Z</time>
      </trkpt>
      <trkpt lat="43.98885" lon="6.6088">
        <ele>1402.2199707</ele>
        <time>2010-10-30T08:08:13Z</time>
      </trkpt>
      <trkpt lat="43.98871" lon="6.60892">
        <ele>1396.9328613</ele>
        <time>2010-10-30T08:08:17Z</time>
      </trkpt>
      <trkpt lat="43.98851" lon="6.60901">
        <ele>1390.6843262</ele>
        <time>2010-10-30T08:08:23Z</time>
      </trkpt>
      <trkpt lat="43.98848" lon="6.60902">
        <ele>1390.2038574</ele>
        <time>2010-10-30T08:08:24Z</time>
      </trkpt>
      <trkpt lat="43.98847" lon="6.60899">
        <ele>1388.28125</ele>
        <time>2010-10-30T08:08:27Z</time>
      </trkpt>
      <trkpt lat="43.98857" lon="6.60891">
        <ele>1386.3583984</ele>
        <time>2010-10-30T08:08:32Z</time>
      </trkpt>
      <trkpt lat="43.98867" lon="6.60877">
        <ele>1384.435791</ele>
        <time>2010-10-30T08:08:37Z</time>
      </trkpt>
      <trkpt lat="43.98875" lon="6.60863">
        <ele>1381.5517578</ele>
        <time>2010-10-30T08:08:42Z</time>
      </trkpt>
      <trkpt lat="43.98888" lon="6.60847">
        <ele>1379.6291504</ele>
        <time>2010-10-30T08:08:47Z</time>
      </trkpt>
      <trkpt lat="43.98897" lon="6.60835">
        <ele>1378.1872559</ele>
        <time>2010-10-30T08:08:51Z</time>
      </trkpt>
      <trkpt lat="43.98912" lon="6.6081">
        <ele>1375.3032227</ele>
        <time>2010-10-30T08:08:58Z</time>
      </trkpt>
      <trkpt lat="43.98927" lon="6.60785">
        <ele>1371.9384766</ele>
        <time>2010-10-30T08:09:05Z</time>
      </trkpt>
      <trkpt lat="43.98939" lon="6.60764">
        <ele>1370.0158691</ele>
        <time>2010-10-30T08:09:10Z</time>
      </trkpt>
      <trkpt lat="43.98942" lon="6.60759">
        <ele>1369.0546875</ele>
        <time>2010-10-30T08:09:14Z</time>
      </trkpt>
      <trkpt lat="43.98944" lon="6.60758">
        <ele>1370.9772949</ele>
        <time>2010-10-30T08:09:27Z</time>
      </trkpt>
      <trkpt lat="43.98946" lon="6.60751">
        <ele>1373.3808594</ele>
        <time>2010-10-30T08:09:36Z</time>
      </trkpt>
      <trkpt lat="43.98951" lon="6.60744">
        <ele>1371.9384766</ele>
        <time>2010-10-30T08:09:41Z</time>
      </trkpt>
      <trkpt lat="43.98954" lon="6.60736">
        <ele>1370.496582</ele>
        <time>2010-10-30T08:09:47Z</time>
      </trkpt>
      <trkpt lat="43.9897" lon="6.60711">
        <ele>1366.1706543</ele>
        <time>2010-10-30T08:09:54Z</time>
      </trkpt>
      <trkpt lat="43.98986" lon="6.60689">
        <ele>1363.767334</ele>
        <time>2010-10-30T08:10:00Z</time>
      </trkpt>
      <trkpt lat="43.99005" lon="6.60666">
        <ele>1360.8835449</ele>
        <time>2010-10-30T08:10:06Z</time>
      </trkpt>
      <trkpt lat="43.99027" lon="6.60644">
        <ele>1357.519043</ele>
        <time>2010-10-30T08:10:12Z</time>
      </trkpt>
      <trkpt lat="43.99045" lon="6.60627">
        <ele>1355.1154785</ele>
        <time>2010-10-30T08:10:17Z</time>
      </trkpt>
      <trkpt lat="43.99062" lon="6.60617">
        <ele>1350.309082</ele>
        <time>2010-10-30T08:10:21Z</time>
      </trkpt>
      <trkpt lat="43.99075" lon="6.60605">
        <ele>1347.4250488</ele>
        <time>2010-10-30T08:10:24Z</time>
      </trkpt>
      <trkpt lat="43.99095" lon="6.60584">
        <ele>1344.5410156</ele>
        <time>2010-10-30T08:10:29Z</time>
      </trkpt>
      <trkpt lat="43.99101" lon="6.60577">
        <ele>1343.0991211</ele>
        <time>2010-10-30T08:10:32Z</time>
      </trkpt>
      <trkpt lat="43.99099" lon="6.60576">
        <ele>1342.6186523</ele>
        <time>2010-10-30T08:10:33Z</time>
      </trkpt>
      <trkpt lat="43.99081" lon="6.60577">
        <ele>1339.2536621</ele>
        <time>2010-10-30T08:10:38Z</time>
      </trkpt>
      <trkpt lat="43.99061" lon="6.60581">
        <ele>1335.4084473</ele>
        <time>2010-10-30T08:10:43Z</time>
      </trkpt>
      <trkpt lat="43.99039" lon="6.60582">
        <ele>1327.7180176</ele>
        <time>2010-10-30T08:10:48Z</time>
      </trkpt>
      <trkpt lat="43.99035" lon="6.60582">
        <ele>1325.3146973</ele>
        <time>2010-10-30T08:10:49Z</time>
      </trkpt>
      <trkpt lat="43.99026" lon="6.60583">
        <ele>1321.4692383</ele>
        <time>2010-10-30T08:10:51Z</time>
      </trkpt>
      <trkpt lat="43.99007" lon="6.60582">
        <ele>1320.0273438</ele>
        <time>2010-10-30T08:10:55Z</time>
      </trkpt>
      <trkpt lat="43.98989" lon="6.60581">
        <ele>1315.7016602</ele>
        <time>2010-10-30T08:11:00Z</time>
      </trkpt>
      <trkpt lat="43.98988" lon="6.60582">
        <ele>1314.2595215</ele>
        <time>2010-10-30T08:11:04Z</time>
      </trkpt>
      <trkpt lat="43.98988" lon="6.60581">
        <ele>1320.9887695</ele>
        <time>2010-10-30T08:12:14Z</time>
      </trkpt>
      <trkpt lat="43.98987" lon="6.60582">
        <ele>1322.4306641</ele>
        <time>2010-10-30T08:13:08Z</time>
      </trkpt>
      <trkpt lat="43.98988" lon="6.60582">
        <ele>1323.8725586</ele>
        <time>2010-10-30T08:13:59Z</time>
      </trkpt>
      <trkpt lat="43.98989" lon="6.60582">
        <ele>1327.2375488</ele>
        <time>2010-10-30T08:14:53Z</time>
      </trkpt>
      <trkpt lat="43.9899" lon="6.60583">
        <ele>1319.0661621</ele>
        <time>2010-10-30T08:16:22Z</time>
      </trkpt>
      <trkpt lat="43.9899" lon="6.60583">
        <ele>1312.817627</ele>
        <time>2010-10-30T08:17:44Z</time>
      </trkpt>
      <trkpt lat="43.98989" lon="6.60583">
        <ele>1308.4916992</ele>
        <time>2010-10-30T08:18:12Z</time>
      </trkpt>
      <trkpt lat="43.9899" lon="6.60583">
        <ele>1308.4916992</ele>
        <time>2010-10-30T08:18:30Z</time>
      </trkpt>
      <trkpt lat="43.98989" lon="6.60582">
        <ele>1311.3757324</ele>
        <time>2010-10-30T08:18:53Z</time>
      </trkpt>
      <trkpt lat="43.98989" lon="6.60582">
        <ele>1313.7788086</ele>
        <time>2010-10-30T08:19:08Z</time>
      </trkpt>
      <trkpt lat="43.98988" lon="6.60585">
        <ele>1314.2595215</ele>
        <time>2010-10-30T08:19:15Z</time>
      </trkpt>
      <trkpt lat="43.98987" lon="6.60582">
        <ele>1313.2983398</ele>
        <time>2010-10-30T08:19:28Z</time>
      </trkpt>
      <trkpt lat="43.98986" lon="6.60582">
        <ele>1313.7788086</ele>
        <time>2010-10-30T08:19:29Z</time>
      </trkpt>
      <trkpt lat="43.98977" lon="6.60578">
        <ele>1312.817627</ele>
        <time>2010-10-30T08:19:35Z</time>
      </trkpt>
      <trkpt lat="43.98972" lon="6.60579">
        <ele>1311.3757324</ele>
        <time>2010-10-30T08:19:39Z</time>
      </trkpt>
      <trkpt lat="43.98957" lon="6.60581">
        <ele>1310.4143066</ele>
        <time>2010-10-30T08:19:43Z</time>
      </trkpt>
      <trkpt lat="43.98934" lon="6.60576">
        <ele>1307.5302734</ele>
        <time>2010-10-30T08:19:49Z</time>
      </trkpt>
      <trkpt lat="43.98931" lon="6.60576">
        <ele>1307.0495605</ele>
        <time>2010-10-30T08:19:50Z</time>
      </trkpt>
      <trkpt lat="43.98929" lon="6.6057">
        <ele>1304.1657715</ele>
        <time>2010-10-30T08:19:54Z</time>
      </trkpt>
      <trkpt lat="43.98923" lon="6.60565">
        <ele>1301.2817383</ele>
        <time>2010-10-30T08:19:59Z</time>
      </trkpt>
      <trkpt lat="43.9892" lon="6.60566">
        <ele>1299.8398438</ele>
        <time>2010-10-30T08:20:00Z</time>
      </trkpt>
      <trkpt lat="43.98915" lon="6.60566">
        <ele>1299.3591309</ele>
        <time>2010-10-30T08:20:02Z</time>
      </trkpt>
      <trkpt lat="43.98916" lon="6.60559">
        <ele>1295.9946289</ele>
        <time>2010-10-30T08:20:06Z</time>
      </trkpt>
      <trkpt lat="43.98918" lon="6.60554">
        <ele>1295.513916</ele>
        <time>2010-10-30T08:20:07Z</time>
      </trkpt>
      <trkpt lat="43.98934" lon="6.60525">
        <ele>1291.1877441</ele>
        <time>2010-10-30T08:20:14Z</time>
      </trkpt>
      <trkpt lat="43.98937" lon="6.60519">
        <ele>1287.8232422</ele>
        <time>2010-10-30T08:20:19Z</time>
      </trkpt>
      <trkpt lat="43.98937" lon="6.60517">
        <ele>1288.3039551</ele>
        <time>2010-10-30T08:20:26Z</time>
      </trkpt>
      <trkpt lat="43.98941" lon="6.60515">
        <ele>1286.8618164</ele>
        <time>2010-10-30T08:20:33Z</time>
      </trkpt>
      <trkpt lat="43.9895" lon="6.60503">
        <ele>1286.8618164</ele>
        <time>2010-10-30T08:20:37Z</time>
      </trkpt>
      <trkpt lat="43.98954" lon="6.60497">
        <ele>1287.3425293</ele>
        <time>2010-10-30T08:20:39Z</time>
      </trkpt>
      <trkpt lat="43.98953" lon="6.60483">
        <ele>1284.9394531</ele>
        <time>2010-10-30T08:20:44Z</time>
      </trkpt>
      <trkpt lat="43.98949" lon="6.60483">
        <ele>1284.4587402</ele>
        <time>2010-10-30T08:20:45Z</time>
      </trkpt>
      <trkpt lat="43.9893" lon="6.60483">
        <ele>1281.0942383</ele>
        <time>2010-10-30T08:20:51Z</time>
      </trkpt>
      <trkpt lat="43.98928" lon="6.60486">
        <ele>1278.690918</ele>
        <time>2010-10-30T08:20:57Z</time>
      </trkpt>
      <trkpt lat="43.98927" lon="6.60486">
        <ele>1277.2490234</ele>
        <time>2010-10-30T08:20:59Z</time>
      </trkpt>
      <trkpt lat="43.98922" lon="6.60486">
        <ele>1274.845459</ele>
        <time>2010-10-30T08:21:03Z</time>
      </trkpt>
      <trkpt lat="43.9891" lon="6.60479">
        <ele>1272.4421387</ele>
        <time>2010-10-30T08:21:07Z</time>
      </trkpt>
      <trkpt lat="43.98907" lon="6.60476">
        <ele>1272.4421387</ele>
        <time>2010-10-30T08:21:08Z</time>
      </trkpt>
      <trkpt lat="43.98889" lon="6.60472">
        <ele>1271.0002441</ele>
        <time>2010-10-30T08:21:12Z</time>
      </trkpt>
      <trkpt lat="43.98869" lon="6.60467">
        <ele>1270.0388184</ele>
        <time>2010-10-30T08:21:18Z</time>
      </trkpt>
      <trkpt lat="43.98864" lon="6.60467">
        <ele>1268.5969238</ele>
        <time>2010-10-30T08:21:21Z</time>
      </trkpt>
      <trkpt lat="43.98852" lon="6.60474">
        <ele>1263.3098145</ele>
        <time>2010-10-30T08:21:26Z</time>
      </trkpt>
      <trkpt lat="43.98847" lon="6.60477">
        <ele>1260.9064941</ele>
        <time>2010-10-30T08:21:29Z</time>
      </trkpt>
      <trkpt lat="43.98848" lon="6.60477">
        <ele>1258.0224609</ele>
        <time>2010-10-30T08:21:38Z</time>
      </trkpt>
      <trkpt lat="43.98843" lon="6.60479">
        <ele>1255.6191406</ele>
        <time>2010-10-30T08:21:48Z</time>
      </trkpt>
      <trkpt lat="43.98835" lon="6.60472">
        <ele>1256.0996094</ele>
        <time>2010-10-30T08:21:54Z</time>
      </trkpt>
      <trkpt lat="43.98833" lon="6.60476">
        <ele>1254.6577148</ele>
        <time>2010-10-30T08:21:58Z</time>
      </trkpt>
      <trkpt lat="43.98829" lon="6.6048">
        <ele>1254.1772461</ele>
        <time>2010-10-30T08:22:05Z</time>
      </trkpt>
      <trkpt lat="43.98819" lon="6.60476">
        <ele>1252.7351074</ele>
        <time>2010-10-30T08:22:09Z</time>
      </trkpt>
      <trkpt lat="43.98811" lon="6.60482">
        <ele>1251.2932129</ele>
        <time>2010-10-30T08:22:13Z</time>
      </trkpt>
      <trkpt lat="43.98804" lon="6.60481">
        <ele>1250.3320312</ele>
        <time>2010-10-30T08:22:17Z</time>
      </trkpt>
      <trkpt lat="43.98804" lon="6.6048">
        <ele>1249.3706055</ele>
        <time>2010-10-30T08:22:19Z</time>
      </trkpt>
      <trkpt lat="43.988" lon="6.60475">
        <ele>1246.9672852</ele>
        <time>2010-10-30T08:22:24Z</time>
      </trkpt>
      <trkpt lat="43.98793" lon="6.60475">
        <ele>1245.5253906</ele>
        <time>2010-10-30T08:22:26Z</time>
      </trkpt>
      <trkpt lat="43.98764" lon="6.60482">
        <ele>1239.2766113</ele>
        <time>2010-10-30T08:22:33Z</time>
      </trkpt>
      <trkpt lat="43.98747" lon="6.60486">
        <ele>1234.4702148</ele>
        <time>2010-10-30T08:22:38Z</time>
      </trkpt>
      <trkpt lat="43.98734" lon="6.60488">
        <ele>1230.625</ele>
        <time>2010-10-30T08:22:43Z</time>
      </trkpt>
      <trkpt lat="43.98726" lon="6.60485">
        <ele>1226.779541</ele>
        <time>2010-10-30T08:22:47Z</time>
      </trkpt>
      <trkpt lat="43.98713" lon="6.60489">
        <ele>1224.8569336</ele>
        <time>2010-10-30T08:22:51Z</time>
      </trkpt>
      <trkpt lat="43.98704" lon="6.60492">
        <ele>1222.9343262</ele>
        <time>2010-10-30T08:22:53Z</time>
      </trkpt>
      <trkpt lat="43.98695" lon="6.60493">
        <ele>1221.0117188</ele>
        <time>2010-10-30T08:22:55Z</time>
      </trkpt>
      <trkpt lat="43.98674" lon="6.60494">
        <ele>1218.6083984</ele>
        <time>2010-10-30T08:23:00Z</time>
      </trkpt>
      <trkpt lat="43.98655" lon="6.60492">
        <ele>1213.8017578</ele>
        <time>2010-10-30T08:23:05Z</time>
      </trkpt>
      <trkpt lat="43.98642" lon="6.60495">
        <ele>1209.9562988</ele>
        <time>2010-10-30T08:23:08Z</time>
      </trkpt>
      <trkpt lat="43.98638" lon="6.60505">
        <ele>1204.1887207</ele>
        <time>2010-10-30T08:23:12Z</time>
      </trkpt>
      <trkpt lat="43.98641" lon="6.60514">
        <ele>1201.7854004</ele>
        <time>2010-10-30T08:23:15Z</time>
      </trkpt>
      <trkpt lat="43.98626" lon="6.60513">
        <ele>1196.9787598</ele>
        <time>2010-10-30T08:23:20Z</time>
      </trkpt>
      <trkpt lat="43.98615" lon="6.60511">
        <ele>1193.6140137</ele>
        <time>2010-10-30T08:23:23Z</time>
      </trkpt>
      <trkpt lat="43.98609" lon="6.60511">
        <ele>1191.6914062</ele>
        <time>2010-10-30T08:23:25Z</time>
      </trkpt>
      <trkpt lat="43.98606" lon="6.60522">
        <ele>1188.3269043</ele>
        <time>2010-10-30T08:23:30Z</time>
      </trkpt>
      <trkpt lat="43.98598" lon="6.60521">
        <ele>1185.923584</ele>
        <time>2010-10-30T08:23:33Z</time>
      </trkpt>
      <trkpt lat="43.98581" lon="6.60517">
        <ele>1182.559082</ele>
        <time>2010-10-30T08:23:37Z</time>
      </trkpt>
      <trkpt lat="43.98569" lon="6.60513">
        <ele>1181.1171875</ele>
        <time>2010-10-30T08:23:40Z</time>
      </trkpt>
      <trkpt lat="43.98556" lon="6.60512">
        <ele>1179.1940918</ele>
        <time>2010-10-30T08:23:43Z</time>
      </trkpt>
      <trkpt lat="43.98543" lon="6.60521">
        <ele>1177.2717285</ele>
        <time>2010-10-30T08:23:49Z</time>
      </trkpt>
      <trkpt lat="43.98542" lon="6.60523">
        <ele>1176.7910156</ele>
        <time>2010-10-30T08:23:50Z</time>
      </trkpt>
      <trkpt lat="43.98527" lon="6.60522">
        <ele>1176.3103027</ele>
        <time>2010-10-30T08:23:55Z</time>
      </trkpt>
      <trkpt lat="43.98515" lon="6.60522">
        <ele>1173.4265137</ele>
        <time>2010-10-30T08:23:58Z</time>
      </trkpt>
      <trkpt lat="43.98493" lon="6.60525">
        <ele>1165.736084</ele>
        <time>2010-10-30T08:24:04Z</time>
      </trkpt>
      <trkpt lat="43.98482" lon="6.60527">
        <ele>1161.890625</ele>
        <time>2010-10-30T08:24:07Z</time>
      </trkpt>
      <trkpt lat="43.98478" lon="6.60529">
        <ele>1160.4484863</ele>
        <time>2010-10-30T08:24:08Z</time>
      </trkpt>
      <trkpt lat="43.98459" lon="6.60525">
        <ele>1154.6806641</ele>
        <time>2010-10-30T08:24:13Z</time>
      </trkpt>
      <trkpt lat="43.98455" lon="6.60527">
        <ele>1153.7194824</ele>
        <time>2010-10-30T08:24:14Z</time>
      </trkpt>
      <trkpt lat="43.98439" lon="6.60534">
        <ele>1147.4707031</ele>
        <time>2010-10-30T08:24:20Z</time>
      </trkpt>
      <trkpt lat="43.98434" lon="6.60536">
        <ele>1145.5480957</ele>
        <time>2010-10-30T08:24:24Z</time>
      </trkpt>
      <trkpt lat="43.98419" lon="6.60533">
        <ele>1142.6643066</ele>
        <time>2010-10-30T08:24:29Z</time>
      </trkpt>
      <trkpt lat="43.98404" lon="6.60534">
        <ele>1137.857666</ele>
        <time>2010-10-30T08:24:32Z</time>
      </trkpt>
      <trkpt lat="43.98364" lon="6.60542">
        <ele>1134.0124512</ele>
        <time>2010-10-30T08:24:39Z</time>
      </trkpt>
      <trkpt lat="43.98346" lon="6.60547">
        <ele>1131.6088867</ele>
        <time>2010-10-30T08:24:42Z</time>
      </trkpt>
      <trkpt lat="43.98332" lon="6.60549">
        <ele>1129.2055664</ele>
        <time>2010-10-30T08:24:45Z</time>
      </trkpt>
      <trkpt lat="43.98328" lon="6.60551">
        <ele>1130.1669922</ele>
        <time>2010-10-30T08:24:50Z</time>
      </trkpt>
      <trkpt lat="43.98328" lon="6.60552">
        <ele>1132.5705566</ele>
        <time>2010-10-30T08:24:58Z</time>
      </trkpt>
      <trkpt lat="43.98329" lon="6.60551">
        <ele>1131.6088867</ele>
        <time>2010-10-30T08:25:07Z</time>
      </trkpt>
      <trkpt lat="43.98326" lon="6.60553">
        <ele>1129.2055664</ele>
        <time>2010-10-30T08:25:15Z</time>
      </trkpt>
      <trkpt lat="43.98322" lon="6.60557">
        <ele>1130.6477051</ele>
        <time>2010-10-30T08:25:19Z</time>
      </trkpt>
      <trkpt lat="43.98317" lon="6.60563">
        <ele>1129.6862793</ele>
        <time>2010-10-30T08:25:25Z</time>
      </trkpt>
      <trkpt lat="43.98317" lon="6.60568">
        <ele>1128.7250977</ele>
        <time>2010-10-30T08:25:31Z</time>
      </trkpt>
      <trkpt lat="43.98314" lon="6.60568">
        <ele>1134.4931641</ele>
        <time>2010-10-30T08:25:45Z</time>
      </trkpt>
      <trkpt lat="43.98313" lon="6.60577">
        <ele>1134.0124512</ele>
        <time>2010-10-30T08:25:50Z</time>
      </trkpt>
      <trkpt lat="43.98312" lon="6.60583">
        <ele>1134.0124512</ele>
        <time>2010-10-30T08:25:56Z</time>
      </trkpt>
      <trkpt lat="43.98311" lon="6.6059">
        <ele>1134.4931641</ele>
        <time>2010-10-30T08:26:07Z</time>
      </trkpt>
      <trkpt lat="43.98311" lon="6.60603">
        <ele>1135.9350586</ele>
        <time>2010-10-30T08:26:12Z</time>
      </trkpt>
      <trkpt lat="43.98305" lon="6.60612">
        <ele>1137.3769531</ele>
        <time>2010-10-30T08:26:17Z</time>
      </trkpt>
      <trkpt lat="43.98302" lon="6.60618">
        <ele>1138.8190918</ele>
        <time>2010-10-30T08:26:20Z</time>
      </trkpt>
      <trkpt lat="43.98304" lon="6.60634">
        <ele>1146.0288086</ele>
        <time>2010-10-30T08:26:28Z</time>
      </trkpt>
      <trkpt lat="43.98306" lon="6.60646">
        <ele>1152.2773438</ele>
        <time>2010-10-30T08:26:34Z</time>
      </trkpt>
      <trkpt lat="43.98305" lon="6.60653">
        <ele>1155.6420898</ele>
        <time>2010-10-30T08:26:38Z</time>
      </trkpt>
      <trkpt lat="43.98299" lon="6.60658">
        <ele>1150.3549805</ele>
        <time>2010-10-30T08:26:44Z</time>
      </trkpt>
      <trkpt lat="43.98296" lon="6.60659">
        <ele>1149.8742676</ele>
        <time>2010-10-30T08:26:46Z</time>
      </trkpt>
      <trkpt lat="43.98291" lon="6.60663">
        <ele>1150.3549805</ele>
        <time>2010-10-30T08:26:51Z</time>
      </trkpt>
      <trkpt lat="43.98291" lon="6.60667">
        <ele>1150.3549805</ele>
        <time>2010-10-30T08:26:54Z</time>
      </trkpt>
      <trkpt lat="43.98287" lon="6.60677">
        <ele>1150.8354492</ele>
        <time>2010-10-30T08:27:00Z</time>
      </trkpt>
      <trkpt lat="43.98285" lon="6.60684">
        <ele>1151.3161621</ele>
        <time>2010-10-30T08:27:04Z</time>
      </trkpt>
      <trkpt lat="43.98281" lon="6.6069">
        <ele>1150.3549805</ele>
        <time>2010-10-30T08:27:11Z</time>
      </trkpt>
      <trkpt lat="43.9828" lon="6.60692">
        <ele>1149.8742676</ele>
        <time>2010-10-30T08:27:13Z</time>
      </trkpt>
      <trkpt lat="43.98272" lon="6.60703">
        <ele>1149.8742676</ele>
        <time>2010-10-30T08:27:21Z</time>
      </trkpt>
      <trkpt lat="43.98268" lon="6.60708">
        <ele>1150.3549805</ele>
        <time>2010-10-30T08:27:26Z</time>
      </trkpt>
      <trkpt lat="43.98256" lon="6.60717">
        <ele>1155.6420898</ele>
        <time>2010-10-30T08:27:36Z</time>
      </trkpt>
      <trkpt lat="43.98251" lon="6.6072">
        <ele>1157.0839844</ele>
        <time>2010-10-30T08:27:39Z</time>
      </trkpt>
      <trkpt lat="43.98243" lon="6.60727">
        <ele>1161.4099121</ele>
        <time>2010-10-30T08:27:46Z</time>
      </trkpt>
      <trkpt lat="43.98242" lon="6.60733">
        <ele>1157.5646973</ele>
        <time>2010-10-30T08:27:51Z</time>
      </trkpt>
      <trkpt lat="43.98242" lon="6.60735">
        <ele>1153.7194824</ele>
        <time>2010-10-30T08:27:59Z</time>
      </trkpt>
      <trkpt lat="43.98235" lon="6.60734">
        <ele>1160.4484863</ele>
        <time>2010-10-30T08:28:07Z</time>
      </trkpt>
      <trkpt lat="43.98223" lon="6.60742">
        <ele>1161.890625</ele>
        <time>2010-10-30T08:28:15Z</time>
      </trkpt>
      <trkpt lat="43.98215" lon="6.60748">
        <ele>1161.890625</ele>
        <time>2010-10-30T08:28:22Z</time>
      </trkpt>
      <trkpt lat="43.98205" lon="6.60756">
        <ele>1162.3710938</ele>
        <time>2010-10-30T08:28:29Z</time>
      </trkpt>
      <trkpt lat="43.98201" lon="6.60759">
        <ele>1163.8129883</ele>
        <time>2010-10-30T08:28:32Z</time>
      </trkpt>
      <trkpt lat="43.98202" lon="6.60765">
        <ele>1164.7746582</ele>
        <time>2010-10-30T08:28:37Z</time>
      </trkpt>
      <trkpt lat="43.98201" lon="6.60769">
        <ele>1163.3325195</ele>
        <time>2010-10-30T08:28:44Z</time>
      </trkpt>
      <trkpt lat="43.982" lon="6.60769">
        <ele>1157.5646973</ele>
        <time>2010-10-30T08:29:58Z</time>
      </trkpt>
      <trkpt lat="43.98201" lon="6.60769">
        <ele>1158.0454102</ele>
        <time>2010-10-30T08:29:59Z</time>
      </trkpt>
      <trkpt lat="43.98205" lon="6.60771">
        <ele>1160.9291992</ele>
        <time>2010-10-30T08:30:05Z</time>
      </trkpt>
      <trkpt lat="43.98203" lon="6.6077">
        <ele>1166.6972656</ele>
        <time>2010-10-30T08:30:18Z</time>
      </trkpt>
      <trkpt lat="43.98209" lon="6.60773">
        <ele>1165.736084</ele>
        <time>2010-10-30T08:30:29Z</time>
      </trkpt>
      <trkpt lat="43.9822" lon="6.6078">
        <ele>1167.1779785</ele>
        <time>2010-10-30T08:30:37Z</time>
      </trkpt>
      <trkpt lat="43.98224" lon="6.60784">
        <ele>1167.6584473</ele>
        <time>2010-10-30T08:30:43Z</time>
      </trkpt>
      <trkpt lat="43.98228" lon="6.60787">
        <ele>1170.5424805</ele>
        <time>2010-10-30T08:30:48Z</time>
      </trkpt>
      <trkpt lat="43.98234" lon="6.60795">
        <ele>1173.9069824</ele>
        <time>2010-10-30T08:30:56Z</time>
      </trkpt>
      <trkpt lat="43.98236" lon="6.60799">
        <ele>1174.8684082</ele>
        <time>2010-10-30T08:31:03Z</time>
      </trkpt>
      <trkpt lat="43.98236" lon="6.60798">
        <ele>1174.8684082</ele>
        <time>2010-10-30T08:31:11Z</time>
      </trkpt>
      <trkpt lat="43.98236" lon="6.60799">
        <ele>1174.8684082</ele>
        <time>2010-10-30T08:31:15Z</time>
      </trkpt>
      <trkpt lat="43.98239" lon="6.60819">
        <ele>1174.3876953</ele>
        <time>2010-10-30T08:31:23Z</time>
      </trkpt>
      <trkpt lat="43.98246" lon="6.60831">
        <ele>1172.9458008</ele>
        <time>2010-10-30T08:31:28Z</time>
      </trkpt>
      <trkpt lat="43.98251" lon="6.60842">
        <ele>1172.4650879</ele>
        <time>2010-10-30T08:31:33Z</time>
      </trkpt>
      <trkpt lat="43.98259" lon="6.60864">
        <ele>1174.3876953</ele>
        <time>2010-10-30T08:31:41Z</time>
      </trkpt>
      <trkpt lat="43.98265" lon="6.60875">
        <ele>1178.713623</ele>
        <time>2010-10-30T08:31:48Z</time>
      </trkpt>
      <trkpt lat="43.98266" lon="6.60874">
        <ele>1178.2329102</ele>
        <time>2010-10-30T08:31:54Z</time>
      </trkpt>
      <trkpt lat="43.98266" lon="6.60878">
        <ele>1176.3103027</ele>
        <time>2010-10-30T08:32:08Z</time>
      </trkpt>
      <trkpt lat="43.98267" lon="6.60876">
        <ele>1175.8295898</ele>
        <time>2010-10-30T08:34:18Z</time>
      </trkpt>
      <trkpt lat="43.98266" lon="6.60877">
        <ele>1175.8295898</ele>
        <time>2010-10-30T08:34:24Z</time>
      </trkpt>
      <trkpt lat="43.98266" lon="6.60885">
        <ele>1175.8295898</ele>
        <time>2010-10-30T08:34:29Z</time>
      </trkpt>
      <trkpt lat="43.98258" lon="6.60903">
        <ele>1175.8295898</ele>
        <time>2010-10-30T08:34:34Z</time>
      </trkpt>
      <trkpt lat="43.98257" lon="6.60905">
        <ele>1176.3103027</ele>
        <time>2010-10-30T08:34:35Z</time>
      </trkpt>
      <trkpt lat="43.98246" lon="6.60928">
        <ele>1179.1940918</ele>
        <time>2010-10-30T08:34:43Z</time>
      </trkpt>
      <trkpt lat="43.9824" lon="6.60942">
        <ele>1180.1557617</ele>
        <time>2010-10-30T08:34:49Z</time>
      </trkpt>
      <trkpt lat="43.98233" lon="6.60955">
        <ele>1183.0395508</ele>
        <time>2010-10-30T08:34:55Z</time>
      </trkpt>
      <trkpt lat="43.98232" lon="6.60957">
        <ele>1183.0395508</ele>
        <time>2010-10-30T08:34:56Z</time>
      </trkpt>
      <trkpt lat="43.98234" lon="6.60969">
        <ele>1186.4042969</ele>
        <time>2010-10-30T08:35:02Z</time>
      </trkpt>
      <trkpt lat="43.98233" lon="6.60974">
        <ele>1187.8461914</ele>
        <time>2010-10-30T08:35:04Z</time>
      </trkpt>
      <trkpt lat="43.98228" lon="6.60988">
        <ele>1189.2880859</ele>
        <time>2010-10-30T08:35:10Z</time>
      </trkpt>
      <trkpt lat="43.98229" lon="6.60997">
        <ele>1193.6140137</ele>
        <time>2010-10-30T08:35:17Z</time>
      </trkpt>
      <trkpt lat="43.98227" lon="6.61008">
        <ele>1196.0175781</ele>
        <time>2010-10-30T08:35:24Z</time>
      </trkpt>
      <trkpt lat="43.98226" lon="6.61012">
        <ele>1196.0175781</ele>
        <time>2010-10-30T08:35:26Z</time>
      </trkpt>
      <trkpt lat="43.98221" lon="6.61019">
        <ele>1196.9787598</ele>
        <time>2010-10-30T08:35:33Z</time>
      </trkpt>
      <trkpt lat="43.9822" lon="6.61022">
        <ele>1198.4206543</ele>
        <time>2010-10-30T08:35:35Z</time>
      </trkpt>
      <trkpt lat="43.98218" lon="6.61031">
        <ele>1197.9401855</ele>
        <time>2010-10-30T08:35:39Z</time>
      </trkpt>
      <trkpt lat="43.98213" lon="6.61044">
        <ele>1196.9787598</ele>
        <time>2010-10-30T08:35:47Z</time>
      </trkpt>
      <trkpt lat="43.9821" lon="6.61047">
        <ele>1198.4206543</ele>
        <time>2010-10-30T08:35:50Z</time>
      </trkpt>
      <trkpt lat="43.98206" lon="6.61054">
        <ele>1200.3435059</ele>
        <time>2010-10-30T08:35:56Z</time>
      </trkpt>
      <trkpt lat="43.98201" lon="6.61067">
        <ele>1201.3046875</ele>
        <time>2010-10-30T08:36:04Z</time>
      </trkpt>
      <trkpt lat="43.98197" lon="6.6107">
        <ele>1202.746582</ele>
        <time>2010-10-30T08:36:10Z</time>
      </trkpt>
      <trkpt lat="43.98194" lon="6.61071">
        <ele>1204.1887207</ele>
        <time>2010-10-30T08:36:18Z</time>
      </trkpt>
      <trkpt lat="43.98191" lon="6.61078">
        <ele>1205.6306152</ele>
        <time>2010-10-30T08:36:27Z</time>
      </trkpt>
      <trkpt lat="43.98189" lon="6.61083">
        <ele>1206.111084</ele>
        <time>2010-10-30T08:36:33Z</time>
      </trkpt>
      <trkpt lat="43.9819" lon="6.61089">
        <ele>1206.111084</ele>
        <time>2010-10-30T08:36:39Z</time>
      </trkpt>
      <trkpt lat="43.9819" lon="6.61096">
        <ele>1204.1887207</ele>
        <time>2010-10-30T08:36:47Z</time>
      </trkpt>
      <trkpt lat="43.98185" lon="6.61109">
        <ele>1202.2658691</ele>
        <time>2010-10-30T08:36:53Z</time>
      </trkpt>
      <trkpt lat="43.98178" lon="6.61119">
        <ele>1201.3046875</ele>
        <time>2010-10-30T08:36:58Z</time>
      </trkpt>
      <trkpt lat="43.98169" lon="6.61134">
        <ele>1201.3046875</ele>
        <time>2010-10-30T08:37:05Z</time>
      </trkpt>
      <trkpt lat="43.98158" lon="6.61149">
        <ele>1200.8239746</ele>
        <time>2010-10-30T08:37:12Z</time>
      </trkpt>
      <trkpt lat="43.98147" lon="6.61157">
        <ele>1201.3046875</ele>
        <time>2010-10-30T08:37:17Z</time>
      </trkpt>
      <trkpt lat="43.98129" lon="6.61165">
        <ele>1200.8239746</ele>
        <time>2010-10-30T08:37:23Z</time>
      </trkpt>
      <trkpt lat="43.98119" lon="6.61167">
        <ele>1200.8239746</ele>
        <time>2010-10-30T08:37:26Z</time>
      </trkpt>
      <trkpt lat="43.98113" lon="6.61155">
        <ele>1199.3820801</ele>
        <time>2010-10-30T08:37:31Z</time>
      </trkpt>
      <trkpt lat="43.98111" lon="6.61144">
        <ele>1200.8239746</ele>
        <time>2010-10-30T08:37:36Z</time>
      </trkpt>
      <trkpt lat="43.9811" lon="6.61128">
        <ele>1200.3435059</ele>
        <time>2010-10-30T08:37:41Z</time>
      </trkpt>
      <trkpt lat="43.98109" lon="6.61118">
        <ele>1196.9787598</ele>
        <time>2010-10-30T08:37:46Z</time>
      </trkpt>
      <trkpt lat="43.98105" lon="6.61109">
        <ele>1195.0559082</ele>
        <time>2010-10-30T08:37:51Z</time>
      </trkpt>
      <trkpt lat="43.9809" lon="6.61093">
        <ele>1194.0947266</ele>
        <time>2010-10-30T08:37:56Z</time>
      </trkpt>
      <trkpt lat="43.98083" lon="6.61085">
        <ele>1197.4594727</ele>
        <time>2010-10-30T08:38:00Z</time>
      </trkpt>
      <trkpt lat="43.98086" lon="6.61083">
        <ele>1203.7080078</ele>
        <time>2010-10-30T08:38:11Z</time>
      </trkpt>
      <trkpt lat="43.9809" lon="6.61084">
        <ele>1204.1887207</ele>
        <time>2010-10-30T08:38:27Z</time>
      </trkpt>
      <trkpt lat="43.98085" lon="6.6108">
        <ele>1199.862793</ele>
        <time>2010-10-30T08:38:41Z</time>
      </trkpt>
      <trkpt lat="43.98086" lon="6.6108">
        <ele>1198.4206543</ele>
        <time>2010-10-30T08:40:01Z</time>
      </trkpt>
      <trkpt lat="43.9808" lon="6.61063">
        <ele>1197.9401855</ele>
        <time>2010-10-30T08:40:07Z</time>
      </trkpt>
      <trkpt lat="43.98077" lon="6.61055">
        <ele>1196.498291</ele>
        <time>2010-10-30T08:40:09Z</time>
      </trkpt>
      <trkpt lat="43.98066" lon="6.6103">
        <ele>1186.4042969</ele>
        <time>2010-10-30T08:40:15Z</time>
      </trkpt>
      <trkpt lat="43.98058" lon="6.61012">
        <ele>1181.1171875</ele>
        <time>2010-10-30T08:40:19Z</time>
      </trkpt>
      <trkpt lat="43.98037" lon="6.61002">
        <ele>1175.348877</ele>
        <time>2010-10-30T08:40:25Z</time>
      </trkpt>
      <trkpt lat="43.98023" lon="6.60996">
        <ele>1173.4265137</ele>
        <time>2010-10-30T08:40:29Z</time>
      </trkpt>
      <trkpt lat="43.98011" lon="6.60993">
        <ele>1168.1391602</ele>
        <time>2010-10-30T08:40:33Z</time>
      </trkpt>
      <trkpt lat="43.98009" lon="6.60992">
        <ele>1163.8129883</ele>
        <time>2010-10-30T08:40:37Z</time>
      </trkpt>
      <trkpt lat="43.98004" lon="6.60991">
        <ele>1162.3710938</ele>
        <time>2010-10-30T08:40:41Z</time>
      </trkpt>
      <trkpt lat="43.97994" lon="6.60983">
        <ele>1161.890625</ele>
        <time>2010-10-30T08:40:47Z</time>
      </trkpt>
      <trkpt lat="43.97982" lon="6.60974">
        <ele>1164.2939453</ele>
        <time>2010-10-30T08:40:52Z</time>
      </trkpt>
      <trkpt lat="43.97967" lon="6.60957">
        <ele>1167.6584473</ele>
        <time>2010-10-30T08:40:58Z</time>
      </trkpt>
      <trkpt lat="43.97957" lon="6.60943">
        <ele>1169.5812988</ele>
        <time>2010-10-30T08:41:03Z</time>
      </trkpt>
      <trkpt lat="43.97945" lon="6.60925">
        <ele>1166.6972656</ele>
        <time>2010-10-30T08:41:09Z</time>
      </trkpt>
      <trkpt lat="43.97939" lon="6.6091">
        <ele>1165.736084</ele>
        <time>2010-10-30T08:41:14Z</time>
      </trkpt>
      <trkpt lat="43.97926" lon="6.60894">
        <ele>1164.2939453</ele>
        <time>2010-10-30T08:41:19Z</time>
      </trkpt>
      <trkpt lat="43.97914" lon="6.60883">
        <ele>1165.2553711</ele>
        <time>2010-10-30T08:41:24Z</time>
      </trkpt>
      <trkpt lat="43.97909" lon="6.60885">
        <ele>1166.2165527</ele>
        <time>2010-10-30T08:41:28Z</time>
      </trkpt>
      <trkpt lat="43.97908" lon="6.60897">
        <ele>1170.5424805</ele>
        <time>2010-10-30T08:41:36Z</time>
      </trkpt>
      <trkpt lat="43.97912" lon="6.6091">
        <ele>1173.9069824</ele>
        <time>2010-10-30T08:41:42Z</time>
      </trkpt>
      <trkpt lat="43.97912" lon="6.60912">
        <ele>1174.8684082</ele>
        <time>2010-10-30T08:41:43Z</time>
      </trkpt>
      <trkpt lat="43.97912" lon="6.60932">
        <ele>1180.6364746</ele>
        <time>2010-10-30T08:41:53Z</time>
      </trkpt>
      <trkpt lat="43.97911" lon="6.60944">
        <ele>1181.1171875</ele>
        <time>2010-10-30T08:41:59Z</time>
      </trkpt>
      <trkpt lat="43.97911" lon="6.60959">
        <ele>1179.1940918</ele>
        <time>2010-10-30T08:42:06Z</time>
      </trkpt>
      <trkpt lat="43.97913" lon="6.60973">
        <ele>1180.6364746</ele>
        <time>2010-10-30T08:42:14Z</time>
      </trkpt>
      <trkpt lat="43.97915" lon="6.60982">
        <ele>1184.9624023</ele>
        <time>2010-10-30T08:42:21Z</time>
      </trkpt>
      <trkpt lat="43.97914" lon="6.60991">
        <ele>1187.8461914</ele>
        <time>2010-10-30T08:42:27Z</time>
      </trkpt>
      <trkpt lat="43.97913" lon="6.61002">
        <ele>1187.8461914</ele>
        <time>2010-10-30T08:42:34Z</time>
      </trkpt>
      <trkpt lat="43.97911" lon="6.61003">
        <ele>1186.8847656</ele>
        <time>2010-10-30T08:42:39Z</time>
      </trkpt>
      <trkpt lat="43.97912" lon="6.61003">
        <ele>1184.0009766</ele>
        <time>2010-10-30T08:42:50Z</time>
      </trkpt>
      <trkpt lat="43.97911" lon="6.61009">
        <ele>1183.0395508</ele>
        <time>2010-10-30T08:42:59Z</time>
      </trkpt>
      <trkpt lat="43.97909" lon="6.6102">
        <ele>1188.8076172</ele>
        <time>2010-10-30T08:43:08Z</time>
      </trkpt>
      <trkpt lat="43.97912" lon="6.61027">
        <ele>1188.3269043</ele>
        <time>2010-10-30T08:43:14Z</time>
      </trkpt>
      <trkpt lat="43.97914" lon="6.61035">
        <ele>1191.6914062</ele>
        <time>2010-10-30T08:43:22Z</time>
      </trkpt>
      <trkpt lat="43.97916" lon="6.61041">
        <ele>1193.1333008</ele>
        <time>2010-10-30T08:43:29Z</time>
      </trkpt>
      <trkpt lat="43.97921" lon="6.6105">
        <ele>1194.5751953</ele>
        <time>2010-10-30T08:43:38Z</time>
      </trkpt>
      <trkpt lat="43.97925" lon="6.61056">
        <ele>1196.9787598</ele>
        <time>2010-10-30T08:43:46Z</time>
      </trkpt>
      <trkpt lat="43.97926" lon="6.61063">
        <ele>1197.9401855</ele>
        <time>2010-10-30T08:43:54Z</time>
      </trkpt>
      <trkpt lat="43.97928" lon="6.61067">
        <ele>1197.9401855</ele>
        <time>2010-10-30T08:43:59Z</time>
      </trkpt>
      <trkpt lat="43.97931" lon="6.61072">
        <ele>1200.3435059</ele>
        <time>2010-10-30T08:44:06Z</time>
      </trkpt>
      <trkpt lat="43.97936" lon="6.61077">
        <ele>1204.1887207</ele>
        <time>2010-10-30T08:44:14Z</time>
      </trkpt>
      <trkpt lat="43.97937" lon="6.6108">
        <ele>1205.6306152</ele>
        <time>2010-10-30T08:44:19Z</time>
      </trkpt>
      <trkpt lat="43.97937" lon="6.61081">
        <ele>1205.1499023</ele>
        <time>2010-10-30T08:44:20Z</time>
      </trkpt>
      <trkpt lat="43.97932" lon="6.61083">
        <ele>1205.1499023</ele>
        <time>2010-10-30T08:44:26Z</time>
      </trkpt>
      <trkpt lat="43.97922" lon="6.61087">
        <ele>1203.7080078</ele>
        <time>2010-10-30T08:44:36Z</time>
      </trkpt>
      <trkpt lat="43.97916" lon="6.6109">
        <ele>1204.1887207</ele>
        <time>2010-10-30T08:44:43Z</time>
      </trkpt>
      <trkpt lat="43.9791" lon="6.61094">
        <ele>1205.1499023</ele>
        <time>2010-10-30T08:44:49Z</time>
      </trkpt>
      <trkpt lat="43.97906" lon="6.611">
        <ele>1207.0725098</ele>
        <time>2010-10-30T08:44:56Z</time>
      </trkpt>
      <trkpt lat="43.97904" lon="6.61106">
        <ele>1208.9951172</ele>
        <time>2010-10-30T08:45:04Z</time>
      </trkpt>
      <trkpt lat="43.97904" lon="6.61113">
        <ele>1211.8791504</ele>
        <time>2010-10-30T08:45:13Z</time>
      </trkpt>
      <trkpt lat="43.97902" lon="6.6112">
        <ele>1214.7631836</ele>
        <time>2010-10-30T08:45:21Z</time>
      </trkpt>
      <trkpt lat="43.979" lon="6.61126">
        <ele>1215.7246094</ele>
        <time>2010-10-30T08:45:27Z</time>
      </trkpt>
      <trkpt lat="43.97901" lon="6.61133">
        <ele>1217.1665039</ele>
        <time>2010-10-30T08:45:36Z</time>
      </trkpt>
      <trkpt lat="43.97902" lon="6.61141">
        <ele>1218.6083984</ele>
        <time>2010-10-30T08:45:45Z</time>
      </trkpt>
      <trkpt lat="43.97903" lon="6.61147">
        <ele>1220.5310059</ele>
        <time>2010-10-30T08:45:51Z</time>
      </trkpt>
      <trkpt lat="43.97903" lon="6.61149">
        <ele>1221.0117188</ele>
        <time>2010-10-30T08:45:52Z</time>
      </trkpt>
      <trkpt lat="43.97901" lon="6.61159">
        <ele>1222.4536133</ele>
        <time>2010-10-30T08:46:01Z</time>
      </trkpt>
      <trkpt lat="43.97898" lon="6.6116">
        <ele>1222.4536133</ele>
        <time>2010-10-30T08:46:08Z</time>
      </trkpt>
      <trkpt lat="43.97896" lon="6.6116">
        <ele>1222.4536133</ele>
        <time>2010-10-30T08:46:10Z</time>
      </trkpt>
      <trkpt lat="43.97894" lon="6.61169">
        <ele>1223.8955078</ele>
        <time>2010-10-30T08:46:17Z</time>
      </trkpt>
      <trkpt lat="43.97891" lon="6.61174">
        <ele>1224.3762207</ele>
        <time>2010-10-30T08:46:24Z</time>
      </trkpt>
      <trkpt lat="43.97886" lon="6.61181">
        <ele>1222.9343262</ele>
        <time>2010-10-30T08:46:30Z</time>
      </trkpt>
      <trkpt lat="43.9788" lon="6.61192">
        <ele>1222.9343262</ele>
        <time>2010-10-30T08:46:35Z</time>
      </trkpt>
      <trkpt lat="43.97876" lon="6.61204">
        <ele>1226.2988281</ele>
        <time>2010-10-30T08:46:41Z</time>
      </trkpt>
      <trkpt lat="43.97875" lon="6.61209">
        <ele>1227.2602539</ele>
        <time>2010-10-30T08:46:43Z</time>
      </trkpt>
      <trkpt lat="43.97877" lon="6.61225">
        <ele>1229.6635742</ele>
        <time>2010-10-30T08:46:51Z</time>
      </trkpt>
      <trkpt lat="43.9788" lon="6.61241">
        <ele>1232.0668945</ele>
        <time>2010-10-30T08:46:59Z</time>
      </trkpt>
      <trkpt lat="43.97881" lon="6.61261">
        <ele>1232.5476074</ele>
        <time>2010-10-30T08:47:08Z</time>
      </trkpt>
      <trkpt lat="43.97882" lon="6.61265">
        <ele>1232.0668945</ele>
        <time>2010-10-30T08:47:13Z</time>
      </trkpt>
      <trkpt lat="43.97883" lon="6.61267">
        <ele>1229.1828613</ele>
        <time>2010-10-30T08:47:19Z</time>
      </trkpt>
      <trkpt lat="43.97884" lon="6.61273">
        <ele>1229.1828613</ele>
        <time>2010-10-30T08:49:09Z</time>
      </trkpt>
      <trkpt lat="43.97883" lon="6.61278">
        <ele>1230.625</ele>
        <time>2010-10-30T08:49:14Z</time>
      </trkpt>
      <trkpt lat="43.97882" lon="6.61286">
        <ele>1230.1442871</ele>
        <time>2010-10-30T08:49:18Z</time>
      </trkpt>
      <trkpt lat="43.97878" lon="6.61301">
        <ele>1230.625</ele>
        <time>2010-10-30T08:49:27Z</time>
      </trkpt>
      <trkpt lat="43.97877" lon="6.61312">
        <ele>1232.0668945</ele>
        <time>2010-10-30T08:49:34Z</time>
      </trkpt>
      <trkpt lat="43.97879" lon="6.61321">
        <ele>1233.5087891</ele>
        <time>2010-10-30T08:49:41Z</time>
      </trkpt>
      <trkpt lat="43.97876" lon="6.61338">
        <ele>1234.9509277</ele>
        <time>2010-10-30T08:49:52Z</time>
      </trkpt>
      <trkpt lat="43.97877" lon="6.61351">
        <ele>1236.873291</ele>
        <time>2010-10-30T08:50:01Z</time>
      </trkpt>
      <trkpt lat="43.97878" lon="6.61359">
        <ele>1237.8347168</ele>
        <time>2010-10-30T08:50:07Z</time>
      </trkpt>
      <trkpt lat="43.97879" lon="6.61369">
        <ele>1240.2380371</ele>
        <time>2010-10-30T08:50:15Z</time>
      </trkpt>
      <trkpt lat="43.9788" lon="6.61376">
        <ele>1241.1992188</ele>
        <time>2010-10-30T08:50:20Z</time>
      </trkpt>
      <trkpt lat="43.97875" lon="6.61387">
        <ele>1242.6413574</ele>
        <time>2010-10-30T08:50:29Z</time>
      </trkpt>
      <trkpt lat="43.97878" lon="6.61391">
        <ele>1244.0834961</ele>
        <time>2010-10-30T08:50:36Z</time>
      </trkpt>
      <trkpt lat="43.97881" lon="6.61398">
        <ele>1246.0061035</ele>
        <time>2010-10-30T08:50:45Z</time>
      </trkpt>
      <trkpt lat="43.97881" lon="6.61399">
        <ele>1246.0061035</ele>
        <time>2010-10-30T08:50:51Z</time>
      </trkpt>
      <trkpt lat="43.97881" lon="6.61401">
        <ele>1246.0061035</ele>
        <time>2010-10-30T08:50:53Z</time>
      </trkpt>
      <trkpt lat="43.9788" lon="6.61409">
        <ele>1246.4868164</ele>
        <time>2010-10-30T08:51:00Z</time>
      </trkpt>
      <trkpt lat="43.9788" lon="6.61414">
        <ele>1247.447998</ele>
        <time>2010-10-30T08:51:06Z</time>
      </trkpt>
      <trkpt lat="43.97881" lon="6.61421">
        <ele>1249.8513184</ele>
        <time>2010-10-30T08:51:15Z</time>
      </trkpt>
      <trkpt lat="43.9788" lon="6.61427">
        <ele>1251.7739258</ele>
        <time>2010-10-30T08:51:23Z</time>
      </trkpt>
      <trkpt lat="43.97879" lon="6.61436">
        <ele>1253.6965332</ele>
        <time>2010-10-30T08:51:31Z</time>
      </trkpt>
      <trkpt lat="43.9788" lon="6.61442">
        <ele>1255.1384277</ele>
        <time>2010-10-30T08:51:38Z</time>
      </trkpt>
      <trkpt lat="43.97881" lon="6.61447">
        <ele>1256.0996094</ele>
        <time>2010-10-30T08:51:44Z</time>
      </trkpt>
      <trkpt lat="43.97881" lon="6.61449">
        <ele>1257.0610352</ele>
        <time>2010-10-30T08:51:51Z</time>
      </trkpt>
      <trkpt lat="43.97882" lon="6.6145">
        <ele>1255.6191406</ele>
        <time>2010-10-30T08:52:00Z</time>
      </trkpt>
      <trkpt lat="43.9788" lon="6.6145">
        <ele>1257.0610352</ele>
        <time>2010-10-30T08:52:08Z</time>
      </trkpt>
      <trkpt lat="43.97881" lon="6.6146">
        <ele>1258.9836426</ele>
        <time>2010-10-30T08:52:16Z</time>
      </trkpt>
      <trkpt lat="43.97882" lon="6.6147">
        <ele>1259.4643555</ele>
        <time>2010-10-30T08:52:24Z</time>
      </trkpt>
      <trkpt lat="43.97885" lon="6.61475">
        <ele>1261.8679199</ele>
        <time>2010-10-30T08:52:30Z</time>
      </trkpt>
      <trkpt lat="43.97884" lon="6.61484">
        <ele>1264.751709</ele>
        <time>2010-10-30T08:52:38Z</time>
      </trkpt>
      <trkpt lat="43.97883" lon="6.6149">
        <ele>1268.1162109</ele>
        <time>2010-10-30T08:52:45Z</time>
      </trkpt>
      <trkpt lat="43.97883" lon="6.61499">
        <ele>1269.5583496</ele>
        <time>2010-10-30T08:52:53Z</time>
      </trkpt>
      <trkpt lat="43.97882" lon="6.61511">
        <ele>1270.0388184</ele>
        <time>2010-10-30T08:53:01Z</time>
      </trkpt>
      <trkpt lat="43.97883" lon="6.61523">
        <ele>1265.7131348</ele>
        <time>2010-10-30T08:53:09Z</time>
      </trkpt>
      <trkpt lat="43.97881" lon="6.61531">
        <ele>1267.1550293</ele>
        <time>2010-10-30T08:53:14Z</time>
      </trkpt>
      <trkpt lat="43.97879" lon="6.61542">
        <ele>1270.0388184</ele>
        <time>2010-10-30T08:53:21Z</time>
      </trkpt>
      <trkpt lat="43.9788" lon="6.61544">
        <ele>1269.5583496</ele>
        <time>2010-10-30T08:53:26Z</time>
      </trkpt>
      <trkpt lat="43.97879" lon="6.6155">
        <ele>1269.0776367</ele>
        <time>2010-10-30T08:53:31Z</time>
      </trkpt>
      <trkpt lat="43.97883" lon="6.61551">
        <ele>1271.0002441</ele>
        <time>2010-10-30T08:53:36Z</time>
      </trkpt>
      <trkpt lat="43.97884" lon="6.61555">
        <ele>1276.2875977</ele>
        <time>2010-10-30T08:54:13Z</time>
      </trkpt>
      <trkpt lat="43.97884" lon="6.61564">
        <ele>1273.8840332</ele>
        <time>2010-10-30T08:54:18Z</time>
      </trkpt>
      <trkpt lat="43.97886" lon="6.61583">
        <ele>1276.2875977</ele>
        <time>2010-10-30T08:54:26Z</time>
      </trkpt>
      <trkpt lat="43.97886" lon="6.61604">
        <ele>1278.2102051</ele>
        <time>2010-10-30T08:54:34Z</time>
      </trkpt>
      <trkpt lat="43.97886" lon="6.61629">
        <ele>1276.2875977</ele>
        <time>2010-10-30T08:54:41Z</time>
      </trkpt>
      <trkpt lat="43.97886" lon="6.61644">
        <ele>1272.9228516</ele>
        <time>2010-10-30T08:54:44Z</time>
      </trkpt>
      <trkpt lat="43.97885" lon="6.61685">
        <ele>1269.0776367</ele>
        <time>2010-10-30T08:54:50Z</time>
      </trkpt>
      <trkpt lat="43.97889" lon="6.61702">
        <ele>1269.5583496</ele>
        <time>2010-10-30T08:54:54Z</time>
      </trkpt>
      <trkpt lat="43.97891" lon="6.61714">
        <ele>1271.9614258</ele>
        <time>2010-10-30T08:55:01Z</time>
      </trkpt>
      <trkpt lat="43.97889" lon="6.6172">
        <ele>1273.4035645</ele>
        <time>2010-10-30T08:55:08Z</time>
      </trkpt>
      <trkpt lat="43.97891" lon="6.61722">
        <ele>1270.0388184</ele>
        <time>2010-10-30T08:55:15Z</time>
      </trkpt>
      <trkpt lat="43.97891" lon="6.61723">
        <ele>1271.0002441</ele>
        <time>2010-10-30T08:55:21Z</time>
      </trkpt>
      <trkpt lat="43.9789" lon="6.61727">
        <ele>1271.4807129</ele>
        <time>2010-10-30T08:55:31Z</time>
      </trkpt>
      <trkpt lat="43.97888" lon="6.61732">
        <ele>1272.4421387</ele>
        <time>2010-10-30T08:55:34Z</time>
      </trkpt>
      <trkpt lat="43.97888" lon="6.61746">
        <ele>1275.8066406</ele>
        <time>2010-10-30T08:55:44Z</time>
      </trkpt>
      <trkpt lat="43.97888" lon="6.6175">
        <ele>1276.7683105</ele>
        <time>2010-10-30T08:55:51Z</time>
      </trkpt>
      <trkpt lat="43.9789" lon="6.61754">
        <ele>1274.3647461</ele>
        <time>2010-10-30T08:56:55Z</time>
      </trkpt>
      <trkpt lat="43.97893" lon="6.61773">
        <ele>1271.9614258</ele>
        <time>2010-10-30T08:56:59Z</time>
      </trkpt>
      <trkpt lat="43.97893" lon="6.61795">
        <ele>1268.5969238</ele>
        <time>2010-10-30T08:57:04Z</time>
      </trkpt>
      <trkpt lat="43.97893" lon="6.61809">
        <ele>1266.6743164</ele>
        <time>2010-10-30T08:57:07Z</time>
      </trkpt>
      <trkpt lat="43.97894" lon="6.6182">
        <ele>1266.1936035</ele>
        <time>2010-10-30T08:57:12Z</time>
      </trkpt>
      <trkpt lat="43.97895" lon="6.61825">
        <ele>1266.6743164</ele>
        <time>2010-10-30T08:57:17Z</time>
      </trkpt>
      <trkpt lat="43.97896" lon="6.61828">
        <ele>1268.1162109</ele>
        <time>2010-10-30T08:57:22Z</time>
      </trkpt>
      <trkpt lat="43.97895" lon="6.61835">
        <ele>1271.0002441</ele>
        <time>2010-10-30T08:57:28Z</time>
      </trkpt>
      <trkpt lat="43.97896" lon="6.61843">
        <ele>1272.9228516</ele>
        <time>2010-10-30T08:57:35Z</time>
      </trkpt>
      <trkpt lat="43.97896" lon="6.61853">
        <ele>1274.3647461</ele>
        <time>2010-10-30T08:57:43Z</time>
      </trkpt>
      <trkpt lat="43.97896" lon="6.61855">
        <ele>1275.3259277</ele>
        <time>2010-10-30T08:57:45Z</time>
      </trkpt>
      <trkpt lat="43.97897" lon="6.61862">
        <ele>1276.2875977</ele>
        <time>2010-10-30T08:57:51Z</time>
      </trkpt>
      <trkpt lat="43.97899" lon="6.61867">
        <ele>1277.7294922</ele>
        <time>2010-10-30T08:57:56Z</time>
      </trkpt>
      <trkpt lat="43.97898" lon="6.61875">
        <ele>1279.6520996</ele>
        <time>2010-10-30T08:58:04Z</time>
      </trkpt>
      <trkpt lat="43.97898" lon="6.61882">
        <ele>1279.6520996</ele>
        <time>2010-10-30T08:58:13Z</time>
      </trkpt>
      <trkpt lat="43.97896" lon="6.61888">
        <ele>1281.574707</ele>
        <time>2010-10-30T08:58:21Z</time>
      </trkpt>
      <trkpt lat="43.97895" lon="6.61892">
        <ele>1283.4973145</ele>
        <time>2010-10-30T08:58:29Z</time>
      </trkpt>
      <trkpt lat="43.97897" lon="6.61896">
        <ele>1285.4199219</ele>
        <time>2010-10-30T08:58:36Z</time>
      </trkpt>
      <trkpt lat="43.97897" lon="6.61901">
        <ele>1287.3425293</ele>
        <time>2010-10-30T08:58:45Z</time>
      </trkpt>
      <trkpt lat="43.97897" lon="6.61905">
        <ele>1289.2651367</ele>
        <time>2010-10-30T08:58:53Z</time>
      </trkpt>
      <trkpt lat="43.97898" lon="6.61907">
        <ele>1290.2265625</ele>
        <time>2010-10-30T08:58:59Z</time>
      </trkpt>
      <trkpt lat="43.97897" lon="6.6191">
        <ele>1291.668457</ele>
        <time>2010-10-30T08:59:06Z</time>
      </trkpt>
      <trkpt lat="43.97898" lon="6.61913">
        <ele>1292.630127</ele>
        <time>2010-10-30T08:59:12Z</time>
      </trkpt>
      <trkpt lat="43.97899" lon="6.61916">
        <ele>1294.5524902</ele>
        <time>2010-10-30T08:59:19Z</time>
      </trkpt>
      <trkpt lat="43.97898" lon="6.6192">
        <ele>1295.9946289</ele>
        <time>2010-10-30T08:59:27Z</time>
      </trkpt>
      <trkpt lat="43.979" lon="6.61923">
        <ele>1296.9558105</ele>
        <time>2010-10-30T08:59:35Z</time>
      </trkpt>
      <trkpt lat="43.979" lon="6.61926">
        <ele>1298.3977051</ele>
        <time>2010-10-30T08:59:40Z</time>
      </trkpt>
      <trkpt lat="43.97902" lon="6.61929">
        <ele>1299.3591309</ele>
        <time>2010-10-30T08:59:47Z</time>
      </trkpt>
      <trkpt lat="43.97904" lon="6.61931">
        <ele>1301.2817383</ele>
        <time>2010-10-30T08:59:55Z</time>
      </trkpt>
      <trkpt lat="43.979" lon="6.61936">
        <ele>1302.2429199</ele>
        <time>2010-10-30T09:00:03Z</time>
      </trkpt>
      <trkpt lat="43.97899" lon="6.61941">
        <ele>1303.2043457</ele>
        <time>2010-10-30T09:00:10Z</time>
      </trkpt>
      <trkpt lat="43.97899" lon="6.61946">
        <ele>1304.6462402</ele>
        <time>2010-10-30T09:00:19Z</time>
      </trkpt>
      <trkpt lat="43.97897" lon="6.61951">
        <ele>1306.0881348</ele>
        <time>2010-10-30T09:00:27Z</time>
      </trkpt>
      <trkpt lat="43.97899" lon="6.61953">
        <ele>1307.5302734</ele>
        <time>2010-10-30T09:00:34Z</time>
      </trkpt>
      <trkpt lat="43.97899" lon="6.61957">
        <ele>1308.0112305</ele>
        <time>2010-10-30T09:00:41Z</time>
      </trkpt>
      <trkpt lat="43.979" lon="6.61959">
        <ele>1309.453125</ele>
        <time>2010-10-30T09:00:49Z</time>
      </trkpt>
      <trkpt lat="43.97903" lon="6.61961">
        <ele>1309.9335938</ele>
        <time>2010-10-30T09:00:56Z</time>
      </trkpt>
      <trkpt lat="43.97906" lon="6.61962">
        <ele>1311.3757324</ele>
        <time>2010-10-30T09:01:03Z</time>
      </trkpt>
      <trkpt lat="43.97905" lon="6.61964">
        <ele>1313.2983398</ele>
        <time>2010-10-30T09:01:10Z</time>
      </trkpt>
      <trkpt lat="43.97903" lon="6.61969">
        <ele>1314.2595215</ele>
        <time>2010-10-30T09:01:18Z</time>
      </trkpt>
      <trkpt lat="43.97901" lon="6.61973">
        <ele>1315.2209473</ele>
        <time>2010-10-30T09:01:24Z</time>
      </trkpt>
      <trkpt lat="43.97899" lon="6.61977">
        <ele>1316.6628418</ele>
        <time>2010-10-30T09:01:30Z</time>
      </trkpt>
      <trkpt lat="43.979" lon="6.61979">
        <ele>1318.1047363</ele>
        <time>2010-10-30T09:01:36Z</time>
      </trkpt>
      <trkpt lat="43.97901" lon="6.6198">
        <ele>1319.0661621</ele>
        <time>2010-10-30T09:01:42Z</time>
      </trkpt>
      <trkpt lat="43.979" lon="6.61983">
        <ele>1320.0273438</ele>
        <time>2010-10-30T09:01:49Z</time>
      </trkpt>
      <trkpt lat="43.97901" lon="6.61985">
        <ele>1320.9887695</ele>
        <time>2010-10-30T09:01:57Z</time>
      </trkpt>
      <trkpt lat="43.97902" lon="6.61983">
        <ele>1323.3920898</ele>
        <time>2010-10-30T09:02:03Z</time>
      </trkpt>
      <trkpt lat="43.97903" lon="6.61983">
        <ele>1322.4306641</ele>
        <time>2010-10-30T09:02:15Z</time>
      </trkpt>
      <trkpt lat="43.97901" lon="6.61988">
        <ele>1322.4306641</ele>
        <time>2010-10-30T09:02:22Z</time>
      </trkpt>
      <trkpt lat="43.97903" lon="6.61989">
        <ele>1325.7954102</ele>
        <time>2010-10-30T09:02:29Z</time>
      </trkpt>
      <trkpt lat="43.97903" lon="6.61991">
        <ele>1327.7180176</ele>
        <time>2010-10-30T09:02:35Z</time>
      </trkpt>
      <trkpt lat="43.97902" lon="6.61995">
        <ele>1328.1987305</ele>
        <time>2010-10-30T09:02:41Z</time>
      </trkpt>
      <trkpt lat="43.97904" lon="6.61997">
        <ele>1329.1599121</ele>
        <time>2010-10-30T09:02:46Z</time>
      </trkpt>
      <trkpt lat="43.97903" lon="6.62">
        <ele>1329.640625</ele>
        <time>2010-10-30T09:02:54Z</time>
      </trkpt>
      <trkpt lat="43.97905" lon="6.62003">
        <ele>1329.640625</ele>
        <time>2010-10-30T09:03:00Z</time>
      </trkpt>
      <trkpt lat="43.97904" lon="6.62008">
        <ele>1331.0827637</ele>
        <time>2010-10-30T09:03:09Z</time>
      </trkpt>
      <trkpt lat="43.97903" lon="6.62012">
        <ele>1332.0439453</ele>
        <time>2010-10-30T09:03:15Z</time>
      </trkpt>
      <trkpt lat="43.97901" lon="6.62014">
        <ele>1332.5246582</ele>
        <time>2010-10-30T09:03:21Z</time>
      </trkpt>
      <trkpt lat="43.979" lon="6.62017">
        <ele>1332.5246582</ele>
        <time>2010-10-30T09:03:27Z</time>
      </trkpt>
      <trkpt lat="43.97899" lon="6.62021">
        <ele>1333.9665527</ele>
        <time>2010-10-30T09:03:35Z</time>
      </trkpt>
      <trkpt lat="43.979" lon="6.62023">
        <ele>1335.4084473</ele>
        <time>2010-10-30T09:03:42Z</time>
      </trkpt>
      <trkpt lat="43.97903" lon="6.62021">
        <ele>1335.4084473</ele>
        <time>2010-10-30T09:03:50Z</time>
      </trkpt>
      <trkpt lat="43.97902" lon="6.62022">
        <ele>1337.8117676</ele>
        <time>2010-10-30T09:03:58Z</time>
      </trkpt>
      <trkpt lat="43.979" lon="6.62022">
        <ele>1339.734375</ele>
        <time>2010-10-30T09:04:05Z</time>
      </trkpt>
      <trkpt lat="43.979" lon="6.62023">
        <ele>1339.2536621</ele>
        <time>2010-10-30T09:04:10Z</time>
      </trkpt>
      <trkpt lat="43.97901" lon="6.62023">
        <ele>1335.8891602</ele>
        <time>2010-10-30T09:04:23Z</time>
      </trkpt>
      <trkpt lat="43.97902" lon="6.62024">
        <ele>1333.4858398</ele>
        <time>2010-10-30T09:04:42Z</time>
      </trkpt>
      <trkpt lat="43.97902" lon="6.62021">
        <ele>1335.4084473</ele>
        <time>2010-10-30T09:04:54Z</time>
      </trkpt>
      <trkpt lat="43.97901" lon="6.62018">
        <ele>1337.3310547</ele>
        <time>2010-10-30T09:05:07Z</time>
      </trkpt>
      <trkpt lat="43.97899" lon="6.62021">
        <ele>1337.8117676</ele>
        <time>2010-10-30T09:05:13Z</time>
      </trkpt>
      <trkpt lat="43.97894" lon="6.62026">
        <ele>1341.1765137</ele>
        <time>2010-10-30T09:05:20Z</time>
      </trkpt>
      <trkpt lat="43.97891" lon="6.62024">
        <ele>1347.9057617</ele>
        <time>2010-10-30T09:05:26Z</time>
      </trkpt>
      <trkpt lat="43.97885" lon="6.62027">
        <ele>1352.2314453</ele>
        <time>2010-10-30T09:05:33Z</time>
      </trkpt>
      <trkpt lat="43.97882" lon="6.6203">
        <ele>1352.2314453</ele>
        <time>2010-10-30T09:05:40Z</time>
      </trkpt>
      <trkpt lat="43.97881" lon="6.62037">
        <ele>1354.6347656</ele>
        <time>2010-10-30T09:05:46Z</time>
      </trkpt>
      <trkpt lat="43.97879" lon="6.62047">
        <ele>1356.0769043</ele>
        <time>2010-10-30T09:05:53Z</time>
      </trkpt>
      <trkpt lat="43.97876" lon="6.62056">
        <ele>1355.1154785</ele>
        <time>2010-10-30T09:05:59Z</time>
      </trkpt>
      <trkpt lat="43.97873" lon="6.62062">
        <ele>1356.5576172</ele>
        <time>2010-10-30T09:06:07Z</time>
      </trkpt>
      <trkpt lat="43.97871" lon="6.62069">
        <ele>1359.4416504</ele>
        <time>2010-10-30T09:06:17Z</time>
      </trkpt>
      <trkpt lat="43.97869" lon="6.62074">
        <ele>1360.8835449</ele>
        <time>2010-10-30T09:06:25Z</time>
      </trkpt>
      <trkpt lat="43.97868" lon="6.62078">
        <ele>1358.9609375</ele>
        <time>2010-10-30T09:06:31Z</time>
      </trkpt>
      <trkpt lat="43.97865" lon="6.62084">
        <ele>1358.4802246</ele>
        <time>2010-10-30T09:06:37Z</time>
      </trkpt>
      <trkpt lat="43.97861" lon="6.62088">
        <ele>1359.9221191</ele>
        <time>2010-10-30T09:06:45Z</time>
      </trkpt>
      <trkpt lat="43.97854" lon="6.62096">
        <ele>1362.8061523</ele>
        <time>2010-10-30T09:06:52Z</time>
      </trkpt>
      <trkpt lat="43.9785" lon="6.62102">
        <ele>1366.1706543</ele>
        <time>2010-10-30T09:07:01Z</time>
      </trkpt>
      <trkpt lat="43.97847" lon="6.62109">
        <ele>1366.6513672</ele>
        <time>2010-10-30T09:07:08Z</time>
      </trkpt>
      <trkpt lat="43.97844" lon="6.62113">
        <ele>1367.1320801</ele>
        <time>2010-10-30T09:07:15Z</time>
      </trkpt>
      <trkpt lat="43.97848" lon="6.62113">
        <ele>1367.6125488</ele>
        <time>2010-10-30T09:07:21Z</time>
      </trkpt>
      <trkpt lat="43.9785" lon="6.62111">
        <ele>1366.6513672</ele>
        <time>2010-10-30T09:07:25Z</time>
      </trkpt>
      <trkpt lat="43.97855" lon="6.62111">
        <ele>1367.6125488</ele>
        <time>2010-10-30T09:07:31Z</time>
      </trkpt>
      <trkpt lat="43.97858" lon="6.6211">
        <ele>1367.6125488</ele>
        <time>2010-10-30T09:07:35Z</time>
      </trkpt>
      <trkpt lat="43.97864" lon="6.62108">
        <ele>1368.5739746</ele>
        <time>2010-10-30T09:07:42Z</time>
      </trkpt>
      <trkpt lat="43.97869" lon="6.62107">
        <ele>1370.0158691</ele>
        <time>2010-10-30T09:07:49Z</time>
      </trkpt>
      <trkpt lat="43.97875" lon="6.62106">
        <ele>1369.5354004</ele>
        <time>2010-10-30T09:07:56Z</time>
      </trkpt>
      <trkpt lat="43.97876" lon="6.62104">
        <ele>1370.0158691</ele>
        <time>2010-10-30T09:07:58Z</time>
      </trkpt>
      <trkpt lat="43.97885" lon="6.62103">
        <ele>1372.9001465</ele>
        <time>2010-10-30T09:08:07Z</time>
      </trkpt>
      <trkpt lat="43.97893" lon="6.62104">
        <ele>1374.342041</ele>
        <time>2010-10-30T09:08:14Z</time>
      </trkpt>
      <trkpt lat="43.97899" lon="6.62104">
        <ele>1376.2646484</ele>
        <time>2010-10-30T09:08:20Z</time>
      </trkpt>
      <trkpt lat="43.97903" lon="6.62108">
        <ele>1375.7839355</ele>
        <time>2010-10-30T09:08:27Z</time>
      </trkpt>
      <trkpt lat="43.97906" lon="6.62117">
        <ele>1375.7839355</ele>
        <time>2010-10-30T09:08:35Z</time>
      </trkpt>
      <trkpt lat="43.9791" lon="6.6212">
        <ele>1377.2260742</ele>
        <time>2010-10-30T09:08:43Z</time>
      </trkpt>
      <trkpt lat="43.97912" lon="6.6212">
        <ele>1377.2260742</ele>
        <time>2010-10-30T09:08:46Z</time>
      </trkpt>
      <trkpt lat="43.97917" lon="6.62118">
        <ele>1377.706543</ele>
        <time>2010-10-30T09:08:51Z</time>
      </trkpt>
      <trkpt lat="43.97924" lon="6.62119">
        <ele>1381.0712891</ele>
        <time>2010-10-30T09:08:59Z</time>
      </trkpt>
      <trkpt lat="43.97932" lon="6.62116">
        <ele>1383.9550781</ele>
        <time>2010-10-30T09:09:07Z</time>
      </trkpt>
      <trkpt lat="43.97936" lon="6.62112">
        <ele>1385.8776855</ele>
        <time>2010-10-30T09:09:13Z</time>
      </trkpt>
      <trkpt lat="43.97944" lon="6.62114">
        <ele>1387.3195801</ele>
        <time>2010-10-30T09:09:21Z</time>
      </trkpt>
      <trkpt lat="43.97947" lon="6.62113">
        <ele>1387.800293</ele>
        <time>2010-10-30T09:09:26Z</time>
      </trkpt>
      <trkpt lat="43.97953" lon="6.62114">
        <ele>1389.7231445</ele>
        <time>2010-10-30T09:09:33Z</time>
      </trkpt>
      <trkpt lat="43.97958" lon="6.62111">
        <ele>1392.6071777</ele>
        <time>2010-10-30T09:09:39Z</time>
      </trkpt>
      <trkpt lat="43.97962" lon="6.62111">
        <ele>1393.5683594</ele>
        <time>2010-10-30T09:09:44Z</time>
      </trkpt>
      <trkpt lat="43.97964" lon="6.62112">
        <ele>1395.4909668</ele>
        <time>2010-10-30T09:09:50Z</time>
      </trkpt>
      <trkpt lat="43.9796" lon="6.62117">
        <ele>1399.3361816</ele>
        <time>2010-10-30T09:09:57Z</time>
      </trkpt>
      <trkpt lat="43.97958" lon="6.62127">
        <ele>1397.4135742</ele>
        <time>2010-10-30T09:10:04Z</time>
      </trkpt>
      <trkpt lat="43.97956" lon="6.62133">
        <ele>1398.3747559</ele>
        <time>2010-10-30T09:10:12Z</time>
      </trkpt>
      <trkpt lat="43.97954" lon="6.6214">
        <ele>1400.2976074</ele>
        <time>2010-10-30T09:10:21Z</time>
      </trkpt>
      <trkpt lat="43.97953" lon="6.62144">
        <ele>1402.7006836</ele>
        <time>2010-10-30T09:10:27Z</time>
      </trkpt>
      <trkpt lat="43.9795" lon="6.62148">
        <ele>1403.6621094</ele>
        <time>2010-10-30T09:10:34Z</time>
      </trkpt>
      <trkpt lat="43.97947" lon="6.62156">
        <ele>1407.5075684</ele>
        <time>2010-10-30T09:10:42Z</time>
      </trkpt>
      <trkpt lat="43.97944" lon="6.62163">
        <ele>1409.4301758</ele>
        <time>2010-10-30T09:10:49Z</time>
      </trkpt>
      <trkpt lat="43.97942" lon="6.62169">
        <ele>1409.4301758</ele>
        <time>2010-10-30T09:10:55Z</time>
      </trkpt>
      <trkpt lat="43.97939" lon="6.62171">
        <ele>1410.8720703</ele>
        <time>2010-10-30T09:10:59Z</time>
      </trkpt>
      <trkpt lat="43.9794" lon="6.62175">
        <ele>1411.3527832</ele>
        <time>2010-10-30T09:11:05Z</time>
      </trkpt>
      <trkpt lat="43.97942" lon="6.62174">
        <ele>1411.8334961</ele>
        <time>2010-10-30T09:11:10Z</time>
      </trkpt>
      <trkpt lat="43.97943" lon="6.62178">
        <ele>1416.6398926</ele>
        <time>2010-10-30T09:11:20Z</time>
      </trkpt>
      <trkpt lat="43.9794" lon="6.62182">
        <ele>1419.5239258</ele>
        <time>2010-10-30T09:11:25Z</time>
      </trkpt>
      <trkpt lat="43.97935" lon="6.62186">
        <ele>1420.4853516</ele>
        <time>2010-10-30T09:11:32Z</time>
      </trkpt>
      <trkpt lat="43.97933" lon="6.62195">
        <ele>1419.0432129</ele>
        <time>2010-10-30T09:11:43Z</time>
      </trkpt>
      <trkpt lat="43.9793" lon="6.62201">
        <ele>1419.5239258</ele>
        <time>2010-10-30T09:11:51Z</time>
      </trkpt>
      <trkpt lat="43.97925" lon="6.62213">
        <ele>1415.6787109</ele>
        <time>2010-10-30T09:12:06Z</time>
      </trkpt>
      <trkpt lat="43.97922" lon="6.62213">
        <ele>1417.1206055</ele>
        <time>2010-10-30T09:12:12Z</time>
      </trkpt>
      <trkpt lat="43.97921" lon="6.62217">
        <ele>1420.4853516</ele>
        <time>2010-10-30T09:12:20Z</time>
      </trkpt>
      <trkpt lat="43.97925" lon="6.62215">
        <ele>1420.9660645</ele>
        <time>2010-10-30T09:12:26Z</time>
      </trkpt>
      <trkpt lat="43.97928" lon="6.62214">
        <ele>1422.407959</ele>
        <time>2010-10-30T09:12:31Z</time>
      </trkpt>
      <trkpt lat="43.97933" lon="6.62211">
        <ele>1424.3305664</ele>
        <time>2010-10-30T09:12:37Z</time>
      </trkpt>
      <trkpt lat="43.97943" lon="6.62211">
        <ele>1426.7338867</ele>
        <time>2010-10-30T09:12:50Z</time>
      </trkpt>
      <trkpt lat="43.97946" lon="6.62211">
        <ele>1426.7338867</ele>
        <time>2010-10-30T09:12:54Z</time>
      </trkpt>
      <trkpt lat="43.97952" lon="6.62208">
        <ele>1428.1757812</ele>
        <time>2010-10-30T09:13:00Z</time>
      </trkpt>
      <trkpt lat="43.97959" lon="6.62206">
        <ele>1428.6564941</ele>
        <time>2010-10-30T09:13:07Z</time>
      </trkpt>
      <trkpt lat="43.97963" lon="6.62205">
        <ele>1429.1369629</ele>
        <time>2010-10-30T09:13:13Z</time>
      </trkpt>
      <trkpt lat="43.97959" lon="6.62214">
        <ele>1434.9050293</ele>
        <time>2010-10-30T09:13:29Z</time>
      </trkpt>
      <trkpt lat="43.97955" lon="6.6222">
        <ele>1437.3083496</ele>
        <time>2010-10-30T09:13:37Z</time>
      </trkpt>
      <trkpt lat="43.97949" lon="6.62223">
        <ele>1442.1149902</ele>
        <time>2010-10-30T09:13:45Z</time>
      </trkpt>
      <trkpt lat="43.97948" lon="6.62227">
        <ele>1442.5957031</ele>
        <time>2010-10-30T09:13:49Z</time>
      </trkpt>
      <trkpt lat="43.97946" lon="6.62236">
        <ele>1439.230957</ele>
        <time>2010-10-30T09:13:55Z</time>
      </trkpt>
      <trkpt lat="43.97943" lon="6.62241">
        <ele>1441.6342773</ele>
        <time>2010-10-30T09:14:02Z</time>
      </trkpt>
      <trkpt lat="43.9794" lon="6.62243">
        <ele>1440.6728516</ele>
        <time>2010-10-30T09:14:07Z</time>
      </trkpt>
      <trkpt lat="43.97938" lon="6.62245">
        <ele>1439.7116699</ele>
        <time>2010-10-30T09:14:10Z</time>
      </trkpt>
      <trkpt lat="43.9793" lon="6.62248">
        <ele>1439.230957</ele>
        <time>2010-10-30T09:14:18Z</time>
      </trkpt>
      <trkpt lat="43.9792" lon="6.62254">
        <ele>1440.1923828</ele>
        <time>2010-10-30T09:14:27Z</time>
      </trkpt>
      <trkpt lat="43.97915" lon="6.62259">
        <ele>1441.1535645</ele>
        <time>2010-10-30T09:14:33Z</time>
      </trkpt>
      <trkpt lat="43.97911" lon="6.62265">
        <ele>1440.1923828</ele>
        <time>2010-10-30T09:14:40Z</time>
      </trkpt>
      <trkpt lat="43.97909" lon="6.62268">
        <ele>1440.1923828</ele>
        <time>2010-10-30T09:14:45Z</time>
      </trkpt>
      <trkpt lat="43.97905" lon="6.62271">
        <ele>1442.5957031</ele>
        <time>2010-10-30T09:14:51Z</time>
      </trkpt>
      <trkpt lat="43.97903" lon="6.62276">
        <ele>1443.0761719</ele>
        <time>2010-10-30T09:14:56Z</time>
      </trkpt>
      <trkpt lat="43.97899" lon="6.62278">
        <ele>1445.9602051</ele>
        <time>2010-10-30T09:15:02Z</time>
      </trkpt>
      <trkpt lat="43.97898" lon="6.62282">
        <ele>1445.9602051</ele>
        <time>2010-10-30T09:15:06Z</time>
      </trkpt>
      <trkpt lat="43.97895" lon="6.62295">
        <ele>1445.4794922</ele>
        <time>2010-10-30T09:15:13Z</time>
      </trkpt>
      <trkpt lat="43.97893" lon="6.62299">
        <ele>1450.2861328</ele>
        <time>2010-10-30T09:15:18Z</time>
      </trkpt>
      <trkpt lat="43.97892" lon="6.62305">
        <ele>1451.2473145</ele>
        <time>2010-10-30T09:15:24Z</time>
      </trkpt>
      <trkpt lat="43.9789" lon="6.62311">
        <ele>1451.7280273</ele>
        <time>2010-10-30T09:15:28Z</time>
      </trkpt>
      <trkpt lat="43.97886" lon="6.62311">
        <ele>1456.534668</ele>
        <time>2010-10-30T09:15:34Z</time>
      </trkpt>
      <trkpt lat="43.97885" lon="6.62306">
        <ele>1457.4960938</ele>
        <time>2010-10-30T09:15:44Z</time>
      </trkpt>
      <trkpt lat="43.97891" lon="6.62312">
        <ele>1445.9602051</ele>
        <time>2010-10-30T09:16:07Z</time>
      </trkpt>
      <trkpt lat="43.97895" lon="6.62317">
        <ele>1439.230957</ele>
        <time>2010-10-30T09:16:17Z</time>
      </trkpt>
      <trkpt lat="43.97892" lon="6.62319">
        <ele>1439.7116699</ele>
        <time>2010-10-30T09:16:26Z</time>
      </trkpt>
      <trkpt lat="43.97888" lon="6.62325">
        <ele>1447.8828125</ele>
        <time>2010-10-30T09:16:36Z</time>
      </trkpt>
      <trkpt lat="43.97889" lon="6.62335">
        <ele>1452.2087402</ele>
        <time>2010-10-30T09:16:43Z</time>
      </trkpt>
      <trkpt lat="43.97889" lon="6.62337">
        <ele>1452.6894531</ele>
        <time>2010-10-30T09:16:44Z</time>
      </trkpt>
      <trkpt lat="43.9789" lon="6.62344">
        <ele>1458.4572754</ele>
        <time>2010-10-30T09:16:51Z</time>
      </trkpt>
      <trkpt lat="43.97893" lon="6.62356">
        <ele>1462.3024902</ele>
        <time>2010-10-30T09:16:58Z</time>
      </trkpt>
      <trkpt lat="43.97896" lon="6.62367">
        <ele>1463.263916</ele>
        <time>2010-10-30T09:17:03Z</time>
      </trkpt>
      <trkpt lat="43.97896" lon="6.62377">
        <ele>1467.5895996</ele>
        <time>2010-10-30T09:17:08Z</time>
      </trkpt>
      <trkpt lat="43.97901" lon="6.62393">
        <ele>1464.7058105</ele>
        <time>2010-10-30T09:17:16Z</time>
      </trkpt>
      <trkpt lat="43.97904" lon="6.62406">
        <ele>1467.5895996</ele>
        <time>2010-10-30T09:17:24Z</time>
      </trkpt>
      <trkpt lat="43.97905" lon="6.62412">
        <ele>1468.0705566</ele>
        <time>2010-10-30T09:17:30Z</time>
      </trkpt>
      <trkpt lat="43.97907" lon="6.62418">
        <ele>1464.7058105</ele>
        <time>2010-10-30T09:17:47Z</time>
      </trkpt>
      <trkpt lat="43.97909" lon="6.62423">
        <ele>1466.628418</ele>
        <time>2010-10-30T09:17:54Z</time>
      </trkpt>
      <trkpt lat="43.97911" lon="6.6243">
        <ele>1467.1091309</ele>
        <time>2010-10-30T09:18:02Z</time>
      </trkpt>
      <trkpt lat="43.97913" lon="6.62436">
        <ele>1468.5512695</ele>
        <time>2010-10-30T09:18:12Z</time>
      </trkpt>
      <trkpt lat="43.97916" lon="6.62448">
        <ele>1470.9545898</ele>
        <time>2010-10-30T09:18:19Z</time>
      </trkpt>
      <trkpt lat="43.97918" lon="6.62464">
        <ele>1474.7998047</ele>
        <time>2010-10-30T09:18:28Z</time>
      </trkpt>
      <trkpt lat="43.97914" lon="6.62482">
        <ele>1479.6062012</ele>
        <time>2010-10-30T09:18:37Z</time>
      </trkpt>
      <trkpt lat="43.97915" lon="6.62492">
        <ele>1479.1254883</ele>
        <time>2010-10-30T09:18:43Z</time>
      </trkpt>
      <trkpt lat="43.97916" lon="6.62494">
        <ele>1478.1643066</ele>
        <time>2010-10-30T09:18:44Z</time>
      </trkpt>
      <trkpt lat="43.97915" lon="6.62498">
        <ele>1477.6835938</ele>
        <time>2010-10-30T09:18:49Z</time>
      </trkpt>
      <trkpt lat="43.97917" lon="6.625">
        <ele>1471.9157715</ele>
        <time>2010-10-30T09:18:57Z</time>
      </trkpt>
      <trkpt lat="43.97917" lon="6.62505">
        <ele>1475.2802734</ele>
        <time>2010-10-30T09:19:05Z</time>
      </trkpt>
      <trkpt lat="43.97916" lon="6.62514">
        <ele>1477.203125</ele>
        <time>2010-10-30T09:19:14Z</time>
      </trkpt>
      <trkpt lat="43.97914" lon="6.62518">
        <ele>1480.567627</ele>
        <time>2010-10-30T09:19:19Z</time>
      </trkpt>
      <trkpt lat="43.97913" lon="6.62521">
        <ele>1483.451416</ele>
        <time>2010-10-30T09:19:25Z</time>
      </trkpt>
      <trkpt lat="43.97913" lon="6.62524">
        <ele>1485.3742676</ele>
        <time>2010-10-30T09:19:32Z</time>
      </trkpt>
      <trkpt lat="43.97913" lon="6.62529">
        <ele>1485.3742676</ele>
        <time>2010-10-30T09:19:37Z</time>
      </trkpt>
      <trkpt lat="43.97916" lon="6.62538">
        <ele>1485.3742676</ele>
        <time>2010-10-30T09:19:46Z</time>
      </trkpt>
      <trkpt lat="43.9792" lon="6.62541">
        <ele>1489.2194824</ele>
        <time>2010-10-30T09:19:53Z</time>
      </trkpt>
      <trkpt lat="43.97925" lon="6.62541">
        <ele>1492.5842285</ele>
        <time>2010-10-30T09:20:00Z</time>
      </trkpt>
      <trkpt lat="43.97934" lon="6.62541">
        <ele>1492.5842285</ele>
        <time>2010-10-30T09:20:09Z</time>
      </trkpt>
      <trkpt lat="43.9794" lon="6.62545">
        <ele>1494.026123</ele>
        <time>2010-10-30T09:20:16Z</time>
      </trkpt>
      <trkpt lat="43.97944" lon="6.6255">
        <ele>1495.4680176</ele>
        <time>2010-10-30T09:20:24Z</time>
      </trkpt>
      <trkpt lat="43.97944" lon="6.6256">
        <ele>1498.3518066</ele>
        <time>2010-10-30T09:20:33Z</time>
      </trkpt>
      <trkpt lat="43.97943" lon="6.62567">
        <ele>1498.8325195</ele>
        <time>2010-10-30T09:20:41Z</time>
      </trkpt>
      <trkpt lat="43.97943" lon="6.62585">
        <ele>1501.7167969</ele>
        <time>2010-10-30T09:20:50Z</time>
      </trkpt>
      <trkpt lat="43.97945" lon="6.62597">
        <ele>1500.7553711</ele>
        <time>2010-10-30T09:20:56Z</time>
      </trkpt>
      <trkpt lat="43.9795" lon="6.62611">
        <ele>1500.7553711</ele>
        <time>2010-10-30T09:21:04Z</time>
      </trkpt>
      <trkpt lat="43.97954" lon="6.62624">
        <ele>1500.7553711</ele>
        <time>2010-10-30T09:21:11Z</time>
      </trkpt>
      <trkpt lat="43.97956" lon="6.62627">
        <ele>1499.3132324</ele>
        <time>2010-10-30T09:21:17Z</time>
      </trkpt>
      <trkpt lat="43.97959" lon="6.62624">
        <ele>1493.5454102</ele>
        <time>2010-10-30T09:21:28Z</time>
      </trkpt>
      <trkpt lat="43.97958" lon="6.62624">
        <ele>1491.6228027</ele>
        <time>2010-10-30T09:21:39Z</time>
      </trkpt>
      <trkpt lat="43.97954" lon="6.62625">
        <ele>1494.5065918</ele>
        <time>2010-10-30T09:21:48Z</time>
      </trkpt>
      <trkpt lat="43.97952" lon="6.62625">
        <ele>1497.390625</ele>
        <time>2010-10-30T09:22:01Z</time>
      </trkpt>
      <trkpt lat="43.97953" lon="6.62626">
        <ele>1497.390625</ele>
        <time>2010-10-30T09:22:10Z</time>
      </trkpt>
      <trkpt lat="43.97951" lon="6.62626">
        <ele>1499.3132324</ele>
        <time>2010-10-30T09:22:21Z</time>
      </trkpt>
      <trkpt lat="43.97953" lon="6.62626">
        <ele>1498.8325195</ele>
        <time>2010-10-30T09:22:30Z</time>
      </trkpt>
      <trkpt lat="43.97953" lon="6.62627">
        <ele>1500.2749023</ele>
        <time>2010-10-30T09:22:38Z</time>
      </trkpt>
      <trkpt lat="43.9795" lon="6.62629">
        <ele>1504.6005859</ele>
        <time>2010-10-30T09:22:47Z</time>
      </trkpt>
      <trkpt lat="43.97951" lon="6.62628">
        <ele>1504.6005859</ele>
        <time>2010-10-30T09:22:55Z</time>
      </trkpt>
      <trkpt lat="43.97949" lon="6.6263">
        <ele>1507.0039062</ele>
        <time>2010-10-30T09:23:04Z</time>
      </trkpt>
      <trkpt lat="43.97945" lon="6.62632">
        <ele>1510.8491211</ele>
        <time>2010-10-30T09:23:13Z</time>
      </trkpt>
      <trkpt lat="43.9795" lon="6.62629">
        <ele>1507.0039062</ele>
        <time>2010-10-30T09:23:24Z</time>
      </trkpt>
      <trkpt lat="43.97953" lon="6.62629">
        <ele>1503.1586914</ele>
        <time>2010-10-30T09:23:32Z</time>
      </trkpt>
      <trkpt lat="43.97952" lon="6.6263">
        <ele>1503.6394043</ele>
        <time>2010-10-30T09:23:41Z</time>
      </trkpt>
      <trkpt lat="43.97951" lon="6.6263">
        <ele>1504.6005859</ele>
        <time>2010-10-30T09:23:53Z</time>
      </trkpt>
      <trkpt lat="43.9795" lon="6.62631">
        <ele>1507.4846191</ele>
        <time>2010-10-30T09:24:08Z</time>
      </trkpt>
      <trkpt lat="43.97954" lon="6.62629">
        <ele>1503.6394043</ele>
        <time>2010-10-30T09:24:14Z</time>
      </trkpt>
      <trkpt lat="43.9796" lon="6.62627">
        <ele>1498.3518066</ele>
        <time>2010-10-30T09:24:23Z</time>
      </trkpt>
      <trkpt lat="43.97966" lon="6.62624">
        <ele>1493.0646973</ele>
        <time>2010-10-30T09:24:33Z</time>
      </trkpt>
      <trkpt lat="43.97959" lon="6.62629">
        <ele>1498.3518066</ele>
        <time>2010-10-30T09:24:55Z</time>
      </trkpt>
      <trkpt lat="43.97957" lon="6.62629">
        <ele>1501.7167969</ele>
        <time>2010-10-30T09:25:17Z</time>
      </trkpt>
      <trkpt lat="43.97962" lon="6.62626">
        <ele>1494.9873047</ele>
        <time>2010-10-30T09:26:06Z</time>
      </trkpt>
      <trkpt lat="43.97961" lon="6.62626">
        <ele>1495.4680176</ele>
        <time>2010-10-30T09:26:41Z</time>
      </trkpt>
      <trkpt lat="43.97961" lon="6.62627">
        <ele>1495.9487305</ele>
        <time>2010-10-30T09:26:57Z</time>
      </trkpt>
      <trkpt lat="43.97961" lon="6.62627">
        <ele>1494.9873047</ele>
        <time>2010-10-30T09:27:08Z</time>
      </trkpt>
      <trkpt lat="43.97961" lon="6.62627">
        <ele>1495.4680176</ele>
        <time>2010-10-30T09:27:21Z</time>
      </trkpt>
      <trkpt lat="43.97962" lon="6.62627">
        <ele>1494.026123</ele>
        <time>2010-10-30T09:27:33Z</time>
      </trkpt>
      <trkpt lat="43.97962" lon="6.62627">
        <ele>1494.026123</ele>
        <time>2010-10-30T09:27:45Z</time>
      </trkpt>
      <trkpt lat="43.97962" lon="6.62627">
        <ele>1494.026123</ele>
        <time>2010-10-30T09:27:57Z</time>
      </trkpt>
      <trkpt lat="43.9796" lon="6.62626">
        <ele>1495.9487305</ele>
        <time>2010-10-30T09:28:13Z</time>
      </trkpt>
      <trkpt lat="43.9796" lon="6.62626">
        <ele>1497.390625</ele>
        <time>2010-10-30T09:28:31Z</time>
      </trkpt>
      <trkpt lat="43.97956" lon="6.62629">
        <ele>1502.1972656</ele>
        <time>2010-10-30T09:29:36Z</time>
      </trkpt>
      <trkpt lat="43.97958" lon="6.62628">
        <ele>1499.3132324</ele>
        <time>2010-10-30T09:29:48Z</time>
      </trkpt>
      <trkpt lat="43.97959" lon="6.62628">
        <ele>1497.390625</ele>
        <time>2010-10-30T09:30:05Z</time>
      </trkpt>
      <trkpt lat="43.97959" lon="6.62628">
        <ele>1497.390625</ele>
        <time>2010-10-30T09:30:29Z</time>
      </trkpt>
      <trkpt lat="43.97963" lon="6.62627">
        <ele>1493.0646973</ele>
        <time>2010-10-30T09:31:00Z</time>
      </trkpt>
      <trkpt lat="43.97961" lon="6.62629">
        <ele>1495.9487305</ele>
        <time>2010-10-30T09:31:29Z</time>
      </trkpt>
      <trkpt lat="43.97958" lon="6.62641">
        <ele>1498.3518066</ele>
        <time>2010-10-30T09:31:35Z</time>
      </trkpt>
      <trkpt lat="43.97959" lon="6.62662">
        <ele>1498.3518066</ele>
        <time>2010-10-30T09:31:42Z</time>
      </trkpt>
      <trkpt lat="43.97962" lon="6.62666">
        <ele>1497.8713379</ele>
        <time>2010-10-30T09:31:47Z</time>
      </trkpt>
      <trkpt lat="43.97964" lon="6.62667">
        <ele>1494.5065918</ele>
        <time>2010-10-30T09:31:57Z</time>
      </trkpt>
      <trkpt lat="43.97964" lon="6.62667">
        <ele>1491.1420898</ele>
        <time>2010-10-30T09:32:18Z</time>
      </trkpt>
      <trkpt lat="43.97974" lon="6.62667">
        <ele>1494.026123</ele>
        <time>2010-10-30T09:32:23Z</time>
      </trkpt>
      <trkpt lat="43.97987" lon="6.62673">
        <ele>1496.4294434</ele>
        <time>2010-10-30T09:32:28Z</time>
      </trkpt>
      <trkpt lat="43.98001" lon="6.62683">
        <ele>1499.3132324</ele>
        <time>2010-10-30T09:32:34Z</time>
      </trkpt>
      <trkpt lat="43.98014" lon="6.62696">
        <ele>1501.7167969</ele>
        <time>2010-10-30T09:32:40Z</time>
      </trkpt>
      <trkpt lat="43.9803" lon="6.62709">
        <ele>1502.1972656</ele>
        <time>2010-10-30T09:32:46Z</time>
      </trkpt>
      <trkpt lat="43.98049" lon="6.62718">
        <ele>1499.7939453</ele>
        <time>2010-10-30T09:32:52Z</time>
      </trkpt>
      <trkpt lat="43.9807" lon="6.62717">
        <ele>1498.8325195</ele>
        <time>2010-10-30T09:32:58Z</time>
      </trkpt>
      <trkpt lat="43.98094" lon="6.62704">
        <ele>1498.8325195</ele>
        <time>2010-10-30T09:33:05Z</time>
      </trkpt>
      <trkpt lat="43.98123" lon="6.62683">
        <ele>1499.7939453</ele>
        <time>2010-10-30T09:33:14Z</time>
      </trkpt>
      <trkpt lat="43.98144" lon="6.6266">
        <ele>1498.3518066</ele>
        <time>2010-10-30T09:33:21Z</time>
      </trkpt>
      <trkpt lat="43.98165" lon="6.62632">
        <ele>1495.4680176</ele>
        <time>2010-10-30T09:33:28Z</time>
      </trkpt>
      <trkpt lat="43.9817" lon="6.62624">
        <ele>1494.5065918</ele>
        <time>2010-10-30T09:33:30Z</time>
      </trkpt>
      <trkpt lat="43.98187" lon="6.626">
        <ele>1492.5842285</ele>
        <time>2010-10-30T09:33:36Z</time>
      </trkpt>
      <trkpt lat="43.9819" lon="6.62597">
        <ele>1493.0646973</ele>
        <time>2010-10-30T09:33:37Z</time>
      </trkpt>
      <trkpt lat="43.98202" lon="6.62581">
        <ele>1493.5454102</ele>
        <time>2010-10-30T09:33:41Z</time>
      </trkpt>
      <trkpt lat="43.98225" lon="6.6255">
        <ele>1494.026123</ele>
        <time>2010-10-30T09:33:49Z</time>
      </trkpt>
      <trkpt lat="43.9824" lon="6.62527">
        <ele>1493.5454102</ele>
        <time>2010-10-30T09:33:55Z</time>
      </trkpt>
      <trkpt lat="43.98255" lon="6.62506">
        <ele>1491.6228027</ele>
        <time>2010-10-30T09:34:00Z</time>
      </trkpt>
      <trkpt lat="43.98273" lon="6.62483">
        <ele>1490.661377</ele>
        <time>2010-10-30T09:34:06Z</time>
      </trkpt>
      <trkpt lat="43.98299" lon="6.62459">
        <ele>1492.5842285</ele>
        <time>2010-10-30T09:34:13Z</time>
      </trkpt>
      <trkpt lat="43.98318" lon="6.62442">
        <ele>1494.5065918</ele>
        <time>2010-10-30T09:34:18Z</time>
      </trkpt>
      <trkpt lat="43.98338" lon="6.62428">
        <ele>1494.9873047</ele>
        <time>2010-10-30T09:34:23Z</time>
      </trkpt>
      <trkpt lat="43.98372" lon="6.62407">
        <ele>1494.026123</ele>
        <time>2010-10-30T09:34:32Z</time>
      </trkpt>
      <trkpt lat="43.98398" lon="6.62395">
        <ele>1494.9873047</ele>
        <time>2010-10-30T09:34:39Z</time>
      </trkpt>
      <trkpt lat="43.98415" lon="6.62385">
        <ele>1495.9487305</ele>
        <time>2010-10-30T09:34:43Z</time>
      </trkpt>
      <trkpt lat="43.98431" lon="6.62363">
        <ele>1496.9099121</ele>
        <time>2010-10-30T09:34:49Z</time>
      </trkpt>
      <trkpt lat="43.98436" lon="6.62351">
        <ele>1499.3132324</ele>
        <time>2010-10-30T09:34:54Z</time>
      </trkpt>
      <trkpt lat="43.98437" lon="6.62349">
        <ele>1499.7939453</ele>
        <time>2010-10-30T09:34:57Z</time>
      </trkpt>
      <trkpt lat="43.9844" lon="6.62349">
        <ele>1498.8325195</ele>
        <time>2010-10-30T09:35:04Z</time>
      </trkpt>
      <trkpt lat="43.98441" lon="6.62349">
        <ele>1497.8713379</ele>
        <time>2010-10-30T09:35:26Z</time>
      </trkpt>
      <trkpt lat="43.98454" lon="6.62363">
        <ele>1495.9487305</ele>
        <time>2010-10-30T09:35:31Z</time>
      </trkpt>
      <trkpt lat="43.98464" lon="6.62368">
        <ele>1494.9873047</ele>
        <time>2010-10-30T09:35:34Z</time>
      </trkpt>
      <trkpt lat="43.98475" lon="6.62373">
        <ele>1494.5065918</ele>
        <time>2010-10-30T09:35:38Z</time>
      </trkpt>
      <trkpt lat="43.98486" lon="6.62374">
        <ele>1494.026123</ele>
        <time>2010-10-30T09:35:42Z</time>
      </trkpt>
      <trkpt lat="43.98488" lon="6.62375">
        <ele>1494.5065918</ele>
        <time>2010-10-30T09:35:43Z</time>
      </trkpt>
      <trkpt lat="43.98499" lon="6.62388">
        <ele>1495.9487305</ele>
        <time>2010-10-30T09:35:48Z</time>
      </trkpt>
      <trkpt lat="43.98509" lon="6.62396">
        <ele>1494.9873047</ele>
        <time>2010-10-30T09:35:52Z</time>
      </trkpt>
      <trkpt lat="43.9852" lon="6.62396">
        <ele>1494.026123</ele>
        <time>2010-10-30T09:35:55Z</time>
      </trkpt>
      <trkpt lat="43.9853" lon="6.62404">
        <ele>1494.026123</ele>
        <time>2010-10-30T09:35:59Z</time>
      </trkpt>
      <trkpt lat="43.98538" lon="6.62405">
        <ele>1493.0646973</ele>
        <time>2010-10-30T09:36:01Z</time>
      </trkpt>
      <trkpt lat="43.98551" lon="6.6241">
        <ele>1490.1809082</ele>
        <time>2010-10-30T09:36:06Z</time>
      </trkpt>
      <trkpt lat="43.98558" lon="6.62415">
        <ele>1488.2583008</ele>
        <time>2010-10-30T09:36:09Z</time>
      </trkpt>
      <trkpt lat="43.98573" lon="6.62412">
        <ele>1479.1254883</ele>
        <time>2010-10-30T09:36:15Z</time>
      </trkpt>
      <trkpt lat="43.98575" lon="6.62411">
        <ele>1478.1643066</ele>
        <time>2010-10-30T09:36:16Z</time>
      </trkpt>
      <trkpt lat="43.98581" lon="6.62418">
        <ele>1478.1643066</ele>
        <time>2010-10-30T09:36:20Z</time>
      </trkpt>
      <trkpt lat="43.98587" lon="6.62443">
        <ele>1485.3742676</ele>
        <time>2010-10-30T09:36:26Z</time>
      </trkpt>
      <trkpt lat="43.98591" lon="6.62469">
        <ele>1489.7001953</ele>
        <time>2010-10-30T09:36:31Z</time>
      </trkpt>
      <trkpt lat="43.98595" lon="6.62476">
        <ele>1487.7775879</ele>
        <time>2010-10-30T09:36:33Z</time>
      </trkpt>
      <trkpt lat="43.98598" lon="6.62484">
        <ele>1486.8161621</ele>
        <time>2010-10-30T09:36:35Z</time>
      </trkpt>
      <trkpt lat="43.98607" lon="6.625">
        <ele>1483.9321289</ele>
        <time>2010-10-30T09:36:40Z</time>
      </trkpt>
      <trkpt lat="43.98621" lon="6.62508">
        <ele>1479.1254883</ele>
        <time>2010-10-30T09:36:44Z</time>
      </trkpt>
      <trkpt lat="43.98631" lon="6.62513">
        <ele>1474.3190918</ele>
        <time>2010-10-30T09:36:48Z</time>
      </trkpt>
      <trkpt lat="43.98642" lon="6.62517">
        <ele>1473.8383789</ele>
        <time>2010-10-30T09:36:52Z</time>
      </trkpt>
      <trkpt lat="43.98649" lon="6.62521">
        <ele>1471.4350586</ele>
        <time>2010-10-30T09:36:56Z</time>
      </trkpt>
      <trkpt lat="43.98661" lon="6.62526">
        <ele>1466.628418</ele>
        <time>2010-10-30T09:37:04Z</time>
      </trkpt>
      <trkpt lat="43.98661" lon="6.62525">
        <ele>1462.3024902</ele>
        <time>2010-10-30T09:37:09Z</time>
      </trkpt>
      <trkpt lat="43.98669" lon="6.62529">
        <ele>1460.3798828</ele>
        <time>2010-10-30T09:37:16Z</time>
      </trkpt>
      <trkpt lat="43.98673" lon="6.6253">
        <ele>1459.4187012</ele>
        <time>2010-10-30T09:37:23Z</time>
      </trkpt>
      <trkpt lat="43.98672" lon="6.62531">
        <ele>1458.9379883</ele>
        <time>2010-10-30T09:37:29Z</time>
      </trkpt>
      <trkpt lat="43.98671" lon="6.62532">
        <ele>1456.534668</ele>
        <time>2010-10-30T09:37:36Z</time>
      </trkpt>
      <trkpt lat="43.98678" lon="6.62535">
        <ele>1453.6508789</ele>
        <time>2010-10-30T09:37:43Z</time>
      </trkpt>
      <trkpt lat="43.98679" lon="6.62539">
        <ele>1451.2473145</ele>
        <time>2010-10-30T09:37:51Z</time>
      </trkpt>
      <trkpt lat="43.98675" lon="6.6254">
        <ele>1451.7280273</ele>
        <time>2010-10-30T09:37:57Z</time>
      </trkpt>
      <trkpt lat="43.98673" lon="6.62539">
        <ele>1452.6894531</ele>
        <time>2010-10-30T09:37:59Z</time>
      </trkpt>
      <trkpt lat="43.98668" lon="6.62553">
        <ele>1452.2087402</ele>
        <time>2010-10-30T09:38:05Z</time>
      </trkpt>
      <trkpt lat="43.98662" lon="6.62559">
        <ele>1449.8054199</ele>
        <time>2010-10-30T09:38:09Z</time>
      </trkpt>
      <trkpt lat="43.98652" lon="6.62565">
        <ele>1445.9602051</ele>
        <time>2010-10-30T09:38:14Z</time>
      </trkpt>
      <trkpt lat="43.98641" lon="6.62578">
        <ele>1437.3083496</ele>
        <time>2010-10-30T09:38:21Z</time>
      </trkpt>
      <trkpt lat="43.98628" lon="6.62583">
        <ele>1427.6950684</ele>
        <time>2010-10-30T09:38:28Z</time>
      </trkpt>
      <trkpt lat="43.98617" lon="6.62592">
        <ele>1418.5625</ele>
        <time>2010-10-30T09:38:34Z</time>
      </trkpt>
      <trkpt lat="43.98605" lon="6.62601">
        <ele>1412.3139648</ele>
        <time>2010-10-30T09:38:40Z</time>
      </trkpt>
      <trkpt lat="43.98603" lon="6.62603">
        <ele>1410.8720703</ele>
        <time>2010-10-30T09:38:41Z</time>
      </trkpt>
      <trkpt lat="43.98591" lon="6.62614">
        <ele>1406.0654297</ele>
        <time>2010-10-30T09:38:47Z</time>
      </trkpt>
      <trkpt lat="43.98577" lon="6.62627">
        <ele>1398.3747559</ele>
        <time>2010-10-30T09:38:54Z</time>
      </trkpt>
      <trkpt lat="43.98565" lon="6.62644">
        <ele>1392.1264648</ele>
        <time>2010-10-30T09:39:01Z</time>
      </trkpt>
      <trkpt lat="43.98557" lon="6.62651">
        <ele>1388.7619629</ele>
        <time>2010-10-30T09:39:05Z</time>
      </trkpt>
      <trkpt lat="43.98562" lon="6.62653">
        <ele>1387.800293</ele>
        <time>2010-10-30T09:39:20Z</time>
      </trkpt>
      <trkpt lat="43.98559" lon="6.62652">
        <ele>1388.28125</ele>
        <time>2010-10-30T09:39:27Z</time>
      </trkpt>
      <trkpt lat="43.98558" lon="6.62652">
        <ele>1387.800293</ele>
        <time>2010-10-30T09:39:33Z</time>
      </trkpt>
      <trkpt lat="43.98556" lon="6.62651">
        <ele>1387.800293</ele>
        <time>2010-10-30T09:39:39Z</time>
      </trkpt>
      <trkpt lat="43.98559" lon="6.62653">
        <ele>1387.3195801</ele>
        <time>2010-10-30T09:39:49Z</time>
      </trkpt>
      <trkpt lat="43.98558" lon="6.62652">
        <ele>1387.3195801</ele>
        <time>2010-10-30T09:39:55Z</time>
      </trkpt>
      <trkpt lat="43.9856" lon="6.62653">
        <ele>1386.8388672</ele>
        <time>2010-10-30T09:40:03Z</time>
      </trkpt>
      <trkpt lat="43.98554" lon="6.62651">
        <ele>1387.800293</ele>
        <time>2010-10-30T09:40:10Z</time>
      </trkpt>
      <trkpt lat="43.98555" lon="6.62652">
        <ele>1387.3195801</ele>
        <time>2010-10-30T09:40:13Z</time>
      </trkpt>
      <trkpt lat="43.98557" lon="6.62652">
        <ele>1387.3195801</ele>
        <time>2010-10-30T09:40:16Z</time>
      </trkpt>
      <trkpt lat="43.98551" lon="6.6265">
        <ele>1388.28125</ele>
        <time>2010-10-30T09:40:24Z</time>
      </trkpt>
      <trkpt lat="43.98549" lon="6.62649">
        <ele>1388.7619629</ele>
        <time>2010-10-30T09:40:29Z</time>
      </trkpt>
      <trkpt lat="43.98555" lon="6.6265">
        <ele>1389.2424316</ele>
        <time>2010-10-30T09:40:36Z</time>
      </trkpt>
      <trkpt lat="43.98559" lon="6.62652">
        <ele>1390.6843262</ele>
        <time>2010-10-30T09:40:55Z</time>
      </trkpt>
      <trkpt lat="43.98557" lon="6.62653">
        <ele>1394.0490723</ele>
        <time>2010-10-30T09:41:02Z</time>
      </trkpt>
      <trkpt lat="43.9855" lon="6.62662">
        <ele>1392.1264648</ele>
        <time>2010-10-30T09:41:07Z</time>
      </trkpt>
      <trkpt lat="43.98548" lon="6.62672">
        <ele>1389.7231445</ele>
        <time>2010-10-30T09:41:10Z</time>
      </trkpt>
      <trkpt lat="43.98542" lon="6.62685">
        <ele>1386.3583984</ele>
        <time>2010-10-30T09:41:17Z</time>
      </trkpt>
      <trkpt lat="43.98543" lon="6.62688">
        <ele>1383.9550781</ele>
        <time>2010-10-30T09:41:23Z</time>
      </trkpt>
      <trkpt lat="43.98539" lon="6.62695">
        <ele>1387.800293</ele>
        <time>2010-10-30T09:41:51Z</time>
      </trkpt>
      <trkpt lat="43.98542" lon="6.62697">
        <ele>1387.800293</ele>
        <time>2010-10-30T09:41:59Z</time>
      </trkpt>
      <trkpt lat="43.98543" lon="6.62697">
        <ele>1387.3195801</ele>
        <time>2010-10-30T09:42:01Z</time>
      </trkpt>
      <trkpt lat="43.98548" lon="6.62696">
        <ele>1382.0324707</ele>
        <time>2010-10-30T09:42:08Z</time>
      </trkpt>
      <trkpt lat="43.98545" lon="6.62692">
        <ele>1381.0712891</ele>
        <time>2010-10-30T09:42:15Z</time>
      </trkpt>
      <trkpt lat="43.98546" lon="6.62689">
        <ele>1377.706543</ele>
        <time>2010-10-30T09:42:26Z</time>
      </trkpt>
      <trkpt lat="43.98547" lon="6.62685">
        <ele>1379.6291504</ele>
        <time>2010-10-30T09:42:33Z</time>
      </trkpt>
      <trkpt lat="43.98548" lon="6.62681">
        <ele>1380.5905762</ele>
        <time>2010-10-30T09:42:38Z</time>
      </trkpt>
      <trkpt lat="43.98548" lon="6.62681">
        <ele>1381.0712891</ele>
        <time>2010-10-30T09:42:49Z</time>
      </trkpt>
      <trkpt lat="43.98546" lon="6.62681">
        <ele>1383.4743652</ele>
        <time>2010-10-30T09:42:53Z</time>
      </trkpt>
      <trkpt lat="43.98532" lon="6.62682">
        <ele>1380.5905762</ele>
        <time>2010-10-30T09:42:59Z</time>
      </trkpt>
      <trkpt lat="43.98511" lon="6.62684">
        <ele>1374.8227539</ele>
        <time>2010-10-30T09:43:05Z</time>
      </trkpt>
      <trkpt lat="43.98509" lon="6.62684">
        <ele>1373.8613281</ele>
        <time>2010-10-30T09:43:06Z</time>
      </trkpt>
      <trkpt lat="43.98503" lon="6.62691">
        <ele>1370.0158691</ele>
        <time>2010-10-30T09:43:11Z</time>
      </trkpt>
      <trkpt lat="43.98497" lon="6.62703">
        <ele>1369.5354004</ele>
        <time>2010-10-30T09:43:15Z</time>
      </trkpt>
      <trkpt lat="43.98489" lon="6.62702">
        <ele>1364.7287598</ele>
        <time>2010-10-30T09:43:20Z</time>
      </trkpt>
      <trkpt lat="43.98484" lon="6.62692">
        <ele>1357.519043</ele>
        <time>2010-10-30T09:43:26Z</time>
      </trkpt>
      <trkpt lat="43.98481" lon="6.6269">
        <ele>1351.7509766</ele>
        <time>2010-10-30T09:43:30Z</time>
      </trkpt>
      <trkpt lat="43.98479" lon="6.62695">
        <ele>1349.3476562</ele>
        <time>2010-10-30T09:43:36Z</time>
      </trkpt>
      <trkpt lat="43.98475" lon="6.62703">
        <ele>1351.2702637</ele>
        <time>2010-10-30T09:43:51Z</time>
      </trkpt>
      <trkpt lat="43.9848" lon="6.62708">
        <ele>1355.1154785</ele>
        <time>2010-10-30T09:44:00Z</time>
      </trkpt>
      <trkpt lat="43.98478" lon="6.62704">
        <ele>1350.309082</ele>
        <time>2010-10-30T09:44:07Z</time>
      </trkpt>
      <trkpt lat="43.98467" lon="6.62696">
        <ele>1341.6572266</ele>
        <time>2010-10-30T09:44:26Z</time>
      </trkpt>
      <trkpt lat="43.98482" lon="6.62712">
        <ele>1343.0991211</ele>
        <time>2010-10-30T09:44:32Z</time>
      </trkpt>
      <trkpt lat="43.98477" lon="6.62725">
        <ele>1349.8283691</ele>
        <time>2010-10-30T09:45:08Z</time>
      </trkpt>
      <trkpt lat="43.98475" lon="6.62726">
        <ele>1350.309082</ele>
        <time>2010-10-30T09:45:12Z</time>
      </trkpt>
      <trkpt lat="43.98474" lon="6.62726">
        <ele>1349.8283691</ele>
        <time>2010-10-30T09:45:13Z</time>
      </trkpt>
      <trkpt lat="43.98472" lon="6.62736">
        <ele>1345.5024414</ele>
        <time>2010-10-30T09:45:19Z</time>
      </trkpt>
      <trkpt lat="43.98471" lon="6.62737">
        <ele>1345.0217285</ele>
        <time>2010-10-30T09:45:20Z</time>
      </trkpt>
      <trkpt lat="43.98467" lon="6.62741">
        <ele>1343.0991211</ele>
        <time>2010-10-30T09:45:25Z</time>
      </trkpt>
      <trkpt lat="43.98466" lon="6.62745">
        <ele>1344.5410156</ele>
        <time>2010-10-30T09:45:32Z</time>
      </trkpt>
      <trkpt lat="43.98464" lon="6.62748">
        <ele>1340.215332</ele>
        <time>2010-10-30T09:45:35Z</time>
      </trkpt>
      <trkpt lat="43.9846" lon="6.62769">
        <ele>1338.2924805</ele>
        <time>2010-10-30T09:45:41Z</time>
      </trkpt>
      <trkpt lat="43.98457" lon="6.62798">
        <ele>1328.6794434</ele>
        <time>2010-10-30T09:45:48Z</time>
      </trkpt>
      <trkpt lat="43.98458" lon="6.62819">
        <ele>1326.276123</ele>
        <time>2010-10-30T09:45:53Z</time>
      </trkpt>
      <trkpt lat="43.98457" lon="6.6282">
        <ele>1324.8342285</ele>
        <time>2010-10-30T09:45:57Z</time>
      </trkpt>
      <trkpt lat="43.98457" lon="6.62822">
        <ele>1324.3535156</ele>
        <time>2010-10-30T09:46:01Z</time>
      </trkpt>
      <trkpt lat="43.98456" lon="6.62827">
        <ele>1323.3920898</ele>
        <time>2010-10-30T09:46:08Z</time>
      </trkpt>
      <trkpt lat="43.98455" lon="6.62828">
        <ele>1323.3920898</ele>
        <time>2010-10-30T09:46:10Z</time>
      </trkpt>
      <trkpt lat="43.98446" lon="6.62829">
        <ele>1321.4692383</ele>
        <time>2010-10-30T09:46:16Z</time>
      </trkpt>
      <trkpt lat="43.98457" lon="6.62837">
        <ele>1319.0661621</ele>
        <time>2010-10-30T09:46:31Z</time>
      </trkpt>
      <trkpt lat="43.98455" lon="6.62842">
        <ele>1321.9499512</ele>
        <time>2010-10-30T09:46:39Z</time>
      </trkpt>
      <trkpt lat="43.98453" lon="6.62846">
        <ele>1324.3535156</ele>
        <time>2010-10-30T09:46:45Z</time>
      </trkpt>
      <trkpt lat="43.9845" lon="6.62853">
        <ele>1334.4472656</ele>
        <time>2010-10-30T09:46:58Z</time>
      </trkpt>
      <trkpt lat="43.98449" lon="6.62854">
        <ele>1333.4858398</ele>
        <time>2010-10-30T09:47:06Z</time>
      </trkpt>
      <trkpt lat="43.98449" lon="6.62858">
        <ele>1333.9665527</ele>
        <time>2010-10-30T09:47:11Z</time>
      </trkpt>
      <trkpt lat="43.9845" lon="6.6286">
        <ele>1334.4472656</ele>
        <time>2010-10-30T09:47:13Z</time>
      </trkpt>
      <trkpt lat="43.98451" lon="6.62876">
        <ele>1330.1213379</ele>
        <time>2010-10-30T09:47:18Z</time>
      </trkpt>
      <trkpt lat="43.98453" lon="6.62893">
        <ele>1327.7180176</ele>
        <time>2010-10-30T09:47:22Z</time>
      </trkpt>
      <trkpt lat="43.9845" lon="6.62906">
        <ele>1326.276123</ele>
        <time>2010-10-30T09:47:25Z</time>
      </trkpt>
      <trkpt lat="43.98449" lon="6.62938">
        <ele>1328.1987305</ele>
        <time>2010-10-30T09:47:30Z</time>
      </trkpt>
      <trkpt lat="43.98451" lon="6.62952">
        <ele>1326.276123</ele>
        <time>2010-10-30T09:47:32Z</time>
      </trkpt>
      <trkpt lat="43.98453" lon="6.62973">
        <ele>1325.3146973</ele>
        <time>2010-10-30T09:47:35Z</time>
      </trkpt>
      <trkpt lat="43.98457" lon="6.63006">
        <ele>1331.5632324</ele>
        <time>2010-10-30T09:47:41Z</time>
      </trkpt>
      <trkpt lat="43.98469" lon="6.63032">
        <ele>1326.276123</ele>
        <time>2010-10-30T09:47:46Z</time>
      </trkpt>
      <trkpt lat="43.98479" lon="6.63053">
        <ele>1325.3146973</ele>
        <time>2010-10-30T09:47:52Z</time>
      </trkpt>
      <trkpt lat="43.98486" lon="6.63062">
        <ele>1321.9499512</ele>
        <time>2010-10-30T09:47:58Z</time>
      </trkpt>
      <trkpt lat="43.98489" lon="6.63065">
        <ele>1318.1047363</ele>
        <time>2010-10-30T09:48:04Z</time>
      </trkpt>
      <trkpt lat="43.98491" lon="6.63071">
        <ele>1319.546875</ele>
        <time>2010-10-30T09:48:10Z</time>
      </trkpt>
      <trkpt lat="43.98492" lon="6.63073">
        <ele>1316.1821289</ele>
        <time>2010-10-30T09:48:24Z</time>
      </trkpt>
      <trkpt lat="43.98492" lon="6.63068">
        <ele>1312.817627</ele>
        <time>2010-10-30T09:48:30Z</time>
      </trkpt>
      <trkpt lat="43.9849" lon="6.63059">
        <ele>1308.9724121</ele>
        <time>2010-10-30T09:48:36Z</time>
      </trkpt>
      <trkpt lat="43.98485" lon="6.63048">
        <ele>1307.0495605</ele>
        <time>2010-10-30T09:48:45Z</time>
      </trkpt>
      <trkpt lat="43.98483" lon="6.63045">
        <ele>1306.0881348</ele>
        <time>2010-10-30T09:48:50Z</time>
      </trkpt>
      <trkpt lat="43.98481" lon="6.63042">
        <ele>1306.5688477</ele>
        <time>2010-10-30T09:49:00Z</time>
      </trkpt>
      <trkpt lat="43.98471" lon="6.63044">
        <ele>1301.2817383</ele>
        <time>2010-10-30T09:49:06Z</time>
      </trkpt>
      <trkpt lat="43.98467" lon="6.63046">
        <ele>1299.3591309</ele>
        <time>2010-10-30T09:49:08Z</time>
      </trkpt>
      <trkpt lat="43.98461" lon="6.63061">
        <ele>1295.9946289</ele>
        <time>2010-10-30T09:49:14Z</time>
      </trkpt>
      <trkpt lat="43.98464" lon="6.63073">
        <ele>1295.513916</ele>
        <time>2010-10-30T09:49:17Z</time>
      </trkpt>
      <trkpt lat="43.9847" lon="6.63105">
        <ele>1294.5524902</ele>
        <time>2010-10-30T09:49:24Z</time>
      </trkpt>
      <trkpt lat="43.98475" lon="6.63127">
        <ele>1290.2265625</ele>
        <time>2010-10-30T09:49:30Z</time>
      </trkpt>
      <trkpt lat="43.98475" lon="6.63129">
        <ele>1289.2651367</ele>
        <time>2010-10-30T09:49:34Z</time>
      </trkpt>
      <trkpt lat="43.98477" lon="6.63127">
        <ele>1283.9780273</ele>
        <time>2010-10-30T09:49:42Z</time>
      </trkpt>
      <trkpt lat="43.98481" lon="6.63124">
        <ele>1275.3259277</ele>
        <time>2010-10-30T09:50:10Z</time>
      </trkpt>
      <trkpt lat="43.98482" lon="6.63125">
        <ele>1273.8840332</ele>
        <time>2010-10-30T09:50:16Z</time>
      </trkpt>
      <trkpt lat="43.98487" lon="6.63139">
        <ele>1277.7294922</ele>
        <time>2010-10-30T09:50:22Z</time>
      </trkpt>
      <trkpt lat="43.9849" lon="6.6315">
        <ele>1280.6135254</ele>
        <time>2010-10-30T09:50:25Z</time>
      </trkpt>
      <trkpt lat="43.98499" lon="6.63167">
        <ele>1281.0942383</ele>
        <time>2010-10-30T09:50:30Z</time>
      </trkpt>
      <trkpt lat="43.98502" lon="6.63186">
        <ele>1282.0554199</ele>
        <time>2010-10-30T09:50:34Z</time>
      </trkpt>
      <trkpt lat="43.98503" lon="6.63191">
        <ele>1282.5361328</ele>
        <time>2010-10-30T09:50:35Z</time>
      </trkpt>
      <trkpt lat="43.98514" lon="6.63221">
        <ele>1278.690918</ele>
        <time>2010-10-30T09:50:41Z</time>
      </trkpt>
      <trkpt lat="43.98515" lon="6.63227">
        <ele>1277.7294922</ele>
        <time>2010-10-30T09:50:42Z</time>
      </trkpt>
      <trkpt lat="43.98516" lon="6.63259">
        <ele>1271.0002441</ele>
        <time>2010-10-30T09:50:48Z</time>
      </trkpt>
      <trkpt lat="43.98516" lon="6.63272">
        <ele>1271.0002441</ele>
        <time>2010-10-30T09:50:51Z</time>
      </trkpt>
      <trkpt lat="43.98516" lon="6.63289">
        <ele>1263.7902832</ele>
        <time>2010-10-30T09:50:56Z</time>
      </trkpt>
      <trkpt lat="43.98518" lon="6.63313">
        <ele>1262.3483887</ele>
        <time>2010-10-30T09:51:01Z</time>
      </trkpt>
      <trkpt lat="43.98519" lon="6.63319">
        <ele>1261.8679199</ele>
        <time>2010-10-30T09:51:02Z</time>
      </trkpt>
      <trkpt lat="43.9853" lon="6.63334">
        <ele>1257.541748</ele>
        <time>2010-10-30T09:51:06Z</time>
      </trkpt>
      <trkpt lat="43.98531" lon="6.63337">
        <ele>1257.0610352</ele>
        <time>2010-10-30T09:51:07Z</time>
      </trkpt>
      <trkpt lat="43.98537" lon="6.63349">
        <ele>1255.6191406</ele>
        <time>2010-10-30T09:51:10Z</time>
      </trkpt>
      <trkpt lat="43.98556" lon="6.63369">
        <ele>1250.3320312</ele>
        <time>2010-10-30T09:51:15Z</time>
      </trkpt>
      <trkpt lat="43.98565" lon="6.63386">
        <ele>1247.9287109</ele>
        <time>2010-10-30T09:51:18Z</time>
      </trkpt>
      <trkpt lat="43.9858" lon="6.63411">
        <ele>1242.1606445</ele>
        <time>2010-10-30T09:51:23Z</time>
      </trkpt>
      <trkpt lat="43.98592" lon="6.63432">
        <ele>1239.2766113</ele>
        <time>2010-10-30T09:51:28Z</time>
      </trkpt>
      <trkpt lat="43.986" lon="6.63455">
        <ele>1235.9121094</ele>
        <time>2010-10-30T09:51:33Z</time>
      </trkpt>
      <trkpt lat="43.98609" lon="6.6347">
        <ele>1232.5476074</ele>
        <time>2010-10-30T09:51:38Z</time>
      </trkpt>
      <trkpt lat="43.98618" lon="6.63488">
        <ele>1230.625</ele>
        <time>2010-10-30T09:51:42Z</time>
      </trkpt>
      <trkpt lat="43.98635" lon="6.63503">
        <ele>1224.3762207</ele>
        <time>2010-10-30T09:51:46Z</time>
      </trkpt>
      <trkpt lat="43.98662" lon="6.63508">
        <ele>1210.9177246</ele>
        <time>2010-10-30T09:51:51Z</time>
      </trkpt>
      <trkpt lat="43.98697" lon="6.63516">
        <ele>1197.9401855</ele>
        <time>2010-10-30T09:51:57Z</time>
      </trkpt>
      <trkpt lat="43.98709" lon="6.63517">
        <ele>1194.0947266</ele>
        <time>2010-10-30T09:51:59Z</time>
      </trkpt>
      <trkpt lat="43.98736" lon="6.63517">
        <ele>1187.3654785</ele>
        <time>2010-10-30T09:52:04Z</time>
      </trkpt>
      <trkpt lat="43.98757" lon="6.63522">
        <ele>1179.6748047</ele>
        <time>2010-10-30T09:52:09Z</time>
      </trkpt>
      <trkpt lat="43.98773" lon="6.63523">
        <ele>1175.348877</ele>
        <time>2010-10-30T09:52:13Z</time>
      </trkpt>
      <trkpt lat="43.98796" lon="6.63535">
        <ele>1174.3876953</ele>
        <time>2010-10-30T09:52:17Z</time>
      </trkpt>
      <trkpt lat="43.98803" lon="6.63551">
        <ele>1173.4265137</ele>
        <time>2010-10-30T09:52:20Z</time>
      </trkpt>
      <trkpt lat="43.98818" lon="6.63584">
        <ele>1170.5424805</ele>
        <time>2010-10-30T09:52:26Z</time>
      </trkpt>
      <trkpt lat="43.98836" lon="6.63611">
        <ele>1168.1391602</ele>
        <time>2010-10-30T09:52:31Z</time>
      </trkpt>
      <trkpt lat="43.98847" lon="6.63624">
        <ele>1166.6972656</ele>
        <time>2010-10-30T09:52:34Z</time>
      </trkpt>
      <trkpt lat="43.98855" lon="6.63631">
        <ele>1165.736084</ele>
        <time>2010-10-30T09:52:36Z</time>
      </trkpt>
      <trkpt lat="43.98863" lon="6.6364">
        <ele>1164.7746582</ele>
        <time>2010-10-30T09:52:38Z</time>
      </trkpt>
      <trkpt lat="43.98884" lon="6.63653">
        <ele>1159.0065918</ele>
        <time>2010-10-30T09:52:42Z</time>
      </trkpt>
      <trkpt lat="43.98907" lon="6.6366">
        <ele>1153.2387695</ele>
        <time>2010-10-30T09:52:46Z</time>
      </trkpt>
      <trkpt lat="43.98936" lon="6.6367">
        <ele>1145.5480957</ele>
        <time>2010-10-30T09:52:52Z</time>
      </trkpt>
      <trkpt lat="43.9895" lon="6.63671">
        <ele>1138.8190918</ele>
        <time>2010-10-30T09:52:56Z</time>
      </trkpt>
      <trkpt lat="43.98959" lon="6.63674">
        <ele>1136.4157715</ele>
        <time>2010-10-30T09:53:05Z</time>
      </trkpt>
      <trkpt lat="43.98969" lon="6.63673">
        <ele>1134.0124512</ele>
        <time>2010-10-30T09:53:10Z</time>
      </trkpt>
      <trkpt lat="43.98981" lon="6.63666">
        <ele>1131.128418</ele>
        <time>2010-10-30T09:53:13Z</time>
      </trkpt>
      <trkpt lat="43.99005" lon="6.63647">
        <ele>1123.918457</ele>
        <time>2010-10-30T09:53:19Z</time>
      </trkpt>
      <trkpt lat="43.99029" lon="6.63628">
        <ele>1117.1894531</ele>
        <time>2010-10-30T09:53:24Z</time>
      </trkpt>
      <trkpt lat="43.99042" lon="6.63618">
        <ele>1112.3825684</ele>
        <time>2010-10-30T09:53:27Z</time>
      </trkpt>
      <trkpt lat="43.99049" lon="6.63613">
        <ele>1109.4987793</ele>
        <time>2010-10-30T09:53:30Z</time>
      </trkpt>
      <trkpt lat="43.99063" lon="6.63627">
        <ele>1109.4987793</ele>
        <time>2010-10-30T09:53:35Z</time>
      </trkpt>
      <trkpt lat="43.99065" lon="6.63634">
        <ele>1109.979248</ele>
        <time>2010-10-30T09:53:36Z</time>
      </trkpt>
      <trkpt lat="43.99089" lon="6.63669">
        <ele>1112.8632812</ele>
        <time>2010-10-30T09:53:42Z</time>
      </trkpt>
      <trkpt lat="43.99112" lon="6.63692">
        <ele>1109.0180664</ele>
        <time>2010-10-30T09:53:48Z</time>
      </trkpt>
      <trkpt lat="43.99129" lon="6.637">
        <ele>1104.6921387</ele>
        <time>2010-10-30T09:53:52Z</time>
      </trkpt>
      <trkpt lat="43.99165" lon="6.63714">
        <ele>1094.1176758</ele>
        <time>2010-10-30T09:54:00Z</time>
      </trkpt>
      <trkpt lat="43.99188" lon="6.63728">
        <ele>1091.2336426</ele>
        <time>2010-10-30T09:54:05Z</time>
      </trkpt>
      <trkpt lat="43.99201" lon="6.63734">
        <ele>1087.3884277</ele>
        <time>2010-10-30T09:54:08Z</time>
      </trkpt>
      <trkpt lat="43.99215" lon="6.63757">
        <ele>1086.4272461</ele>
        <time>2010-10-30T09:54:12Z</time>
      </trkpt>
      <trkpt lat="43.99222" lon="6.63775">
        <ele>1084.5046387</ele>
        <time>2010-10-30T09:54:15Z</time>
      </trkpt>
      <trkpt lat="43.99229" lon="6.63788">
        <ele>1083.5429688</ele>
        <time>2010-10-30T09:54:17Z</time>
      </trkpt>
      <trkpt lat="43.99245" lon="6.63802">
        <ele>1080.1784668</ele>
        <time>2010-10-30T09:54:21Z</time>
      </trkpt>
      <trkpt lat="43.99266" lon="6.63812">
        <ele>1072.0073242</ele>
        <time>2010-10-30T09:54:25Z</time>
      </trkpt>
      <trkpt lat="43.99289" lon="6.63815">
        <ele>1065.2780762</ele>
        <time>2010-10-30T09:54:29Z</time>
      </trkpt>
      <trkpt lat="43.99303" lon="6.63816">
        <ele>1062.394043</ele>
        <time>2010-10-30T09:54:31Z</time>
      </trkpt>
      <trkpt lat="43.99322" lon="6.63816">
        <ele>1059.5102539</ele>
        <time>2010-10-30T09:54:33Z</time>
      </trkpt>
      <trkpt lat="43.9935" lon="6.63811">
        <ele>1051.8195801</ele>
        <time>2010-10-30T09:54:37Z</time>
      </trkpt>
      <trkpt lat="43.99368" lon="6.63807">
        <ele>1047.9743652</ele>
        <time>2010-10-30T09:54:40Z</time>
      </trkpt>
      <trkpt lat="43.99389" lon="6.63796">
        <ele>1041.7258301</ele>
        <time>2010-10-30T09:54:44Z</time>
      </trkpt>
      <trkpt lat="43.99409" lon="6.63812">
        <ele>1039.3225098</ele>
        <time>2010-10-30T09:54:48Z</time>
      </trkpt>
      <trkpt lat="43.9943" lon="6.63816">
        <ele>1034.0351562</ele>
        <time>2010-10-30T09:54:52Z</time>
      </trkpt>
      <trkpt lat="43.99436" lon="6.63814">
        <ele>1032.1125488</ele>
        <time>2010-10-30T09:54:53Z</time>
      </trkpt>
      <trkpt lat="43.99467" lon="6.63805">
        <ele>1025.3833008</ele>
        <time>2010-10-30T09:54:58Z</time>
      </trkpt>
      <trkpt lat="43.99506" lon="6.63801">
        <ele>1018.6540527</ele>
        <time>2010-10-30T09:55:03Z</time>
      </trkpt>
      <trkpt lat="43.99518" lon="6.63798">
        <ele>1015.7702637</ele>
        <time>2010-10-30T09:55:05Z</time>
      </trkpt>
      <trkpt lat="43.99537" lon="6.63791">
        <ele>1011.4443359</ele>
        <time>2010-10-30T09:55:08Z</time>
      </trkpt>
      <trkpt lat="43.99545" lon="6.63782">
        <ele>1008.079834</ele>
        <time>2010-10-30T09:55:10Z</time>
      </trkpt>
      <trkpt lat="43.9956" lon="6.63759">
        <ele>1002.3115234</ele>
        <time>2010-10-30T09:55:14Z</time>
      </trkpt>
      <trkpt lat="43.99563" lon="6.63755">
        <ele>1001.3503418</ele>
        <time>2010-10-30T09:55:15Z</time>
      </trkpt>
      <trkpt lat="43.9957" lon="6.63744">
        <ele>999.9084473</ele>
        <time>2010-10-30T09:55:19Z</time>
      </trkpt>
      <trkpt lat="43.99575" lon="6.63747">
        <ele>998.9470215</ele>
        <time>2010-10-30T09:55:22Z</time>
      </trkpt>
      <trkpt lat="43.99583" lon="6.63745">
        <ele>999.9084473</ele>
        <time>2010-10-30T09:55:27Z</time>
      </trkpt>
      <trkpt lat="43.99585" lon="6.63741">
        <ele>1001.8310547</ele>
        <time>2010-10-30T09:55:32Z</time>
      </trkpt>
      <trkpt lat="43.99586" lon="6.63737">
        <ele>1002.3115234</ele>
        <time>2010-10-30T09:55:36Z</time>
      </trkpt>
      <trkpt lat="43.99591" lon="6.63737">
        <ele>1004.7150879</ele>
        <time>2010-10-30T09:55:50Z</time>
      </trkpt>
      <trkpt lat="43.99597" lon="6.63735">
        <ele>1001.3503418</ele>
        <time>2010-10-30T09:55:56Z</time>
      </trkpt>
      <trkpt lat="43.99605" lon="6.63735">
        <ele>1000.8696289</ele>
        <time>2010-10-30T09:55:58Z</time>
      </trkpt>
      <trkpt lat="43.99621" lon="6.63741">
        <ele>997.9858398</ele>
        <time>2010-10-30T09:56:02Z</time>
      </trkpt>
      <trkpt lat="43.99635" lon="6.63747">
        <ele>995.1018066</ele>
        <time>2010-10-30T09:56:07Z</time>
      </trkpt>
      <trkpt lat="43.99644" lon="6.63755">
        <ele>993.1791992</ele>
        <time>2010-10-30T09:56:10Z</time>
      </trkpt>
      <trkpt lat="43.99659" lon="6.63759">
        <ele>991.7373047</ele>
        <time>2010-10-30T09:56:15Z</time>
      </trkpt>
      <trkpt lat="43.9967" lon="6.63755">
        <ele>988.8535156</ele>
        <time>2010-10-30T09:56:18Z</time>
      </trkpt>
      <trkpt lat="43.99688" lon="6.63752">
        <ele>984.5273438</ele>
        <time>2010-10-30T09:56:24Z</time>
      </trkpt>
      <trkpt lat="43.99698" lon="6.63749">
        <ele>981.6433105</ele>
        <time>2010-10-30T09:56:29Z</time>
      </trkpt>
      <trkpt lat="43.997" lon="6.63753">
        <ele>980.6821289</ele>
        <time>2010-10-30T09:56:32Z</time>
      </trkpt>
      <trkpt lat="43.99699" lon="6.63759">
        <ele>980.6821289</ele>
        <time>2010-10-30T09:56:36Z</time>
      </trkpt>
      <trkpt lat="43.99698" lon="6.63762">
        <ele>980.201416</ele>
        <time>2010-10-30T09:56:39Z</time>
      </trkpt>
      <trkpt lat="43.99706" lon="6.63762">
        <ele>975.3947754</ele>
        <time>2010-10-30T09:56:43Z</time>
      </trkpt>
      <trkpt lat="43.99712" lon="6.63761">
        <ele>972.5109863</ele>
        <time>2010-10-30T09:56:45Z</time>
      </trkpt>
      <trkpt lat="43.99719" lon="6.63758">
        <ele>969.6269531</ele>
        <time>2010-10-30T09:56:49Z</time>
      </trkpt>
      <trkpt lat="43.99724" lon="6.63758">
        <ele>969.6269531</ele>
        <time>2010-10-30T09:56:57Z</time>
      </trkpt>
      <trkpt lat="43.99723" lon="6.63757">
        <ele>966.262207</ele>
        <time>2010-10-30T09:57:06Z</time>
      </trkpt>
      <trkpt lat="43.99724" lon="6.63764">
        <ele>968.1848145</ele>
        <time>2010-10-30T09:57:12Z</time>
      </trkpt>
      <trkpt lat="43.99723" lon="6.63767">
        <ele>968.1848145</ele>
        <time>2010-10-30T09:57:17Z</time>
      </trkpt>
      <trkpt lat="43.99723" lon="6.63767">
        <ele>968.6655273</ele>
        <time>2010-10-30T09:57:18Z</time>
      </trkpt>
      <trkpt lat="43.99722" lon="6.63769">
        <ele>970.1074219</ele>
        <time>2010-10-30T09:57:22Z</time>
      </trkpt>
      <trkpt lat="43.99729" lon="6.63762">
        <ele>967.2236328</ele>
        <time>2010-10-30T09:57:26Z</time>
      </trkpt>
      <trkpt lat="43.99737" lon="6.63758">
        <ele>963.8588867</ele>
        <time>2010-10-30T09:57:33Z</time>
      </trkpt>
      <trkpt lat="43.99742" lon="6.63761">
        <ele>963.8588867</ele>
        <time>2010-10-30T09:57:38Z</time>
      </trkpt>
      <trkpt lat="43.99741" lon="6.63756">
        <ele>963.378418</ele>
        <time>2010-10-30T09:57:44Z</time>
      </trkpt>
      <trkpt lat="43.99747" lon="6.63766">
        <ele>971.5493164</ele>
        <time>2010-10-30T09:58:14Z</time>
      </trkpt>
      <trkpt lat="43.99755" lon="6.63762">
        <ele>969.6269531</ele>
        <time>2010-10-30T09:58:20Z</time>
      </trkpt>
      <trkpt lat="43.99755" lon="6.63758">
        <ele>966.262207</ele>
        <time>2010-10-30T09:58:40Z</time>
      </trkpt>
      <trkpt lat="43.9976" lon="6.6375">
        <ele>960.4943848</ele>
        <time>2010-10-30T09:59:35Z</time>
      </trkpt>
      <trkpt lat="43.99768" lon="6.63752">
        <ele>963.378418</ele>
        <time>2010-10-30T09:59:41Z</time>
      </trkpt>
      <trkpt lat="43.99777" lon="6.63752">
        <ele>962.8977051</ele>
        <time>2010-10-30T09:59:45Z</time>
      </trkpt>
      <trkpt lat="43.99787" lon="6.63745">
        <ele>961.9365234</ele>
        <time>2010-10-30T09:59:50Z</time>
      </trkpt>
      <trkpt lat="43.99802" lon="6.63738">
        <ele>961.9365234</ele>
        <time>2010-10-30T09:59:56Z</time>
      </trkpt>
      <trkpt lat="43.99811" lon="6.63745">
        <ele>961.9365234</ele>
        <time>2010-10-30T10:00:01Z</time>
      </trkpt>
      <trkpt lat="43.99818" lon="6.63753">
        <ele>961.9365234</ele>
        <time>2010-10-30T10:00:05Z</time>
      </trkpt>
      <trkpt lat="43.99822" lon="6.63753">
        <ele>961.9365234</ele>
        <time>2010-10-30T10:00:06Z</time>
      </trkpt>
      <trkpt lat="43.99836" lon="6.63757">
        <ele>960.4943848</ele>
        <time>2010-10-30T10:00:10Z</time>
      </trkpt>
      <trkpt lat="43.99862" lon="6.63755">
        <ele>959.0524902</ele>
        <time>2010-10-30T10:00:15Z</time>
      </trkpt>
      <trkpt lat="43.99867" lon="6.63753">
        <ele>958.5717773</ele>
        <time>2010-10-30T10:00:16Z</time>
      </trkpt>
      <trkpt lat="43.99874" lon="6.63743">
        <ele>957.6105957</ele>
        <time>2010-10-30T10:00:20Z</time>
      </trkpt>
      <trkpt lat="43.99883" lon="6.63747">
        <ele>956.168457</ele>
        <time>2010-10-30T10:00:24Z</time>
      </trkpt>
      <trkpt lat="43.9989" lon="6.63749">
        <ele>956.168457</ele>
        <time>2010-10-30T10:00:26Z</time>
      </trkpt>
      <trkpt lat="43.99924" lon="6.63742">
        <ele>954.2458496</ele>
        <time>2010-10-30T10:00:33Z</time>
      </trkpt>
      <trkpt lat="43.99954" lon="6.63736">
        <ele>953.7651367</ele>
        <time>2010-10-30T10:00:39Z</time>
      </trkpt>
      <trkpt lat="43.99972" lon="6.63727">
        <ele>950.4006348</ele>
        <time>2010-10-30T10:00:42Z</time>
      </trkpt>
      <trkpt lat="43.99981" lon="6.63724">
        <ele>950.4006348</ele>
        <time>2010-10-30T10:00:44Z</time>
      </trkpt>
      <trkpt lat="43.99995" lon="6.63715">
        <ele>946.074707</ele>
        <time>2010-10-30T10:00:47Z</time>
      </trkpt>
      <trkpt lat="44.00009" lon="6.63702">
        <ele>943.6713867</ele>
        <time>2010-10-30T10:00:51Z</time>
      </trkpt>
      <trkpt lat="44.0002" lon="6.63699">
        <ele>947.0358887</ele>
        <time>2010-10-30T10:00:56Z</time>
      </trkpt>
      <trkpt lat="44.00027" lon="6.63702">
        <ele>947.5166016</ele>
        <time>2010-10-30T10:00:58Z</time>
      </trkpt>
      <trkpt lat="44.00049" lon="6.637">
        <ele>944.1520996</ele>
        <time>2010-10-30T10:01:03Z</time>
      </trkpt>
      <trkpt lat="44.00061" lon="6.63717">
        <ele>942.2294922</ele>
        <time>2010-10-30T10:01:09Z</time>
      </trkpt>
      <trkpt lat="44.00062" lon="6.63722">
        <ele>943.1906738</ele>
        <time>2010-10-30T10:01:10Z</time>
      </trkpt>
      <trkpt lat="44.00066" lon="6.6373">
        <ele>943.1906738</ele>
        <time>2010-10-30T10:01:12Z</time>
      </trkpt>
      <trkpt lat="44.0009" lon="6.63743">
        <ele>940.7873535</ele>
        <time>2010-10-30T10:01:17Z</time>
      </trkpt>
      <trkpt lat="44.00102" lon="6.63744">
        <ele>938.8647461</ele>
        <time>2010-10-30T10:01:19Z</time>
      </trkpt>
      <trkpt lat="44.00126" lon="6.63745">
        <ele>933.0966797</ele>
        <time>2010-10-30T10:01:23Z</time>
      </trkpt>
      <trkpt lat="44.00146" lon="6.63751">
        <ele>928.2902832</ele>
        <time>2010-10-30T10:01:27Z</time>
      </trkpt>
      <trkpt lat="44.00158" lon="6.63766">
        <ele>925.40625</ele>
        <time>2010-10-30T10:01:32Z</time>
      </trkpt>
      <trkpt lat="44.00164" lon="6.63779">
        <ele>917.7155762</ele>
        <time>2010-10-30T10:01:37Z</time>
      </trkpt>
      <trkpt lat="44.00168" lon="6.6378">
        <ele>916.2736816</ele>
        <time>2010-10-30T10:01:39Z</time>
      </trkpt>
      <trkpt lat="44.0018" lon="6.63785">
        <ele>912.9091797</ele>
        <time>2010-10-30T10:01:42Z</time>
      </trkpt>
      <trkpt lat="44.00192" lon="6.63789">
        <ele>909.5446777</ele>
        <time>2010-10-30T10:01:44Z</time>
      </trkpt>
      <trkpt lat="44.00212" lon="6.63796">
        <ele>904.2573242</ele>
        <time>2010-10-30T10:01:47Z</time>
      </trkpt>
      <trkpt lat="44.00234" lon="6.63801">
        <ele>894.1635742</ele>
        <time>2010-10-30T10:01:52Z</time>
      </trkpt>
      <trkpt lat="44.00237" lon="6.63801">
        <ele>891.2792969</ele>
        <time>2010-10-30T10:01:54Z</time>
      </trkpt>
      <trkpt lat="44.00244" lon="6.63795">
        <ele>886.4729004</ele>
        <time>2010-10-30T10:01:57Z</time>
      </trkpt>
      <trkpt lat="44.00262" lon="6.63797">
        <ele>879.7436523</ele>
        <time>2010-10-30T10:02:01Z</time>
      </trkpt>
      <trkpt lat="44.00262" lon="6.63804">
        <ele>874.4562988</ele>
        <time>2010-10-30T10:02:04Z</time>
      </trkpt>
      <trkpt lat="44.00261" lon="6.63824">
        <ele>873.4951172</ele>
        <time>2010-10-30T10:02:09Z</time>
      </trkpt>
      <trkpt lat="44.00257" lon="6.63828">
        <ele>872.5336914</ele>
        <time>2010-10-30T10:02:11Z</time>
      </trkpt>
      <trkpt lat="44.00259" lon="6.63822">
        <ele>871.5722656</ele>
        <time>2010-10-30T10:02:18Z</time>
      </trkpt>
      <trkpt lat="44.00256" lon="6.63827">
        <ele>876.8598633</ele>
        <time>2010-10-30T10:02:24Z</time>
      </trkpt>
      <trkpt lat="44.00253" lon="6.63835">
        <ele>881.185791</ele>
        <time>2010-10-30T10:02:29Z</time>
      </trkpt>
      <trkpt lat="44.00257" lon="6.6383">
        <ele>879.2629395</ele>
        <time>2010-10-30T10:02:33Z</time>
      </trkpt>
      <trkpt lat="44.00265" lon="6.63825">
        <ele>874.4562988</ele>
        <time>2010-10-30T10:02:38Z</time>
      </trkpt>
      <trkpt lat="44.00266" lon="6.63827">
        <ele>877.8210449</ele>
        <time>2010-10-30T10:02:43Z</time>
      </trkpt>
      <trkpt lat="44.00261" lon="6.63827">
        <ele>881.6662598</ele>
        <time>2010-10-30T10:02:47Z</time>
      </trkpt>
      <trkpt lat="44.00253" lon="6.63826">
        <ele>885.9921875</ele>
        <time>2010-10-30T10:02:55Z</time>
      </trkpt>
      <trkpt lat="44.00264" lon="6.63831">
        <ele>875.8981934</ele>
        <time>2010-10-30T10:03:12Z</time>
      </trkpt>
      <trkpt lat="44.00261" lon="6.6383">
        <ele>877.3405762</ele>
        <time>2010-10-30T10:03:18Z</time>
      </trkpt>
      <trkpt lat="44.00267" lon="6.63831">
        <ele>879.7436523</ele>
        <time>2010-10-30T10:03:35Z</time>
      </trkpt>
      <trkpt lat="44.00262" lon="6.63848">
        <ele>884.0695801</ele>
        <time>2010-10-30T10:03:41Z</time>
      </trkpt>
      <trkpt lat="44.00259" lon="6.63854">
        <ele>884.0695801</ele>
        <time>2010-10-30T10:03:43Z</time>
      </trkpt>
      <trkpt lat="44.00264" lon="6.63856">
        <ele>877.3405762</ele>
        <time>2010-10-30T10:03:49Z</time>
      </trkpt>
      <trkpt lat="44.00265" lon="6.63854">
        <ele>867.7270508</ele>
        <time>2010-10-30T10:04:06Z</time>
      </trkpt>
      <trkpt lat="44.00276" lon="6.63847">
        <ele>861.9594727</ele>
        <time>2010-10-30T10:04:11Z</time>
      </trkpt>
      <trkpt lat="44.00278" lon="6.63847">
        <ele>860.9980469</ele>
        <time>2010-10-30T10:04:12Z</time>
      </trkpt>
      <trkpt lat="44.0029" lon="6.63853">
        <ele>856.671875</ele>
        <time>2010-10-30T10:04:18Z</time>
      </trkpt>
      <trkpt lat="44.00292" lon="6.63854">
        <ele>856.1911621</ele>
        <time>2010-10-30T10:04:19Z</time>
      </trkpt>
      <trkpt lat="44.00296" lon="6.63854">
        <ele>854.7492676</ele>
        <time>2010-10-30T10:04:21Z</time>
      </trkpt>
      <trkpt lat="44.00305" lon="6.63867">
        <ele>852.8266602</ele>
        <time>2010-10-30T10:04:26Z</time>
      </trkpt>
      <trkpt lat="44.00317" lon="6.63877">
        <ele>851.8654785</ele>
        <time>2010-10-30T10:04:30Z</time>
      </trkpt>
      <trkpt lat="44.00332" lon="6.63879">
        <ele>850.423584</ele>
        <time>2010-10-30T10:04:35Z</time>
      </trkpt>
      <trkpt lat="44.00344" lon="6.63891">
        <ele>849.4621582</ele>
        <time>2010-10-30T10:04:40Z</time>
      </trkpt>
      <trkpt lat="44.0035" lon="6.63896">
        <ele>848.0202637</ele>
        <time>2010-10-30T10:04:42Z</time>
      </trkpt>
      <trkpt lat="44.00378" lon="6.63905">
        <ele>845.1362305</ele>
        <time>2010-10-30T10:04:49Z</time>
      </trkpt>
      <trkpt lat="44.00381" lon="6.63905">
        <ele>843.6940918</ele>
        <time>2010-10-30T10:04:53Z</time>
      </trkpt>
      <trkpt lat="44.00377" lon="6.63905">
        <ele>843.2133789</ele>
        <time>2010-10-30T10:05:06Z</time>
      </trkpt>
      <trkpt lat="44.00377" lon="6.6391">
        <ele>848.5007324</ele>
        <time>2010-10-30T10:05:12Z</time>
      </trkpt>
      <trkpt lat="44.00384" lon="6.63918">
        <ele>847.5395508</ele>
        <time>2010-10-30T10:05:17Z</time>
      </trkpt>
      <trkpt lat="44.0039" lon="6.63931">
        <ele>845.6169434</ele>
        <time>2010-10-30T10:05:21Z</time>
      </trkpt>
      <trkpt lat="44.00394" lon="6.63962">
        <ele>847.5395508</ele>
        <time>2010-10-30T10:05:27Z</time>
      </trkpt>
      <trkpt lat="44.00396" lon="6.63976">
        <ele>847.5395508</ele>
        <time>2010-10-30T10:05:30Z</time>
      </trkpt>
      <trkpt lat="44.0041" lon="6.63983">
        <ele>845.1362305</ele>
        <time>2010-10-30T10:05:34Z</time>
      </trkpt>
      <trkpt lat="44.00416" lon="6.63985">
        <ele>844.1750488</ele>
        <time>2010-10-30T10:05:36Z</time>
      </trkpt>
      <trkpt lat="44.00415" lon="6.63999">
        <ele>850.9040527</ele>
        <time>2010-10-30T10:05:41Z</time>
      </trkpt>
      <trkpt lat="44.0041" lon="6.64019">
        <ele>854.7492676</ele>
        <time>2010-10-30T10:05:49Z</time>
      </trkpt>
      <trkpt lat="44.00415" lon="6.64022">
        <ele>857.1525879</ele>
        <time>2010-10-30T10:05:54Z</time>
      </trkpt>
      <trkpt lat="44.00416" lon="6.64021">
        <ele>862.9206543</ele>
        <time>2010-10-30T10:06:04Z</time>
      </trkpt>
      <trkpt lat="44.00415" lon="6.64021">
        <ele>868.6884766</ele>
        <time>2010-10-30T10:06:19Z</time>
      </trkpt>
      <trkpt lat="44.00426" lon="6.64021">
        <ele>868.6884766</ele>
        <time>2010-10-30T10:06:23Z</time>
      </trkpt>
      <trkpt lat="44.0043" lon="6.64022">
        <ele>866.2851562</ele>
        <time>2010-10-30T10:06:27Z</time>
      </trkpt>
      <trkpt lat="44.00433" lon="6.64026">
        <ele>865.3239746</ele>
        <time>2010-10-30T10:06:32Z</time>
      </trkpt>
      <trkpt lat="44.00443" lon="6.64022">
        <ele>859.0751953</ele>
        <time>2010-10-30T10:06:57Z</time>
      </trkpt>
      <trkpt lat="44.00437" lon="6.64013">
        <ele>866.7658691</ele>
        <time>2010-10-30T10:07:13Z</time>
      </trkpt>
      <trkpt lat="44.00447" lon="6.64005">
        <ele>862.9206543</ele>
        <time>2010-10-30T10:07:19Z</time>
      </trkpt>
      <trkpt lat="44.00476" lon="6.63995">
        <ele>840.8100586</ele>
        <time>2010-10-30T10:07:27Z</time>
      </trkpt>
      <trkpt lat="44.00491" lon="6.63977">
        <ele>831.6777344</ele>
        <time>2010-10-30T10:07:34Z</time>
      </trkpt>
      <trkpt lat="44.00505" lon="6.63959">
        <ele>830.2358398</ele>
        <time>2010-10-30T10:07:42Z</time>
      </trkpt>
      <trkpt lat="44.00519" lon="6.63942">
        <ele>834.5617676</ele>
        <time>2010-10-30T10:07:50Z</time>
      </trkpt>
      <trkpt lat="44.00527" lon="6.63927">
        <ele>836.9648438</ele>
        <time>2010-10-30T10:07:56Z</time>
      </trkpt>
      <trkpt lat="44.00543" lon="6.63902">
        <ele>840.3295898</ele>
        <time>2010-10-30T10:08:06Z</time>
      </trkpt>
      <trkpt lat="44.00556" lon="6.63881">
        <ele>843.6940918</ele>
        <time>2010-10-30T10:08:14Z</time>
      </trkpt>
      <trkpt lat="44.00565" lon="6.63864">
        <ele>843.2133789</ele>
        <time>2010-10-30T10:08:20Z</time>
      </trkpt>
      <trkpt lat="44.00569" lon="6.63842">
        <ele>844.1750488</ele>
        <time>2010-10-30T10:08:26Z</time>
      </trkpt>
      <trkpt lat="44.00569" lon="6.63813">
        <ele>845.6169434</ele>
        <time>2010-10-30T10:08:33Z</time>
      </trkpt>
      <trkpt lat="44.00579" lon="6.63806">
        <ele>845.1362305</ele>
        <time>2010-10-30T10:08:37Z</time>
      </trkpt>
      <trkpt lat="44.00589" lon="6.63814">
        <ele>846.5783691</ele>
        <time>2010-10-30T10:08:41Z</time>
      </trkpt>
      <trkpt lat="44.00591" lon="6.63817">
        <ele>846.5783691</ele>
        <time>2010-10-30T10:08:42Z</time>
      </trkpt>
      <trkpt lat="44.00602" lon="6.63831">
        <ele>860.517334</ele>
        <time>2010-10-30T10:08:50Z</time>
      </trkpt>
      <trkpt lat="44.00611" lon="6.63835">
        <ele>869.1691895</ele>
        <time>2010-10-30T10:08:55Z</time>
      </trkpt>
      <trkpt lat="44.00625" lon="6.63833">
        <ele>867.7270508</ele>
        <time>2010-10-30T10:09:00Z</time>
      </trkpt>
      <trkpt lat="44.00631" lon="6.63822">
        <ele>869.6499023</ele>
        <time>2010-10-30T10:09:05Z</time>
      </trkpt>
      <trkpt lat="44.00636" lon="6.63804">
        <ele>860.9980469</ele>
        <time>2010-10-30T10:09:11Z</time>
      </trkpt>
      <trkpt lat="44.00645" lon="6.63787">
        <ele>859.5559082</ele>
        <time>2010-10-30T10:09:18Z</time>
      </trkpt>
      <trkpt lat="44.00659" lon="6.63776">
        <ele>860.0366211</ele>
        <time>2010-10-30T10:09:26Z</time>
      </trkpt>
      <trkpt lat="44.00676" lon="6.63776">
        <ele>863.8818359</ele>
        <time>2010-10-30T10:09:34Z</time>
      </trkpt>
      <trkpt lat="44.00682" lon="6.63785">
        <ele>866.2851562</ele>
        <time>2010-10-30T10:09:39Z</time>
      </trkpt>
      <trkpt lat="44.00689" lon="6.63798">
        <ele>873.4951172</ele>
        <time>2010-10-30T10:09:46Z</time>
      </trkpt>
      <trkpt lat="44.00697" lon="6.63805">
        <ele>881.185791</ele>
        <time>2010-10-30T10:09:52Z</time>
      </trkpt>
      <trkpt lat="44.00712" lon="6.63804">
        <ele>881.6662598</ele>
        <time>2010-10-30T10:09:59Z</time>
      </trkpt>
      <trkpt lat="44.00733" lon="6.63803">
        <ele>878.3017578</ele>
        <time>2010-10-30T10:10:08Z</time>
      </trkpt>
      <trkpt lat="44.00751" lon="6.63805">
        <ele>875.8981934</ele>
        <time>2010-10-30T10:10:16Z</time>
      </trkpt>
      <trkpt lat="44.00761" lon="6.63806">
        <ele>876.3791504</ele>
        <time>2010-10-30T10:10:21Z</time>
      </trkpt>
      <trkpt lat="44.00776" lon="6.63809">
        <ele>873.9755859</ele>
        <time>2010-10-30T10:10:28Z</time>
      </trkpt>
      <trkpt lat="44.00794" lon="6.63812">
        <ele>873.0144043</ele>
        <time>2010-10-30T10:10:36Z</time>
      </trkpt>
      <trkpt lat="44.00813" lon="6.63814">
        <ele>875.4174805</ele>
        <time>2010-10-30T10:10:45Z</time>
      </trkpt>
      <trkpt lat="44.0083" lon="6.63814">
        <ele>877.8210449</ele>
        <time>2010-10-30T10:10:53Z</time>
      </trkpt>
      <trkpt lat="44.00849" lon="6.63816">
        <ele>881.6662598</ele>
        <time>2010-10-30T10:11:02Z</time>
      </trkpt>
      <trkpt lat="44.00867" lon="6.63816">
        <ele>888.3955078</ele>
        <time>2010-10-30T10:11:11Z</time>
      </trkpt>
      <trkpt lat="44.00881" lon="6.63815">
        <ele>893.6828613</ele>
        <time>2010-10-30T10:11:18Z</time>
      </trkpt>
      <trkpt lat="44.00903" lon="6.63814">
        <ele>894.644043</ele>
        <time>2010-10-30T10:11:27Z</time>
      </trkpt>
      <trkpt lat="44.00923" lon="6.63811">
        <ele>895.1247559</ele>
        <time>2010-10-30T10:11:35Z</time>
      </trkpt>
      <trkpt lat="44.00939" lon="6.63816">
        <ele>906.1796875</ele>
        <time>2010-10-30T10:11:43Z</time>
      </trkpt>
      <trkpt lat="44.00956" lon="6.63817">
        <ele>908.583252</ele>
        <time>2010-10-30T10:11:49Z</time>
      </trkpt>
      <trkpt lat="44.00984" lon="6.63817">
        <ele>900.4121094</ele>
        <time>2010-10-30T10:11:58Z</time>
      </trkpt>
      <trkpt lat="44.00999" lon="6.63819">
        <ele>898.4892578</ele>
        <time>2010-10-30T10:12:04Z</time>
      </trkpt>
      <trkpt lat="44.01011" lon="6.63816">
        <ele>894.1635742</ele>
        <time>2010-10-30T10:12:10Z</time>
      </trkpt>
      <trkpt lat="44.01026" lon="6.63807">
        <ele>886.4729004</ele>
        <time>2010-10-30T10:12:16Z</time>
      </trkpt>
      <trkpt lat="44.01039" lon="6.63789">
        <ele>880.2243652</ele>
        <time>2010-10-30T10:12:24Z</time>
      </trkpt>
      <trkpt lat="44.01051" lon="6.6378">
        <ele>873.4951172</ele>
        <time>2010-10-30T10:12:30Z</time>
      </trkpt>
      <trkpt lat="44.01063" lon="6.63775">
        <ele>878.7824707</ele>
        <time>2010-10-30T10:12:37Z</time>
      </trkpt>
      <trkpt lat="44.01074" lon="6.63785">
        <ele>887.9147949</ele>
        <time>2010-10-30T10:12:45Z</time>
      </trkpt>
      <trkpt lat="44.01084" lon="6.63796">
        <ele>888.8762207</ele>
        <time>2010-10-30T10:12:50Z</time>
      </trkpt>
      <trkpt lat="44.01093" lon="6.63794">
        <ele>889.8374023</ele>
        <time>2010-10-30T10:12:55Z</time>
      </trkpt>
      <trkpt lat="44.01096" lon="6.6379">
        <ele>890.3181152</ele>
        <time>2010-10-30T10:12:57Z</time>
      </trkpt>
      <trkpt lat="44.01105" lon="6.63769">
        <ele>887.9147949</ele>
        <time>2010-10-30T10:13:06Z</time>
      </trkpt>
      <trkpt lat="44.01112" lon="6.6375">
        <ele>890.3181152</ele>
        <time>2010-10-30T10:13:13Z</time>
      </trkpt>
      <trkpt lat="44.01123" lon="6.63733">
        <ele>889.8374023</ele>
        <time>2010-10-30T10:13:21Z</time>
      </trkpt>
      <trkpt lat="44.01135" lon="6.63716">
        <ele>886.9533691</ele>
        <time>2010-10-30T10:13:29Z</time>
      </trkpt>
      <trkpt lat="44.01151" lon="6.63699">
        <ele>884.550293</ele>
        <time>2010-10-30T10:13:38Z</time>
      </trkpt>
      <trkpt lat="44.01165" lon="6.63689">
        <ele>889.8374023</ele>
        <time>2010-10-30T10:13:45Z</time>
      </trkpt>
      <trkpt lat="44.01171" lon="6.63686">
        <ele>890.798584</ele>
        <time>2010-10-30T10:13:48Z</time>
      </trkpt>
      <trkpt lat="44.01176" lon="6.63676">
        <ele>892.7216797</ele>
        <time>2010-10-30T10:13:52Z</time>
      </trkpt>
      <trkpt lat="44.0119" lon="6.63658">
        <ele>900.4121094</ele>
        <time>2010-10-30T10:14:00Z</time>
      </trkpt>
      <trkpt lat="44.01206" lon="6.63644">
        <ele>900.8925781</ele>
        <time>2010-10-30T10:14:09Z</time>
      </trkpt>
      <trkpt lat="44.01214" lon="6.6363">
        <ele>914.8317871</ele>
        <time>2010-10-30T10:14:17Z</time>
      </trkpt>
      <trkpt lat="44.01222" lon="6.63626">
        <ele>917.2351074</ele>
        <time>2010-10-30T10:14:22Z</time>
      </trkpt>
      <trkpt lat="44.01232" lon="6.63617">
        <ele>914.3510742</ele>
        <time>2010-10-30T10:14:28Z</time>
      </trkpt>
      <trkpt lat="44.01243" lon="6.63606">
        <ele>910.0251465</ele>
        <time>2010-10-30T10:14:36Z</time>
      </trkpt>
      <trkpt lat="44.01256" lon="6.63594">
        <ele>901.373291</ele>
        <time>2010-10-30T10:14:44Z</time>
      </trkpt>
      <trkpt lat="44.01272" lon="6.63582">
        <ele>898.4892578</ele>
        <time>2010-10-30T10:14:53Z</time>
      </trkpt>
      <trkpt lat="44.0128" lon="6.63571">
        <ele>901.8540039</ele>
        <time>2010-10-30T10:15:00Z</time>
      </trkpt>
      <trkpt lat="44.01283" lon="6.63567">
        <ele>904.737793</ele>
        <time>2010-10-30T10:15:03Z</time>
      </trkpt>
      <trkpt lat="44.01293" lon="6.63563">
        <ele>908.1027832</ele>
        <time>2010-10-30T10:15:09Z</time>
      </trkpt>
      <trkpt lat="44.01302" lon="6.63556">
        <ele>912.4284668</ele>
        <time>2010-10-30T10:15:16Z</time>
      </trkpt>
      <trkpt lat="44.01313" lon="6.6355">
        <ele>915.3125</ele>
        <time>2010-10-30T10:15:23Z</time>
      </trkpt>
      <trkpt lat="44.01329" lon="6.63544">
        <ele>912.9091797</ele>
        <time>2010-10-30T10:15:30Z</time>
      </trkpt>
      <trkpt lat="44.01348" lon="6.63538">
        <ele>918.1962891</ele>
        <time>2010-10-30T10:15:40Z</time>
      </trkpt>
      <trkpt lat="44.01367" lon="6.63535">
        <ele>920.5996094</ele>
        <time>2010-10-30T10:15:50Z</time>
      </trkpt>
      <trkpt lat="44.01382" lon="6.63532">
        <ele>918.677002</ele>
        <time>2010-10-30T10:15:57Z</time>
      </trkpt>
      <trkpt lat="44.01392" lon="6.63526">
        <ele>914.3510742</ele>
        <time>2010-10-30T10:16:03Z</time>
      </trkpt>
      <trkpt lat="44.01406" lon="6.63529">
        <ele>913.3898926</ele>
        <time>2010-10-30T10:16:09Z</time>
      </trkpt>
      <trkpt lat="44.01411" lon="6.63543">
        <ele>915.7932129</ele>
        <time>2010-10-30T10:16:15Z</time>
      </trkpt>
      <trkpt lat="44.01417" lon="6.63548">
        <ele>917.7155762</ele>
        <time>2010-10-30T10:16:18Z</time>
      </trkpt>
      <trkpt lat="44.01443" lon="6.63552">
        <ele>914.3510742</ele>
        <time>2010-10-30T10:16:26Z</time>
      </trkpt>
      <trkpt lat="44.01467" lon="6.63551">
        <ele>924.4450684</ele>
        <time>2010-10-30T10:16:33Z</time>
      </trkpt>
      <trkpt lat="44.01481" lon="6.63547">
        <ele>936.4614258</ele>
        <time>2010-10-30T10:16:40Z</time>
      </trkpt>
      <trkpt lat="44.01497" lon="6.63545">
        <ele>935.5</ele>
        <time>2010-10-30T10:16:47Z</time>
      </trkpt>
      <trkpt lat="44.0151" lon="6.63537">
        <ele>939.8259277</ele>
        <time>2010-10-30T10:16:53Z</time>
      </trkpt>
      <trkpt lat="44.01519" lon="6.6353">
        <ele>950.4006348</ele>
        <time>2010-10-30T10:16:58Z</time>
      </trkpt>
      <trkpt lat="44.01525" lon="6.63514">
        <ele>961.4558105</ele>
        <time>2010-10-30T10:17:05Z</time>
      </trkpt>
      <trkpt lat="44.01528" lon="6.63497">
        <ele>969.1462402</ele>
        <time>2010-10-30T10:17:11Z</time>
      </trkpt>
      <trkpt lat="44.01535" lon="6.63479">
        <ele>960.9750977</ele>
        <time>2010-10-30T10:17:19Z</time>
      </trkpt>
      <trkpt lat="44.01547" lon="6.63468">
        <ele>951.3618164</ele>
        <time>2010-10-30T10:17:25Z</time>
      </trkpt>
      <trkpt lat="44.0156" lon="6.63463">
        <ele>944.6325684</ele>
        <time>2010-10-30T10:17:30Z</time>
      </trkpt>
      <trkpt lat="44.01571" lon="6.63459">
        <ele>945.5939941</ele>
        <time>2010-10-30T10:17:35Z</time>
      </trkpt>
      <trkpt lat="44.01582" lon="6.63452">
        <ele>947.9973145</ele>
        <time>2010-10-30T10:17:41Z</time>
      </trkpt>
      <trkpt lat="44.01594" lon="6.63447">
        <ele>947.5166016</ele>
        <time>2010-10-30T10:17:47Z</time>
      </trkpt>
      <trkpt lat="44.01608" lon="6.6344">
        <ele>947.5166016</ele>
        <time>2010-10-30T10:17:54Z</time>
      </trkpt>
      <trkpt lat="44.01626" lon="6.63432">
        <ele>949.9199219</ele>
        <time>2010-10-30T10:18:02Z</time>
      </trkpt>
      <trkpt lat="44.01648" lon="6.63425">
        <ele>951.3618164</ele>
        <time>2010-10-30T10:18:12Z</time>
      </trkpt>
      <trkpt lat="44.01661" lon="6.63417">
        <ele>954.2458496</ele>
        <time>2010-10-30T10:18:20Z</time>
      </trkpt>
      <trkpt lat="44.0168" lon="6.63399">
        <ele>955.6877441</ele>
        <time>2010-10-30T10:18:29Z</time>
      </trkpt>
      <trkpt lat="44.01699" lon="6.6338">
        <ele>956.168457</ele>
        <time>2010-10-30T10:18:39Z</time>
      </trkpt>
      <trkpt lat="44.0171" lon="6.63371">
        <ele>959.5332031</ele>
        <time>2010-10-30T10:18:46Z</time>
      </trkpt>
      <trkpt lat="44.0172" lon="6.63374">
        <ele>959.5332031</ele>
        <time>2010-10-30T10:18:52Z</time>
      </trkpt>
      <trkpt lat="44.01722" lon="6.63375">
        <ele>960.9750977</ele>
        <time>2010-10-30T10:18:54Z</time>
      </trkpt>
      <trkpt lat="44.01727" lon="6.63379">
        <ele>961.9365234</ele>
        <time>2010-10-30T10:18:57Z</time>
      </trkpt>
      <trkpt lat="44.01741" lon="6.63384">
        <ele>963.378418</ele>
        <time>2010-10-30T10:19:04Z</time>
      </trkpt>
      <trkpt lat="44.0175" lon="6.63383">
        <ele>963.378418</ele>
        <time>2010-10-30T10:19:09Z</time>
      </trkpt>
      <trkpt lat="44.01784" lon="6.63352">
        <ele>962.8977051</ele>
        <time>2010-10-30T10:19:30Z</time>
      </trkpt>
      <trkpt lat="44.01796" lon="6.63347">
        <ele>957.6105957</ele>
        <time>2010-10-30T10:19:37Z</time>
      </trkpt>
      <trkpt lat="44.01824" lon="6.63314">
        <ele>955.2070312</ele>
        <time>2010-10-30T10:20:03Z</time>
      </trkpt>
      <trkpt lat="44.01821" lon="6.63302">
        <ele>967.2236328</ele>
        <time>2010-10-30T10:20:07Z</time>
      </trkpt>
      <trkpt lat="44.01822" lon="6.63298">
        <ele>968.6655273</ele>
        <time>2010-10-30T10:20:09Z</time>
      </trkpt>
      <trkpt lat="44.01834" lon="6.63301">
        <ele>962.4169922</ele>
        <time>2010-10-30T10:20:15Z</time>
      </trkpt>
      <trkpt lat="44.01836" lon="6.63301">
        <ele>960.4943848</ele>
        <time>2010-10-30T10:20:16Z</time>
      </trkpt>
      <trkpt lat="44.01846" lon="6.63297">
        <ele>961.9365234</ele>
        <time>2010-10-30T10:20:23Z</time>
      </trkpt>
      <trkpt lat="44.01855" lon="6.63293">
        <ele>967.7041016</ele>
        <time>2010-10-30T10:20:30Z</time>
      </trkpt>
      <trkpt lat="44.01867" lon="6.63288">
        <ele>968.1848145</ele>
        <time>2010-10-30T10:20:37Z</time>
      </trkpt>
      <trkpt lat="44.0187" lon="6.6328">
        <ele>968.1848145</ele>
        <time>2010-10-30T10:20:41Z</time>
      </trkpt>
      <trkpt lat="44.01878" lon="6.63277">
        <ele>970.1074219</ele>
        <time>2010-10-30T10:20:46Z</time>
      </trkpt>
      <trkpt lat="44.01881" lon="6.63277">
        <ele>974.4335938</ele>
        <time>2010-10-30T10:20:49Z</time>
      </trkpt>
      <trkpt lat="44.01892" lon="6.63275">
        <ele>980.6821289</ele>
        <time>2010-10-30T10:20:56Z</time>
      </trkpt>
      <trkpt lat="44.01902" lon="6.63277">
        <ele>985.4885254</ele>
        <time>2010-10-30T10:21:03Z</time>
      </trkpt>
      <trkpt lat="44.01911" lon="6.6328">
        <ele>996.5439453</ele>
        <time>2010-10-30T10:21:10Z</time>
      </trkpt>
      <trkpt lat="44.01918" lon="6.63285">
        <ele>999.4277344</ele>
        <time>2010-10-30T10:21:16Z</time>
      </trkpt>
      <trkpt lat="44.01927" lon="6.6329">
        <ele>1000.8696289</ele>
        <time>2010-10-30T10:21:21Z</time>
      </trkpt>
      <trkpt lat="44.01938" lon="6.63298">
        <ele>1002.7922363</ele>
        <time>2010-10-30T10:21:29Z</time>
      </trkpt>
      <trkpt lat="44.01951" lon="6.63306">
        <ele>1008.5603027</ele>
        <time>2010-10-30T10:21:38Z</time>
      </trkpt>
      <trkpt lat="44.01963" lon="6.63308">
        <ele>1008.079834</ele>
        <time>2010-10-30T10:21:44Z</time>
      </trkpt>
      <trkpt lat="44.01975" lon="6.63305">
        <ele>1003.7536621</ele>
        <time>2010-10-30T10:21:51Z</time>
      </trkpt>
      <trkpt lat="44.01988" lon="6.633">
        <ele>1000.8696289</ele>
        <time>2010-10-30T10:21:58Z</time>
      </trkpt>
      <trkpt lat="44.01997" lon="6.63301">
        <ele>1000.8696289</ele>
        <time>2010-10-30T10:22:03Z</time>
      </trkpt>
      <trkpt lat="44.02007" lon="6.63302">
        <ele>1007.5991211</ele>
        <time>2010-10-30T10:22:09Z</time>
      </trkpt>
      <trkpt lat="44.02015" lon="6.63304">
        <ele>1012.4055176</ele>
        <time>2010-10-30T10:22:14Z</time>
      </trkpt>
      <trkpt lat="44.02025" lon="6.63308">
        <ele>1021.0576172</ele>
        <time>2010-10-30T10:22:20Z</time>
      </trkpt>
      <trkpt lat="44.02039" lon="6.63318">
        <ele>1022.9802246</ele>
        <time>2010-10-30T10:22:28Z</time>
      </trkpt>
      <trkpt lat="44.02054" lon="6.63325">
        <ele>1020.0961914</ele>
        <time>2010-10-30T10:22:34Z</time>
      </trkpt>
      <trkpt lat="44.02067" lon="6.63323">
        <ele>1016.7314453</ele>
        <time>2010-10-30T10:22:40Z</time>
      </trkpt>
      <trkpt lat="44.02077" lon="6.63318">
        <ele>1013.3669434</ele>
        <time>2010-10-30T10:22:45Z</time>
      </trkpt>
      <trkpt lat="44.02084" lon="6.63313">
        <ele>1012.4055176</ele>
        <time>2010-10-30T10:22:51Z</time>
      </trkpt>
      <trkpt lat="44.02077" lon="6.63316">
        <ele>1013.3669434</ele>
        <time>2010-10-30T10:22:56Z</time>
      </trkpt>
      <trkpt lat="44.02076" lon="6.63318">
        <ele>1013.8474121</ele>
        <time>2010-10-30T10:22:57Z</time>
      </trkpt>
      <trkpt lat="44.02078" lon="6.63319">
        <ele>1013.8474121</ele>
        <time>2010-10-30T10:23:01Z</time>
      </trkpt>
      <trkpt lat="44.02081" lon="6.63317">
        <ele>1013.8474121</ele>
        <time>2010-10-30T10:23:06Z</time>
      </trkpt>
      <trkpt lat="44.02083" lon="6.63311">
        <ele>1010.0021973</ele>
        <time>2010-10-30T10:23:13Z</time>
      </trkpt>
      <trkpt lat="44.02081" lon="6.63315">
        <ele>1010.0021973</ele>
        <time>2010-10-30T10:23:16Z</time>
      </trkpt>
      <trkpt lat="44.02086" lon="6.63312">
        <ele>1010.0021973</ele>
        <time>2010-10-30T10:23:20Z</time>
      </trkpt>
      <trkpt lat="44.02097" lon="6.63312">
        <ele>1012.4055176</ele>
        <time>2010-10-30T10:23:27Z</time>
      </trkpt>
      <trkpt lat="44.02106" lon="6.63313">
        <ele>1014.8088379</ele>
        <time>2010-10-30T10:23:32Z</time>
      </trkpt>
      <trkpt lat="44.02115" lon="6.63311">
        <ele>1021.0576172</ele>
        <time>2010-10-30T10:23:38Z</time>
      </trkpt>
      <trkpt lat="44.0213" lon="6.63313">
        <ele>1021.0576172</ele>
        <time>2010-10-30T10:23:44Z</time>
      </trkpt>
      <trkpt lat="44.02139" lon="6.63315">
        <ele>1022.0187988</ele>
        <time>2010-10-30T10:23:49Z</time>
      </trkpt>
      <trkpt lat="44.02148" lon="6.63323">
        <ele>1026.3447266</ele>
        <time>2010-10-30T10:23:55Z</time>
      </trkpt>
      <trkpt lat="44.02158" lon="6.63329">
        <ele>1031.1513672</ele>
        <time>2010-10-30T10:24:01Z</time>
      </trkpt>
      <trkpt lat="44.02174" lon="6.63329">
        <ele>1028.7480469</ele>
        <time>2010-10-30T10:24:07Z</time>
      </trkpt>
      <trkpt lat="44.02192" lon="6.6333">
        <ele>1026.3447266</ele>
        <time>2010-10-30T10:24:14Z</time>
      </trkpt>
      <trkpt lat="44.02209" lon="6.63329">
        <ele>1023.9414062</ele>
        <time>2010-10-30T10:24:21Z</time>
      </trkpt>
      <trkpt lat="44.02221" lon="6.6333">
        <ele>1023.9414062</ele>
        <time>2010-10-30T10:24:27Z</time>
      </trkpt>
      <trkpt lat="44.02229" lon="6.63329">
        <ele>1024.4221191</ele>
        <time>2010-10-30T10:24:31Z</time>
      </trkpt>
      <trkpt lat="44.02234" lon="6.63319">
        <ele>1022.9802246</ele>
        <time>2010-10-30T10:24:36Z</time>
      </trkpt>
      <trkpt lat="44.02239" lon="6.63301">
        <ele>1022.4995117</ele>
        <time>2010-10-30T10:24:42Z</time>
      </trkpt>
      <trkpt lat="44.02249" lon="6.63293">
        <ele>1022.9802246</ele>
        <time>2010-10-30T10:24:48Z</time>
      </trkpt>
      <trkpt lat="44.0226" lon="6.63285">
        <ele>1023.9414062</ele>
        <time>2010-10-30T10:24:54Z</time>
      </trkpt>
      <trkpt lat="44.0227" lon="6.63272">
        <ele>1022.9802246</ele>
        <time>2010-10-30T10:25:01Z</time>
      </trkpt>
      <trkpt lat="44.02283" lon="6.63255">
        <ele>1022.4995117</ele>
        <time>2010-10-30T10:25:09Z</time>
      </trkpt>
      <trkpt lat="44.02297" lon="6.63239">
        <ele>1019.6154785</ele>
        <time>2010-10-30T10:25:15Z</time>
      </trkpt>
      <trkpt lat="44.02315" lon="6.63224">
        <ele>1016.7314453</ele>
        <time>2010-10-30T10:25:23Z</time>
      </trkpt>
      <trkpt lat="44.02329" lon="6.63206">
        <ele>1011.9250488</ele>
        <time>2010-10-30T10:25:30Z</time>
      </trkpt>
      <trkpt lat="44.0234" lon="6.63198">
        <ele>1010.963623</ele>
        <time>2010-10-30T10:25:36Z</time>
      </trkpt>
      <trkpt lat="44.02341" lon="6.63198">
        <ele>1012.8862305</ele>
        <time>2010-10-30T10:25:37Z</time>
      </trkpt>
      <trkpt lat="44.02341" lon="6.63202">
        <ele>1031.6318359</ele>
        <time>2010-10-30T10:25:43Z</time>
      </trkpt>
      <trkpt lat="44.02341" lon="6.63204">
        <ele>1035.9577637</ele>
        <time>2010-10-30T10:25:45Z</time>
      </trkpt>
      <trkpt lat="44.02347" lon="6.63216">
        <ele>1054.2231445</ele>
        <time>2010-10-30T10:25:51Z</time>
      </trkpt>
      <trkpt lat="44.02353" lon="6.6323">
        <ele>1071.0461426</ele>
        <time>2010-10-30T10:25:57Z</time>
      </trkpt>
      <trkpt lat="44.02354" lon="6.63249">
        <ele>1078.2558594</ele>
        <time>2010-10-30T10:26:04Z</time>
      </trkpt>
      <trkpt lat="44.02355" lon="6.63254">
        <ele>1078.2558594</ele>
        <time>2010-10-30T10:26:06Z</time>
      </trkpt>
      <trkpt lat="44.02365" lon="6.63256">
        <ele>1069.1235352</ele>
        <time>2010-10-30T10:26:12Z</time>
      </trkpt>
      <trkpt lat="44.02377" lon="6.63248">
        <ele>1063.8359375</ele>
        <time>2010-10-30T10:26:19Z</time>
      </trkpt>
      <trkpt lat="44.0239" lon="6.63239">
        <ele>1056.1455078</ele>
        <time>2010-10-30T10:26:27Z</time>
      </trkpt>
      <trkpt lat="44.02401" lon="6.63245">
        <ele>1056.1455078</ele>
        <time>2010-10-30T10:26:34Z</time>
      </trkpt>
      <trkpt lat="44.02408" lon="6.63259">
        <ele>1063.3554688</ele>
        <time>2010-10-30T10:26:42Z</time>
      </trkpt>
      <trkpt lat="44.02417" lon="6.63272">
        <ele>1065.2780762</ele>
        <time>2010-10-30T10:26:50Z</time>
      </trkpt>
      <trkpt lat="44.02422" lon="6.63281">
        <ele>1064.7973633</ele>
        <time>2010-10-30T10:26:57Z</time>
      </trkpt>
      <trkpt lat="44.02427" lon="6.63288">
        <ele>1062.394043</ele>
        <time>2010-10-30T10:27:03Z</time>
      </trkpt>
      <trkpt lat="44.02435" lon="6.63293">
        <ele>1061.4328613</ele>
        <time>2010-10-30T10:27:10Z</time>
      </trkpt>
      <trkpt lat="44.02437" lon="6.63296">
        <ele>1061.4328613</ele>
        <time>2010-10-30T10:27:12Z</time>
      </trkpt>
      <trkpt lat="44.0245" lon="6.63302">
        <ele>1058.5488281</ele>
        <time>2010-10-30T10:27:20Z</time>
      </trkpt>
      <trkpt lat="44.02468" lon="6.633">
        <ele>1051.3388672</ele>
        <time>2010-10-30T10:27:28Z</time>
      </trkpt>
      <trkpt lat="44.02476" lon="6.63291">
        <ele>1044.6096191</ele>
        <time>2010-10-30T10:27:35Z</time>
      </trkpt>
      <trkpt lat="44.02482" lon="6.63279">
        <ele>1043.1677246</ele>
        <time>2010-10-30T10:27:41Z</time>
      </trkpt>
      <trkpt lat="44.02491" lon="6.63262">
        <ele>1039.8032227</ele>
        <time>2010-10-30T10:27:47Z</time>
      </trkpt>
      <trkpt lat="44.02508" lon="6.63238">
        <ele>1036.9191895</ele>
        <time>2010-10-30T10:27:54Z</time>
      </trkpt>
      <trkpt lat="44.02528" lon="6.63214">
        <ele>1033.5544434</ele>
        <time>2010-10-30T10:28:02Z</time>
      </trkpt>
      <trkpt lat="44.02537" lon="6.63204">
        <ele>1030.6706543</ele>
        <time>2010-10-30T10:28:07Z</time>
      </trkpt>
      <trkpt lat="44.02547" lon="6.63191">
        <ele>1031.1513672</ele>
        <time>2010-10-30T10:28:14Z</time>
      </trkpt>
      <trkpt lat="44.02565" lon="6.63179">
        <ele>1028.267334</ele>
        <time>2010-10-30T10:28:22Z</time>
      </trkpt>
      <trkpt lat="44.02567" lon="6.63176">
        <ele>1029.7092285</ele>
        <time>2010-10-30T10:28:24Z</time>
      </trkpt>
      <trkpt lat="44.02576" lon="6.63176">
        <ele>1028.7480469</ele>
        <time>2010-10-30T10:28:28Z</time>
      </trkpt>
      <trkpt lat="44.02582" lon="6.63183">
        <ele>1037.8806152</ele>
        <time>2010-10-30T10:28:34Z</time>
      </trkpt>
      <trkpt lat="44.02577" lon="6.63186">
        <ele>1065.7587891</ele>
        <time>2010-10-30T10:32:14Z</time>
      </trkpt>
      <trkpt lat="44.02576" lon="6.6319">
        <ele>1052.300293</ele>
        <time>2010-10-30T10:33:04Z</time>
      </trkpt>
      <trkpt lat="44.02575" lon="6.6319">
        <ele>1052.300293</ele>
        <time>2010-10-30T10:33:25Z</time>
      </trkpt>
      <trkpt lat="44.02573" lon="6.63189">
        <ele>1050.3776855</ele>
        <time>2010-10-30T10:33:47Z</time>
      </trkpt>
      <trkpt lat="44.02577" lon="6.63189">
        <ele>1052.300293</ele>
        <time>2010-10-30T10:34:07Z</time>
      </trkpt>
      <trkpt lat="44.02577" lon="6.63187">
        <ele>1053.7424316</ele>
        <time>2010-10-30T10:34:09Z</time>
      </trkpt>
      <trkpt lat="44.02571" lon="6.63177">
        <ele>1059.5102539</ele>
        <time>2010-10-30T10:34:14Z</time>
      </trkpt>
      <trkpt lat="44.02579" lon="6.63169">
        <ele>1061.4328613</ele>
        <time>2010-10-30T10:34:17Z</time>
      </trkpt>
      <trkpt lat="44.02581" lon="6.63159">
        <ele>1059.9907227</ele>
        <time>2010-10-30T10:34:20Z</time>
      </trkpt>
      <trkpt lat="44.02577" lon="6.63158">
        <ele>1059.029541</ele>
        <time>2010-10-30T10:34:21Z</time>
      </trkpt>
      <trkpt lat="44.02548" lon="6.63153">
        <ele>1056.1455078</ele>
        <time>2010-10-30T10:34:28Z</time>
      </trkpt>
      <trkpt lat="44.02533" lon="6.63154">
        <ele>1054.2231445</ele>
        <time>2010-10-30T10:34:31Z</time>
      </trkpt>
      <trkpt lat="44.02511" lon="6.63159">
        <ele>1051.8195801</ele>
        <time>2010-10-30T10:34:35Z</time>
      </trkpt>
      <trkpt lat="44.02479" lon="6.63156">
        <ele>1048.454834</ele>
        <time>2010-10-30T10:34:40Z</time>
      </trkpt>
      <trkpt lat="44.02438" lon="6.63154">
        <ele>1046.0517578</ele>
        <time>2010-10-30T10:34:46Z</time>
      </trkpt>
      <trkpt lat="44.02406" lon="6.63154">
        <ele>1044.6096191</ele>
        <time>2010-10-30T10:34:51Z</time>
      </trkpt>
      <trkpt lat="44.02367" lon="6.63169">
        <ele>1044.1291504</ele>
        <time>2010-10-30T10:34:57Z</time>
      </trkpt>
      <trkpt lat="44.0233" lon="6.63181">
        <ele>1046.0517578</ele>
        <time>2010-10-30T10:35:03Z</time>
      </trkpt>
      <trkpt lat="44.02317" lon="6.63181">
        <ele>1047.4936523</ele>
        <time>2010-10-30T10:35:06Z</time>
      </trkpt>
      <trkpt lat="44.02295" lon="6.63181">
        <ele>1048.454834</ele>
        <time>2010-10-30T10:35:12Z</time>
      </trkpt>
      <trkpt lat="44.02293" lon="6.63179">
        <ele>1048.9355469</ele>
        <time>2010-10-30T10:35:13Z</time>
      </trkpt>
      <trkpt lat="44.02293" lon="6.63154">
        <ele>1047.4936523</ele>
        <time>2010-10-30T10:35:18Z</time>
      </trkpt>
      <trkpt lat="44.02297" lon="6.63138">
        <ele>1052.300293</ele>
        <time>2010-10-30T10:35:23Z</time>
      </trkpt>
      <trkpt lat="44.02299" lon="6.63135">
        <ele>1051.8195801</ele>
        <time>2010-10-30T10:35:25Z</time>
      </trkpt>
      <trkpt lat="44.02302" lon="6.63131">
        <ele>1051.8195801</ele>
        <time>2010-10-30T10:35:29Z</time>
      </trkpt>
      <trkpt lat="44.02301" lon="6.63127">
        <ele>1050.8581543</ele>
        <time>2010-10-30T10:35:34Z</time>
      </trkpt>
      <trkpt lat="44.02306" lon="6.63126">
        <ele>1076.8139648</ele>
        <time>2010-10-30T10:36:13Z</time>
      </trkpt>
      <trkpt lat="44.02304" lon="6.63141">
        <ele>1092.1950684</ele>
        <time>2010-10-30T10:38:20Z</time>
      </trkpt>
      <trkpt lat="44.02308" lon="6.63137">
        <ele>1084.0239258</ele>
        <time>2010-10-30T10:39:03Z</time>
      </trkpt>
      <trkpt lat="44.02309" lon="6.63135">
        <ele>1085.4658203</ele>
        <time>2010-10-30T10:39:18Z</time>
      </trkpt>
      <trkpt lat="44.0231" lon="6.63134">
        <ele>1082.5817871</ele>
        <time>2010-10-30T10:39:24Z</time>
      </trkpt>
      <trkpt lat="44.02313" lon="6.63133">
        <ele>1081.1398926</ele>
        <time>2010-10-30T10:39:56Z</time>
      </trkpt>
      <trkpt lat="44.02301" lon="6.63141">
        <ele>1106.1340332</ele>
        <time>2010-10-30T10:40:55Z</time>
      </trkpt>
      <trkpt lat="44.02306" lon="6.63122">
        <ele>1084.5046387</ele>
        <time>2010-10-30T10:42:14Z</time>
      </trkpt>
      <trkpt lat="44.02307" lon="6.63118">
        <ele>1077.2946777</ele>
        <time>2010-10-30T10:42:24Z</time>
      </trkpt>
      <trkpt lat="44.02299" lon="6.63135">
        <ele>1089.3110352</ele>
        <time>2010-10-30T10:43:54Z</time>
      </trkpt>
      <trkpt lat="44.02302" lon="6.63151">
        <ele>1090.2724609</ele>
        <time>2010-10-30T10:45:30Z</time>
      </trkpt>
      <trkpt lat="44.023" lon="6.63151">
        <ele>1092.1950684</ele>
        <time>2010-10-30T10:45:47Z</time>
      </trkpt>
      <trkpt lat="44.02299" lon="6.63145">
        <ele>1074.4106445</ele>
        <time>2010-10-30T10:46:32Z</time>
      </trkpt>
      <trkpt lat="44.02301" lon="6.63132">
        <ele>1078.2558594</ele>
        <time>2010-10-30T10:46:44Z</time>
      </trkpt>
      <trkpt lat="44.023" lon="6.63143">
        <ele>1073.4494629</ele>
        <time>2010-10-30T10:46:56Z</time>
      </trkpt>
      <trkpt lat="44.02298" lon="6.63144">
        <ele>1081.1398926</ele>
        <time>2010-10-30T10:47:32Z</time>
      </trkpt>
      <trkpt lat="44.02294" lon="6.63154">
        <ele>1062.394043</ele>
        <time>2010-10-30T10:48:03Z</time>
      </trkpt>
      <trkpt lat="44.02292" lon="6.63163">
        <ele>1066.7199707</ele>
        <time>2010-10-30T10:48:11Z</time>
      </trkpt>
      <trkpt lat="44.02292" lon="6.63157">
        <ele>1066.7199707</ele>
        <time>2010-10-30T10:48:15Z</time>
      </trkpt>
      <trkpt lat="44.02292" lon="6.63149">
        <ele>1076.333252</ele>
        <time>2010-10-30T10:48:22Z</time>
      </trkpt>
      <trkpt lat="44.02291" lon="6.63151">
        <ele>1074.8913574</ele>
        <time>2010-10-30T10:48:34Z</time>
      </trkpt>
      <trkpt lat="44.0229" lon="6.63154">
        <ele>1070.0847168</ele>
        <time>2010-10-30T10:48:47Z</time>
      </trkpt>
      <trkpt lat="44.0229" lon="6.63157">
        <ele>1066.7199707</ele>
        <time>2010-10-30T10:49:20Z</time>
      </trkpt>
      <trkpt lat="44.02289" lon="6.63161">
        <ele>1066.2392578</ele>
        <time>2010-10-30T10:49:26Z</time>
      </trkpt>
      <trkpt lat="44.02292" lon="6.6316">
        <ele>1073.4494629</ele>
        <time>2010-10-30T10:49:55Z</time>
      </trkpt>
      <trkpt lat="44.02296" lon="6.63144">
        <ele>1102.2888184</ele>
        <time>2010-10-30T10:50:17Z</time>
      </trkpt>
      <trkpt lat="44.02295" lon="6.63145">
        <ele>1106.1340332</ele>
        <time>2010-10-30T10:50:21Z</time>
      </trkpt>
      <trkpt lat="44.02295" lon="6.63161">
        <ele>1111.4213867</ele>
        <time>2010-10-30T10:50:27Z</time>
      </trkpt>
      <trkpt lat="44.02287" lon="6.63137">
        <ele>1117.1894531</ele>
        <time>2010-10-30T10:50:54Z</time>
      </trkpt>
      <trkpt lat="44.02286" lon="6.63133">
        <ele>1117.6699219</ele>
        <time>2010-10-30T10:51:00Z</time>
      </trkpt>
      <trkpt lat="44.02291" lon="6.63149">
        <ele>1110.9406738</ele>
        <time>2010-10-30T10:51:15Z</time>
      </trkpt>
      <trkpt lat="44.02293" lon="6.63163">
        <ele>1097.0014648</ele>
        <time>2010-10-30T10:51:44Z</time>
      </trkpt>
      <trkpt lat="44.02295" lon="6.63156">
        <ele>1082.5817871</ele>
        <time>2010-10-30T10:52:18Z</time>
      </trkpt>
      <trkpt lat="44.02293" lon="6.63154">
        <ele>1070.5654297</ele>
        <time>2010-10-30T10:52:49Z</time>
      </trkpt>
      <trkpt lat="44.02295" lon="6.63149">
        <ele>1081.1398926</ele>
        <time>2010-10-30T10:53:47Z</time>
      </trkpt>
      <trkpt lat="44.02297" lon="6.63148">
        <ele>1075.8525391</ele>
        <time>2010-10-30T10:53:56Z</time>
      </trkpt>
      <trkpt lat="44.02297" lon="6.63141">
        <ele>1072.96875</ele>
        <time>2010-10-30T10:54:26Z</time>
      </trkpt>
      <trkpt lat="44.02297" lon="6.63141">
        <ele>1071.0461426</ele>
        <time>2010-10-30T10:54:33Z</time>
      </trkpt>
      <trkpt lat="44.02298" lon="6.63154">
        <ele>1078.2558594</ele>
        <time>2010-10-30T10:55:16Z</time>
      </trkpt>
      <trkpt lat="44.02304" lon="6.63141">
        <ele>1067.2006836</ele>
        <time>2010-10-30T10:55:22Z</time>
      </trkpt>
      <trkpt lat="44.02307" lon="6.6314">
        <ele>1069.1235352</ele>
        <time>2010-10-30T10:55:31Z</time>
      </trkpt>
      <trkpt lat="44.02301" lon="6.63138">
        <ele>1054.2231445</ele>
        <time>2010-10-30T10:55:44Z</time>
      </trkpt>
      <trkpt lat="44.023" lon="6.63139">
        <ele>1047.9743652</ele>
        <time>2010-10-30T10:56:00Z</time>
      </trkpt>
      <trkpt lat="44.023" lon="6.63139">
        <ele>1051.3388672</ele>
        <time>2010-10-30T10:56:02Z</time>
      </trkpt>
      <trkpt lat="44.02299" lon="6.63142">
        <ele>1051.3388672</ele>
        <time>2010-10-30T10:56:07Z</time>
      </trkpt>
      <trkpt lat="44.02298" lon="6.63145">
        <ele>1050.3776855</ele>
        <time>2010-10-30T10:56:15Z</time>
      </trkpt>
      <trkpt lat="44.02299" lon="6.63156">
        <ele>1052.300293</ele>
        <time>2010-10-30T10:56:21Z</time>
      </trkpt>
      <trkpt lat="44.02302" lon="6.63158">
        <ele>1055.1843262</ele>
        <time>2010-10-30T10:56:24Z</time>
      </trkpt>
      <trkpt lat="44.0232" lon="6.63167">
        <ele>1054.7036133</ele>
        <time>2010-10-30T10:56:29Z</time>
      </trkpt>
      <trkpt lat="44.02329" lon="6.63178">
        <ele>1054.2231445</ele>
        <time>2010-10-30T10:56:33Z</time>
      </trkpt>
      <trkpt lat="44.02337" lon="6.63179">
        <ele>1055.1843262</ele>
        <time>2010-10-30T10:56:35Z</time>
      </trkpt>
      <trkpt lat="44.02361" lon="6.63184">
        <ele>1055.6650391</ele>
        <time>2010-10-30T10:56:42Z</time>
      </trkpt>
      <trkpt lat="44.02375" lon="6.63173">
        <ele>1050.8581543</ele>
        <time>2010-10-30T10:56:48Z</time>
      </trkpt>
      <trkpt lat="44.02391" lon="6.63161">
        <ele>1039.8032227</ele>
        <time>2010-10-30T10:56:55Z</time>
      </trkpt>
      <trkpt lat="44.02406" lon="6.63154">
        <ele>1039.8032227</ele>
        <time>2010-10-30T10:57:02Z</time>
      </trkpt>
      <trkpt lat="44.02411" lon="6.63152">
        <ele>1039.8032227</ele>
        <time>2010-10-30T10:57:05Z</time>
      </trkpt>
      <trkpt lat="44.02425" lon="6.63155">
        <ele>1038.3613281</ele>
        <time>2010-10-30T10:57:11Z</time>
      </trkpt>
      <trkpt lat="44.02442" lon="6.63155">
        <ele>1039.8032227</ele>
        <time>2010-10-30T10:57:17Z</time>
      </trkpt>
      <trkpt lat="44.0246" lon="6.63156">
        <ele>1040.2839355</ele>
        <time>2010-10-30T10:57:24Z</time>
      </trkpt>
      <trkpt lat="44.02479" lon="6.63156">
        <ele>1042.6872559</ele>
        <time>2010-10-30T10:57:31Z</time>
      </trkpt>
      <trkpt lat="44.0249" lon="6.6316">
        <ele>1044.1291504</ele>
        <time>2010-10-30T10:57:35Z</time>
      </trkpt>
      <trkpt lat="44.02509" lon="6.63159">
        <ele>1046.0517578</ele>
        <time>2010-10-30T10:57:42Z</time>
      </trkpt>
      <trkpt lat="44.02535" lon="6.63154">
        <ele>1050.8581543</ele>
        <time>2010-10-30T10:57:51Z</time>
      </trkpt>
      <trkpt lat="44.02561" lon="6.63155">
        <ele>1053.7424316</ele>
        <time>2010-10-30T10:58:00Z</time>
      </trkpt>
      <trkpt lat="44.02572" lon="6.63157">
        <ele>1054.7036133</ele>
        <time>2010-10-30T10:58:05Z</time>
      </trkpt>
      <trkpt lat="44.02586" lon="6.6316">
        <ele>1055.6650391</ele>
        <time>2010-10-30T10:58:12Z</time>
      </trkpt>
      <trkpt lat="44.02596" lon="6.63163">
        <ele>1056.1455078</ele>
        <time>2010-10-30T10:58:19Z</time>
      </trkpt>
      <trkpt lat="44.02608" lon="6.63166">
        <ele>1051.3388672</ele>
        <time>2010-10-30T10:58:25Z</time>
      </trkpt>
      <trkpt lat="44.02623" lon="6.63169">
        <ele>1047.0129395</ele>
        <time>2010-10-30T10:58:32Z</time>
      </trkpt>
      <trkpt lat="44.02626" lon="6.63169">
        <ele>1047.9743652</ele>
        <time>2010-10-30T10:58:38Z</time>
      </trkpt>
      <trkpt lat="44.02626" lon="6.63169">
        <ele>1056.6262207</ele>
        <time>2010-10-30T10:59:44Z</time>
      </trkpt>
      <trkpt lat="44.02627" lon="6.63169">
        <ele>1059.9907227</ele>
        <time>2010-10-30T10:59:51Z</time>
      </trkpt>
      <trkpt lat="44.02634" lon="6.63176">
        <ele>1060.4714355</ele>
        <time>2010-10-30T10:59:56Z</time>
      </trkpt>
      <trkpt lat="44.02656" lon="6.63182">
        <ele>1062.394043</ele>
        <time>2010-10-30T11:00:05Z</time>
      </trkpt>
      <trkpt lat="44.02676" lon="6.63183">
        <ele>1062.8747559</ele>
        <time>2010-10-30T11:00:13Z</time>
      </trkpt>
      <trkpt lat="44.02692" lon="6.63179">
        <ele>1062.394043</ele>
        <time>2010-10-30T11:00:20Z</time>
      </trkpt>
      <trkpt lat="44.02693" lon="6.63177">
        <ele>1062.394043</ele>
        <time>2010-10-30T11:00:21Z</time>
      </trkpt>
      <trkpt lat="44.02702" lon="6.63174">
        <ele>1063.3554688</ele>
        <time>2010-10-30T11:00:26Z</time>
      </trkpt>
      <trkpt lat="44.02714" lon="6.63169">
        <ele>1065.7587891</ele>
        <time>2010-10-30T11:00:33Z</time>
      </trkpt>
      <trkpt lat="44.02731" lon="6.63163">
        <ele>1067.6811523</ele>
        <time>2010-10-30T11:00:41Z</time>
      </trkpt>
      <trkpt lat="44.0275" lon="6.63151">
        <ele>1069.1235352</ele>
        <time>2010-10-30T11:00:50Z</time>
      </trkpt>
      <trkpt lat="44.02757" lon="6.63137">
        <ele>1075.3718262</ele>
        <time>2010-10-30T11:00:55Z</time>
      </trkpt>
      <trkpt lat="44.02759" lon="6.63111">
        <ele>1075.3718262</ele>
        <time>2010-10-30T11:01:01Z</time>
      </trkpt>
      <trkpt lat="44.02761" lon="6.63078">
        <ele>1073.9299316</ele>
        <time>2010-10-30T11:01:06Z</time>
      </trkpt>
      <trkpt lat="44.02756" lon="6.6303">
        <ele>1072.4880371</ele>
        <time>2010-10-30T11:01:12Z</time>
      </trkpt>
      <trkpt lat="44.02754" lon="6.63014">
        <ele>1072.0073242</ele>
        <time>2010-10-30T11:01:14Z</time>
      </trkpt>
      <trkpt lat="44.02751" lon="6.62999">
        <ele>1071.5266113</ele>
        <time>2010-10-30T11:01:16Z</time>
      </trkpt>
      <trkpt lat="44.0274" lon="6.6298">
        <ele>1070.5654297</ele>
        <time>2010-10-30T11:01:20Z</time>
      </trkpt>
      <trkpt lat="44.02713" lon="6.62963">
        <ele>1068.6428223</ele>
        <time>2010-10-30T11:01:28Z</time>
      </trkpt>
      <trkpt lat="44.02704" lon="6.62957">
        <ele>1068.1621094</ele>
        <time>2010-10-30T11:01:31Z</time>
      </trkpt>
      <trkpt lat="44.02707" lon="6.62943">
        <ele>1068.1621094</ele>
        <time>2010-10-30T11:01:35Z</time>
      </trkpt>
      <trkpt lat="44.0271" lon="6.62944">
        <ele>1068.1621094</ele>
        <time>2010-10-30T11:01:36Z</time>
      </trkpt>
      <trkpt lat="44.02728" lon="6.62947">
        <ele>1066.2392578</ele>
        <time>2010-10-30T11:01:42Z</time>
      </trkpt>
      <trkpt lat="44.02747" lon="6.62954">
        <ele>1061.9135742</ele>
        <time>2010-10-30T11:01:49Z</time>
      </trkpt>
      <trkpt lat="44.02768" lon="6.62963">
        <ele>1059.029541</ele>
        <time>2010-10-30T11:01:55Z</time>
      </trkpt>
      <trkpt lat="44.02792" lon="6.62968">
        <ele>1059.5102539</ele>
        <time>2010-10-30T11:02:03Z</time>
      </trkpt>
      <trkpt lat="44.02795" lon="6.62968">
        <ele>1059.9907227</ele>
        <time>2010-10-30T11:02:04Z</time>
      </trkpt>
      <trkpt lat="44.02802" lon="6.62967">
        <ele>1059.5102539</ele>
        <time>2010-10-30T11:02:09Z</time>
      </trkpt>
      <trkpt lat="44.02803" lon="6.62968">
        <ele>1059.029541</ele>
        <time>2010-10-30T11:02:13Z</time>
      </trkpt>
      <trkpt lat="44.02803" lon="6.62969">
        <ele>1063.3554688</ele>
        <time>2010-10-30T11:02:34Z</time>
      </trkpt>
      <trkpt lat="44.02802" lon="6.62969">
        <ele>1064.3166504</ele>
        <time>2010-10-30T11:02:43Z</time>
      </trkpt>
      <trkpt lat="44.02802" lon="6.62968">
        <ele>1064.3166504</ele>
        <time>2010-10-30T11:02:54Z</time>
      </trkpt>
      <trkpt lat="44.02806" lon="6.6297">
        <ele>1063.3554688</ele>
        <time>2010-10-30T11:03:05Z</time>
      </trkpt>
      <trkpt lat="44.02806" lon="6.62969">
        <ele>1062.8747559</ele>
        <time>2010-10-30T11:03:10Z</time>
      </trkpt>
      <trkpt lat="44.02808" lon="6.62969">
        <ele>1062.394043</ele>
        <time>2010-10-30T11:03:23Z</time>
      </trkpt>
      <trkpt lat="44.02809" lon="6.62969">
        <ele>1062.8747559</ele>
        <time>2010-10-30T11:03:40Z</time>
      </trkpt>
      <trkpt lat="44.02811" lon="6.62971">
        <ele>1062.8747559</ele>
        <time>2010-10-30T11:03:49Z</time>
      </trkpt>
      <trkpt lat="44.02813" lon="6.62972">
        <ele>1064.7973633</ele>
        <time>2010-10-30T11:04:05Z</time>
      </trkpt>
      <trkpt lat="44.02813" lon="6.62973">
        <ele>1065.2780762</ele>
        <time>2010-10-30T11:04:10Z</time>
      </trkpt>
      <trkpt lat="44.02818" lon="6.6298">
        <ele>1066.7199707</ele>
        <time>2010-10-30T11:04:14Z</time>
      </trkpt>
      <trkpt lat="44.02833" lon="6.62985">
        <ele>1067.6811523</ele>
        <time>2010-10-30T11:04:19Z</time>
      </trkpt>
      <trkpt lat="44.0285" lon="6.62985">
        <ele>1068.1621094</ele>
        <time>2010-10-30T11:04:26Z</time>
      </trkpt>
      <trkpt lat="44.02867" lon="6.6298">
        <ele>1069.1235352</ele>
        <time>2010-10-30T11:04:33Z</time>
      </trkpt>
      <trkpt lat="44.0288" lon="6.62974">
        <ele>1069.1235352</ele>
        <time>2010-10-30T11:04:39Z</time>
      </trkpt>
      <trkpt lat="44.02893" lon="6.62969">
        <ele>1069.1235352</ele>
        <time>2010-10-30T11:04:45Z</time>
      </trkpt>
      <trkpt lat="44.02903" lon="6.62968">
        <ele>1069.1235352</ele>
        <time>2010-10-30T11:04:50Z</time>
      </trkpt>
      <trkpt lat="44.02921" lon="6.62965">
        <ele>1070.5654297</ele>
        <time>2010-10-30T11:04:59Z</time>
      </trkpt>
      <trkpt lat="44.02936" lon="6.62963">
        <ele>1071.0461426</ele>
        <time>2010-10-30T11:05:07Z</time>
      </trkpt>
      <trkpt lat="44.02946" lon="6.62963">
        <ele>1071.0461426</ele>
        <time>2010-10-30T11:05:14Z</time>
      </trkpt>
      <trkpt lat="44.02961" lon="6.62962">
        <ele>1073.9299316</ele>
        <time>2010-10-30T11:05:23Z</time>
      </trkpt>
      <trkpt lat="44.02976" lon="6.62964">
        <ele>1076.333252</ele>
        <time>2010-10-30T11:05:31Z</time>
      </trkpt>
      <trkpt lat="44.02995" lon="6.62966">
        <ele>1077.7751465</ele>
        <time>2010-10-30T11:05:41Z</time>
      </trkpt>
      <trkpt lat="44.03011" lon="6.6297">
        <ele>1077.7751465</ele>
        <time>2010-10-30T11:05:50Z</time>
      </trkpt>
      <trkpt lat="44.03013" lon="6.62971">
        <ele>1078.2558594</ele>
        <time>2010-10-30T11:05:51Z</time>
      </trkpt>
      <trkpt lat="44.03027" lon="6.6297">
        <ele>1079.6977539</ele>
        <time>2010-10-30T11:05:59Z</time>
      </trkpt>
      <trkpt lat="44.03036" lon="6.62968">
        <ele>1080.6591797</ele>
        <time>2010-10-30T11:06:04Z</time>
      </trkpt>
      <trkpt lat="44.0305" lon="6.62967">
        <ele>1083.0622559</ele>
        <time>2010-10-30T11:06:12Z</time>
      </trkpt>
      <trkpt lat="44.03061" lon="6.62967">
        <ele>1084.9853516</ele>
        <time>2010-10-30T11:06:19Z</time>
      </trkpt>
      <trkpt lat="44.03074" lon="6.62965">
        <ele>1086.4272461</ele>
        <time>2010-10-30T11:06:27Z</time>
      </trkpt>
      <trkpt lat="44.03085" lon="6.62965">
        <ele>1087.3884277</ele>
        <time>2010-10-30T11:06:34Z</time>
      </trkpt>
      <trkpt lat="44.03095" lon="6.62965">
        <ele>1088.8305664</ele>
        <time>2010-10-30T11:06:40Z</time>
      </trkpt>
      <trkpt lat="44.03099" lon="6.62967">
        <ele>1087.8691406</ele>
        <time>2010-10-30T11:06:43Z</time>
      </trkpt>
      <trkpt lat="44.03106" lon="6.62965">
        <ele>1087.8691406</ele>
        <time>2010-10-30T11:06:47Z</time>
      </trkpt>
      <trkpt lat="44.03115" lon="6.62966">
        <ele>1089.3110352</ele>
        <time>2010-10-30T11:06:52Z</time>
      </trkpt>
      <trkpt lat="44.03124" lon="6.62971">
        <ele>1090.2724609</ele>
        <time>2010-10-30T11:06:57Z</time>
      </trkpt>
      <trkpt lat="44.03144" lon="6.62975">
        <ele>1090.7529297</ele>
        <time>2010-10-30T11:07:05Z</time>
      </trkpt>
      <trkpt lat="44.03158" lon="6.62966">
        <ele>1090.7529297</ele>
        <time>2010-10-30T11:07:11Z</time>
      </trkpt>
      <trkpt lat="44.03175" lon="6.62946">
        <ele>1088.3498535</ele>
        <time>2010-10-30T11:07:19Z</time>
      </trkpt>
      <trkpt lat="44.03193" lon="6.62933">
        <ele>1088.3498535</ele>
        <time>2010-10-30T11:07:26Z</time>
      </trkpt>
      <trkpt lat="44.03209" lon="6.62924">
        <ele>1090.7529297</ele>
        <time>2010-10-30T11:07:33Z</time>
      </trkpt>
      <trkpt lat="44.03225" lon="6.62925">
        <ele>1091.2336426</ele>
        <time>2010-10-30T11:07:40Z</time>
      </trkpt>
      <trkpt lat="44.0324" lon="6.62927">
        <ele>1092.1950684</ele>
        <time>2010-10-30T11:07:46Z</time>
      </trkpt>
      <trkpt lat="44.0326" lon="6.62926">
        <ele>1094.1176758</ele>
        <time>2010-10-30T11:07:54Z</time>
      </trkpt>
      <trkpt lat="44.0327" lon="6.62924">
        <ele>1094.5981445</ele>
        <time>2010-10-30T11:07:58Z</time>
      </trkpt>
      <trkpt lat="44.0328" lon="6.62933">
        <ele>1094.1176758</ele>
        <time>2010-10-30T11:08:03Z</time>
      </trkpt>
      <trkpt lat="44.03285" lon="6.62961">
        <ele>1091.7143555</ele>
        <time>2010-10-30T11:08:10Z</time>
      </trkpt>
      <trkpt lat="44.03291" lon="6.62998">
        <ele>1093.15625</ele>
        <time>2010-10-30T11:08:20Z</time>
      </trkpt>
      <trkpt lat="44.03291" lon="6.63023">
        <ele>1094.1176758</ele>
        <time>2010-10-30T11:08:27Z</time>
      </trkpt>
      <trkpt lat="44.03289" lon="6.63045">
        <ele>1097.0014648</ele>
        <time>2010-10-30T11:08:33Z</time>
      </trkpt>
      <trkpt lat="44.03286" lon="6.63068">
        <ele>1099.4047852</ele>
        <time>2010-10-30T11:08:39Z</time>
      </trkpt>
      <trkpt lat="44.03291" lon="6.63088">
        <ele>1099.885498</ele>
        <time>2010-10-30T11:08:45Z</time>
      </trkpt>
      <trkpt lat="44.03297" lon="6.63103">
        <ele>1100.8469238</ele>
        <time>2010-10-30T11:08:51Z</time>
      </trkpt>
      <trkpt lat="44.033" lon="6.6311">
        <ele>1101.3276367</ele>
        <time>2010-10-30T11:08:54Z</time>
      </trkpt>
      <trkpt lat="44.03302" lon="6.63121">
        <ele>1101.8083496</ele>
        <time>2010-10-30T11:08:59Z</time>
      </trkpt>
      <trkpt lat="44.03309" lon="6.63138">
        <ele>1105.6535645</ele>
        <time>2010-10-30T11:09:08Z</time>
      </trkpt>
      <trkpt lat="44.03318" lon="6.6315">
        <ele>1107.095459</ele>
        <time>2010-10-30T11:09:15Z</time>
      </trkpt>
      <trkpt lat="44.03326" lon="6.63164">
        <ele>1108.0568848</ele>
        <time>2010-10-30T11:09:22Z</time>
      </trkpt>
      <trkpt lat="44.03335" lon="6.63178">
        <ele>1109.0180664</ele>
        <time>2010-10-30T11:09:30Z</time>
      </trkpt>
      <trkpt lat="44.03343" lon="6.63189">
        <ele>1109.979248</ele>
        <time>2010-10-30T11:09:36Z</time>
      </trkpt>
      <trkpt lat="44.03347" lon="6.63203">
        <ele>1110.9406738</ele>
        <time>2010-10-30T11:09:43Z</time>
      </trkpt>
      <trkpt lat="44.03348" lon="6.63205">
        <ele>1110.9406738</ele>
        <time>2010-10-30T11:09:44Z</time>
      </trkpt>
      <trkpt lat="44.0336" lon="6.63215">
        <ele>1113.3439941</ele>
        <time>2010-10-30T11:09:52Z</time>
      </trkpt>
      <trkpt lat="44.03369" lon="6.63223">
        <ele>1114.7858887</ele>
        <time>2010-10-30T11:09:59Z</time>
      </trkpt>
      <trkpt lat="44.03377" lon="6.63233">
        <ele>1117.1894531</ele>
        <time>2010-10-30T11:10:06Z</time>
      </trkpt>
      <trkpt lat="44.03385" lon="6.63249">
        <ele>1119.1120605</ele>
        <time>2010-10-30T11:10:14Z</time>
      </trkpt>
      <trkpt lat="44.03392" lon="6.63262">
        <ele>1120.5539551</ele>
        <time>2010-10-30T11:10:21Z</time>
      </trkpt>
      <trkpt lat="44.03404" lon="6.63278">
        <ele>1122.9572754</ele>
        <time>2010-10-30T11:10:30Z</time>
      </trkpt>
      <trkpt lat="44.03411" lon="6.63286">
        <ele>1123.4379883</ele>
        <time>2010-10-30T11:10:36Z</time>
      </trkpt>
      <trkpt lat="44.03423" lon="6.63299">
        <ele>1122.9572754</ele>
        <time>2010-10-30T11:10:44Z</time>
      </trkpt>
      <trkpt lat="44.03434" lon="6.63311">
        <ele>1123.4379883</ele>
        <time>2010-10-30T11:10:51Z</time>
      </trkpt>
      <trkpt lat="44.0344" lon="6.63325">
        <ele>1126.3217773</ele>
        <time>2010-10-30T11:10:58Z</time>
      </trkpt>
      <trkpt lat="44.03446" lon="6.63343">
        <ele>1127.7636719</ele>
        <time>2010-10-30T11:11:06Z</time>
      </trkpt>
      <trkpt lat="44.03449" lon="6.63362">
        <ele>1130.1669922</ele>
        <time>2010-10-30T11:11:14Z</time>
      </trkpt>
      <trkpt lat="44.03454" lon="6.63382">
        <ele>1131.6088867</ele>
        <time>2010-10-30T11:11:23Z</time>
      </trkpt>
      <trkpt lat="44.03454" lon="6.63401">
        <ele>1132.5705566</ele>
        <time>2010-10-30T11:11:30Z</time>
      </trkpt>
      <trkpt lat="44.03448" lon="6.63425">
        <ele>1134.4931641</ele>
        <time>2010-10-30T11:11:39Z</time>
      </trkpt>
      <trkpt lat="44.03442" lon="6.63441">
        <ele>1136.4157715</ele>
        <time>2010-10-30T11:11:46Z</time>
      </trkpt>
      <trkpt lat="44.03433" lon="6.63463">
        <ele>1136.8962402</ele>
        <time>2010-10-30T11:11:55Z</time>
      </trkpt>
      <trkpt lat="44.03432" lon="6.63487">
        <ele>1137.3769531</ele>
        <time>2010-10-30T11:12:04Z</time>
      </trkpt>
      <trkpt lat="44.03437" lon="6.63496">
        <ele>1138.8190918</ele>
        <time>2010-10-30T11:12:09Z</time>
      </trkpt>
      <trkpt lat="44.03446" lon="6.63493">
        <ele>1140.7414551</ele>
        <time>2010-10-30T11:12:15Z</time>
      </trkpt>
      <trkpt lat="44.03457" lon="6.63489">
        <ele>1142.6643066</ele>
        <time>2010-10-30T11:12:22Z</time>
      </trkpt>
      <trkpt lat="44.03473" lon="6.63489">
        <ele>1146.0288086</ele>
        <time>2010-10-30T11:12:30Z</time>
      </trkpt>
      <trkpt lat="44.03486" lon="6.63479">
        <ele>1145.0673828</ele>
        <time>2010-10-30T11:12:38Z</time>
      </trkpt>
      <trkpt lat="44.03496" lon="6.63471">
        <ele>1144.1062012</ele>
        <time>2010-10-30T11:12:44Z</time>
      </trkpt>
      <trkpt lat="44.03512" lon="6.63457">
        <ele>1145.0673828</ele>
        <time>2010-10-30T11:12:53Z</time>
      </trkpt>
      <trkpt lat="44.03521" lon="6.63448">
        <ele>1147.4707031</ele>
        <time>2010-10-30T11:13:00Z</time>
      </trkpt>
      <trkpt lat="44.03532" lon="6.63441">
        <ele>1149.3935547</ele>
        <time>2010-10-30T11:13:08Z</time>
      </trkpt>
      <trkpt lat="44.03536" lon="6.63442">
        <ele>1149.8742676</ele>
        <time>2010-10-30T11:13:10Z</time>
      </trkpt>
      <trkpt lat="44.03547" lon="6.6345">
        <ele>1151.796875</ele>
        <time>2010-10-30T11:13:18Z</time>
      </trkpt>
      <trkpt lat="44.03557" lon="6.63456">
        <ele>1153.7194824</ele>
        <time>2010-10-30T11:13:25Z</time>
      </trkpt>
      <trkpt lat="44.03567" lon="6.63465">
        <ele>1151.796875</ele>
        <time>2010-10-30T11:13:31Z</time>
      </trkpt>
      <trkpt lat="44.03571" lon="6.63474">
        <ele>1167.6584473</ele>
        <time>2010-10-30T11:14:58Z</time>
      </trkpt>
      <trkpt lat="44.03574" lon="6.63471">
        <ele>1165.2553711</ele>
        <time>2010-10-30T11:15:10Z</time>
      </trkpt>
      <trkpt lat="44.03581" lon="6.63472">
        <ele>1165.736084</ele>
        <time>2010-10-30T11:15:14Z</time>
      </trkpt>
      <trkpt lat="44.03594" lon="6.63469">
        <ele>1162.8518066</ele>
        <time>2010-10-30T11:15:21Z</time>
      </trkpt>
      <trkpt lat="44.03602" lon="6.63468">
        <ele>1164.7746582</ele>
        <time>2010-10-30T11:15:28Z</time>
      </trkpt>
      <trkpt lat="44.03611" lon="6.63471">
        <ele>1165.2553711</ele>
        <time>2010-10-30T11:15:33Z</time>
      </trkpt>
      <trkpt lat="44.03623" lon="6.63476">
        <ele>1161.890625</ele>
        <time>2010-10-30T11:15:39Z</time>
      </trkpt>
      <trkpt lat="44.03633" lon="6.63482">
        <ele>1160.9291992</ele>
        <time>2010-10-30T11:15:46Z</time>
      </trkpt>
      <trkpt lat="44.03647" lon="6.63489">
        <ele>1161.4099121</ele>
        <time>2010-10-30T11:15:54Z</time>
      </trkpt>
      <trkpt lat="44.03662" lon="6.63497">
        <ele>1159.9677734</ele>
        <time>2010-10-30T11:16:03Z</time>
      </trkpt>
      <trkpt lat="44.03671" lon="6.63502">
        <ele>1161.4099121</ele>
        <time>2010-10-30T11:16:08Z</time>
      </trkpt>
      <trkpt lat="44.03678" lon="6.63515">
        <ele>1165.736084</ele>
        <time>2010-10-30T11:16:15Z</time>
      </trkpt>
      <trkpt lat="44.03689" lon="6.63525">
        <ele>1167.1779785</ele>
        <time>2010-10-30T11:16:22Z</time>
      </trkpt>
      <trkpt lat="44.03701" lon="6.63532">
        <ele>1168.619873</ele>
        <time>2010-10-30T11:16:28Z</time>
      </trkpt>
      <trkpt lat="44.03708" lon="6.63535">
        <ele>1165.736084</ele>
        <time>2010-10-30T11:16:32Z</time>
      </trkpt>
      <trkpt lat="44.03714" lon="6.63539">
        <ele>1166.6972656</ele>
        <time>2010-10-30T11:16:36Z</time>
      </trkpt>
      <trkpt lat="44.0373" lon="6.63544">
        <ele>1168.1391602</ele>
        <time>2010-10-30T11:16:43Z</time>
      </trkpt>
      <trkpt lat="44.03746" lon="6.63553">
        <ele>1169.1005859</ele>
        <time>2010-10-30T11:16:52Z</time>
      </trkpt>
      <trkpt lat="44.0375" lon="6.6356">
        <ele>1170.0617676</ele>
        <time>2010-10-30T11:16:55Z</time>
      </trkpt>
      <trkpt lat="44.03746" lon="6.63567">
        <ele>1175.8295898</ele>
        <time>2010-10-30T11:17:01Z</time>
      </trkpt>
      <trkpt lat="44.03738" lon="6.63571">
        <ele>1182.0783691</ele>
        <time>2010-10-30T11:17:07Z</time>
      </trkpt>
      <trkpt lat="44.03727" lon="6.63578">
        <ele>1194.0947266</ele>
        <time>2010-10-30T11:17:14Z</time>
      </trkpt>
      <trkpt lat="44.03718" lon="6.63589">
        <ele>1198.4206543</ele>
        <time>2010-10-30T11:17:19Z</time>
      </trkpt>
      <trkpt lat="44.0371" lon="6.63602">
        <ele>1202.746582</ele>
        <time>2010-10-30T11:17:25Z</time>
      </trkpt>
      <trkpt lat="44.03699" lon="6.63614">
        <ele>1207.0725098</ele>
        <time>2010-10-30T11:17:32Z</time>
      </trkpt>
      <trkpt lat="44.03688" lon="6.63626">
        <ele>1208.5144043</ele>
        <time>2010-10-30T11:17:39Z</time>
      </trkpt>
      <trkpt lat="44.0368" lon="6.63638">
        <ele>1206.111084</ele>
        <time>2010-10-30T11:17:45Z</time>
      </trkpt>
      <trkpt lat="44.03668" lon="6.63648">
        <ele>1201.7854004</ele>
        <time>2010-10-30T11:17:51Z</time>
      </trkpt>
      <trkpt lat="44.03657" lon="6.63659">
        <ele>1204.1887207</ele>
        <time>2010-10-30T11:17:57Z</time>
      </trkpt>
      <trkpt lat="44.03641" lon="6.63674">
        <ele>1213.3212891</ele>
        <time>2010-10-30T11:18:06Z</time>
      </trkpt>
      <trkpt lat="44.03631" lon="6.63687">
        <ele>1214.2824707</ele>
        <time>2010-10-30T11:18:12Z</time>
      </trkpt>
      <trkpt lat="44.03621" lon="6.63703">
        <ele>1215.7246094</ele>
        <time>2010-10-30T11:18:17Z</time>
      </trkpt>
      <trkpt lat="44.03618" lon="6.63729">
        <ele>1214.7631836</ele>
        <time>2010-10-30T11:18:25Z</time>
      </trkpt>
      <trkpt lat="44.03614" lon="6.63748">
        <ele>1216.2050781</ele>
        <time>2010-10-30T11:18:32Z</time>
      </trkpt>
      <trkpt lat="44.03613" lon="6.63768">
        <ele>1218.1276855</ele>
        <time>2010-10-30T11:18:38Z</time>
      </trkpt>
      <trkpt lat="44.03608" lon="6.63781">
        <ele>1220.050293</ele>
        <time>2010-10-30T11:18:43Z</time>
      </trkpt>
      <trkpt lat="44.03607" lon="6.6379">
        <ele>1220.5310059</ele>
        <time>2010-10-30T11:18:46Z</time>
      </trkpt>
      <trkpt lat="44.03603" lon="6.63809">
        <ele>1222.9343262</ele>
        <time>2010-10-30T11:18:52Z</time>
      </trkpt>
      <trkpt lat="44.03602" lon="6.63827">
        <ele>1214.7631836</ele>
        <time>2010-10-30T11:18:57Z</time>
      </trkpt>
      <trkpt lat="44.036" lon="6.63849">
        <ele>1211.3984375</ele>
        <time>2010-10-30T11:19:02Z</time>
      </trkpt>
      <trkpt lat="44.03606" lon="6.63873">
        <ele>1208.0339355</ele>
        <time>2010-10-30T11:19:08Z</time>
      </trkpt>
      <trkpt lat="44.03611" lon="6.63891">
        <ele>1205.6306152</ele>
        <time>2010-10-30T11:19:13Z</time>
      </trkpt>
      <trkpt lat="44.03624" lon="6.63912">
        <ele>1205.1499023</ele>
        <time>2010-10-30T11:19:19Z</time>
      </trkpt>
      <trkpt lat="44.03609" lon="6.63913">
        <ele>1214.7631836</ele>
        <time>2010-10-30T11:19:24Z</time>
      </trkpt>
      <trkpt lat="44.03602" lon="6.63909">
        <ele>1217.6469727</ele>
        <time>2010-10-30T11:19:27Z</time>
      </trkpt>
      <trkpt lat="44.0359" lon="6.63906">
        <ele>1220.050293</ele>
        <time>2010-10-30T11:19:33Z</time>
      </trkpt>
      <trkpt lat="44.03579" lon="6.63912">
        <ele>1223.4150391</ele>
        <time>2010-10-30T11:19:38Z</time>
      </trkpt>
      <trkpt lat="44.03572" lon="6.63922">
        <ele>1226.779541</ele>
        <time>2010-10-30T11:19:44Z</time>
      </trkpt>
      <trkpt lat="44.03566" lon="6.63936">
        <ele>1225.8181152</ele>
        <time>2010-10-30T11:19:51Z</time>
      </trkpt>
      <trkpt lat="44.03561" lon="6.63947">
        <ele>1229.6635742</ele>
        <time>2010-10-30T11:19:57Z</time>
      </trkpt>
      <trkpt lat="44.0356" lon="6.63957">
        <ele>1233.5087891</ele>
        <time>2010-10-30T11:20:03Z</time>
      </trkpt>
      <trkpt lat="44.03554" lon="6.63963">
        <ele>1234.9509277</ele>
        <time>2010-10-30T11:20:08Z</time>
      </trkpt>
      <trkpt lat="44.03551" lon="6.63975">
        <ele>1235.4313965</ele>
        <time>2010-10-30T11:20:14Z</time>
      </trkpt>
      <trkpt lat="44.03546" lon="6.6399">
        <ele>1229.1828613</ele>
        <time>2010-10-30T11:20:21Z</time>
      </trkpt>
      <trkpt lat="44.03543" lon="6.63996">
        <ele>1232.0668945</ele>
        <time>2010-10-30T11:20:25Z</time>
      </trkpt>
      <trkpt lat="44.03537" lon="6.64007">
        <ele>1237.8347168</ele>
        <time>2010-10-30T11:20:32Z</time>
      </trkpt>
      <trkpt lat="44.03533" lon="6.64025">
        <ele>1243.6025391</ele>
        <time>2010-10-30T11:20:42Z</time>
      </trkpt>
      <trkpt lat="44.03537" lon="6.64046">
        <ele>1236.873291</ele>
        <time>2010-10-30T11:20:50Z</time>
      </trkpt>
      <trkpt lat="44.03538" lon="6.64051">
        <ele>1235.4313965</ele>
        <time>2010-10-30T11:20:52Z</time>
      </trkpt>
      <trkpt lat="44.03536" lon="6.64062">
        <ele>1232.0668945</ele>
        <time>2010-10-30T11:20:59Z</time>
      </trkpt>
      <trkpt lat="44.03532" lon="6.64073">
        <ele>1232.0668945</ele>
        <time>2010-10-30T11:21:05Z</time>
      </trkpt>
      <trkpt lat="44.03532" lon="6.64081">
        <ele>1232.0668945</ele>
        <time>2010-10-30T11:21:09Z</time>
      </trkpt>
      <trkpt lat="44.0353" lon="6.64097">
        <ele>1235.9121094</ele>
        <time>2010-10-30T11:21:18Z</time>
      </trkpt>
      <trkpt lat="44.03528" lon="6.64111">
        <ele>1237.3540039</ele>
        <time>2010-10-30T11:21:26Z</time>
      </trkpt>
      <trkpt lat="44.03528" lon="6.64121">
        <ele>1238.7961426</ele>
        <time>2010-10-30T11:21:32Z</time>
      </trkpt>
      <trkpt lat="44.0353" lon="6.64135">
        <ele>1239.2766113</ele>
        <time>2010-10-30T11:21:38Z</time>
      </trkpt>
      <trkpt lat="44.03529" lon="6.6415">
        <ele>1243.6025391</ele>
        <time>2010-10-30T11:21:48Z</time>
      </trkpt>
      <trkpt lat="44.03529" lon="6.64152">
        <ele>1243.6025391</ele>
        <time>2010-10-30T11:21:49Z</time>
      </trkpt>
      <trkpt lat="44.03529" lon="6.6416">
        <ele>1245.0446777</ele>
        <time>2010-10-30T11:21:53Z</time>
      </trkpt>
      <trkpt lat="44.0353" lon="6.64175">
        <ele>1244.5639648</ele>
        <time>2010-10-30T11:22:01Z</time>
      </trkpt>
      <trkpt lat="44.03532" lon="6.64197">
        <ele>1240.2380371</ele>
        <time>2010-10-30T11:22:11Z</time>
      </trkpt>
      <trkpt lat="44.03529" lon="6.64208">
        <ele>1242.6413574</ele>
        <time>2010-10-30T11:22:18Z</time>
      </trkpt>
      <trkpt lat="44.03524" lon="6.64222">
        <ele>1240.7185059</ele>
        <time>2010-10-30T11:22:25Z</time>
      </trkpt>
      <trkpt lat="44.03516" lon="6.64233">
        <ele>1240.2380371</ele>
        <time>2010-10-30T11:22:33Z</time>
      </trkpt>
      <trkpt lat="44.03508" lon="6.6424">
        <ele>1239.7573242</ele>
        <time>2010-10-30T11:22:40Z</time>
      </trkpt>
      <trkpt lat="44.03498" lon="6.64248">
        <ele>1244.5639648</ele>
        <time>2010-10-30T11:22:49Z</time>
      </trkpt>
      <trkpt lat="44.03494" lon="6.64252">
        <ele>1246.0061035</ele>
        <time>2010-10-30T11:22:53Z</time>
      </trkpt>
      <trkpt lat="44.03491" lon="6.64256">
        <ele>1253.2158203</ele>
        <time>2010-10-30T11:22:58Z</time>
      </trkpt>
      <trkpt lat="44.03483" lon="6.64264">
        <ele>1255.1384277</ele>
        <time>2010-10-30T11:23:05Z</time>
      </trkpt>
      <trkpt lat="44.03479" lon="6.64271">
        <ele>1257.0610352</ele>
        <time>2010-10-30T11:23:11Z</time>
      </trkpt>
      <trkpt lat="44.03469" lon="6.64272">
        <ele>1266.6743164</ele>
        <time>2010-10-30T11:23:19Z</time>
      </trkpt>
      <trkpt lat="44.03457" lon="6.64281">
        <ele>1261.387207</ele>
        <time>2010-10-30T11:23:27Z</time>
      </trkpt>
      <trkpt lat="44.03452" lon="6.64285">
        <ele>1260.9064941</ele>
        <time>2010-10-30T11:23:31Z</time>
      </trkpt>
      <trkpt lat="44.03445" lon="6.64294">
        <ele>1263.3098145</ele>
        <time>2010-10-30T11:23:40Z</time>
      </trkpt>
      <trkpt lat="44.03435" lon="6.64302">
        <ele>1261.8679199</ele>
        <time>2010-10-30T11:23:46Z</time>
      </trkpt>
      <trkpt lat="44.0343" lon="6.64305">
        <ele>1264.2709961</ele>
        <time>2010-10-30T11:23:51Z</time>
      </trkpt>
      <trkpt lat="44.0342" lon="6.64315">
        <ele>1262.8291016</ele>
        <time>2010-10-30T11:23:58Z</time>
      </trkpt>
      <trkpt lat="44.03419" lon="6.64319">
        <ele>1269.0776367</ele>
        <time>2010-10-30T11:24:03Z</time>
      </trkpt>
      <trkpt lat="44.03427" lon="6.64322">
        <ele>1270.5195312</ele>
        <time>2010-10-30T11:24:09Z</time>
      </trkpt>
      <trkpt lat="44.03429" lon="6.64319">
        <ele>1273.8840332</ele>
        <time>2010-10-30T11:24:12Z</time>
      </trkpt>
      <trkpt lat="44.03434" lon="6.64313">
        <ele>1277.7294922</ele>
        <time>2010-10-30T11:24:18Z</time>
      </trkpt>
      <trkpt lat="44.03444" lon="6.64313">
        <ele>1272.4421387</ele>
        <time>2010-10-30T11:24:27Z</time>
      </trkpt>
      <trkpt lat="44.03453" lon="6.64316">
        <ele>1260.4257812</ele>
        <time>2010-10-30T11:24:34Z</time>
      </trkpt>
      <trkpt lat="44.03465" lon="6.64319">
        <ele>1258.0224609</ele>
        <time>2010-10-30T11:24:42Z</time>
      </trkpt>
      <trkpt lat="44.03475" lon="6.64319">
        <ele>1257.0610352</ele>
        <time>2010-10-30T11:24:48Z</time>
      </trkpt>
      <trkpt lat="44.03486" lon="6.64319">
        <ele>1256.5803223</ele>
        <time>2010-10-30T11:24:56Z</time>
      </trkpt>
      <trkpt lat="44.03498" lon="6.6432">
        <ele>1257.0610352</ele>
        <time>2010-10-30T11:25:05Z</time>
      </trkpt>
      <trkpt lat="44.03509" lon="6.64317">
        <ele>1255.1384277</ele>
        <time>2010-10-30T11:25:13Z</time>
      </trkpt>
      <trkpt lat="44.03516" lon="6.64313">
        <ele>1252.7351074</ele>
        <time>2010-10-30T11:25:21Z</time>
      </trkpt>
      <trkpt lat="44.03523" lon="6.64308">
        <ele>1252.7351074</ele>
        <time>2010-10-30T11:25:28Z</time>
      </trkpt>
      <trkpt lat="44.03533" lon="6.643">
        <ele>1255.6191406</ele>
        <time>2010-10-30T11:25:36Z</time>
      </trkpt>
      <trkpt lat="44.03544" lon="6.64298">
        <ele>1258.0224609</ele>
        <time>2010-10-30T11:25:44Z</time>
      </trkpt>
      <trkpt lat="44.03555" lon="6.64302">
        <ele>1260.9064941</ele>
        <time>2010-10-30T11:25:52Z</time>
      </trkpt>
      <trkpt lat="44.03567" lon="6.64304">
        <ele>1273.4035645</ele>
        <time>2010-10-30T11:26:01Z</time>
      </trkpt>
      <trkpt lat="44.03575" lon="6.64309">
        <ele>1275.3259277</ele>
        <time>2010-10-30T11:26:08Z</time>
      </trkpt>
      <trkpt lat="44.03581" lon="6.64312">
        <ele>1278.690918</ele>
        <time>2010-10-30T11:26:15Z</time>
      </trkpt>
      <trkpt lat="44.03589" lon="6.64317">
        <ele>1282.0554199</ele>
        <time>2010-10-30T11:26:22Z</time>
      </trkpt>
      <trkpt lat="44.03602" lon="6.64323">
        <ele>1279.6520996</ele>
        <time>2010-10-30T11:26:30Z</time>
      </trkpt>
      <trkpt lat="44.03601" lon="6.64334">
        <ele>1279.1713867</ele>
        <time>2010-10-30T11:26:36Z</time>
      </trkpt>
      <trkpt lat="44.03596" lon="6.64337">
        <ele>1279.6520996</ele>
        <time>2010-10-30T11:26:41Z</time>
      </trkpt>
      <trkpt lat="44.03588" lon="6.64332">
        <ele>1280.1328125</ele>
        <time>2010-10-30T11:26:48Z</time>
      </trkpt>
      <trkpt lat="44.0358" lon="6.6433">
        <ele>1282.5361328</ele>
        <time>2010-10-30T11:26:55Z</time>
      </trkpt>
      <trkpt lat="44.0357" lon="6.64326">
        <ele>1289.2651367</ele>
        <time>2010-10-30T11:27:03Z</time>
      </trkpt>
      <trkpt lat="44.03564" lon="6.64321">
        <ele>1296.4753418</ele>
        <time>2010-10-30T11:27:09Z</time>
      </trkpt>
      <trkpt lat="44.03559" lon="6.64322">
        <ele>1293.5913086</ele>
        <time>2010-10-30T11:27:13Z</time>
      </trkpt>
      <trkpt lat="44.03546" lon="6.64325">
        <ele>1298.3977051</ele>
        <time>2010-10-30T11:27:21Z</time>
      </trkpt>
      <trkpt lat="44.03538" lon="6.64331">
        <ele>1303.2043457</ele>
        <time>2010-10-30T11:27:28Z</time>
      </trkpt>
      <trkpt lat="44.03531" lon="6.64341">
        <ele>1302.2429199</ele>
        <time>2010-10-30T11:27:35Z</time>
      </trkpt>
      <trkpt lat="44.03526" lon="6.64348">
        <ele>1300.3205566</ele>
        <time>2010-10-30T11:27:40Z</time>
      </trkpt>
      <trkpt lat="44.03521" lon="6.64354">
        <ele>1301.7624512</ele>
        <time>2010-10-30T11:27:47Z</time>
      </trkpt>
      <trkpt lat="44.03519" lon="6.64358">
        <ele>1301.2817383</ele>
        <time>2010-10-30T11:27:50Z</time>
      </trkpt>
      <trkpt lat="44.03515" lon="6.64368">
        <ele>1306.5688477</ele>
        <time>2010-10-30T11:27:58Z</time>
      </trkpt>
      <trkpt lat="44.03513" lon="6.64379">
        <ele>1309.9335938</ele>
        <time>2010-10-30T11:28:05Z</time>
      </trkpt>
      <trkpt lat="44.0351" lon="6.6439">
        <ele>1317.6240234</ele>
        <time>2010-10-30T11:28:13Z</time>
      </trkpt>
      <trkpt lat="44.0351" lon="6.64398">
        <ele>1319.0661621</ele>
        <time>2010-10-30T11:28:18Z</time>
      </trkpt>
      <trkpt lat="44.0351" lon="6.64415">
        <ele>1318.1047363</ele>
        <time>2010-10-30T11:28:26Z</time>
      </trkpt>
      <trkpt lat="44.03509" lon="6.64423">
        <ele>1320.0273438</ele>
        <time>2010-10-30T11:28:32Z</time>
      </trkpt>
      <trkpt lat="44.03505" lon="6.64428">
        <ele>1324.3535156</ele>
        <time>2010-10-30T11:28:38Z</time>
      </trkpt>
      <trkpt lat="44.03505" lon="6.6443">
        <ele>1324.3535156</ele>
        <time>2010-10-30T11:28:39Z</time>
      </trkpt>
      <trkpt lat="44.03502" lon="6.64435">
        <ele>1322.4306641</ele>
        <time>2010-10-30T11:28:42Z</time>
      </trkpt>
      <trkpt lat="44.03498" lon="6.64448">
        <ele>1316.1821289</ele>
        <time>2010-10-30T11:28:49Z</time>
      </trkpt>
      <trkpt lat="44.03491" lon="6.64458">
        <ele>1313.7788086</ele>
        <time>2010-10-30T11:28:57Z</time>
      </trkpt>
      <trkpt lat="44.03486" lon="6.64467">
        <ele>1316.1821289</ele>
        <time>2010-10-30T11:29:04Z</time>
      </trkpt>
      <trkpt lat="44.03477" lon="6.64475">
        <ele>1319.546875</ele>
        <time>2010-10-30T11:29:11Z</time>
      </trkpt>
      <trkpt lat="44.03468" lon="6.64482">
        <ele>1323.8725586</ele>
        <time>2010-10-30T11:29:20Z</time>
      </trkpt>
      <trkpt lat="44.03459" lon="6.64487">
        <ele>1323.3920898</ele>
        <time>2010-10-30T11:29:26Z</time>
      </trkpt>
      <trkpt lat="44.03453" lon="6.64493">
        <ele>1320.0273438</ele>
        <time>2010-10-30T11:29:31Z</time>
      </trkpt>
      <trkpt lat="44.03451" lon="6.64497">
        <ele>1325.7954102</ele>
        <time>2010-10-30T11:29:36Z</time>
      </trkpt>
      <trkpt lat="44.03459" lon="6.64499">
        <ele>1324.3535156</ele>
        <time>2010-10-30T11:29:43Z</time>
      </trkpt>
      <trkpt lat="44.03463" lon="6.64499">
        <ele>1321.9499512</ele>
        <time>2010-10-30T11:29:46Z</time>
      </trkpt>
      <trkpt lat="44.03475" lon="6.645">
        <ele>1317.6240234</ele>
        <time>2010-10-30T11:29:56Z</time>
      </trkpt>
      <trkpt lat="44.0348" lon="6.64503">
        <ele>1315.2209473</ele>
        <time>2010-10-30T11:30:02Z</time>
      </trkpt>
      <trkpt lat="44.03487" lon="6.64504">
        <ele>1316.1821289</ele>
        <time>2010-10-30T11:30:07Z</time>
      </trkpt>
      <trkpt lat="44.03489" lon="6.64504">
        <ele>1317.6240234</ele>
        <time>2010-10-30T11:30:09Z</time>
      </trkpt>
      <trkpt lat="44.03495" lon="6.64503">
        <ele>1320.0273438</ele>
        <time>2010-10-30T11:30:13Z</time>
      </trkpt>
      <trkpt lat="44.03504" lon="6.64501">
        <ele>1323.3920898</ele>
        <time>2010-10-30T11:30:20Z</time>
      </trkpt>
      <trkpt lat="44.03517" lon="6.645">
        <ele>1320.9887695</ele>
        <time>2010-10-30T11:30:27Z</time>
      </trkpt>
      <trkpt lat="44.03522" lon="6.64498">
        <ele>1320.9887695</ele>
        <time>2010-10-30T11:30:30Z</time>
      </trkpt>
      <trkpt lat="44.03527" lon="6.64506">
        <ele>1324.3535156</ele>
        <time>2010-10-30T11:30:37Z</time>
      </trkpt>
      <trkpt lat="44.03525" lon="6.64507">
        <ele>1330.1213379</ele>
        <time>2010-10-30T11:30:41Z</time>
      </trkpt>
      <trkpt lat="44.03514" lon="6.64505">
        <ele>1345.0217285</ele>
        <time>2010-10-30T11:30:49Z</time>
      </trkpt>
      <trkpt lat="44.03513" lon="6.64507">
        <ele>1345.0217285</ele>
        <time>2010-10-30T11:30:50Z</time>
      </trkpt>
      <trkpt lat="44.03502" lon="6.6451">
        <ele>1355.1154785</ele>
        <time>2010-10-30T11:30:58Z</time>
      </trkpt>
      <trkpt lat="44.03493" lon="6.64519">
        <ele>1353.673584</ele>
        <time>2010-10-30T11:31:06Z</time>
      </trkpt>
      <trkpt lat="44.03483" lon="6.64522">
        <ele>1352.7121582</ele>
        <time>2010-10-30T11:31:13Z</time>
      </trkpt>
      <trkpt lat="44.03473" lon="6.64525">
        <ele>1357.9997559</ele>
        <time>2010-10-30T11:31:21Z</time>
      </trkpt>
      <trkpt lat="44.03463" lon="6.64533">
        <ele>1358.4802246</ele>
        <time>2010-10-30T11:31:29Z</time>
      </trkpt>
      <trkpt lat="44.03455" lon="6.64536">
        <ele>1365.2094727</ele>
        <time>2010-10-30T11:31:36Z</time>
      </trkpt>
      <trkpt lat="44.03451" lon="6.64537">
        <ele>1368.0932617</ele>
        <time>2010-10-30T11:31:40Z</time>
      </trkpt>
      <trkpt lat="44.03439" lon="6.64543">
        <ele>1370.496582</ele>
        <time>2010-10-30T11:31:50Z</time>
      </trkpt>
      <trkpt lat="44.03432" lon="6.64546">
        <ele>1366.6513672</ele>
        <time>2010-10-30T11:31:56Z</time>
      </trkpt>
      <trkpt lat="44.03428" lon="6.64553">
        <ele>1369.0546875</ele>
        <time>2010-10-30T11:32:02Z</time>
      </trkpt>
      <trkpt lat="44.03419" lon="6.64554">
        <ele>1373.8613281</ele>
        <time>2010-10-30T11:32:09Z</time>
      </trkpt>
      <trkpt lat="44.03411" lon="6.64554">
        <ele>1380.5905762</ele>
        <time>2010-10-30T11:32:15Z</time>
      </trkpt>
      <trkpt lat="44.03404" lon="6.64549">
        <ele>1392.1264648</ele>
        <time>2010-10-30T11:32:21Z</time>
      </trkpt>
      <trkpt lat="44.03398" lon="6.64549">
        <ele>1399.3361816</ele>
        <time>2010-10-30T11:32:27Z</time>
      </trkpt>
      <trkpt lat="44.0339" lon="6.64549">
        <ele>1397.8942871</ele>
        <time>2010-10-30T11:32:33Z</time>
      </trkpt>
      <trkpt lat="44.03383" lon="6.64549">
        <ele>1395.9716797</ele>
        <time>2010-10-30T11:32:40Z</time>
      </trkpt>
      <trkpt lat="44.0338" lon="6.64551">
        <ele>1393.5683594</ele>
        <time>2010-10-30T11:32:42Z</time>
      </trkpt>
      <trkpt lat="44.03373" lon="6.64556">
        <ele>1382.5131836</ele>
        <time>2010-10-30T11:32:49Z</time>
      </trkpt>
      <trkpt lat="44.03366" lon="6.64556">
        <ele>1379.1484375</ele>
        <time>2010-10-30T11:32:54Z</time>
      </trkpt>
      <trkpt lat="44.03358" lon="6.64557">
        <ele>1371.9384766</ele>
        <time>2010-10-30T11:33:02Z</time>
      </trkpt>
      <trkpt lat="44.03353" lon="6.64555">
        <ele>1369.5354004</ele>
        <time>2010-10-30T11:33:08Z</time>
      </trkpt>
      <trkpt lat="44.03344" lon="6.64552">
        <ele>1373.8613281</ele>
        <time>2010-10-30T11:33:14Z</time>
      </trkpt>
      <trkpt lat="44.03336" lon="6.64556">
        <ele>1370.9772949</ele>
        <time>2010-10-30T11:33:22Z</time>
      </trkpt>
      <trkpt lat="44.03329" lon="6.64558">
        <ele>1367.1320801</ele>
        <time>2010-10-30T11:33:28Z</time>
      </trkpt>
      <trkpt lat="44.03317" lon="6.64553">
        <ele>1374.8227539</ele>
        <time>2010-10-30T11:33:37Z</time>
      </trkpt>
      <trkpt lat="44.03311" lon="6.64551">
        <ele>1376.2646484</ele>
        <time>2010-10-30T11:33:43Z</time>
      </trkpt>
      <trkpt lat="44.03307" lon="6.64544">
        <ele>1376.7453613</ele>
        <time>2010-10-30T11:33:52Z</time>
      </trkpt>
      <trkpt lat="44.03304" lon="6.6454">
        <ele>1378.6679688</ele>
        <time>2010-10-30T11:33:56Z</time>
      </trkpt>
      <trkpt lat="44.03293" lon="6.64532">
        <ele>1375.3032227</ele>
        <time>2010-10-30T11:34:04Z</time>
      </trkpt>
      <trkpt lat="44.03287" lon="6.64523">
        <ele>1376.7453613</ele>
        <time>2010-10-30T11:34:12Z</time>
      </trkpt>
      <trkpt lat="44.0328" lon="6.64517">
        <ele>1371.9384766</ele>
        <time>2010-10-30T11:34:19Z</time>
      </trkpt>
      <trkpt lat="44.03275" lon="6.64513">
        <ele>1370.9772949</ele>
        <time>2010-10-30T11:34:25Z</time>
      </trkpt>
      <trkpt lat="44.03267" lon="6.64511">
        <ele>1373.8613281</ele>
        <time>2010-10-30T11:34:32Z</time>
      </trkpt>
      <trkpt lat="44.03257" lon="6.64513">
        <ele>1374.8227539</ele>
        <time>2010-10-30T11:34:39Z</time>
      </trkpt>
      <trkpt lat="44.0325" lon="6.64511">
        <ele>1374.342041</ele>
        <time>2010-10-30T11:34:44Z</time>
      </trkpt>
      <trkpt lat="44.03238" lon="6.64506">
        <ele>1377.706543</ele>
        <time>2010-10-30T11:34:52Z</time>
      </trkpt>
      <trkpt lat="44.03232" lon="6.64502">
        <ele>1379.1484375</ele>
        <time>2010-10-30T11:34:59Z</time>
      </trkpt>
      <trkpt lat="44.03225" lon="6.64497">
        <ele>1380.1098633</ele>
        <time>2010-10-30T11:35:05Z</time>
      </trkpt>
      <trkpt lat="44.0322" lon="6.64495">
        <ele>1379.6291504</ele>
        <time>2010-10-30T11:35:10Z</time>
      </trkpt>
      <trkpt lat="44.03215" lon="6.64497">
        <ele>1375.3032227</ele>
        <time>2010-10-30T11:35:16Z</time>
      </trkpt>
      <trkpt lat="44.03213" lon="6.64496">
        <ele>1373.8613281</ele>
        <time>2010-10-30T11:35:18Z</time>
      </trkpt>
      <trkpt lat="44.03201" lon="6.64493">
        <ele>1382.9936523</ele>
        <time>2010-10-30T11:35:27Z</time>
      </trkpt>
      <trkpt lat="44.03192" lon="6.64496">
        <ele>1384.9165039</ele>
        <time>2010-10-30T11:35:33Z</time>
      </trkpt>
      <trkpt lat="44.03183" lon="6.64502">
        <ele>1387.3195801</ele>
        <time>2010-10-30T11:35:40Z</time>
      </trkpt>
      <trkpt lat="44.03174" lon="6.6451">
        <ele>1391.645752</ele>
        <time>2010-10-30T11:35:47Z</time>
      </trkpt>
      <trkpt lat="44.03166" lon="6.64517">
        <ele>1395.0102539</ele>
        <time>2010-10-30T11:35:54Z</time>
      </trkpt>
      <trkpt lat="44.03159" lon="6.64524">
        <ele>1396.4523926</ele>
        <time>2010-10-30T11:36:01Z</time>
      </trkpt>
      <trkpt lat="44.03155" lon="6.6453">
        <ele>1397.4135742</ele>
        <time>2010-10-30T11:36:07Z</time>
      </trkpt>
      <trkpt lat="44.03151" lon="6.64534">
        <ele>1403.1813965</ele>
        <time>2010-10-30T11:36:14Z</time>
      </trkpt>
      <trkpt lat="44.03145" lon="6.64539">
        <ele>1404.6235352</ele>
        <time>2010-10-30T11:36:21Z</time>
      </trkpt>
      <trkpt lat="44.03136" lon="6.64545">
        <ele>1401.739502</ele>
        <time>2010-10-30T11:36:28Z</time>
      </trkpt>
      <trkpt lat="44.03131" lon="6.64551">
        <ele>1399.8168945</ele>
        <time>2010-10-30T11:36:33Z</time>
      </trkpt>
      <trkpt lat="44.03123" lon="6.64562">
        <ele>1400.2976074</ele>
        <time>2010-10-30T11:36:41Z</time>
      </trkpt>
      <trkpt lat="44.03122" lon="6.64567">
        <ele>1398.8554688</ele>
        <time>2010-10-30T11:36:45Z</time>
      </trkpt>
      <trkpt lat="44.03119" lon="6.64583">
        <ele>1395.9716797</ele>
        <time>2010-10-30T11:36:53Z</time>
      </trkpt>
      <trkpt lat="44.03113" lon="6.64591">
        <ele>1399.8168945</ele>
        <time>2010-10-30T11:36:59Z</time>
      </trkpt>
      <trkpt lat="44.03112" lon="6.64592">
        <ele>1401.739502</ele>
        <time>2010-10-30T11:37:00Z</time>
      </trkpt>
      <trkpt lat="44.03107" lon="6.646">
        <ele>1403.6621094</ele>
        <time>2010-10-30T11:37:06Z</time>
      </trkpt>
      <trkpt lat="44.03103" lon="6.64612">
        <ele>1409.4301758</ele>
        <time>2010-10-30T11:37:13Z</time>
      </trkpt>
      <trkpt lat="44.03097" lon="6.64617">
        <ele>1414.7172852</ele>
        <time>2010-10-30T11:37:18Z</time>
      </trkpt>
      <trkpt lat="44.03091" lon="6.64628">
        <ele>1421.9272461</ele>
        <time>2010-10-30T11:37:25Z</time>
      </trkpt>
      <trkpt lat="44.03087" lon="6.64644">
        <ele>1426.7338867</ele>
        <time>2010-10-30T11:37:33Z</time>
      </trkpt>
      <trkpt lat="44.03082" lon="6.64664">
        <ele>1423.8498535</ele>
        <time>2010-10-30T11:37:41Z</time>
      </trkpt>
      <trkpt lat="44.0308" lon="6.64673">
        <ele>1421.9272461</ele>
        <time>2010-10-30T11:37:45Z</time>
      </trkpt>
      <trkpt lat="44.03084" lon="6.64697">
        <ele>1411.3527832</ele>
        <time>2010-10-30T11:37:54Z</time>
      </trkpt>
      <trkpt lat="44.03086" lon="6.64713">
        <ele>1409.9106445</ele>
        <time>2010-10-30T11:38:02Z</time>
      </trkpt>
      <trkpt lat="44.03087" lon="6.64729">
        <ele>1409.4301758</ele>
        <time>2010-10-30T11:38:10Z</time>
      </trkpt>
      <trkpt lat="44.03087" lon="6.64745">
        <ele>1408.46875</ele>
        <time>2010-10-30T11:38:17Z</time>
      </trkpt>
      <trkpt lat="44.03086" lon="6.64757">
        <ele>1411.3527832</ele>
        <time>2010-10-30T11:38:23Z</time>
      </trkpt>
      <trkpt lat="44.03088" lon="6.64774">
        <ele>1413.2753906</ele>
        <time>2010-10-30T11:38:33Z</time>
      </trkpt>
      <trkpt lat="44.03088" lon="6.64789">
        <ele>1412.7946777</ele>
        <time>2010-10-30T11:38:40Z</time>
      </trkpt>
      <trkpt lat="44.03092" lon="6.64805">
        <ele>1412.3139648</ele>
        <time>2010-10-30T11:38:48Z</time>
      </trkpt>
      <trkpt lat="44.031" lon="6.64822">
        <ele>1411.3527832</ele>
        <time>2010-10-30T11:38:57Z</time>
      </trkpt>
      <trkpt lat="44.03101" lon="6.64824">
        <ele>1411.8334961</ele>
        <time>2010-10-30T11:38:59Z</time>
      </trkpt>
      <trkpt lat="44.03106" lon="6.64828">
        <ele>1412.7946777</ele>
        <time>2010-10-30T11:39:03Z</time>
      </trkpt>
      <trkpt lat="44.0311" lon="6.64829">
        <ele>1412.3139648</ele>
        <time>2010-10-30T11:39:05Z</time>
      </trkpt>
      <trkpt lat="44.03116" lon="6.64823">
        <ele>1411.3527832</ele>
        <time>2010-10-30T11:39:11Z</time>
      </trkpt>
      <trkpt lat="44.03118" lon="6.64819">
        <ele>1411.8334961</ele>
        <time>2010-10-30T11:39:14Z</time>
      </trkpt>
      <trkpt lat="44.03124" lon="6.64807">
        <ele>1412.3139648</ele>
        <time>2010-10-30T11:39:23Z</time>
      </trkpt>
      <trkpt lat="44.03126" lon="6.64796">
        <ele>1413.7558594</ele>
        <time>2010-10-30T11:39:30Z</time>
      </trkpt>
      <trkpt lat="44.03132" lon="6.64785">
        <ele>1415.6787109</ele>
        <time>2010-10-30T11:39:38Z</time>
      </trkpt>
      <trkpt lat="44.0314" lon="6.64775">
        <ele>1418.5625</ele>
        <time>2010-10-30T11:39:46Z</time>
      </trkpt>
      <trkpt lat="44.03149" lon="6.64766">
        <ele>1420.4853516</ele>
        <time>2010-10-30T11:39:54Z</time>
      </trkpt>
      <trkpt lat="44.03155" lon="6.64757">
        <ele>1420.4853516</ele>
        <time>2010-10-30T11:40:01Z</time>
      </trkpt>
      <trkpt lat="44.03156" lon="6.64755">
        <ele>1420.0046387</ele>
        <time>2010-10-30T11:40:02Z</time>
      </trkpt>
      <trkpt lat="44.03162" lon="6.64746">
        <ele>1420.4853516</ele>
        <time>2010-10-30T11:40:09Z</time>
      </trkpt>
      <trkpt lat="44.0317" lon="6.6474">
        <ele>1421.9272461</ele>
        <time>2010-10-30T11:40:16Z</time>
      </trkpt>
      <trkpt lat="44.0318" lon="6.64744">
        <ele>1423.3693848</ele>
        <time>2010-10-30T11:40:24Z</time>
      </trkpt>
      <trkpt lat="44.03188" lon="6.64751">
        <ele>1424.8112793</ele>
        <time>2010-10-30T11:40:31Z</time>
      </trkpt>
      <trkpt lat="44.03195" lon="6.64758">
        <ele>1426.2531738</ele>
        <time>2010-10-30T11:40:38Z</time>
      </trkpt>
      <trkpt lat="44.03203" lon="6.64766">
        <ele>1427.6950684</ele>
        <time>2010-10-30T11:40:46Z</time>
      </trkpt>
      <trkpt lat="44.03206" lon="6.6477">
        <ele>1427.6950684</ele>
        <time>2010-10-30T11:40:50Z</time>
      </trkpt>
      <trkpt lat="44.03215" lon="6.64775">
        <ele>1428.6564941</ele>
        <time>2010-10-30T11:40:57Z</time>
      </trkpt>
      <trkpt lat="44.03221" lon="6.64768">
        <ele>1430.5791016</ele>
        <time>2010-10-30T11:41:05Z</time>
      </trkpt>
      <trkpt lat="44.03224" lon="6.64761">
        <ele>1433.9436035</ele>
        <time>2010-10-30T11:41:11Z</time>
      </trkpt>
      <trkpt lat="44.03229" lon="6.64751">
        <ele>1435.385498</ele>
        <time>2010-10-30T11:41:18Z</time>
      </trkpt>
      <trkpt lat="44.03236" lon="6.64745">
        <ele>1436.8276367</ele>
        <time>2010-10-30T11:41:25Z</time>
      </trkpt>
      <trkpt lat="44.03243" lon="6.64738">
        <ele>1438.2697754</ele>
        <time>2010-10-30T11:41:32Z</time>
      </trkpt>
      <trkpt lat="44.03252" lon="6.64731">
        <ele>1439.7116699</ele>
        <time>2010-10-30T11:41:41Z</time>
      </trkpt>
      <trkpt lat="44.03259" lon="6.6473">
        <ele>1441.1535645</ele>
        <time>2010-10-30T11:41:48Z</time>
      </trkpt>
      <trkpt lat="44.03263" lon="6.6473">
        <ele>1442.1149902</ele>
        <time>2010-10-30T11:41:53Z</time>
      </trkpt>
      <trkpt lat="44.03271" lon="6.64734">
        <ele>1440.6728516</ele>
        <time>2010-10-30T11:41:59Z</time>
      </trkpt>
      <trkpt lat="44.03278" lon="6.64735">
        <ele>1440.6728516</ele>
        <time>2010-10-30T11:42:04Z</time>
      </trkpt>
      <trkpt lat="44.03287" lon="6.64734">
        <ele>1440.6728516</ele>
        <time>2010-10-30T11:42:11Z</time>
      </trkpt>
      <trkpt lat="44.03297" lon="6.64735">
        <ele>1442.1149902</ele>
        <time>2010-10-30T11:42:19Z</time>
      </trkpt>
      <trkpt lat="44.03309" lon="6.64739">
        <ele>1444.0375977</ele>
        <time>2010-10-30T11:42:27Z</time>
      </trkpt>
      <trkpt lat="44.03318" lon="6.64745">
        <ele>1446.9213867</ele>
        <time>2010-10-30T11:42:35Z</time>
      </trkpt>
      <trkpt lat="44.03329" lon="6.64751">
        <ele>1449.324707</ele>
        <time>2010-10-30T11:42:45Z</time>
      </trkpt>
      <trkpt lat="44.03329" lon="6.6476">
        <ele>1453.170166</ele>
        <time>2010-10-30T11:42:52Z</time>
      </trkpt>
      <trkpt lat="44.03327" lon="6.64765">
        <ele>1454.6120605</ele>
        <time>2010-10-30T11:42:56Z</time>
      </trkpt>
      <trkpt lat="44.03319" lon="6.64772">
        <ele>1454.6120605</ele>
        <time>2010-10-30T11:43:05Z</time>
      </trkpt>
      <trkpt lat="44.03312" lon="6.64783">
        <ele>1455.5734863</ele>
        <time>2010-10-30T11:43:14Z</time>
      </trkpt>
      <trkpt lat="44.03306" lon="6.64791">
        <ele>1456.0539551</ele>
        <time>2010-10-30T11:43:20Z</time>
      </trkpt>
      <trkpt lat="44.033" lon="6.64801">
        <ele>1458.4572754</ele>
        <time>2010-10-30T11:43:30Z</time>
      </trkpt>
      <trkpt lat="44.03298" lon="6.64803">
        <ele>1459.4187012</ele>
        <time>2010-10-30T11:43:39Z</time>
      </trkpt>
      <trkpt lat="44.03294" lon="6.64811">
        <ele>1460.3798828</ele>
        <time>2010-10-30T11:43:46Z</time>
      </trkpt>
      <trkpt lat="44.03291" lon="6.64815">
        <ele>1461.3413086</ele>
        <time>2010-10-30T11:43:50Z</time>
      </trkpt>
      <trkpt lat="44.03288" lon="6.64827">
        <ele>1464.2250977</ele>
        <time>2010-10-30T11:44:00Z</time>
      </trkpt>
      <trkpt lat="44.03286" lon="6.64839">
        <ele>1464.7058105</ele>
        <time>2010-10-30T11:44:09Z</time>
      </trkpt>
      <trkpt lat="44.03286" lon="6.64842">
        <ele>1465.1865234</ele>
        <time>2010-10-30T11:44:15Z</time>
      </trkpt>
      <trkpt lat="44.03283" lon="6.64843">
        <ele>1468.5512695</ele>
        <time>2010-10-30T11:44:22Z</time>
      </trkpt>
      <trkpt lat="44.03287" lon="6.64851">
        <ele>1469.5126953</ele>
        <time>2010-10-30T11:44:28Z</time>
      </trkpt>
      <trkpt lat="44.03295" lon="6.64857">
        <ele>1464.2250977</ele>
        <time>2010-10-30T11:44:36Z</time>
      </trkpt>
      <trkpt lat="44.03298" lon="6.64861">
        <ele>1464.7058105</ele>
        <time>2010-10-30T11:44:42Z</time>
      </trkpt>
      <trkpt lat="44.03303" lon="6.6487">
        <ele>1470.9545898</ele>
        <time>2010-10-30T11:44:49Z</time>
      </trkpt>
      <trkpt lat="44.03311" lon="6.64883">
        <ele>1472.8771973</ele>
        <time>2010-10-30T11:44:56Z</time>
      </trkpt>
      <trkpt lat="44.03313" lon="6.64895">
        <ele>1475.7609863</ele>
        <time>2010-10-30T11:45:02Z</time>
      </trkpt>
      <trkpt lat="44.03315" lon="6.64911">
        <ele>1479.1254883</ele>
        <time>2010-10-30T11:45:10Z</time>
      </trkpt>
      <trkpt lat="44.03318" lon="6.64924">
        <ele>1479.6062012</ele>
        <time>2010-10-30T11:45:17Z</time>
      </trkpt>
      <trkpt lat="44.03321" lon="6.64939">
        <ele>1476.2416992</ele>
        <time>2010-10-30T11:45:24Z</time>
      </trkpt>
      <trkpt lat="44.03319" lon="6.64954">
        <ele>1478.6450195</ele>
        <time>2010-10-30T11:45:32Z</time>
      </trkpt>
      <trkpt lat="44.03313" lon="6.64967">
        <ele>1481.5288086</ele>
        <time>2010-10-30T11:45:39Z</time>
      </trkpt>
      <trkpt lat="44.03305" lon="6.64982">
        <ele>1479.1254883</ele>
        <time>2010-10-30T11:45:47Z</time>
      </trkpt>
      <trkpt lat="44.03304" lon="6.64985">
        <ele>1479.1254883</ele>
        <time>2010-10-30T11:45:48Z</time>
      </trkpt>
      <trkpt lat="44.03296" lon="6.65001">
        <ele>1476.2416992</ele>
        <time>2010-10-30T11:45:57Z</time>
      </trkpt>
      <trkpt lat="44.03288" lon="6.65011">
        <ele>1479.1254883</ele>
        <time>2010-10-30T11:46:04Z</time>
      </trkpt>
      <trkpt lat="44.03286" lon="6.65013">
        <ele>1480.567627</ele>
        <time>2010-10-30T11:46:06Z</time>
      </trkpt>
      <trkpt lat="44.0328" lon="6.65021">
        <ele>1484.8937988</ele>
        <time>2010-10-30T11:46:13Z</time>
      </trkpt>
      <trkpt lat="44.03276" lon="6.65033">
        <ele>1482.9707031</ele>
        <time>2010-10-30T11:46:19Z</time>
      </trkpt>
      <trkpt lat="44.03276" lon="6.6505">
        <ele>1482.0095215</ele>
        <time>2010-10-30T11:46:26Z</time>
      </trkpt>
      <trkpt lat="44.03281" lon="6.6507">
        <ele>1484.8937988</ele>
        <time>2010-10-30T11:46:34Z</time>
      </trkpt>
      <trkpt lat="44.03292" lon="6.65086">
        <ele>1484.4130859</ele>
        <time>2010-10-30T11:46:41Z</time>
      </trkpt>
      <trkpt lat="44.03303" lon="6.65103">
        <ele>1483.9321289</ele>
        <time>2010-10-30T11:46:48Z</time>
      </trkpt>
      <trkpt lat="44.03312" lon="6.65118">
        <ele>1483.9321289</ele>
        <time>2010-10-30T11:46:54Z</time>
      </trkpt>
      <trkpt lat="44.0332" lon="6.65132">
        <ele>1484.8937988</ele>
        <time>2010-10-30T11:47:00Z</time>
      </trkpt>
      <trkpt lat="44.03337" lon="6.6515">
        <ele>1484.4130859</ele>
        <time>2010-10-30T11:47:09Z</time>
      </trkpt>
      <trkpt lat="44.03343" lon="6.65172">
        <ele>1483.9321289</ele>
        <time>2010-10-30T11:47:16Z</time>
      </trkpt>
      <trkpt lat="44.0334" lon="6.65197">
        <ele>1485.8549805</ele>
        <time>2010-10-30T11:47:24Z</time>
      </trkpt>
      <trkpt lat="44.03338" lon="6.65216">
        <ele>1487.7775879</ele>
        <time>2010-10-30T11:47:32Z</time>
      </trkpt>
      <trkpt lat="44.03334" lon="6.65226">
        <ele>1491.1420898</ele>
        <time>2010-10-30T11:47:37Z</time>
      </trkpt>
      <trkpt lat="44.03333" lon="6.65228">
        <ele>1491.1420898</ele>
        <time>2010-10-30T11:47:44Z</time>
      </trkpt>
      <trkpt lat="44.03333" lon="6.65231">
        <ele>1489.2194824</ele>
        <time>2010-10-30T11:47:58Z</time>
      </trkpt>
      <trkpt lat="44.03334" lon="6.65232">
        <ele>1489.2194824</ele>
        <time>2010-10-30T11:48:07Z</time>
      </trkpt>
      <trkpt lat="44.03337" lon="6.65234">
        <ele>1486.8161621</ele>
        <time>2010-10-30T11:48:15Z</time>
      </trkpt>
      <trkpt lat="44.03335" lon="6.65232">
        <ele>1486.3356934</ele>
        <time>2010-10-30T11:48:23Z</time>
      </trkpt>
      <trkpt lat="44.03335" lon="6.65231">
        <ele>1487.7775879</ele>
        <time>2010-10-30T11:48:34Z</time>
      </trkpt>
      <trkpt lat="44.03338" lon="6.65231">
        <ele>1488.2583008</ele>
        <time>2010-10-30T11:48:54Z</time>
      </trkpt>
      <trkpt lat="44.03338" lon="6.6523">
        <ele>1489.7001953</ele>
        <time>2010-10-30T11:49:15Z</time>
      </trkpt>
      <trkpt lat="44.03338" lon="6.65231">
        <ele>1488.2583008</ele>
        <time>2010-10-30T11:49:30Z</time>
      </trkpt>
      <trkpt lat="44.03339" lon="6.65233">
        <ele>1486.3356934</ele>
        <time>2010-10-30T11:49:48Z</time>
      </trkpt>
      <trkpt lat="44.03337" lon="6.6523">
        <ele>1490.1809082</ele>
        <time>2010-10-30T11:50:42Z</time>
      </trkpt>
      <trkpt lat="44.03334" lon="6.65228">
        <ele>1492.1035156</ele>
        <time>2010-10-30T11:51:03Z</time>
      </trkpt>
      <trkpt lat="44.03331" lon="6.65228">
        <ele>1489.7001953</ele>
        <time>2010-10-30T11:51:17Z</time>
      </trkpt>
      <trkpt lat="44.03332" lon="6.65229">
        <ele>1491.1420898</ele>
        <time>2010-10-30T11:51:26Z</time>
      </trkpt>
      <trkpt lat="44.03332" lon="6.65233">
        <ele>1493.5454102</ele>
        <time>2010-10-30T11:51:30Z</time>
      </trkpt>
      <trkpt lat="44.03333" lon="6.65252">
        <ele>1495.4680176</ele>
        <time>2010-10-30T11:51:37Z</time>
      </trkpt>
      <trkpt lat="44.03329" lon="6.65263">
        <ele>1500.7553711</ele>
        <time>2010-10-30T11:51:42Z</time>
      </trkpt>
      <trkpt lat="44.03322" lon="6.65283">
        <ele>1505.5620117</ele>
        <time>2010-10-30T11:51:51Z</time>
      </trkpt>
      <trkpt lat="44.03319" lon="6.65304">
        <ele>1504.6005859</ele>
        <time>2010-10-30T11:51:59Z</time>
      </trkpt>
      <trkpt lat="44.03312" lon="6.65319">
        <ele>1508.9265137</ele>
        <time>2010-10-30T11:52:06Z</time>
      </trkpt>
      <trkpt lat="44.03306" lon="6.65335">
        <ele>1515.1750488</ele>
        <time>2010-10-30T11:52:14Z</time>
      </trkpt>
      <trkpt lat="44.033" lon="6.65356">
        <ele>1515.6557617</ele>
        <time>2010-10-30T11:52:22Z</time>
      </trkpt>
      <trkpt lat="44.03293" lon="6.65375">
        <ele>1519.5012207</ele>
        <time>2010-10-30T11:52:30Z</time>
      </trkpt>
      <trkpt lat="44.03286" lon="6.65394">
        <ele>1520.4624023</ele>
        <time>2010-10-30T11:52:38Z</time>
      </trkpt>
      <trkpt lat="44.03283" lon="6.65419">
        <ele>1519.0205078</ele>
        <time>2010-10-30T11:52:46Z</time>
      </trkpt>
      <trkpt lat="44.03286" lon="6.65439">
        <ele>1513.2524414</ele>
        <time>2010-10-30T11:52:52Z</time>
      </trkpt>
      <trkpt lat="44.03293" lon="6.65459">
        <ele>1505.5620117</ele>
        <time>2010-10-30T11:52:58Z</time>
      </trkpt>
      <trkpt lat="44.03295" lon="6.65485">
        <ele>1504.6005859</ele>
        <time>2010-10-30T11:53:07Z</time>
      </trkpt>
      <trkpt lat="44.03295" lon="6.65506">
        <ele>1509.8876953</ele>
        <time>2010-10-30T11:53:15Z</time>
      </trkpt>
      <trkpt lat="44.03296" lon="6.65528">
        <ele>1514.6943359</ele>
        <time>2010-10-30T11:53:23Z</time>
      </trkpt>
      <trkpt lat="44.03293" lon="6.65544">
        <ele>1522.3850098</ele>
        <time>2010-10-30T11:53:29Z</time>
      </trkpt>
      <trkpt lat="44.03286" lon="6.65559">
        <ele>1525.2687988</ele>
        <time>2010-10-30T11:53:36Z</time>
      </trkpt>
      <trkpt lat="44.0328" lon="6.65562">
        <ele>1521.9042969</ele>
        <time>2010-10-30T11:53:41Z</time>
      </trkpt>
      <trkpt lat="44.03273" lon="6.65562">
        <ele>1520.9431152</ele>
        <time>2010-10-30T11:53:46Z</time>
      </trkpt>
      <trkpt lat="44.03265" lon="6.65574">
        <ele>1521.9042969</ele>
        <time>2010-10-30T11:53:53Z</time>
      </trkpt>
      <trkpt lat="44.03265" lon="6.65579">
        <ele>1520.9431152</ele>
        <time>2010-10-30T11:53:55Z</time>
      </trkpt>
      <trkpt lat="44.03264" lon="6.65597">
        <ele>1520.9431152</ele>
        <time>2010-10-30T11:54:03Z</time>
      </trkpt>
      <trkpt lat="44.03264" lon="6.65619">
        <ele>1519.0205078</ele>
        <time>2010-10-30T11:54:12Z</time>
      </trkpt>
      <trkpt lat="44.03266" lon="6.65641">
        <ele>1516.6171875</ele>
        <time>2010-10-30T11:54:20Z</time>
      </trkpt>
      <trkpt lat="44.03264" lon="6.65661">
        <ele>1519.0205078</ele>
        <time>2010-10-30T11:54:29Z</time>
      </trkpt>
      <trkpt lat="44.03264" lon="6.65677">
        <ele>1524.3076172</ele>
        <time>2010-10-30T11:54:36Z</time>
      </trkpt>
      <trkpt lat="44.03265" lon="6.65697">
        <ele>1522.3850098</ele>
        <time>2010-10-30T11:54:43Z</time>
      </trkpt>
      <trkpt lat="44.03261" lon="6.65714">
        <ele>1527.1916504</ele>
        <time>2010-10-30T11:54:51Z</time>
      </trkpt>
      <trkpt lat="44.03252" lon="6.65732">
        <ele>1535.8435059</ele>
        <time>2010-10-30T11:55:00Z</time>
      </trkpt>
      <trkpt lat="44.0325" lon="6.6574">
        <ele>1538.2468262</ele>
        <time>2010-10-30T11:55:04Z</time>
      </trkpt>
      <trkpt lat="44.03252" lon="6.65761">
        <ele>1537.2854004</ele>
        <time>2010-10-30T11:55:11Z</time>
      </trkpt>
      <trkpt lat="44.03263" lon="6.65794">
        <ele>1529.5947266</ele>
        <time>2010-10-30T11:55:22Z</time>
      </trkpt>
      <trkpt lat="44.03268" lon="6.65815">
        <ele>1530.0754395</ele>
        <time>2010-10-30T11:55:29Z</time>
      </trkpt>
      <trkpt lat="44.03275" lon="6.65836">
        <ele>1527.6721191</ele>
        <time>2010-10-30T11:55:36Z</time>
      </trkpt>
      <trkpt lat="44.03282" lon="6.6585">
        <ele>1523.3464355</ele>
        <time>2010-10-30T11:55:41Z</time>
      </trkpt>
      <trkpt lat="44.03275" lon="6.65857">
        <ele>1528.152832</ele>
        <time>2010-10-30T11:55:46Z</time>
      </trkpt>
      <trkpt lat="44.0327" lon="6.65857">
        <ele>1525.7495117</ele>
        <time>2010-10-30T11:55:51Z</time>
      </trkpt>
      <trkpt lat="44.03264" lon="6.65854">
        <ele>1520.4624023</ele>
        <time>2010-10-30T11:55:58Z</time>
      </trkpt>
      <trkpt lat="44.03249" lon="6.65845">
        <ele>1523.8269043</ele>
        <time>2010-10-30T11:56:05Z</time>
      </trkpt>
      <trkpt lat="44.03241" lon="6.65845">
        <ele>1524.3076172</ele>
        <time>2010-10-30T11:56:10Z</time>
      </trkpt>
      <trkpt lat="44.03229" lon="6.65847">
        <ele>1525.7495117</ele>
        <time>2010-10-30T11:56:16Z</time>
      </trkpt>
      <trkpt lat="44.03215" lon="6.65851">
        <ele>1524.7883301</ele>
        <time>2010-10-30T11:56:24Z</time>
      </trkpt>
      <trkpt lat="44.03201" lon="6.65855">
        <ele>1528.152832</ele>
        <time>2010-10-30T11:56:30Z</time>
      </trkpt>
      <trkpt lat="44.0319" lon="6.65857">
        <ele>1530.0754395</ele>
        <time>2010-10-30T11:56:36Z</time>
      </trkpt>
      <trkpt lat="44.03177" lon="6.65868">
        <ele>1530.5561523</ele>
        <time>2010-10-30T11:56:43Z</time>
      </trkpt>
      <trkpt lat="44.03167" lon="6.65876">
        <ele>1532.4790039</ele>
        <time>2010-10-30T11:56:48Z</time>
      </trkpt>
      <trkpt lat="44.03158" lon="6.65885">
        <ele>1537.7661133</ele>
        <time>2010-10-30T11:56:54Z</time>
      </trkpt>
      <trkpt lat="44.03149" lon="6.65896">
        <ele>1545.456543</ele>
        <time>2010-10-30T11:57:00Z</time>
      </trkpt>
      <trkpt lat="44.03143" lon="6.65913">
        <ele>1542.092041</ele>
        <time>2010-10-30T11:57:07Z</time>
      </trkpt>
      <trkpt lat="44.03133" lon="6.65926">
        <ele>1549.7827148</ele>
        <time>2010-10-30T11:57:15Z</time>
      </trkpt>
      <trkpt lat="44.03126" lon="6.65941">
        <ele>1555.5505371</ele>
        <time>2010-10-30T11:57:22Z</time>
      </trkpt>
      <trkpt lat="44.03119" lon="6.65958">
        <ele>1563.2409668</ele>
        <time>2010-10-30T11:57:30Z</time>
      </trkpt>
      <trkpt lat="44.03117" lon="6.65977">
        <ele>1565.6445312</ele>
        <time>2010-10-30T11:57:37Z</time>
      </trkpt>
      <trkpt lat="44.03117" lon="6.6598">
        <ele>1565.6445312</ele>
        <time>2010-10-30T11:57:38Z</time>
      </trkpt>
      <trkpt lat="44.03123" lon="6.66">
        <ele>1558.4343262</ele>
        <time>2010-10-30T11:57:45Z</time>
      </trkpt>
      <trkpt lat="44.03124" lon="6.66007">
        <ele>1557.9538574</ele>
        <time>2010-10-30T11:57:47Z</time>
      </trkpt>
      <trkpt lat="44.03119" lon="6.66018">
        <ele>1559.395752</ele>
        <time>2010-10-30T11:57:53Z</time>
      </trkpt>
      <trkpt lat="44.03116" lon="6.6602">
        <ele>1562.279541</ele>
        <time>2010-10-30T11:57:57Z</time>
      </trkpt>
      <trkpt lat="44.03106" lon="6.66031">
        <ele>1553.6279297</ele>
        <time>2010-10-30T11:58:03Z</time>
      </trkpt>
      <trkpt lat="44.03101" lon="6.66036">
        <ele>1550.7438965</ele>
        <time>2010-10-30T11:58:06Z</time>
      </trkpt>
      <trkpt lat="44.03094" lon="6.66048">
        <ele>1546.8984375</ele>
        <time>2010-10-30T11:58:12Z</time>
      </trkpt>
      <trkpt lat="44.03089" lon="6.66057">
        <ele>1544.9758301</ele>
        <time>2010-10-30T11:58:16Z</time>
      </trkpt>
      <trkpt lat="44.03085" lon="6.66069">
        <ele>1544.4951172</ele>
        <time>2010-10-30T11:58:21Z</time>
      </trkpt>
      <trkpt lat="44.03084" lon="6.66086">
        <ele>1547.8598633</ele>
        <time>2010-10-30T11:58:29Z</time>
      </trkpt>
      <trkpt lat="44.03091" lon="6.66101">
        <ele>1550.7438965</ele>
        <time>2010-10-30T11:58:37Z</time>
      </trkpt>
      <trkpt lat="44.03091" lon="6.66102">
        <ele>1551.7053223</ele>
        <time>2010-10-30T11:58:38Z</time>
      </trkpt>
      <trkpt lat="44.0309" lon="6.66111">
        <ele>1557.4731445</ele>
        <time>2010-10-30T11:58:44Z</time>
      </trkpt>
      <trkpt lat="44.03087" lon="6.66108">
        <ele>1560.8376465</ele>
        <time>2010-10-30T11:58:50Z</time>
      </trkpt>
      <trkpt lat="44.03085" lon="6.66108">
        <ele>1561.3183594</ele>
        <time>2010-10-30T11:58:51Z</time>
      </trkpt>
      <trkpt lat="44.03078" lon="6.6611">
        <ele>1558.4343262</ele>
        <time>2010-10-30T11:58:57Z</time>
      </trkpt>
      <trkpt lat="44.03077" lon="6.6611">
        <ele>1558.4343262</ele>
        <time>2010-10-30T11:58:58Z</time>
      </trkpt>
      <trkpt lat="44.03062" lon="6.66118">
        <ele>1551.2246094</ele>
        <time>2010-10-30T11:59:06Z</time>
      </trkpt>
      <trkpt lat="44.0305" lon="6.66119">
        <ele>1550.7438965</ele>
        <time>2010-10-30T11:59:11Z</time>
      </trkpt>
      <trkpt lat="44.03046" lon="6.66118">
        <ele>1549.302002</ele>
        <time>2010-10-30T11:59:13Z</time>
      </trkpt>
      <trkpt lat="44.03034" lon="6.66115">
        <ele>1551.2246094</ele>
        <time>2010-10-30T11:59:20Z</time>
      </trkpt>
      <trkpt lat="44.03026" lon="6.66114">
        <ele>1551.2246094</ele>
        <time>2010-10-30T11:59:27Z</time>
      </trkpt>
      <trkpt lat="44.03016" lon="6.66111">
        <ele>1553.1472168</ele>
        <time>2010-10-30T11:59:32Z</time>
      </trkpt>
      <trkpt lat="44.03007" lon="6.66109">
        <ele>1555.0698242</ele>
        <time>2010-10-30T11:59:37Z</time>
      </trkpt>
      <trkpt lat="44.02988" lon="6.66099">
        <ele>1556.9924316</ele>
        <time>2010-10-30T11:59:45Z</time>
      </trkpt>
      <trkpt lat="44.02987" lon="6.66098">
        <ele>1557.4731445</ele>
        <time>2010-10-30T11:59:46Z</time>
      </trkpt>
      <trkpt lat="44.02985" lon="6.66097">
        <ele>1556.5117188</ele>
        <time>2010-10-30T11:59:48Z</time>
      </trkpt>
      <trkpt lat="44.02977" lon="6.66085">
        <ele>1557.4731445</ele>
        <time>2010-10-30T11:59:56Z</time>
      </trkpt>
      <trkpt lat="44.02962" lon="6.66069">
        <ele>1560.8376465</ele>
        <time>2010-10-30T12:00:03Z</time>
      </trkpt>
      <trkpt lat="44.02952" lon="6.66053">
        <ele>1559.395752</ele>
        <time>2010-10-30T12:00:11Z</time>
      </trkpt>
      <trkpt lat="44.02951" lon="6.66051">
        <ele>1559.8762207</ele>
        <time>2010-10-30T12:00:13Z</time>
      </trkpt>
      <trkpt lat="44.02942" lon="6.66043">
        <ele>1561.7990723</ele>
        <time>2010-10-30T12:00:19Z</time>
      </trkpt>
      <trkpt lat="44.0293" lon="6.66039">
        <ele>1559.8762207</ele>
        <time>2010-10-30T12:00:25Z</time>
      </trkpt>
      <trkpt lat="44.02917" lon="6.6603">
        <ele>1560.8376465</ele>
        <time>2010-10-30T12:00:32Z</time>
      </trkpt>
      <trkpt lat="44.02908" lon="6.66024">
        <ele>1560.3569336</ele>
        <time>2010-10-30T12:00:39Z</time>
      </trkpt>
      <trkpt lat="44.02893" lon="6.66017">
        <ele>1560.8376465</ele>
        <time>2010-10-30T12:00:44Z</time>
      </trkpt>
      <trkpt lat="44.02875" lon="6.6601">
        <ele>1559.395752</ele>
        <time>2010-10-30T12:00:50Z</time>
      </trkpt>
      <trkpt lat="44.02859" lon="6.66006">
        <ele>1556.9924316</ele>
        <time>2010-10-30T12:00:55Z</time>
      </trkpt>
      <trkpt lat="44.02837" lon="6.66003">
        <ele>1556.5117188</ele>
        <time>2010-10-30T12:01:01Z</time>
      </trkpt>
      <trkpt lat="44.02817" lon="6.66002">
        <ele>1567.5668945</ele>
        <time>2010-10-30T12:01:06Z</time>
      </trkpt>
      <trkpt lat="44.02798" lon="6.66016">
        <ele>1567.5668945</ele>
        <time>2010-10-30T12:01:11Z</time>
      </trkpt>
      <trkpt lat="44.02786" lon="6.66034">
        <ele>1568.0476074</ele>
        <time>2010-10-30T12:01:16Z</time>
      </trkpt>
      <trkpt lat="44.02788" lon="6.66059">
        <ele>1562.7602539</ele>
        <time>2010-10-30T12:01:21Z</time>
      </trkpt>
      <trkpt lat="44.02795" lon="6.66078">
        <ele>1558.4343262</ele>
        <time>2010-10-30T12:01:26Z</time>
      </trkpt>
      <trkpt lat="44.02797" lon="6.66099">
        <ele>1561.3183594</ele>
        <time>2010-10-30T12:01:31Z</time>
      </trkpt>
      <trkpt lat="44.0279" lon="6.66115">
        <ele>1569.0090332</ele>
        <time>2010-10-30T12:01:35Z</time>
      </trkpt>
      <trkpt lat="44.02775" lon="6.6615">
        <ele>1581.0256348</ele>
        <time>2010-10-30T12:01:44Z</time>
      </trkpt>
      <trkpt lat="44.02769" lon="6.66185">
        <ele>1580.064209</ele>
        <time>2010-10-30T12:01:51Z</time>
      </trkpt>
      <trkpt lat="44.02773" lon="6.66207">
        <ele>1578.1413574</ele>
        <time>2010-10-30T12:01:56Z</time>
      </trkpt>
      <trkpt lat="44.02784" lon="6.66234">
        <ele>1580.5449219</ele>
        <time>2010-10-30T12:02:03Z</time>
      </trkpt>
      <trkpt lat="44.02795" lon="6.66265">
        <ele>1581.9868164</ele>
        <time>2010-10-30T12:02:10Z</time>
      </trkpt>
      <trkpt lat="44.02801" lon="6.66291">
        <ele>1584.8708496</ele>
        <time>2010-10-30T12:02:16Z</time>
      </trkpt>
      <trkpt lat="44.02811" lon="6.66313">
        <ele>1585.8320312</ele>
        <time>2010-10-30T12:02:21Z</time>
      </trkpt>
      <trkpt lat="44.02834" lon="6.66341">
        <ele>1572.854248</ele>
        <time>2010-10-30T12:02:27Z</time>
      </trkpt>
      <trkpt lat="44.02851" lon="6.66369">
        <ele>1568.5283203</ele>
        <time>2010-10-30T12:02:33Z</time>
      </trkpt>
      <trkpt lat="44.02865" lon="6.66404">
        <ele>1568.5283203</ele>
        <time>2010-10-30T12:02:40Z</time>
      </trkpt>
      <trkpt lat="44.02876" lon="6.66436">
        <ele>1570.4509277</ele>
        <time>2010-10-30T12:02:47Z</time>
      </trkpt>
      <trkpt lat="44.02886" lon="6.66468">
        <ele>1571.4121094</ele>
        <time>2010-10-30T12:02:53Z</time>
      </trkpt>
      <trkpt lat="44.02896" lon="6.66503">
        <ele>1574.7768555</ele>
        <time>2010-10-30T12:03:00Z</time>
      </trkpt>
      <trkpt lat="44.02906" lon="6.66527">
        <ele>1575.2573242</ele>
        <time>2010-10-30T12:03:05Z</time>
      </trkpt>
      <trkpt lat="44.02914" lon="6.6656">
        <ele>1574.2961426</ele>
        <time>2010-10-30T12:03:11Z</time>
      </trkpt>
      <trkpt lat="44.02918" lon="6.66566">
        <ele>1572.854248</ele>
        <time>2010-10-30T12:03:15Z</time>
      </trkpt>
      <trkpt lat="44.02924" lon="6.66572">
        <ele>1565.6445312</ele>
        <time>2010-10-30T12:03:20Z</time>
      </trkpt>
      <trkpt lat="44.02922" lon="6.66572">
        <ele>1567.0864258</ele>
        <time>2010-10-30T12:03:26Z</time>
      </trkpt>
      <trkpt lat="44.02923" lon="6.66569">
        <ele>1565.1638184</ele>
        <time>2010-10-30T12:03:47Z</time>
      </trkpt>
      <trkpt lat="44.02923" lon="6.66572">
        <ele>1564.2023926</ele>
        <time>2010-10-30T12:03:56Z</time>
      </trkpt>
      <trkpt lat="44.02923" lon="6.66573">
        <ele>1557.4731445</ele>
        <time>2010-10-30T12:04:13Z</time>
      </trkpt>
      <trkpt lat="44.02924" lon="6.66573">
        <ele>1556.9924316</ele>
        <time>2010-10-30T12:04:21Z</time>
      </trkpt>
      <trkpt lat="44.02928" lon="6.66578">
        <ele>1561.3183594</ele>
        <time>2010-10-30T12:04:38Z</time>
      </trkpt>
      <trkpt lat="44.0293" lon="6.66593">
        <ele>1568.5283203</ele>
        <time>2010-10-30T12:04:43Z</time>
      </trkpt>
      <trkpt lat="44.02923" lon="6.66612">
        <ele>1574.2961426</ele>
        <time>2010-10-30T12:04:48Z</time>
      </trkpt>
      <trkpt lat="44.02909" lon="6.66636">
        <ele>1575.2573242</ele>
        <time>2010-10-30T12:04:54Z</time>
      </trkpt>
      <trkpt lat="44.02908" lon="6.66641">
        <ele>1574.2961426</ele>
        <time>2010-10-30T12:04:55Z</time>
      </trkpt>
      <trkpt lat="44.02895" lon="6.66687">
        <ele>1574.7768555</ele>
        <time>2010-10-30T12:05:03Z</time>
      </trkpt>
      <trkpt lat="44.02885" lon="6.6672">
        <ele>1572.854248</ele>
        <time>2010-10-30T12:05:09Z</time>
      </trkpt>
      <trkpt lat="44.02878" lon="6.66746">
        <ele>1570.9316406</ele>
        <time>2010-10-30T12:05:14Z</time>
      </trkpt>
      <trkpt lat="44.02875" lon="6.66749">
        <ele>1570.9316406</ele>
        <time>2010-10-30T12:05:15Z</time>
      </trkpt>
      <trkpt lat="44.02874" lon="6.66743">
        <ele>1564.6831055</ele>
        <time>2010-10-30T12:05:19Z</time>
      </trkpt>
      <trkpt lat="44.02871" lon="6.66733">
        <ele>1560.8376465</ele>
        <time>2010-10-30T12:05:23Z</time>
      </trkpt>
      <trkpt lat="44.0287" lon="6.66711">
        <ele>1556.5117188</ele>
        <time>2010-10-30T12:05:29Z</time>
      </trkpt>
      <trkpt lat="44.02871" lon="6.66691">
        <ele>1557.9538574</ele>
        <time>2010-10-30T12:05:34Z</time>
      </trkpt>
      <trkpt lat="44.02863" lon="6.66668">
        <ele>1557.9538574</ele>
        <time>2010-10-30T12:05:39Z</time>
      </trkpt>
      <trkpt lat="44.0285" lon="6.66652">
        <ele>1554.1086426</ele>
        <time>2010-10-30T12:05:43Z</time>
      </trkpt>
      <trkpt lat="44.02838" lon="6.66642">
        <ele>1555.0698242</ele>
        <time>2010-10-30T12:05:45Z</time>
      </trkpt>
      <trkpt lat="44.028" lon="6.66617">
        <ele>1553.6279297</ele>
        <time>2010-10-30T12:05:52Z</time>
      </trkpt>
      <trkpt lat="44.02773" lon="6.66602">
        <ele>1551.2246094</ele>
        <time>2010-10-30T12:05:57Z</time>
      </trkpt>
      <trkpt lat="44.02741" lon="6.66591">
        <ele>1542.092041</ele>
        <time>2010-10-30T12:06:03Z</time>
      </trkpt>
      <trkpt lat="44.02727" lon="6.66585">
        <ele>1530.0754395</ele>
        <time>2010-10-30T12:06:09Z</time>
      </trkpt>
      <trkpt lat="44.02708" lon="6.66581">
        <ele>1525.7495117</ele>
        <time>2010-10-30T12:06:13Z</time>
      </trkpt>
      <trkpt lat="44.02674" lon="6.66573">
        <ele>1524.7883301</ele>
        <time>2010-10-30T12:06:19Z</time>
      </trkpt>
      <trkpt lat="44.02648" lon="6.66566">
        <ele>1523.3464355</ele>
        <time>2010-10-30T12:06:23Z</time>
      </trkpt>
      <trkpt lat="44.02621" lon="6.66557">
        <ele>1526.7109375</ele>
        <time>2010-10-30T12:06:29Z</time>
      </trkpt>
      <trkpt lat="44.02603" lon="6.66553">
        <ele>1529.1140137</ele>
        <time>2010-10-30T12:06:32Z</time>
      </trkpt>
      <trkpt lat="44.02568" lon="6.66546">
        <ele>1528.152832</ele>
        <time>2010-10-30T12:06:39Z</time>
      </trkpt>
      <trkpt lat="44.02544" lon="6.66533">
        <ele>1541.6113281</ele>
        <time>2010-10-30T12:06:44Z</time>
      </trkpt>
      <trkpt lat="44.02526" lon="6.6652">
        <ele>1555.5505371</ele>
        <time>2010-10-30T12:06:48Z</time>
      </trkpt>
      <trkpt lat="44.02503" lon="6.66511">
        <ele>1557.9538574</ele>
        <time>2010-10-30T12:06:53Z</time>
      </trkpt>
      <trkpt lat="44.02486" lon="6.66503">
        <ele>1560.3569336</ele>
        <time>2010-10-30T12:06:57Z</time>
      </trkpt>
      <trkpt lat="44.02463" lon="6.66495">
        <ele>1560.3569336</ele>
        <time>2010-10-30T12:07:01Z</time>
      </trkpt>
      <trkpt lat="44.02451" lon="6.66496">
        <ele>1557.9538574</ele>
        <time>2010-10-30T12:07:04Z</time>
      </trkpt>
      <trkpt lat="44.02447" lon="6.66498">
        <ele>1556.9924316</ele>
        <time>2010-10-30T12:07:05Z</time>
      </trkpt>
      <trkpt lat="44.02434" lon="6.66515">
        <ele>1555.0698242</ele>
        <time>2010-10-30T12:07:09Z</time>
      </trkpt>
      <trkpt lat="44.02412" lon="6.66542">
        <ele>1548.3405762</ele>
        <time>2010-10-30T12:07:16Z</time>
      </trkpt>
      <trkpt lat="44.02405" lon="6.6655">
        <ele>1547.8598633</ele>
        <time>2010-10-30T12:07:18Z</time>
      </trkpt>
      <trkpt lat="44.02399" lon="6.66566">
        <ele>1547.3791504</ele>
        <time>2010-10-30T12:07:21Z</time>
      </trkpt>
      <trkpt lat="44.02384" lon="6.66592">
        <ele>1544.9758301</ele>
        <time>2010-10-30T12:07:26Z</time>
      </trkpt>
      <trkpt lat="44.02368" lon="6.66606">
        <ele>1544.9758301</ele>
        <time>2010-10-30T12:07:30Z</time>
      </trkpt>
      <trkpt lat="44.02354" lon="6.66634">
        <ele>1544.0146484</ele>
        <time>2010-10-30T12:07:35Z</time>
      </trkpt>
      <trkpt lat="44.02346" lon="6.66649">
        <ele>1544.9758301</ele>
        <time>2010-10-30T12:07:38Z</time>
      </trkpt>
      <trkpt lat="44.02335" lon="6.6668">
        <ele>1547.8598633</ele>
        <time>2010-10-30T12:07:43Z</time>
      </trkpt>
      <trkpt lat="44.02329" lon="6.66692">
        <ele>1550.7438965</ele>
        <time>2010-10-30T12:07:45Z</time>
      </trkpt>
      <trkpt lat="44.02324" lon="6.66707">
        <ele>1552.6665039</ele>
        <time>2010-10-30T12:07:48Z</time>
      </trkpt>
      <trkpt lat="44.02324" lon="6.66726">
        <ele>1553.6279297</ele>
        <time>2010-10-30T12:07:53Z</time>
      </trkpt>
      <trkpt lat="44.02325" lon="6.66736">
        <ele>1554.1086426</ele>
        <time>2010-10-30T12:07:55Z</time>
      </trkpt>
      <trkpt lat="44.02325" lon="6.66763">
        <ele>1564.6831055</ele>
        <time>2010-10-30T12:08:01Z</time>
      </trkpt>
      <trkpt lat="44.02325" lon="6.66772">
        <ele>1563.7214355</ele>
        <time>2010-10-30T12:08:03Z</time>
      </trkpt>
      <trkpt lat="44.02316" lon="6.66773">
        <ele>1562.7602539</ele>
        <time>2010-10-30T12:08:07Z</time>
      </trkpt>
      <trkpt lat="44.0231" lon="6.66773">
        <ele>1558.4343262</ele>
        <time>2010-10-30T12:08:12Z</time>
      </trkpt>
      <trkpt lat="44.02308" lon="6.66773">
        <ele>1556.9924316</ele>
        <time>2010-10-30T12:08:15Z</time>
      </trkpt>
      <trkpt lat="44.02292" lon="6.66771">
        <ele>1560.3569336</ele>
        <time>2010-10-30T12:08:22Z</time>
      </trkpt>
      <trkpt lat="44.02276" lon="6.66771">
        <ele>1559.8762207</ele>
        <time>2010-10-30T12:08:29Z</time>
      </trkpt>
      <trkpt lat="44.02263" lon="6.66768">
        <ele>1557.9538574</ele>
        <time>2010-10-30T12:08:36Z</time>
      </trkpt>
      <trkpt lat="44.02255" lon="6.66768">
        <ele>1558.4343262</ele>
        <time>2010-10-30T12:08:41Z</time>
      </trkpt>
      <trkpt lat="44.02241" lon="6.66766">
        <ele>1561.7990723</ele>
        <time>2010-10-30T12:08:47Z</time>
      </trkpt>
      <trkpt lat="44.02224" lon="6.66771">
        <ele>1561.3183594</ele>
        <time>2010-10-30T12:08:54Z</time>
      </trkpt>
      <trkpt lat="44.02215" lon="6.66772">
        <ele>1556.5117188</ele>
        <time>2010-10-30T12:08:59Z</time>
      </trkpt>
      <trkpt lat="44.02199" lon="6.66768">
        <ele>1554.5891113</ele>
        <time>2010-10-30T12:09:06Z</time>
      </trkpt>
      <trkpt lat="44.02188" lon="6.6678">
        <ele>1555.5505371</ele>
        <time>2010-10-30T12:09:11Z</time>
      </trkpt>
      <trkpt lat="44.02175" lon="6.66805">
        <ele>1556.0310059</ele>
        <time>2010-10-30T12:09:17Z</time>
      </trkpt>
      <trkpt lat="44.02161" lon="6.6684">
        <ele>1557.9538574</ele>
        <time>2010-10-30T12:09:24Z</time>
      </trkpt>
      <trkpt lat="44.02159" lon="6.66846">
        <ele>1557.9538574</ele>
        <time>2010-10-30T12:09:25Z</time>
      </trkpt>
      <trkpt lat="44.02145" lon="6.66874">
        <ele>1560.3569336</ele>
        <time>2010-10-30T12:09:30Z</time>
      </trkpt>
      <trkpt lat="44.02134" lon="6.66901">
        <ele>1557.9538574</ele>
        <time>2010-10-30T12:09:35Z</time>
      </trkpt>
      <trkpt lat="44.02122" lon="6.66933">
        <ele>1560.3569336</ele>
        <time>2010-10-30T12:09:41Z</time>
      </trkpt>
      <trkpt lat="44.0212" lon="6.66939">
        <ele>1560.3569336</ele>
        <time>2010-10-30T12:09:42Z</time>
      </trkpt>
      <trkpt lat="44.02103" lon="6.66974">
        <ele>1552.185791</ele>
        <time>2010-10-30T12:09:49Z</time>
      </trkpt>
      <trkpt lat="44.02098" lon="6.66979">
        <ele>1549.7827148</ele>
        <time>2010-10-30T12:09:53Z</time>
      </trkpt>
      <trkpt lat="44.02097" lon="6.66978">
        <ele>1552.185791</ele>
        <time>2010-10-30T12:09:58Z</time>
      </trkpt>
      <trkpt lat="44.02098" lon="6.66977">
        <ele>1554.1086426</ele>
        <time>2010-10-30T12:10:01Z</time>
      </trkpt>
      <trkpt lat="44.02109" lon="6.66978">
        <ele>1549.302002</ele>
        <time>2010-10-30T12:10:08Z</time>
      </trkpt>
      <trkpt lat="44.02118" lon="6.66986">
        <ele>1534.8823242</ele>
        <time>2010-10-30T12:10:20Z</time>
      </trkpt>
      <trkpt lat="44.02107" lon="6.66981">
        <ele>1554.5891113</ele>
        <time>2010-10-30T12:10:31Z</time>
      </trkpt>
      <trkpt lat="44.02098" lon="6.66978">
        <ele>1567.5668945</ele>
        <time>2010-10-30T12:10:37Z</time>
      </trkpt>
      <trkpt lat="44.02099" lon="6.66977">
        <ele>1566.6057129</ele>
        <time>2010-10-30T12:10:42Z</time>
      </trkpt>
      <trkpt lat="44.02097" lon="6.66977">
        <ele>1565.1638184</ele>
        <time>2010-10-30T12:10:48Z</time>
      </trkpt>
      <trkpt lat="44.02093" lon="6.66975">
        <ele>1565.1638184</ele>
        <time>2010-10-30T12:10:59Z</time>
      </trkpt>
      <trkpt lat="44.0209" lon="6.66972">
        <ele>1567.5668945</ele>
        <time>2010-10-30T12:11:11Z</time>
      </trkpt>
      <trkpt lat="44.02089" lon="6.66972">
        <ele>1568.0476074</ele>
        <time>2010-10-30T12:11:18Z</time>
      </trkpt>
      <trkpt lat="44.02088" lon="6.6697">
        <ele>1569.4897461</ele>
        <time>2010-10-30T12:11:32Z</time>
      </trkpt>
      <trkpt lat="44.02087" lon="6.6697">
        <ele>1570.4509277</ele>
        <time>2010-10-30T12:11:40Z</time>
      </trkpt>
      <trkpt lat="44.02086" lon="6.66969">
        <ele>1570.9316406</ele>
        <time>2010-10-30T12:11:49Z</time>
      </trkpt>
      <trkpt lat="44.02085" lon="6.66968">
        <ele>1571.8928223</ele>
        <time>2010-10-30T12:11:58Z</time>
      </trkpt>
      <trkpt lat="44.02084" lon="6.66968">
        <ele>1573.8154297</ele>
        <time>2010-10-30T12:12:13Z</time>
      </trkpt>
      <trkpt lat="44.02083" lon="6.66966">
        <ele>1575.2573242</ele>
        <time>2010-10-30T12:12:41Z</time>
      </trkpt>
      <trkpt lat="44.02083" lon="6.66966">
        <ele>1575.7380371</ele>
        <time>2010-10-30T12:12:52Z</time>
      </trkpt>
      <trkpt lat="44.02082" lon="6.66965">
        <ele>1576.6994629</ele>
        <time>2010-10-30T12:13:03Z</time>
      </trkpt>
      <trkpt lat="44.02085" lon="6.66967">
        <ele>1573.8154297</ele>
        <time>2010-10-30T12:13:13Z</time>
      </trkpt>
      <trkpt lat="44.02087" lon="6.6697">
        <ele>1568.5283203</ele>
        <time>2010-10-30T12:13:36Z</time>
      </trkpt>
      <trkpt lat="44.0209" lon="6.6697">
        <ele>1566.6057129</ele>
        <time>2010-10-30T12:14:13Z</time>
      </trkpt>
      <trkpt lat="44.02101" lon="6.66975">
        <ele>1554.1086426</ele>
        <time>2010-10-30T12:14:21Z</time>
      </trkpt>
      <trkpt lat="44.02101" lon="6.66974">
        <ele>1555.0698242</ele>
        <time>2010-10-30T12:14:37Z</time>
      </trkpt>
      <trkpt lat="44.021" lon="6.66972">
        <ele>1555.0698242</ele>
        <time>2010-10-30T12:14:49Z</time>
      </trkpt>
      <trkpt lat="44.02097" lon="6.6697">
        <ele>1552.185791</ele>
        <time>2010-10-30T12:14:53Z</time>
      </trkpt>
      <trkpt lat="44.0209" lon="6.66973">
        <ele>1548.3405762</ele>
        <time>2010-10-30T12:14:58Z</time>
      </trkpt>
      <trkpt lat="44.02068" lon="6.66977">
        <ele>1547.8598633</ele>
        <time>2010-10-30T12:15:07Z</time>
      </trkpt>
      <trkpt lat="44.02054" lon="6.66983">
        <ele>1549.302002</ele>
        <time>2010-10-30T12:15:11Z</time>
      </trkpt>
      <trkpt lat="44.02032" lon="6.66989">
        <ele>1545.9372559</ele>
        <time>2010-10-30T12:15:16Z</time>
      </trkpt>
      <trkpt lat="44.02006" lon="6.66989">
        <ele>1544.0146484</ele>
        <time>2010-10-30T12:15:22Z</time>
      </trkpt>
      <trkpt lat="44.01986" lon="6.66993">
        <ele>1542.092041</ele>
        <time>2010-10-30T12:15:27Z</time>
      </trkpt>
      <trkpt lat="44.01973" lon="6.66996">
        <ele>1543.5339355</ele>
        <time>2010-10-30T12:15:31Z</time>
      </trkpt>
      <trkpt lat="44.01946" lon="6.67002">
        <ele>1541.1306152</ele>
        <time>2010-10-30T12:15:38Z</time>
      </trkpt>
      <trkpt lat="44.01935" lon="6.67003">
        <ele>1536.8046875</ele>
        <time>2010-10-30T12:15:43Z</time>
      </trkpt>
      <trkpt lat="44.01916" lon="6.6701">
        <ele>1538.7275391</ele>
        <time>2010-10-30T12:15:49Z</time>
      </trkpt>
      <trkpt lat="44.01901" lon="6.67018">
        <ele>1537.2854004</ele>
        <time>2010-10-30T12:15:54Z</time>
      </trkpt>
      <trkpt lat="44.01882" lon="6.67035">
        <ele>1536.3242188</ele>
        <time>2010-10-30T12:15:59Z</time>
      </trkpt>
      <trkpt lat="44.01874" lon="6.67044">
        <ele>1535.8435059</ele>
        <time>2010-10-30T12:16:01Z</time>
      </trkpt>
      <trkpt lat="44.01845" lon="6.67068">
        <ele>1532.4790039</ele>
        <time>2010-10-30T12:16:08Z</time>
      </trkpt>
      <trkpt lat="44.01829" lon="6.67082">
        <ele>1532.9594727</ele>
        <time>2010-10-30T12:16:12Z</time>
      </trkpt>
      <trkpt lat="44.01804" lon="6.67102">
        <ele>1533.4401855</ele>
        <time>2010-10-30T12:16:18Z</time>
      </trkpt>
      <trkpt lat="44.01796" lon="6.67107">
        <ele>1531.517334</ele>
        <time>2010-10-30T12:16:20Z</time>
      </trkpt>
      <trkpt lat="44.01785" lon="6.6711">
        <ele>1532.4790039</ele>
        <time>2010-10-30T12:16:22Z</time>
      </trkpt>
      <trkpt lat="44.01772" lon="6.67114">
        <ele>1531.9980469</ele>
        <time>2010-10-30T12:16:25Z</time>
      </trkpt>
      <trkpt lat="44.01764" lon="6.67124">
        <ele>1528.6335449</ele>
        <time>2010-10-30T12:16:31Z</time>
      </trkpt>
      <trkpt lat="44.0176" lon="6.67123">
        <ele>1528.152832</ele>
        <time>2010-10-30T12:16:34Z</time>
      </trkpt>
      <trkpt lat="44.0176" lon="6.67114">
        <ele>1524.7883301</ele>
        <time>2010-10-30T12:16:40Z</time>
      </trkpt>
      <trkpt lat="44.0175" lon="6.67108">
        <ele>1525.2687988</ele>
        <time>2010-10-30T12:16:43Z</time>
      </trkpt>
      <trkpt lat="44.01735" lon="6.67106">
        <ele>1522.8657227</ele>
        <time>2010-10-30T12:16:49Z</time>
      </trkpt>
      <trkpt lat="44.01735" lon="6.67101">
        <ele>1524.7883301</ele>
        <time>2010-10-30T12:16:54Z</time>
      </trkpt>
      <trkpt lat="44.01731" lon="6.67098">
        <ele>1527.6721191</ele>
        <time>2010-10-30T12:17:03Z</time>
      </trkpt>
      <trkpt lat="44.01731" lon="6.67091">
        <ele>1529.5947266</ele>
        <time>2010-10-30T12:17:10Z</time>
      </trkpt>
      <trkpt lat="44.01741" lon="6.67077">
        <ele>1524.3076172</ele>
        <time>2010-10-30T12:17:14Z</time>
      </trkpt>
      <trkpt lat="44.01746" lon="6.67053">
        <ele>1521.423584</ele>
        <time>2010-10-30T12:17:19Z</time>
      </trkpt>
      <trkpt lat="44.01752" lon="6.67024">
        <ele>1518.5397949</ele>
        <time>2010-10-30T12:17:24Z</time>
      </trkpt>
      <trkpt lat="44.01755" lon="6.67005">
        <ele>1518.059082</ele>
        <time>2010-10-30T12:17:27Z</time>
      </trkpt>
      <trkpt lat="44.01761" lon="6.66994">
        <ele>1515.1750488</ele>
        <time>2010-10-30T12:17:29Z</time>
      </trkpt>
      <trkpt lat="44.01769" lon="6.66961">
        <ele>1510.3684082</ele>
        <time>2010-10-30T12:17:35Z</time>
      </trkpt>
      <trkpt lat="44.01776" lon="6.66943">
        <ele>1504.6005859</ele>
        <time>2010-10-30T12:17:39Z</time>
      </trkpt>
      <trkpt lat="44.01784" lon="6.66932">
        <ele>1503.6394043</ele>
        <time>2010-10-30T12:17:44Z</time>
      </trkpt>
      <trkpt lat="44.01785" lon="6.66931">
        <ele>1503.6394043</ele>
        <time>2010-10-30T12:17:45Z</time>
      </trkpt>
      <trkpt lat="44.01781" lon="6.66926">
        <ele>1505.5620117</ele>
        <time>2010-10-30T12:17:48Z</time>
      </trkpt>
      <trkpt lat="44.01783" lon="6.6691">
        <ele>1502.6779785</ele>
        <time>2010-10-30T12:17:53Z</time>
      </trkpt>
      <trkpt lat="44.01792" lon="6.66888">
        <ele>1500.7553711</ele>
        <time>2010-10-30T12:17:58Z</time>
      </trkpt>
      <trkpt lat="44.01791" lon="6.66885">
        <ele>1505.0812988</ele>
        <time>2010-10-30T12:18:06Z</time>
      </trkpt>
      <trkpt lat="44.01791" lon="6.66886">
        <ele>1506.0424805</ele>
        <time>2010-10-30T12:18:11Z</time>
      </trkpt>
      <trkpt lat="44.01785" lon="6.66892">
        <ele>1506.5231934</ele>
        <time>2010-10-30T12:18:19Z</time>
      </trkpt>
      <trkpt lat="44.01785" lon="6.66896">
        <ele>1507.4846191</ele>
        <time>2010-10-30T12:18:26Z</time>
      </trkpt>
      <trkpt lat="44.01783" lon="6.66901">
        <ele>1510.8491211</ele>
        <time>2010-10-30T12:18:32Z</time>
      </trkpt>
      <trkpt lat="44.01779" lon="6.66907">
        <ele>1512.7717285</ele>
        <time>2010-10-30T12:18:38Z</time>
      </trkpt>
      <trkpt lat="44.01778" lon="6.66911">
        <ele>1515.6557617</ele>
        <time>2010-10-30T12:18:43Z</time>
      </trkpt>
      <trkpt lat="44.01778" lon="6.66915">
        <ele>1512.2910156</ele>
        <time>2010-10-30T12:18:48Z</time>
      </trkpt>
      <trkpt lat="44.01776" lon="6.66916">
        <ele>1514.213623</ele>
        <time>2010-10-30T12:19:04Z</time>
      </trkpt>
      <trkpt lat="44.01777" lon="6.66918">
        <ele>1507.965332</ele>
        <time>2010-10-30T12:19:14Z</time>
      </trkpt>
      <trkpt lat="44.01778" lon="6.66918">
        <ele>1504.6005859</ele>
        <time>2010-10-30T12:19:25Z</time>
      </trkpt>
      <trkpt lat="44.0178" lon="6.66919">
        <ele>1503.1586914</ele>
        <time>2010-10-30T12:19:36Z</time>
      </trkpt>
      <trkpt lat="44.01779" lon="6.6692">
        <ele>1504.1201172</ele>
        <time>2010-10-30T12:19:42Z</time>
      </trkpt>
      <trkpt lat="44.01782" lon="6.66917">
        <ele>1507.4846191</ele>
        <time>2010-10-30T12:19:48Z</time>
      </trkpt>
      <trkpt lat="44.01782" lon="6.66916">
        <ele>1507.0039062</ele>
        <time>2010-10-30T12:19:54Z</time>
      </trkpt>
      <trkpt lat="44.01782" lon="6.66918">
        <ele>1505.5620117</ele>
        <time>2010-10-30T12:20:08Z</time>
      </trkpt>
      <trkpt lat="44.01782" lon="6.66919">
        <ele>1506.0424805</ele>
        <time>2010-10-30T12:20:09Z</time>
      </trkpt>
      <trkpt lat="44.01784" lon="6.66929">
        <ele>1509.4072266</ele>
        <time>2010-10-30T12:20:17Z</time>
      </trkpt>
      <trkpt lat="44.01779" lon="6.66938">
        <ele>1513.7329102</ele>
        <time>2010-10-30T12:20:24Z</time>
      </trkpt>
      <trkpt lat="44.01774" lon="6.66942">
        <ele>1518.059082</ele>
        <time>2010-10-30T12:20:31Z</time>
      </trkpt>
      <trkpt lat="44.01771" lon="6.66945">
        <ele>1519.5012207</ele>
        <time>2010-10-30T12:20:37Z</time>
      </trkpt>
      <trkpt lat="44.01767" lon="6.66951">
        <ele>1522.3850098</ele>
        <time>2010-10-30T12:20:43Z</time>
      </trkpt>
      <trkpt lat="44.01765" lon="6.66963">
        <ele>1524.3076172</ele>
        <time>2010-10-30T12:20:52Z</time>
      </trkpt>
      <trkpt lat="44.01763" lon="6.66971">
        <ele>1524.7883301</ele>
        <time>2010-10-30T12:20:58Z</time>
      </trkpt>
      <trkpt lat="44.01761" lon="6.66979">
        <ele>1526.2302246</ele>
        <time>2010-10-30T12:21:05Z</time>
      </trkpt>
      <trkpt lat="44.01757" lon="6.66989">
        <ele>1527.6721191</ele>
        <time>2010-10-30T12:21:12Z</time>
      </trkpt>
      <trkpt lat="44.01753" lon="6.67003">
        <ele>1528.152832</ele>
        <time>2010-10-30T12:21:19Z</time>
      </trkpt>
      <trkpt lat="44.01752" lon="6.67014">
        <ele>1527.6721191</ele>
        <time>2010-10-30T12:21:25Z</time>
      </trkpt>
      <trkpt lat="44.01752" lon="6.6702">
        <ele>1527.6721191</ele>
        <time>2010-10-30T12:21:28Z</time>
      </trkpt>
      <trkpt lat="44.01753" lon="6.67037">
        <ele>1525.2687988</ele>
        <time>2010-10-30T12:21:37Z</time>
      </trkpt>
      <trkpt lat="44.01748" lon="6.67048">
        <ele>1528.152832</ele>
        <time>2010-10-30T12:21:44Z</time>
      </trkpt>
      <trkpt lat="44.01746" lon="6.6706">
        <ele>1529.1140137</ele>
        <time>2010-10-30T12:21:52Z</time>
      </trkpt>
      <trkpt lat="44.01743" lon="6.67069">
        <ele>1529.1140137</ele>
        <time>2010-10-30T12:21:58Z</time>
      </trkpt>
      <trkpt lat="44.01739" lon="6.67074">
        <ele>1530.5561523</ele>
        <time>2010-10-30T12:22:04Z</time>
      </trkpt>
      <trkpt lat="44.01739" lon="6.67076">
        <ele>1530.5561523</ele>
        <time>2010-10-30T12:22:06Z</time>
      </trkpt>
      <trkpt lat="44.01731" lon="6.67094">
        <ele>1528.6335449</ele>
        <time>2010-10-30T12:22:17Z</time>
      </trkpt>
      <trkpt lat="44.01725" lon="6.67105">
        <ele>1528.6335449</ele>
        <time>2010-10-30T12:22:25Z</time>
      </trkpt>
      <trkpt lat="44.01723" lon="6.67109">
        <ele>1528.6335449</ele>
        <time>2010-10-30T12:22:33Z</time>
      </trkpt>
      <trkpt lat="44.01719" lon="6.67116">
        <ele>1530.0754395</ele>
        <time>2010-10-30T12:22:39Z</time>
      </trkpt>
      <trkpt lat="44.01717" lon="6.67119">
        <ele>1528.6335449</ele>
        <time>2010-10-30T12:22:45Z</time>
      </trkpt>
      <trkpt lat="44.01717" lon="6.67122">
        <ele>1526.2302246</ele>
        <time>2010-10-30T12:22:53Z</time>
      </trkpt>
      <trkpt lat="44.01717" lon="6.67127">
        <ele>1523.3464355</ele>
        <time>2010-10-30T12:23:06Z</time>
      </trkpt>
      <trkpt lat="44.01712" lon="6.6713">
        <ele>1523.8269043</ele>
        <time>2010-10-30T12:23:12Z</time>
      </trkpt>
      <trkpt lat="44.0171" lon="6.67132">
        <ele>1525.7495117</ele>
        <time>2010-10-30T12:23:17Z</time>
      </trkpt>
      <trkpt lat="44.01705" lon="6.6714">
        <ele>1526.7109375</ele>
        <time>2010-10-30T12:23:24Z</time>
      </trkpt>
      <trkpt lat="44.01707" lon="6.67133">
        <ele>1536.3242188</ele>
        <time>2010-10-30T12:23:34Z</time>
      </trkpt>
      <trkpt lat="44.01714" lon="6.67121">
        <ele>1532.4790039</ele>
        <time>2010-10-30T12:23:42Z</time>
      </trkpt>
      <trkpt lat="44.01718" lon="6.67109">
        <ele>1532.9594727</ele>
        <time>2010-10-30T12:23:51Z</time>
      </trkpt>
      <trkpt lat="44.01722" lon="6.67104">
        <ele>1530.0754395</ele>
        <time>2010-10-30T12:23:58Z</time>
      </trkpt>
      <trkpt lat="44.01727" lon="6.67101">
        <ele>1523.8269043</ele>
        <time>2010-10-30T12:24:04Z</time>
      </trkpt>
      <trkpt lat="44.0173" lon="6.67097">
        <ele>1522.8657227</ele>
        <time>2010-10-30T12:24:13Z</time>
      </trkpt>
      <trkpt lat="44.01729" lon="6.67096">
        <ele>1538.2468262</ele>
        <time>2010-10-30T12:24:31Z</time>
      </trkpt>
      <trkpt lat="44.01727" lon="6.67098">
        <ele>1537.7661133</ele>
        <time>2010-10-30T12:24:46Z</time>
      </trkpt>
      <trkpt lat="44.01729" lon="6.67096">
        <ele>1530.0754395</ele>
        <time>2010-10-30T12:24:53Z</time>
      </trkpt>
      <trkpt lat="44.01732" lon="6.67098">
        <ele>1523.3464355</ele>
        <time>2010-10-30T12:24:58Z</time>
      </trkpt>
      <trkpt lat="44.01728" lon="6.67094">
        <ele>1524.7883301</ele>
        <time>2010-10-30T12:25:40Z</time>
      </trkpt>
      <trkpt lat="44.01726" lon="6.67091">
        <ele>1522.3850098</ele>
        <time>2010-10-30T12:25:47Z</time>
      </trkpt>
      <trkpt lat="44.01725" lon="6.67085">
        <ele>1519.0205078</ele>
        <time>2010-10-30T12:25:52Z</time>
      </trkpt>
      <trkpt lat="44.01724" lon="6.67079">
        <ele>1517.5783691</ele>
        <time>2010-10-30T12:25:58Z</time>
      </trkpt>
      <trkpt lat="44.01722" lon="6.67074">
        <ele>1519.0205078</ele>
        <time>2010-10-30T12:26:04Z</time>
      </trkpt>
      <trkpt lat="44.01721" lon="6.67073">
        <ele>1518.059082</ele>
        <time>2010-10-30T12:26:12Z</time>
      </trkpt>
      <trkpt lat="44.01726" lon="6.67075">
        <ele>1506.5231934</ele>
        <time>2010-10-30T12:26:26Z</time>
      </trkpt>
      <trkpt lat="44.01723" lon="6.67069">
        <ele>1508.4458008</ele>
        <time>2010-10-30T12:26:33Z</time>
      </trkpt>
      <trkpt lat="44.01723" lon="6.67068">
        <ele>1507.965332</ele>
        <time>2010-10-30T12:26:34Z</time>
      </trkpt>
      <trkpt lat="44.01718" lon="6.67063">
        <ele>1509.4072266</ele>
        <time>2010-10-30T12:26:40Z</time>
      </trkpt>
      <trkpt lat="44.01717" lon="6.67058">
        <ele>1507.965332</ele>
        <time>2010-10-30T12:26:45Z</time>
      </trkpt>
      <trkpt lat="44.01716" lon="6.67053">
        <ele>1504.6005859</ele>
        <time>2010-10-30T12:26:50Z</time>
      </trkpt>
      <trkpt lat="44.0171" lon="6.67047">
        <ele>1508.9265137</ele>
        <time>2010-10-30T12:27:03Z</time>
      </trkpt>
      <trkpt lat="44.01704" lon="6.67044">
        <ele>1515.1750488</ele>
        <time>2010-10-30T12:27:11Z</time>
      </trkpt>
      <trkpt lat="44.01698" lon="6.6704">
        <ele>1516.1364746</ele>
        <time>2010-10-30T12:27:22Z</time>
      </trkpt>
      <trkpt lat="44.01708" lon="6.67044">
        <ele>1510.3684082</ele>
        <time>2010-10-30T12:28:14Z</time>
      </trkpt>
      <trkpt lat="44.01709" lon="6.67045">
        <ele>1511.8105469</ele>
        <time>2010-10-30T12:28:23Z</time>
      </trkpt>
      <trkpt lat="44.0171" lon="6.67047">
        <ele>1516.6171875</ele>
        <time>2010-10-30T12:28:33Z</time>
      </trkpt>
      <trkpt lat="44.01711" lon="6.67048">
        <ele>1517.5783691</ele>
        <time>2010-10-30T12:28:42Z</time>
      </trkpt>
      <trkpt lat="44.01712" lon="6.67046">
        <ele>1512.7717285</ele>
        <time>2010-10-30T12:28:59Z</time>
      </trkpt>
      <trkpt lat="44.01712" lon="6.67046">
        <ele>1513.2524414</ele>
        <time>2010-10-30T12:29:10Z</time>
      </trkpt>
      <trkpt lat="44.01712" lon="6.67046">
        <ele>1513.7329102</ele>
        <time>2010-10-30T12:29:20Z</time>
      </trkpt>
      <trkpt lat="44.01711" lon="6.67046">
        <ele>1512.7717285</ele>
        <time>2010-10-30T12:29:34Z</time>
      </trkpt>
      <trkpt lat="44.01711" lon="6.67051">
        <ele>1519.0205078</ele>
        <time>2010-10-30T12:30:28Z</time>
      </trkpt>
      <trkpt lat="44.01702" lon="6.6705">
        <ele>1531.9980469</ele>
        <time>2010-10-30T12:30:58Z</time>
      </trkpt>
      <trkpt lat="44.01704" lon="6.67052">
        <ele>1533.9208984</ele>
        <time>2010-10-30T12:31:09Z</time>
      </trkpt>
      <trkpt lat="44.01704" lon="6.67052">
        <ele>1534.4016113</ele>
        <time>2010-10-30T12:31:20Z</time>
      </trkpt>
      <trkpt lat="44.01701" lon="6.67049">
        <ele>1534.8823242</ele>
        <time>2010-10-30T12:31:35Z</time>
      </trkpt>
      <trkpt lat="44.01707" lon="6.67049">
        <ele>1525.2687988</ele>
        <time>2010-10-30T12:31:56Z</time>
      </trkpt>
      <trkpt lat="44.01708" lon="6.67051">
        <ele>1523.3464355</ele>
        <time>2010-10-30T12:32:06Z</time>
      </trkpt>
      <trkpt lat="44.01711" lon="6.67053">
        <ele>1520.9431152</ele>
        <time>2010-10-30T12:32:15Z</time>
      </trkpt>
      <trkpt lat="44.01714" lon="6.67057">
        <ele>1520.4624023</ele>
        <time>2010-10-30T12:32:20Z</time>
      </trkpt>
      <trkpt lat="44.01714" lon="6.6706">
        <ele>1519.0205078</ele>
        <time>2010-10-30T12:32:27Z</time>
      </trkpt>
      <trkpt lat="44.01714" lon="6.67062">
        <ele>1519.0205078</ele>
        <time>2010-10-30T12:32:33Z</time>
      </trkpt>
      <trkpt lat="44.01715" lon="6.67068">
        <ele>1521.423584</ele>
        <time>2010-10-30T12:32:40Z</time>
      </trkpt>
      <trkpt lat="44.01717" lon="6.67075">
        <ele>1521.9042969</ele>
        <time>2010-10-30T12:32:45Z</time>
      </trkpt>
      <trkpt lat="44.01718" lon="6.67083">
        <ele>1523.3464355</ele>
        <time>2010-10-30T12:32:52Z</time>
      </trkpt>
      <trkpt lat="44.0172" lon="6.67086">
        <ele>1521.9042969</ele>
        <time>2010-10-30T12:32:58Z</time>
      </trkpt>
      <trkpt lat="44.01722" lon="6.67095">
        <ele>1523.8269043</ele>
        <time>2010-10-30T12:33:05Z</time>
      </trkpt>
      <trkpt lat="44.01722" lon="6.67103">
        <ele>1524.3076172</ele>
        <time>2010-10-30T12:33:11Z</time>
      </trkpt>
      <trkpt lat="44.01727" lon="6.67104">
        <ele>1518.5397949</ele>
        <time>2010-10-30T12:33:17Z</time>
      </trkpt>
      <trkpt lat="44.01731" lon="6.67106">
        <ele>1513.2524414</ele>
        <time>2010-10-30T12:33:30Z</time>
      </trkpt>
      <trkpt lat="44.01733" lon="6.67111">
        <ele>1507.965332</ele>
        <time>2010-10-30T12:33:48Z</time>
      </trkpt>
      <trkpt lat="44.0173" lon="6.67113">
        <ele>1515.1750488</ele>
        <time>2010-10-30T12:34:12Z</time>
      </trkpt>
      <trkpt lat="44.01724" lon="6.67117">
        <ele>1519.9816895</ele>
        <time>2010-10-30T12:34:18Z</time>
      </trkpt>
      <trkpt lat="44.01722" lon="6.67117">
        <ele>1520.9431152</ele>
        <time>2010-10-30T12:34:23Z</time>
      </trkpt>
      <trkpt lat="44.01715" lon="6.67127">
        <ele>1522.3850098</ele>
        <time>2010-10-30T12:34:27Z</time>
      </trkpt>
      <trkpt lat="44.01704" lon="6.67151">
        <ele>1523.3464355</ele>
        <time>2010-10-30T12:34:34Z</time>
      </trkpt>
      <trkpt lat="44.01703" lon="6.67166">
        <ele>1523.8269043</ele>
        <time>2010-10-30T12:34:37Z</time>
      </trkpt>
      <trkpt lat="44.01705" lon="6.67205">
        <ele>1524.7883301</ele>
        <time>2010-10-30T12:34:43Z</time>
      </trkpt>
      <trkpt lat="44.01697" lon="6.67238">
        <ele>1525.2687988</ele>
        <time>2010-10-30T12:34:48Z</time>
      </trkpt>
      <trkpt lat="44.01691" lon="6.67248">
        <ele>1524.7883301</ele>
        <time>2010-10-30T12:34:50Z</time>
      </trkpt>
      <trkpt lat="44.01677" lon="6.67251">
        <ele>1523.3464355</ele>
        <time>2010-10-30T12:34:54Z</time>
      </trkpt>
      <trkpt lat="44.0165" lon="6.67239">
        <ele>1520.4624023</ele>
        <time>2010-10-30T12:34:59Z</time>
      </trkpt>
      <trkpt lat="44.01616" lon="6.67211">
        <ele>1519.0205078</ele>
        <time>2010-10-30T12:35:06Z</time>
      </trkpt>
      <trkpt lat="44.01589" lon="6.67189">
        <ele>1517.0979004</ele>
        <time>2010-10-30T12:35:11Z</time>
      </trkpt>
      <trkpt lat="44.01562" lon="6.6718">
        <ele>1510.3684082</ele>
        <time>2010-10-30T12:35:15Z</time>
      </trkpt>
      <trkpt lat="44.01544" lon="6.67175">
        <ele>1503.6394043</ele>
        <time>2010-10-30T12:35:18Z</time>
      </trkpt>
      <trkpt lat="44.01534" lon="6.67173">
        <ele>1499.7939453</ele>
        <time>2010-10-30T12:35:20Z</time>
      </trkpt>
      <trkpt lat="44.01515" lon="6.67178">
        <ele>1494.026123</ele>
        <time>2010-10-30T12:35:23Z</time>
      </trkpt>
      <trkpt lat="44.0148" lon="6.67199">
        <ele>1489.7001953</ele>
        <time>2010-10-30T12:35:28Z</time>
      </trkpt>
      <trkpt lat="44.01473" lon="6.67205">
        <ele>1488.7390137</ele>
        <time>2010-10-30T12:35:29Z</time>
      </trkpt>
      <trkpt lat="44.01457" lon="6.67227">
        <ele>1484.4130859</ele>
        <time>2010-10-30T12:35:32Z</time>
      </trkpt>
      <trkpt lat="44.01449" lon="6.67255">
        <ele>1481.0483398</ele>
        <time>2010-10-30T12:35:36Z</time>
      </trkpt>
      <trkpt lat="44.01454" lon="6.67266">
        <ele>1480.567627</ele>
        <time>2010-10-30T12:35:38Z</time>
      </trkpt>
      <trkpt lat="44.01481" lon="6.67309">
        <ele>1479.6062012</ele>
        <time>2010-10-30T12:35:46Z</time>
      </trkpt>
      <trkpt lat="44.01484" lon="6.67333">
        <ele>1477.6835938</ele>
        <time>2010-10-30T12:35:50Z</time>
      </trkpt>
      <trkpt lat="44.01472" lon="6.67343">
        <ele>1476.7224121</ele>
        <time>2010-10-30T12:35:53Z</time>
      </trkpt>
      <trkpt lat="44.01462" lon="6.6736">
        <ele>1477.203125</ele>
        <time>2010-10-30T12:35:56Z</time>
      </trkpt>
      <trkpt lat="44.01458" lon="6.6739">
        <ele>1477.6835938</ele>
        <time>2010-10-30T12:36:00Z</time>
      </trkpt>
      <trkpt lat="44.01451" lon="6.67414">
        <ele>1478.6450195</ele>
        <time>2010-10-30T12:36:03Z</time>
      </trkpt>
      <trkpt lat="44.01431" lon="6.67457">
        <ele>1476.2416992</ele>
        <time>2010-10-30T12:36:09Z</time>
      </trkpt>
      <trkpt lat="44.01405" lon="6.67489">
        <ele>1473.3579102</ele>
        <time>2010-10-30T12:36:15Z</time>
      </trkpt>
      <trkpt lat="44.01395" lon="6.67507">
        <ele>1472.3964844</ele>
        <time>2010-10-30T12:36:18Z</time>
      </trkpt>
      <trkpt lat="44.01375" lon="6.67513">
        <ele>1472.8771973</ele>
        <time>2010-10-30T12:36:22Z</time>
      </trkpt>
      <trkpt lat="44.01345" lon="6.67513">
        <ele>1472.8771973</ele>
        <time>2010-10-30T12:36:27Z</time>
      </trkpt>
      <trkpt lat="44.01337" lon="6.67507">
        <ele>1473.3579102</ele>
        <time>2010-10-30T12:36:30Z</time>
      </trkpt>
      <trkpt lat="44.01336" lon="6.67498">
        <ele>1472.8771973</ele>
        <time>2010-10-30T12:36:34Z</time>
      </trkpt>
      <trkpt lat="44.01335" lon="6.67494">
        <ele>1471.9157715</ele>
        <time>2010-10-30T12:36:39Z</time>
      </trkpt>
      <trkpt lat="44.01333" lon="6.67495">
        <ele>1474.3190918</ele>
        <time>2010-10-30T12:36:49Z</time>
      </trkpt>
      <trkpt lat="44.01339" lon="6.67483">
        <ele>1471.9157715</ele>
        <time>2010-10-30T12:36:53Z</time>
      </trkpt>
      <trkpt lat="44.01349" lon="6.67458">
        <ele>1468.5512695</ele>
        <time>2010-10-30T12:36:58Z</time>
      </trkpt>
      <trkpt lat="44.01371" lon="6.67421">
        <ele>1461.3413086</ele>
        <time>2010-10-30T12:37:03Z</time>
      </trkpt>
      <trkpt lat="44.01375" lon="6.67414">
        <ele>1461.3413086</ele>
        <time>2010-10-30T12:37:04Z</time>
      </trkpt>
      <trkpt lat="44.01395" lon="6.67379">
        <ele>1457.0153809</ele>
        <time>2010-10-30T12:37:09Z</time>
      </trkpt>
      <trkpt lat="44.01399" lon="6.67355">
        <ele>1452.2087402</ele>
        <time>2010-10-30T12:37:13Z</time>
      </trkpt>
      <trkpt lat="44.01389" lon="6.67335">
        <ele>1448.3632812</ele>
        <time>2010-10-30T12:37:16Z</time>
      </trkpt>
      <trkpt lat="44.0137" lon="6.67316">
        <ele>1448.8439941</ele>
        <time>2010-10-30T12:37:20Z</time>
      </trkpt>
      <trkpt lat="44.01359" lon="6.67271">
        <ele>1447.4020996</ele>
        <time>2010-10-30T12:37:26Z</time>
      </trkpt>
      <trkpt lat="44.01354" lon="6.67214">
        <ele>1439.7116699</ele>
        <time>2010-10-30T12:37:31Z</time>
      </trkpt>
      <trkpt lat="44.01355" lon="6.67166">
        <ele>1438.2697754</ele>
        <time>2010-10-30T12:37:36Z</time>
      </trkpt>
      <trkpt lat="44.01367" lon="6.67123">
        <ele>1435.8662109</ele>
        <time>2010-10-30T12:37:41Z</time>
      </trkpt>
      <trkpt lat="44.01383" lon="6.67092">
        <ele>1432.0209961</ele>
        <time>2010-10-30T12:37:45Z</time>
      </trkpt>
      <trkpt lat="44.01388" lon="6.67078">
        <ele>1430.5791016</ele>
        <time>2010-10-30T12:37:47Z</time>
      </trkpt>
      <trkpt lat="44.01389" lon="6.67055">
        <ele>1431.5402832</ele>
        <time>2010-10-30T12:37:51Z</time>
      </trkpt>
      <trkpt lat="44.01399" lon="6.67022">
        <ele>1430.0983887</ele>
        <time>2010-10-30T12:37:56Z</time>
      </trkpt>
      <trkpt lat="44.014" lon="6.67013">
        <ele>1429.1369629</ele>
        <time>2010-10-30T12:37:57Z</time>
      </trkpt>
      <trkpt lat="44.01411" lon="6.66976">
        <ele>1427.2145996</ele>
        <time>2010-10-30T12:38:03Z</time>
      </trkpt>
      <trkpt lat="44.01412" lon="6.6697">
        <ele>1428.1757812</ele>
        <time>2010-10-30T12:38:06Z</time>
      </trkpt>
      <trkpt lat="44.01414" lon="6.66964">
        <ele>1427.6950684</ele>
        <time>2010-10-30T12:38:13Z</time>
      </trkpt>
      <trkpt lat="44.01423" lon="6.66944">
        <ele>1423.8498535</ele>
        <time>2010-10-30T12:38:18Z</time>
      </trkpt>
      <trkpt lat="44.01429" lon="6.66933">
        <ele>1421.4465332</ele>
        <time>2010-10-30T12:38:20Z</time>
      </trkpt>
      <trkpt lat="44.0144" lon="6.66919">
        <ele>1417.1206055</ele>
        <time>2010-10-30T12:38:23Z</time>
      </trkpt>
      <trkpt lat="44.01452" lon="6.66911">
        <ele>1413.7558594</ele>
        <time>2010-10-30T12:38:26Z</time>
      </trkpt>
      <trkpt lat="44.01473" lon="6.66893">
        <ele>1411.3527832</ele>
        <time>2010-10-30T12:38:31Z</time>
      </trkpt>
      <trkpt lat="44.01479" lon="6.66887">
        <ele>1410.8720703</ele>
        <time>2010-10-30T12:38:33Z</time>
      </trkpt>
      <trkpt lat="44.01479" lon="6.66879">
        <ele>1412.7946777</ele>
        <time>2010-10-30T12:38:35Z</time>
      </trkpt>
      <trkpt lat="44.01467" lon="6.66856">
        <ele>1416.6398926</ele>
        <time>2010-10-30T12:38:39Z</time>
      </trkpt>
      <trkpt lat="44.01464" lon="6.66849">
        <ele>1417.1206055</ele>
        <time>2010-10-30T12:38:40Z</time>
      </trkpt>
      <trkpt lat="44.0146" lon="6.66825">
        <ele>1418.0817871</ele>
        <time>2010-10-30T12:38:43Z</time>
      </trkpt>
      <trkpt lat="44.01469" lon="6.66787">
        <ele>1412.3139648</ele>
        <time>2010-10-30T12:38:48Z</time>
      </trkpt>
      <trkpt lat="44.01477" lon="6.66783">
        <ele>1407.9882812</ele>
        <time>2010-10-30T12:38:50Z</time>
      </trkpt>
      <trkpt lat="44.01484" lon="6.66781">
        <ele>1405.5849609</ele>
        <time>2010-10-30T12:38:55Z</time>
      </trkpt>
      <trkpt lat="44.01487" lon="6.66778">
        <ele>1408.46875</ele>
        <time>2010-10-30T12:39:01Z</time>
      </trkpt>
      <trkpt lat="44.01492" lon="6.6677">
        <ele>1405.104248</ele>
        <time>2010-10-30T12:39:09Z</time>
      </trkpt>
      <trkpt lat="44.01493" lon="6.66764">
        <ele>1406.0654297</ele>
        <time>2010-10-30T12:39:14Z</time>
      </trkpt>
      <trkpt lat="44.01492" lon="6.66754">
        <ele>1407.0268555</ele>
        <time>2010-10-30T12:39:20Z</time>
      </trkpt>
      <trkpt lat="44.01493" lon="6.66736">
        <ele>1411.3527832</ele>
        <time>2010-10-30T12:39:25Z</time>
      </trkpt>
      <trkpt lat="44.01499" lon="6.6672">
        <ele>1409.9106445</ele>
        <time>2010-10-30T12:39:31Z</time>
      </trkpt>
      <trkpt lat="44.01502" lon="6.667">
        <ele>1414.7172852</ele>
        <time>2010-10-30T12:39:38Z</time>
      </trkpt>
      <trkpt lat="44.01507" lon="6.66689">
        <ele>1411.8334961</ele>
        <time>2010-10-30T12:39:43Z</time>
      </trkpt>
      <trkpt lat="44.01512" lon="6.66674">
        <ele>1413.7558594</ele>
        <time>2010-10-30T12:39:49Z</time>
      </trkpt>
      <trkpt lat="44.01513" lon="6.66673">
        <ele>1413.2753906</ele>
        <time>2010-10-30T12:39:50Z</time>
      </trkpt>
      <trkpt lat="44.01516" lon="6.66661">
        <ele>1416.1591797</ele>
        <time>2010-10-30T12:39:55Z</time>
      </trkpt>
      <trkpt lat="44.01518" lon="6.66655">
        <ele>1417.1206055</ele>
        <time>2010-10-30T12:39:58Z</time>
      </trkpt>
      <trkpt lat="44.01524" lon="6.66642">
        <ele>1417.1206055</ele>
        <time>2010-10-30T12:40:03Z</time>
      </trkpt>
      <trkpt lat="44.01525" lon="6.66637">
        <ele>1417.1206055</ele>
        <time>2010-10-30T12:40:05Z</time>
      </trkpt>
      <trkpt lat="44.0154" lon="6.66627">
        <ele>1408.46875</ele>
        <time>2010-10-30T12:40:11Z</time>
      </trkpt>
      <trkpt lat="44.01547" lon="6.66624">
        <ele>1406.0654297</ele>
        <time>2010-10-30T12:40:13Z</time>
      </trkpt>
      <trkpt lat="44.01577" lon="6.66617">
        <ele>1398.8554688</ele>
        <time>2010-10-30T12:40:20Z</time>
      </trkpt>
      <trkpt lat="44.01588" lon="6.66596">
        <ele>1402.2199707</ele>
        <time>2010-10-30T12:40:26Z</time>
      </trkpt>
      <trkpt lat="44.01587" lon="6.66573">
        <ele>1405.104248</ele>
        <time>2010-10-30T12:40:31Z</time>
      </trkpt>
      <trkpt lat="44.01592" lon="6.66555">
        <ele>1404.6235352</ele>
        <time>2010-10-30T12:40:35Z</time>
      </trkpt>
      <trkpt lat="44.01602" lon="6.66544">
        <ele>1405.5849609</ele>
        <time>2010-10-30T12:40:39Z</time>
      </trkpt>
      <trkpt lat="44.01605" lon="6.66534">
        <ele>1404.6235352</ele>
        <time>2010-10-30T12:40:43Z</time>
      </trkpt>
      <trkpt lat="44.01602" lon="6.66512">
        <ele>1403.6621094</ele>
        <time>2010-10-30T12:40:48Z</time>
      </trkpt>
      <trkpt lat="44.01593" lon="6.66468">
        <ele>1401.2587891</ele>
        <time>2010-10-30T12:40:53Z</time>
      </trkpt>
      <trkpt lat="44.01591" lon="6.66442">
        <ele>1403.1813965</ele>
        <time>2010-10-30T12:40:57Z</time>
      </trkpt>
      <trkpt lat="44.01594" lon="6.66419">
        <ele>1400.2976074</ele>
        <time>2010-10-30T12:41:02Z</time>
      </trkpt>
      <trkpt lat="44.01594" lon="6.66415">
        <ele>1399.3361816</ele>
        <time>2010-10-30T12:41:03Z</time>
      </trkpt>
      <trkpt lat="44.01599" lon="6.66399">
        <ele>1394.0490723</ele>
        <time>2010-10-30T12:41:08Z</time>
      </trkpt>
      <trkpt lat="44.01612" lon="6.66384">
        <ele>1392.6071777</ele>
        <time>2010-10-30T12:41:14Z</time>
      </trkpt>
      <trkpt lat="44.01622" lon="6.66382">
        <ele>1390.6843262</ele>
        <time>2010-10-30T12:41:18Z</time>
      </trkpt>
      <trkpt lat="44.01638" lon="6.66374">
        <ele>1386.3583984</ele>
        <time>2010-10-30T12:41:24Z</time>
      </trkpt>
      <trkpt lat="44.01647" lon="6.66369">
        <ele>1384.435791</ele>
        <time>2010-10-30T12:41:28Z</time>
      </trkpt>
      <trkpt lat="44.0165" lon="6.66367">
        <ele>1384.435791</ele>
        <time>2010-10-30T12:41:29Z</time>
      </trkpt>
      <trkpt lat="44.01669" lon="6.66361">
        <ele>1378.1872559</ele>
        <time>2010-10-30T12:41:35Z</time>
      </trkpt>
      <trkpt lat="44.01684" lon="6.66352">
        <ele>1374.342041</ele>
        <time>2010-10-30T12:41:40Z</time>
      </trkpt>
      <trkpt lat="44.01687" lon="6.66351">
        <ele>1375.3032227</ele>
        <time>2010-10-30T12:41:41Z</time>
      </trkpt>
      <trkpt lat="44.01694" lon="6.66346">
        <ele>1373.8613281</ele>
        <time>2010-10-30T12:41:44Z</time>
      </trkpt>
      <trkpt lat="44.01696" lon="6.66323">
        <ele>1375.3032227</ele>
        <time>2010-10-30T12:41:50Z</time>
      </trkpt>
      <trkpt lat="44.01697" lon="6.6632">
        <ele>1375.3032227</ele>
        <time>2010-10-30T12:41:51Z</time>
      </trkpt>
      <trkpt lat="44.01705" lon="6.66303">
        <ele>1372.4194336</ele>
        <time>2010-10-30T12:41:56Z</time>
      </trkpt>
      <trkpt lat="44.01709" lon="6.66298">
        <ele>1370.496582</ele>
        <time>2010-10-30T12:41:59Z</time>
      </trkpt>
      <trkpt lat="44.01722" lon="6.66287">
        <ele>1367.1320801</ele>
        <time>2010-10-30T12:42:05Z</time>
      </trkpt>
      <trkpt lat="44.01729" lon="6.66279">
        <ele>1366.1706543</ele>
        <time>2010-10-30T12:42:09Z</time>
      </trkpt>
      <trkpt lat="44.01744" lon="6.66264">
        <ele>1364.2480469</ele>
        <time>2010-10-30T12:42:14Z</time>
      </trkpt>
      <trkpt lat="44.0176" lon="6.66247">
        <ele>1360.402832</ele>
        <time>2010-10-30T12:42:19Z</time>
      </trkpt>
      <trkpt lat="44.01773" lon="6.6624">
        <ele>1358.4802246</ele>
        <time>2010-10-30T12:42:23Z</time>
      </trkpt>
      <trkpt lat="44.01786" lon="6.66235">
        <ele>1359.9221191</ele>
        <time>2010-10-30T12:42:28Z</time>
      </trkpt>
      <trkpt lat="44.01796" lon="6.66233">
        <ele>1357.9997559</ele>
        <time>2010-10-30T12:42:32Z</time>
      </trkpt>
      <trkpt lat="44.018" lon="6.66221">
        <ele>1364.2480469</ele>
        <time>2010-10-30T12:42:37Z</time>
      </trkpt>
      <trkpt lat="44.01794" lon="6.66207">
        <ele>1366.1706543</ele>
        <time>2010-10-30T12:42:42Z</time>
      </trkpt>
      <trkpt lat="44.01785" lon="6.66206">
        <ele>1366.1706543</ele>
        <time>2010-10-30T12:42:47Z</time>
      </trkpt>
      <trkpt lat="44.01778" lon="6.66207">
        <ele>1366.1706543</ele>
        <time>2010-10-30T12:42:50Z</time>
      </trkpt>
      <trkpt lat="44.01765" lon="6.66207">
        <ele>1363.2868652</ele>
        <time>2010-10-30T12:42:56Z</time>
      </trkpt>
      <trkpt lat="44.01757" lon="6.66211">
        <ele>1362.3254395</ele>
        <time>2010-10-30T12:43:02Z</time>
      </trkpt>
      <trkpt lat="44.01743" lon="6.66218">
        <ele>1359.9221191</ele>
        <time>2010-10-30T12:43:08Z</time>
      </trkpt>
      <trkpt lat="44.01727" lon="6.66223">
        <ele>1363.2868652</ele>
        <time>2010-10-30T12:43:14Z</time>
      </trkpt>
      <trkpt lat="44.01711" lon="6.66229">
        <ele>1362.8061523</ele>
        <time>2010-10-30T12:43:20Z</time>
      </trkpt>
      <trkpt lat="44.01694" lon="6.6623">
        <ele>1357.0383301</ele>
        <time>2010-10-30T12:43:25Z</time>
      </trkpt>
      <trkpt lat="44.01678" lon="6.66231">
        <ele>1357.0383301</ele>
        <time>2010-10-30T12:43:29Z</time>
      </trkpt>
      <trkpt lat="44.01665" lon="6.66225">
        <ele>1355.5961914</ele>
        <time>2010-10-30T12:43:33Z</time>
      </trkpt>
      <trkpt lat="44.0165" lon="6.66221">
        <ele>1352.2314453</ele>
        <time>2010-10-30T12:43:37Z</time>
      </trkpt>
      <trkpt lat="44.01628" lon="6.66215">
        <ele>1354.6347656</ele>
        <time>2010-10-30T12:43:43Z</time>
      </trkpt>
      <trkpt lat="44.01609" lon="6.66206">
        <ele>1356.5576172</ele>
        <time>2010-10-30T12:43:48Z</time>
      </trkpt>
      <trkpt lat="44.01596" lon="6.66205">
        <ele>1352.7121582</ele>
        <time>2010-10-30T12:43:51Z</time>
      </trkpt>
      <trkpt lat="44.01568" lon="6.66198">
        <ele>1346.9443359</ele>
        <time>2010-10-30T12:43:57Z</time>
      </trkpt>
      <trkpt lat="44.01551" lon="6.66196">
        <ele>1343.0991211</ele>
        <time>2010-10-30T12:44:00Z</time>
      </trkpt>
      <trkpt lat="44.01533" lon="6.66196">
        <ele>1341.6572266</ele>
        <time>2010-10-30T12:44:04Z</time>
      </trkpt>
      <trkpt lat="44.01521" lon="6.66193">
        <ele>1342.1379395</ele>
        <time>2010-10-30T12:44:07Z</time>
      </trkpt>
      <trkpt lat="44.015" lon="6.66188">
        <ele>1343.579834</ele>
        <time>2010-10-30T12:44:12Z</time>
      </trkpt>
      <trkpt lat="44.01488" lon="6.66183">
        <ele>1343.579834</ele>
        <time>2010-10-30T12:44:16Z</time>
      </trkpt>
      <trkpt lat="44.01475" lon="6.6618">
        <ele>1341.6572266</ele>
        <time>2010-10-30T12:44:19Z</time>
      </trkpt>
      <trkpt lat="44.01457" lon="6.66172">
        <ele>1333.4858398</ele>
        <time>2010-10-30T12:44:24Z</time>
      </trkpt>
      <trkpt lat="44.01455" lon="6.6617">
        <ele>1328.6794434</ele>
        <time>2010-10-30T12:44:28Z</time>
      </trkpt>
      <trkpt lat="44.01457" lon="6.66168">
        <ele>1320.9887695</ele>
        <time>2010-10-30T12:44:38Z</time>
      </trkpt>
      <trkpt lat="44.01459" lon="6.66169">
        <ele>1317.1435547</ele>
        <time>2010-10-30T12:44:48Z</time>
      </trkpt>
      <trkpt lat="44.01455" lon="6.6617">
        <ele>1322.4306641</ele>
        <time>2010-10-30T12:46:55Z</time>
      </trkpt>
      <trkpt lat="44.01458" lon="6.6617">
        <ele>1317.6240234</ele>
        <time>2010-10-30T12:47:17Z</time>
      </trkpt>
      <trkpt lat="44.01462" lon="6.6617">
        <ele>1311.8564453</ele>
        <time>2010-10-30T12:48:16Z</time>
      </trkpt>
      <trkpt lat="44.01462" lon="6.6617">
        <ele>1313.2983398</ele>
        <time>2010-10-30T12:48:32Z</time>
      </trkpt>
      <trkpt lat="44.01459" lon="6.66169">
        <ele>1317.6240234</ele>
        <time>2010-10-30T12:49:18Z</time>
      </trkpt>
      <trkpt lat="44.01463" lon="6.66171">
        <ele>1320.5080566</ele>
        <time>2010-10-30T12:49:23Z</time>
      </trkpt>
      <trkpt lat="44.01462" lon="6.66171">
        <ele>1320.5080566</ele>
        <time>2010-10-30T12:49:27Z</time>
      </trkpt>
      <trkpt lat="44.01459" lon="6.66171">
        <ele>1320.5080566</ele>
        <time>2010-10-30T12:49:29Z</time>
      </trkpt>
      <trkpt lat="44.01457" lon="6.6617">
        <ele>1320.5080566</ele>
        <time>2010-10-30T12:49:31Z</time>
      </trkpt>
      <trkpt lat="44.0146" lon="6.66161">
        <ele>1321.9499512</ele>
        <time>2010-10-30T12:49:37Z</time>
      </trkpt>
      <trkpt lat="44.01463" lon="6.66148">
        <ele>1322.4306641</ele>
        <time>2010-10-30T12:49:44Z</time>
      </trkpt>
      <trkpt lat="44.01463" lon="6.66147">
        <ele>1321.9499512</ele>
        <time>2010-10-30T12:49:45Z</time>
      </trkpt>
      <trkpt lat="44.01464" lon="6.66143">
        <ele>1321.4692383</ele>
        <time>2010-10-30T12:49:49Z</time>
      </trkpt>
      <trkpt lat="44.01458" lon="6.66147">
        <ele>1320.5080566</ele>
        <time>2010-10-30T12:49:54Z</time>
      </trkpt>
      <trkpt lat="44.01453" lon="6.66148">
        <ele>1319.0661621</ele>
        <time>2010-10-30T12:49:58Z</time>
      </trkpt>
      <trkpt lat="44.01457" lon="6.66136">
        <ele>1317.6240234</ele>
        <time>2010-10-30T12:50:04Z</time>
      </trkpt>
      <trkpt lat="44.01461" lon="6.66124">
        <ele>1316.1821289</ele>
        <time>2010-10-30T12:50:08Z</time>
      </trkpt>
      <trkpt lat="44.01466" lon="6.66111">
        <ele>1312.3369141</ele>
        <time>2010-10-30T12:50:14Z</time>
      </trkpt>
      <trkpt lat="44.0147" lon="6.661">
        <ele>1309.453125</ele>
        <time>2010-10-30T12:50:18Z</time>
      </trkpt>
      <trkpt lat="44.01474" lon="6.66078">
        <ele>1308.9724121</ele>
        <time>2010-10-30T12:50:24Z</time>
      </trkpt>
      <trkpt lat="44.01477" lon="6.66054">
        <ele>1311.3757324</ele>
        <time>2010-10-30T12:50:29Z</time>
      </trkpt>
      <trkpt lat="44.01481" lon="6.66033">
        <ele>1310.8950195</ele>
        <time>2010-10-30T12:50:33Z</time>
      </trkpt>
      <trkpt lat="44.01486" lon="6.6601">
        <ele>1307.5302734</ele>
        <time>2010-10-30T12:50:38Z</time>
      </trkpt>
      <trkpt lat="44.0149" lon="6.65982">
        <ele>1308.4916992</ele>
        <time>2010-10-30T12:50:43Z</time>
      </trkpt>
      <trkpt lat="44.01495" lon="6.6596">
        <ele>1306.5688477</ele>
        <time>2010-10-30T12:50:48Z</time>
      </trkpt>
      <trkpt lat="44.01495" lon="6.65957">
        <ele>1307.5302734</ele>
        <time>2010-10-30T12:50:49Z</time>
      </trkpt>
      <trkpt lat="44.01503" lon="6.65931">
        <ele>1309.9335938</ele>
        <time>2010-10-30T12:50:55Z</time>
      </trkpt>
      <trkpt lat="44.0151" lon="6.6591">
        <ele>1307.0495605</ele>
        <time>2010-10-30T12:51:00Z</time>
      </trkpt>
      <trkpt lat="44.01516" lon="6.65904">
        <ele>1308.0112305</ele>
        <time>2010-10-30T12:51:03Z</time>
      </trkpt>
      <trkpt lat="44.01513" lon="6.65895">
        <ele>1315.7016602</ele>
        <time>2010-10-30T12:51:06Z</time>
      </trkpt>
      <trkpt lat="44.01516" lon="6.65879">
        <ele>1312.3369141</ele>
        <time>2010-10-30T12:51:12Z</time>
      </trkpt>
      <trkpt lat="44.01517" lon="6.65876">
        <ele>1312.3369141</ele>
        <time>2010-10-30T12:51:13Z</time>
      </trkpt>
      <trkpt lat="44.01524" lon="6.65858">
        <ele>1313.2983398</ele>
        <time>2010-10-30T12:51:19Z</time>
      </trkpt>
      <trkpt lat="44.01528" lon="6.65843">
        <ele>1314.7402344</ele>
        <time>2010-10-30T12:51:24Z</time>
      </trkpt>
      <trkpt lat="44.0153" lon="6.65821">
        <ele>1310.4143066</ele>
        <time>2010-10-30T12:51:29Z</time>
      </trkpt>
      <trkpt lat="44.01529" lon="6.65817">
        <ele>1305.1269531</ele>
        <time>2010-10-30T12:51:33Z</time>
      </trkpt>
      <trkpt lat="44.0153" lon="6.65813">
        <ele>1295.0332031</ele>
        <time>2010-10-30T12:51:43Z</time>
      </trkpt>
      <trkpt lat="44.01531" lon="6.65812">
        <ele>1294.0720215</ele>
        <time>2010-10-30T12:51:45Z</time>
      </trkpt>
      <trkpt lat="44.01535" lon="6.65808">
        <ele>1293.5913086</ele>
        <time>2010-10-30T12:51:51Z</time>
      </trkpt>
      <trkpt lat="44.01528" lon="6.65791">
        <ele>1293.1105957</ele>
        <time>2010-10-30T12:51:57Z</time>
      </trkpt>
      <trkpt lat="44.01526" lon="6.65785">
        <ele>1290.2265625</ele>
        <time>2010-10-30T12:51:59Z</time>
      </trkpt>
      <trkpt lat="44.01525" lon="6.65777">
        <ele>1286.3813477</ele>
        <time>2010-10-30T12:52:02Z</time>
      </trkpt>
      <trkpt lat="44.01526" lon="6.65765">
        <ele>1282.5361328</ele>
        <time>2010-10-30T12:52:06Z</time>
      </trkpt>
      <trkpt lat="44.01527" lon="6.65748">
        <ele>1281.574707</ele>
        <time>2010-10-30T12:52:10Z</time>
      </trkpt>
      <trkpt lat="44.01531" lon="6.65724">
        <ele>1289.7458496</ele>
        <time>2010-10-30T12:52:16Z</time>
      </trkpt>
      <trkpt lat="44.01539" lon="6.65699">
        <ele>1291.1877441</ele>
        <time>2010-10-30T12:52:22Z</time>
      </trkpt>
      <trkpt lat="44.01547" lon="6.65683">
        <ele>1288.3039551</ele>
        <time>2010-10-30T12:52:27Z</time>
      </trkpt>
      <trkpt lat="44.01553" lon="6.65667">
        <ele>1287.8232422</ele>
        <time>2010-10-30T12:52:32Z</time>
      </trkpt>
      <trkpt lat="44.01566" lon="6.65666">
        <ele>1283.9780273</ele>
        <time>2010-10-30T12:52:37Z</time>
      </trkpt>
      <trkpt lat="44.0157" lon="6.65666">
        <ele>1282.5361328</ele>
        <time>2010-10-30T12:52:38Z</time>
      </trkpt>
      <trkpt lat="44.01578" lon="6.65671">
        <ele>1280.1328125</ele>
        <time>2010-10-30T12:52:43Z</time>
      </trkpt>
      <trkpt lat="44.01589" lon="6.65672">
        <ele>1277.2490234</ele>
        <time>2010-10-30T12:52:48Z</time>
      </trkpt>
      <trkpt lat="44.01591" lon="6.65671">
        <ele>1277.7294922</ele>
        <time>2010-10-30T12:52:49Z</time>
      </trkpt>
      <trkpt lat="44.01599" lon="6.6567">
        <ele>1283.4973145</ele>
        <time>2010-10-30T12:52:55Z</time>
      </trkpt>
      <trkpt lat="44.01599" lon="6.65666">
        <ele>1295.9946289</ele>
        <time>2010-10-30T12:53:02Z</time>
      </trkpt>
      <trkpt lat="44.01596" lon="6.65663">
        <ele>1295.9946289</ele>
        <time>2010-10-30T12:53:05Z</time>
      </trkpt>
      <trkpt lat="44.016" lon="6.6565">
        <ele>1300.3205566</ele>
        <time>2010-10-30T12:53:12Z</time>
      </trkpt>
      <trkpt lat="44.01602" lon="6.65641">
        <ele>1302.2429199</ele>
        <time>2010-10-30T12:53:16Z</time>
      </trkpt>
      <trkpt lat="44.01596" lon="6.65621">
        <ele>1301.2817383</ele>
        <time>2010-10-30T12:53:21Z</time>
      </trkpt>
      <trkpt lat="44.01592" lon="6.65603">
        <ele>1294.5524902</ele>
        <time>2010-10-30T12:53:25Z</time>
      </trkpt>
      <trkpt lat="44.01598" lon="6.65579">
        <ele>1288.784668</ele>
        <time>2010-10-30T12:53:30Z</time>
      </trkpt>
      <trkpt lat="44.01612" lon="6.65563">
        <ele>1279.6520996</ele>
        <time>2010-10-30T12:53:34Z</time>
      </trkpt>
      <trkpt lat="44.01625" lon="6.65544">
        <ele>1273.4035645</ele>
        <time>2010-10-30T12:53:39Z</time>
      </trkpt>
      <trkpt lat="44.01633" lon="6.65529">
        <ele>1268.5969238</ele>
        <time>2010-10-30T12:53:43Z</time>
      </trkpt>
      <trkpt lat="44.01642" lon="6.65514">
        <ele>1265.2324219</ele>
        <time>2010-10-30T12:53:47Z</time>
      </trkpt>
      <trkpt lat="44.01641" lon="6.65495">
        <ele>1268.1162109</ele>
        <time>2010-10-30T12:53:52Z</time>
      </trkpt>
      <trkpt lat="44.01641" lon="6.65481">
        <ele>1267.1550293</ele>
        <time>2010-10-30T12:53:56Z</time>
      </trkpt>
      <trkpt lat="44.01641" lon="6.65464">
        <ele>1265.7131348</ele>
        <time>2010-10-30T12:54:01Z</time>
      </trkpt>
      <trkpt lat="44.01641" lon="6.65461">
        <ele>1263.7902832</ele>
        <time>2010-10-30T12:54:03Z</time>
      </trkpt>
      <trkpt lat="44.01643" lon="6.65453">
        <ele>1263.3098145</ele>
        <time>2010-10-30T12:54:08Z</time>
      </trkpt>
      <trkpt lat="44.01647" lon="6.65429">
        <ele>1266.6743164</ele>
        <time>2010-10-30T12:54:15Z</time>
      </trkpt>
      <trkpt lat="44.01648" lon="6.65425">
        <ele>1266.1936035</ele>
        <time>2010-10-30T12:54:16Z</time>
      </trkpt>
      <trkpt lat="44.01655" lon="6.65399">
        <ele>1264.2709961</ele>
        <time>2010-10-30T12:54:22Z</time>
      </trkpt>
      <trkpt lat="44.01655" lon="6.65396">
        <ele>1263.3098145</ele>
        <time>2010-10-30T12:54:23Z</time>
      </trkpt>
      <trkpt lat="44.01654" lon="6.65375">
        <ele>1262.8291016</ele>
        <time>2010-10-30T12:54:27Z</time>
      </trkpt>
      <trkpt lat="44.01654" lon="6.65343">
        <ele>1259.4643555</ele>
        <time>2010-10-30T12:54:33Z</time>
      </trkpt>
      <trkpt lat="44.01655" lon="6.65338">
        <ele>1257.541748</ele>
        <time>2010-10-30T12:54:34Z</time>
      </trkpt>
      <trkpt lat="44.01668" lon="6.65322">
        <ele>1251.7739258</ele>
        <time>2010-10-30T12:54:38Z</time>
      </trkpt>
      <trkpt lat="44.01677" lon="6.65319">
        <ele>1245.5253906</ele>
        <time>2010-10-30T12:54:41Z</time>
      </trkpt>
      <trkpt lat="44.01683" lon="6.65316">
        <ele>1242.1606445</ele>
        <time>2010-10-30T12:54:43Z</time>
      </trkpt>
      <trkpt lat="44.01691" lon="6.6531">
        <ele>1232.5476074</ele>
        <time>2010-10-30T12:54:48Z</time>
      </trkpt>
      <trkpt lat="44.01704" lon="6.65305">
        <ele>1228.2216797</ele>
        <time>2010-10-30T12:54:52Z</time>
      </trkpt>
      <trkpt lat="44.0172" lon="6.65294">
        <ele>1226.779541</ele>
        <time>2010-10-30T12:54:57Z</time>
      </trkpt>
      <trkpt lat="44.01719" lon="6.65271">
        <ele>1229.6635742</ele>
        <time>2010-10-30T12:55:01Z</time>
      </trkpt>
      <trkpt lat="44.0172" lon="6.65252">
        <ele>1227.7407227</ele>
        <time>2010-10-30T12:55:06Z</time>
      </trkpt>
      <trkpt lat="44.01717" lon="6.65249">
        <ele>1226.779541</ele>
        <time>2010-10-30T12:55:10Z</time>
      </trkpt>
      <trkpt lat="44.01712" lon="6.65251">
        <ele>1222.4536133</ele>
        <time>2010-10-30T12:55:14Z</time>
      </trkpt>
      <trkpt lat="44.01709" lon="6.65256">
        <ele>1222.9343262</ele>
        <time>2010-10-30T12:55:17Z</time>
      </trkpt>
      <trkpt lat="44.01707" lon="6.65254">
        <ele>1223.4150391</ele>
        <time>2010-10-30T12:55:19Z</time>
      </trkpt>
      <trkpt lat="44.01701" lon="6.65248">
        <ele>1221.0117188</ele>
        <time>2010-10-30T12:55:24Z</time>
      </trkpt>
      <trkpt lat="44.01695" lon="6.65251">
        <ele>1219.5698242</ele>
        <time>2010-10-30T12:55:29Z</time>
      </trkpt>
      <trkpt lat="44.01687" lon="6.65235">
        <ele>1220.050293</ele>
        <time>2010-10-30T12:55:35Z</time>
      </trkpt>
      <trkpt lat="44.01683" lon="6.65228">
        <ele>1218.6083984</ele>
        <time>2010-10-30T12:55:37Z</time>
      </trkpt>
      <trkpt lat="44.01667" lon="6.65226">
        <ele>1214.7631836</ele>
        <time>2010-10-30T12:55:42Z</time>
      </trkpt>
      <trkpt lat="44.0166" lon="6.65219">
        <ele>1214.7631836</ele>
        <time>2010-10-30T12:55:44Z</time>
      </trkpt>
      <trkpt lat="44.01654" lon="6.65213">
        <ele>1212.8405762</ele>
        <time>2010-10-30T12:55:46Z</time>
      </trkpt>
      <trkpt lat="44.01638" lon="6.65212">
        <ele>1210.4370117</ele>
        <time>2010-10-30T12:55:50Z</time>
      </trkpt>
      <trkpt lat="44.01626" lon="6.65209">
        <ele>1208.9951172</ele>
        <time>2010-10-30T12:55:54Z</time>
      </trkpt>
      <trkpt lat="44.01627" lon="6.65214">
        <ele>1208.5144043</ele>
        <time>2010-10-30T12:55:56Z</time>
      </trkpt>
      <trkpt lat="44.01619" lon="6.65216">
        <ele>1205.6306152</ele>
        <time>2010-10-30T12:56:01Z</time>
      </trkpt>
      <trkpt lat="44.01616" lon="6.65213">
        <ele>1206.5917969</ele>
        <time>2010-10-30T12:56:02Z</time>
      </trkpt>
      <trkpt lat="44.01601" lon="6.65202">
        <ele>1207.0725098</ele>
        <time>2010-10-30T12:56:07Z</time>
      </trkpt>
      <trkpt lat="44.01587" lon="6.65201">
        <ele>1202.746582</ele>
        <time>2010-10-30T12:56:12Z</time>
      </trkpt>
      <trkpt lat="44.01584" lon="6.65205">
        <ele>1199.862793</ele>
        <time>2010-10-30T12:56:14Z</time>
      </trkpt>
      <trkpt lat="44.0157" lon="6.65222">
        <ele>1196.498291</ele>
        <time>2010-10-30T12:56:19Z</time>
      </trkpt>
      <trkpt lat="44.01548" lon="6.6521">
        <ele>1201.7854004</ele>
        <time>2010-10-30T12:56:23Z</time>
      </trkpt>
      <trkpt lat="44.01519" lon="6.65191">
        <ele>1200.8239746</ele>
        <time>2010-10-30T12:56:28Z</time>
      </trkpt>
      <trkpt lat="44.01498" lon="6.6517">
        <ele>1204.1887207</ele>
        <time>2010-10-30T12:56:32Z</time>
      </trkpt>
      <trkpt lat="44.01493" lon="6.65162">
        <ele>1203.7080078</ele>
        <time>2010-10-30T12:56:33Z</time>
      </trkpt>
      <trkpt lat="44.01487" lon="6.65144">
        <ele>1202.746582</ele>
        <time>2010-10-30T12:56:35Z</time>
      </trkpt>
      <trkpt lat="44.01486" lon="6.65127">
        <ele>1200.8239746</ele>
        <time>2010-10-30T12:56:37Z</time>
      </trkpt>
      <trkpt lat="44.01498" lon="6.6511">
        <ele>1203.2272949</ele>
        <time>2010-10-30T12:56:41Z</time>
      </trkpt>
      <trkpt lat="44.01502" lon="6.65101">
        <ele>1200.3435059</ele>
        <time>2010-10-30T12:56:43Z</time>
      </trkpt>
      <trkpt lat="44.01517" lon="6.65081">
        <ele>1193.6140137</ele>
        <time>2010-10-30T12:56:49Z</time>
      </trkpt>
      <trkpt lat="44.01524" lon="6.65068">
        <ele>1190.2495117</ele>
        <time>2010-10-30T12:56:52Z</time>
      </trkpt>
      <trkpt lat="44.01525" lon="6.65063">
        <ele>1184.0009766</ele>
        <time>2010-10-30T12:56:57Z</time>
      </trkpt>
      <trkpt lat="44.01529" lon="6.65064">
        <ele>1180.1557617</ele>
        <time>2010-10-30T12:57:06Z</time>
      </trkpt>
      <trkpt lat="44.0153" lon="6.65057">
        <ele>1187.3654785</ele>
        <time>2010-10-30T12:57:38Z</time>
      </trkpt>
      <trkpt lat="44.01534" lon="6.65044">
        <ele>1187.3654785</ele>
        <time>2010-10-30T12:57:43Z</time>
      </trkpt>
      <trkpt lat="44.01537" lon="6.65018">
        <ele>1189.2880859</ele>
        <time>2010-10-30T12:57:48Z</time>
      </trkpt>
      <trkpt lat="44.01543" lon="6.64994">
        <ele>1186.8847656</ele>
        <time>2010-10-30T12:57:53Z</time>
      </trkpt>
      <trkpt lat="44.01547" lon="6.64978">
        <ele>1185.4428711</ele>
        <time>2010-10-30T12:57:57Z</time>
      </trkpt>
      <trkpt lat="44.01547" lon="6.64958">
        <ele>1179.1940918</ele>
        <time>2010-10-30T12:58:02Z</time>
      </trkpt>
      <trkpt lat="44.01545" lon="6.64928">
        <ele>1173.4265137</ele>
        <time>2010-10-30T12:58:07Z</time>
      </trkpt>
      <trkpt lat="44.01544" lon="6.64918">
        <ele>1173.9069824</ele>
        <time>2010-10-30T12:58:09Z</time>
      </trkpt>
      <trkpt lat="44.01552" lon="6.64901">
        <ele>1169.5812988</ele>
        <time>2010-10-30T12:58:13Z</time>
      </trkpt>
      <trkpt lat="44.01564" lon="6.64883">
        <ele>1166.6972656</ele>
        <time>2010-10-30T12:58:17Z</time>
      </trkpt>
      <trkpt lat="44.01566" lon="6.64883">
        <ele>1164.2939453</ele>
        <time>2010-10-30T12:58:19Z</time>
      </trkpt>
      <trkpt lat="44.01575" lon="6.64872">
        <ele>1166.2165527</ele>
        <time>2010-10-30T12:58:24Z</time>
      </trkpt>
      <trkpt lat="44.01578" lon="6.64863">
        <ele>1163.3325195</ele>
        <time>2010-10-30T12:58:27Z</time>
      </trkpt>
      <trkpt lat="44.01583" lon="6.64851">
        <ele>1159.0065918</ele>
        <time>2010-10-30T12:58:32Z</time>
      </trkpt>
      <trkpt lat="44.01584" lon="6.64849">
        <ele>1158.5258789</ele>
        <time>2010-10-30T12:58:33Z</time>
      </trkpt>
      <trkpt lat="44.01596" lon="6.64833">
        <ele>1151.3161621</ele>
        <time>2010-10-30T12:58:39Z</time>
      </trkpt>
      <trkpt lat="44.01613" lon="6.64819">
        <ele>1150.8354492</ele>
        <time>2010-10-30T12:58:44Z</time>
      </trkpt>
      <trkpt lat="44.01614" lon="6.64814">
        <ele>1150.8354492</ele>
        <time>2010-10-30T12:58:45Z</time>
      </trkpt>
      <trkpt lat="44.01613" lon="6.64809">
        <ele>1149.8742676</ele>
        <time>2010-10-30T12:58:47Z</time>
      </trkpt>
      <trkpt lat="44.01606" lon="6.64798">
        <ele>1143.6254883</ele>
        <time>2010-10-30T12:58:51Z</time>
      </trkpt>
      <trkpt lat="44.01594" lon="6.64797">
        <ele>1138.8190918</ele>
        <time>2010-10-30T12:58:56Z</time>
      </trkpt>
      <trkpt lat="44.01585" lon="6.64796">
        <ele>1136.8962402</ele>
        <time>2010-10-30T12:58:59Z</time>
      </trkpt>
      <trkpt lat="44.0158" lon="6.64792">
        <ele>1134.973877</ele>
        <time>2010-10-30T12:59:01Z</time>
      </trkpt>
      <trkpt lat="44.01576" lon="6.6478">
        <ele>1134.973877</ele>
        <time>2010-10-30T12:59:05Z</time>
      </trkpt>
      <trkpt lat="44.0158" lon="6.64766">
        <ele>1134.4931641</ele>
        <time>2010-10-30T12:59:09Z</time>
      </trkpt>
      <trkpt lat="44.01582" lon="6.64759">
        <ele>1134.0124512</ele>
        <time>2010-10-30T12:59:11Z</time>
      </trkpt>
      <trkpt lat="44.01593" lon="6.64757">
        <ele>1127.7636719</ele>
        <time>2010-10-30T12:59:16Z</time>
      </trkpt>
      <trkpt lat="44.01599" lon="6.64756">
        <ele>1127.2832031</ele>
        <time>2010-10-30T12:59:18Z</time>
      </trkpt>
      <trkpt lat="44.01626" lon="6.64758">
        <ele>1124.3991699</ele>
        <time>2010-10-30T12:59:24Z</time>
      </trkpt>
      <trkpt lat="44.01629" lon="6.64759">
        <ele>1123.918457</ele>
        <time>2010-10-30T12:59:25Z</time>
      </trkpt>
      <trkpt lat="44.01646" lon="6.64754">
        <ele>1121.034668</ele>
        <time>2010-10-30T12:59:29Z</time>
      </trkpt>
      <trkpt lat="44.01664" lon="6.64746">
        <ele>1120.0732422</ele>
        <time>2010-10-30T12:59:34Z</time>
      </trkpt>
      <trkpt lat="44.01676" lon="6.64742">
        <ele>1121.5151367</ele>
        <time>2010-10-30T12:59:38Z</time>
      </trkpt>
      <trkpt lat="44.01682" lon="6.64733">
        <ele>1122.4765625</ele>
        <time>2010-10-30T12:59:43Z</time>
      </trkpt>
      <trkpt lat="44.01683" lon="6.64736">
        <ele>1102.7695312</ele>
        <time>2010-10-30T13:00:05Z</time>
      </trkpt>
      <trkpt lat="44.01683" lon="6.64735">
        <ele>1102.7695312</ele>
        <time>2010-10-30T13:00:14Z</time>
      </trkpt>
      <trkpt lat="44.01686" lon="6.64731">
        <ele>1106.6147461</ele>
        <time>2010-10-30T13:00:18Z</time>
      </trkpt>
      <trkpt lat="44.01699" lon="6.64718">
        <ele>1108.5373535</ele>
        <time>2010-10-30T13:00:22Z</time>
      </trkpt>
      <trkpt lat="44.01703" lon="6.64715">
        <ele>1108.0568848</ele>
        <time>2010-10-30T13:00:23Z</time>
      </trkpt>
      <trkpt lat="44.01725" lon="6.64706">
        <ele>1111.9020996</ele>
        <time>2010-10-30T13:00:28Z</time>
      </trkpt>
      <trkpt lat="44.01745" lon="6.64702">
        <ele>1114.3051758</ele>
        <time>2010-10-30T13:00:32Z</time>
      </trkpt>
      <trkpt lat="44.01766" lon="6.64702">
        <ele>1115.2666016</ele>
        <time>2010-10-30T13:00:36Z</time>
      </trkpt>
      <trkpt lat="44.01781" lon="6.64696">
        <ele>1118.1506348</ele>
        <time>2010-10-30T13:00:41Z</time>
      </trkpt>
      <trkpt lat="44.01795" lon="6.64695">
        <ele>1117.6699219</ele>
        <time>2010-10-30T13:00:45Z</time>
      </trkpt>
      <trkpt lat="44.01798" lon="6.64695">
        <ele>1116.7087402</ele>
        <time>2010-10-30T13:00:48Z</time>
      </trkpt>
      <trkpt lat="44.01805" lon="6.64693">
        <ele>1114.3051758</ele>
        <time>2010-10-30T13:00:55Z</time>
      </trkpt>
      <trkpt lat="44.01807" lon="6.64692">
        <ele>1113.8244629</ele>
        <time>2010-10-30T13:00:56Z</time>
      </trkpt>
      <trkpt lat="44.01814" lon="6.64684">
        <ele>1108.0568848</ele>
        <time>2010-10-30T13:01:01Z</time>
      </trkpt>
      <trkpt lat="44.01825" lon="6.6468">
        <ele>1105.6535645</ele>
        <time>2010-10-30T13:01:06Z</time>
      </trkpt>
      <trkpt lat="44.01826" lon="6.64679">
        <ele>1104.6921387</ele>
        <time>2010-10-30T13:01:07Z</time>
      </trkpt>
      <trkpt lat="44.01837" lon="6.64671">
        <ele>1102.2888184</ele>
        <time>2010-10-30T13:01:11Z</time>
      </trkpt>
      <trkpt lat="44.01849" lon="6.6467">
        <ele>1097.4821777</ele>
        <time>2010-10-30T13:01:16Z</time>
      </trkpt>
      <trkpt lat="44.01863" lon="6.64658">
        <ele>1095.0788574</ele>
        <time>2010-10-30T13:01:22Z</time>
      </trkpt>
      <trkpt lat="44.01873" lon="6.64666">
        <ele>1094.5981445</ele>
        <time>2010-10-30T13:01:25Z</time>
      </trkpt>
      <trkpt lat="44.01881" lon="6.64677">
        <ele>1094.5981445</ele>
        <time>2010-10-30T13:01:29Z</time>
      </trkpt>
      <trkpt lat="44.01888" lon="6.64678">
        <ele>1093.15625</ele>
        <time>2010-10-30T13:01:33Z</time>
      </trkpt>
      <trkpt lat="44.01892" lon="6.64677">
        <ele>1094.1176758</ele>
        <time>2010-10-30T13:01:34Z</time>
      </trkpt>
      <trkpt lat="44.01907" lon="6.6468">
        <ele>1094.1176758</ele>
        <time>2010-10-30T13:01:41Z</time>
      </trkpt>
      <trkpt lat="44.01911" lon="6.64686">
        <ele>1089.3110352</ele>
        <time>2010-10-30T13:01:46Z</time>
      </trkpt>
      <trkpt lat="44.01912" lon="6.64682">
        <ele>1089.3110352</ele>
        <time>2010-10-30T13:01:57Z</time>
      </trkpt>
      <trkpt lat="44.01916" lon="6.64677">
        <ele>1088.3498535</ele>
        <time>2010-10-30T13:02:04Z</time>
      </trkpt>
      <trkpt lat="44.01918" lon="6.64676">
        <ele>1088.8305664</ele>
        <time>2010-10-30T13:02:05Z</time>
      </trkpt>
      <trkpt lat="44.01936" lon="6.64666">
        <ele>1087.3884277</ele>
        <time>2010-10-30T13:02:12Z</time>
      </trkpt>
      <trkpt lat="44.01939" lon="6.64664">
        <ele>1084.9853516</ele>
        <time>2010-10-30T13:02:13Z</time>
      </trkpt>
      <trkpt lat="44.01962" lon="6.6467">
        <ele>1087.8691406</ele>
        <time>2010-10-30T13:02:18Z</time>
      </trkpt>
      <trkpt lat="44.01964" lon="6.64671">
        <ele>1087.8691406</ele>
        <time>2010-10-30T13:02:19Z</time>
      </trkpt>
      <trkpt lat="44.01974" lon="6.64684">
        <ele>1087.8691406</ele>
        <time>2010-10-30T13:02:26Z</time>
      </trkpt>
      <trkpt lat="44.01979" lon="6.64691">
        <ele>1088.8305664</ele>
        <time>2010-10-30T13:02:31Z</time>
      </trkpt>
      <trkpt lat="44.0198" lon="6.64694">
        <ele>1088.8305664</ele>
        <time>2010-10-30T13:02:37Z</time>
      </trkpt>
      <trkpt lat="44.01983" lon="6.64698">
        <ele>1087.8691406</ele>
        <time>2010-10-30T13:02:42Z</time>
      </trkpt>
      <trkpt lat="44.01985" lon="6.64701">
        <ele>1086.4272461</ele>
        <time>2010-10-30T13:02:48Z</time>
      </trkpt>
      <trkpt lat="44.01987" lon="6.64703">
        <ele>1085.4658203</ele>
        <time>2010-10-30T13:02:50Z</time>
      </trkpt>
      <trkpt lat="44.01993" lon="6.64704">
        <ele>1087.8691406</ele>
        <time>2010-10-30T13:02:54Z</time>
      </trkpt>
      <trkpt lat="44.02002" lon="6.64711">
        <ele>1089.791748</ele>
        <time>2010-10-30T13:03:02Z</time>
      </trkpt>
      <trkpt lat="44.02009" lon="6.64712">
        <ele>1088.3498535</ele>
        <time>2010-10-30T13:03:08Z</time>
      </trkpt>
      <trkpt lat="44.02013" lon="6.64711">
        <ele>1087.3884277</ele>
        <time>2010-10-30T13:03:12Z</time>
      </trkpt>
      <trkpt lat="44.02017" lon="6.64709">
        <ele>1086.9077148</ele>
        <time>2010-10-30T13:03:17Z</time>
      </trkpt>
      <trkpt lat="44.0202" lon="6.64706">
        <ele>1086.4272461</ele>
        <time>2010-10-30T13:03:21Z</time>
      </trkpt>
      <trkpt lat="44.02027" lon="6.64702">
        <ele>1084.5046387</ele>
        <time>2010-10-30T13:03:26Z</time>
      </trkpt>
      <trkpt lat="44.02029" lon="6.64703">
        <ele>1081.6203613</ele>
        <time>2010-10-30T13:03:32Z</time>
      </trkpt>
      <trkpt lat="44.02031" lon="6.64701">
        <ele>1081.1398926</ele>
        <time>2010-10-30T13:03:36Z</time>
      </trkpt>
      <trkpt lat="44.02039" lon="6.64694">
        <ele>1077.7751465</ele>
        <time>2010-10-30T13:03:43Z</time>
      </trkpt>
      <trkpt lat="44.02044" lon="6.64688">
        <ele>1074.4106445</ele>
        <time>2010-10-30T13:03:49Z</time>
      </trkpt>
      <trkpt lat="44.02055" lon="6.64672">
        <ele>1072.96875</ele>
        <time>2010-10-30T13:03:55Z</time>
      </trkpt>
      <trkpt lat="44.02072" lon="6.64657">
        <ele>1073.4494629</ele>
        <time>2010-10-30T13:04:00Z</time>
      </trkpt>
      <trkpt lat="44.02077" lon="6.64651">
        <ele>1072.4880371</ele>
        <time>2010-10-30T13:04:02Z</time>
      </trkpt>
      <trkpt lat="44.02091" lon="6.64637">
        <ele>1070.5654297</ele>
        <time>2010-10-30T13:04:06Z</time>
      </trkpt>
      <trkpt lat="44.02107" lon="6.64628">
        <ele>1066.2392578</ele>
        <time>2010-10-30T13:04:11Z</time>
      </trkpt>
      <trkpt lat="44.02121" lon="6.64625">
        <ele>1059.9907227</ele>
        <time>2010-10-30T13:04:15Z</time>
      </trkpt>
      <trkpt lat="44.0213" lon="6.64624">
        <ele>1056.6262207</ele>
        <time>2010-10-30T13:04:17Z</time>
      </trkpt>
      <trkpt lat="44.02152" lon="6.64616">
        <ele>1053.2617188</ele>
        <time>2010-10-30T13:04:23Z</time>
      </trkpt>
      <trkpt lat="44.02154" lon="6.64612">
        <ele>1053.7424316</ele>
        <time>2010-10-30T13:04:24Z</time>
      </trkpt>
      <trkpt lat="44.02155" lon="6.64602">
        <ele>1058.0683594</ele>
        <time>2010-10-30T13:04:29Z</time>
      </trkpt>
      <trkpt lat="44.02155" lon="6.646">
        <ele>1055.1843262</ele>
        <time>2010-10-30T13:04:35Z</time>
      </trkpt>
      <trkpt lat="44.02161" lon="6.64595">
        <ele>1059.029541</ele>
        <time>2010-10-30T13:05:49Z</time>
      </trkpt>
      <trkpt lat="44.02158" lon="6.646">
        <ele>1065.7587891</ele>
        <time>2010-10-30T13:06:03Z</time>
      </trkpt>
      <trkpt lat="44.02151" lon="6.64599">
        <ele>1073.4494629</ele>
        <time>2010-10-30T13:06:15Z</time>
      </trkpt>
      <trkpt lat="44.0215" lon="6.64599">
        <ele>1074.8913574</ele>
        <time>2010-10-30T13:06:16Z</time>
      </trkpt>
      <trkpt lat="44.02141" lon="6.64588">
        <ele>1083.0622559</ele>
        <time>2010-10-30T13:06:23Z</time>
      </trkpt>
      <trkpt lat="44.02132" lon="6.6458">
        <ele>1079.6977539</ele>
        <time>2010-10-30T13:06:29Z</time>
      </trkpt>
      <trkpt lat="44.0212" lon="6.64574">
        <ele>1085.9465332</ele>
        <time>2010-10-30T13:06:36Z</time>
      </trkpt>
      <trkpt lat="44.02107" lon="6.64564">
        <ele>1079.6977539</ele>
        <time>2010-10-30T13:06:43Z</time>
      </trkpt>
      <trkpt lat="44.02103" lon="6.64562">
        <ele>1078.7365723</ele>
        <time>2010-10-30T13:06:45Z</time>
      </trkpt>
      <trkpt lat="44.02093" lon="6.64554">
        <ele>1078.2558594</ele>
        <time>2010-10-30T13:06:51Z</time>
      </trkpt>
      <trkpt lat="44.02088" lon="6.64547">
        <ele>1078.2558594</ele>
        <time>2010-10-30T13:06:55Z</time>
      </trkpt>
      <trkpt lat="44.02089" lon="6.64522">
        <ele>1077.7751465</ele>
        <time>2010-10-30T13:07:03Z</time>
      </trkpt>
      <trkpt lat="44.02089" lon="6.64506">
        <ele>1079.217041</ele>
        <time>2010-10-30T13:07:10Z</time>
      </trkpt>
      <trkpt lat="44.02082" lon="6.64488">
        <ele>1078.7365723</ele>
        <time>2010-10-30T13:07:16Z</time>
      </trkpt>
      <trkpt lat="44.02075" lon="6.64473">
        <ele>1087.3884277</ele>
        <time>2010-10-30T13:07:23Z</time>
      </trkpt>
      <trkpt lat="44.02066" lon="6.64464">
        <ele>1094.1176758</ele>
        <time>2010-10-30T13:07:29Z</time>
      </trkpt>
      <trkpt lat="44.02057" lon="6.64452">
        <ele>1089.3110352</ele>
        <time>2010-10-30T13:07:35Z</time>
      </trkpt>
      <trkpt lat="44.02048" lon="6.64436">
        <ele>1082.5817871</ele>
        <time>2010-10-30T13:07:42Z</time>
      </trkpt>
      <trkpt lat="44.02036" lon="6.64421">
        <ele>1083.0622559</ele>
        <time>2010-10-30T13:07:47Z</time>
      </trkpt>
      <trkpt lat="44.02025" lon="6.64407">
        <ele>1088.3498535</ele>
        <time>2010-10-30T13:07:52Z</time>
      </trkpt>
      <trkpt lat="44.02008" lon="6.6439">
        <ele>1086.4272461</ele>
        <time>2010-10-30T13:07:58Z</time>
      </trkpt>
      <trkpt lat="44.01985" lon="6.64378">
        <ele>1089.791748</ele>
        <time>2010-10-30T13:08:03Z</time>
      </trkpt>
      <trkpt lat="44.01964" lon="6.64366">
        <ele>1092.1950684</ele>
        <time>2010-10-30T13:08:09Z</time>
      </trkpt>
      <trkpt lat="44.01946" lon="6.64356">
        <ele>1091.2336426</ele>
        <time>2010-10-30T13:08:15Z</time>
      </trkpt>
      <trkpt lat="44.01936" lon="6.64342">
        <ele>1091.2336426</ele>
        <time>2010-10-30T13:08:19Z</time>
      </trkpt>
      <trkpt lat="44.01922" lon="6.64326">
        <ele>1089.791748</ele>
        <time>2010-10-30T13:08:24Z</time>
      </trkpt>
      <trkpt lat="44.01906" lon="6.64304">
        <ele>1087.8691406</ele>
        <time>2010-10-30T13:08:30Z</time>
      </trkpt>
      <trkpt lat="44.01899" lon="6.64275">
        <ele>1088.8305664</ele>
        <time>2010-10-30T13:08:36Z</time>
      </trkpt>
      <trkpt lat="44.01895" lon="6.64248">
        <ele>1090.7529297</ele>
        <time>2010-10-30T13:08:41Z</time>
      </trkpt>
      <trkpt lat="44.01893" lon="6.64228">
        <ele>1087.8691406</ele>
        <time>2010-10-30T13:08:44Z</time>
      </trkpt>
      <trkpt lat="44.01884" lon="6.64205">
        <ele>1084.5046387</ele>
        <time>2010-10-30T13:08:47Z</time>
      </trkpt>
      <trkpt lat="44.01885" lon="6.64176">
        <ele>1084.9853516</ele>
        <time>2010-10-30T13:08:51Z</time>
      </trkpt>
      <trkpt lat="44.01887" lon="6.6417">
        <ele>1084.5046387</ele>
        <time>2010-10-30T13:08:52Z</time>
      </trkpt>
      <trkpt lat="44.01892" lon="6.64158">
        <ele>1084.0239258</ele>
        <time>2010-10-30T13:08:54Z</time>
      </trkpt>
      <trkpt lat="44.01897" lon="6.6412">
        <ele>1083.5429688</ele>
        <time>2010-10-30T13:09:00Z</time>
      </trkpt>
      <trkpt lat="44.01893" lon="6.64098">
        <ele>1079.6977539</ele>
        <time>2010-10-30T13:09:04Z</time>
      </trkpt>
      <trkpt lat="44.0188" lon="6.64081">
        <ele>1076.8139648</ele>
        <time>2010-10-30T13:09:07Z</time>
      </trkpt>
      <trkpt lat="44.01852" lon="6.64053">
        <ele>1068.6428223</ele>
        <time>2010-10-30T13:09:13Z</time>
      </trkpt>
      <trkpt lat="44.01847" lon="6.64047">
        <ele>1064.7973633</ele>
        <time>2010-10-30T13:09:16Z</time>
      </trkpt>
      <trkpt lat="44.01847" lon="6.64045">
        <ele>1061.9135742</ele>
        <time>2010-10-30T13:09:20Z</time>
      </trkpt>
      <trkpt lat="44.01853" lon="6.64043">
        <ele>1070.0847168</ele>
        <time>2010-10-30T13:09:40Z</time>
      </trkpt>
      <trkpt lat="44.01853" lon="6.64038">
        <ele>1069.604248</ele>
        <time>2010-10-30T13:09:45Z</time>
      </trkpt>
      <trkpt lat="44.01853" lon="6.64037">
        <ele>1068.1621094</ele>
        <time>2010-10-30T13:09:49Z</time>
      </trkpt>
      <trkpt lat="44.01861" lon="6.64023">
        <ele>1068.1621094</ele>
        <time>2010-10-30T13:09:53Z</time>
      </trkpt>
      <trkpt lat="44.01874" lon="6.64004">
        <ele>1069.1235352</ele>
        <time>2010-10-30T13:09:59Z</time>
      </trkpt>
      <trkpt lat="44.01886" lon="6.63984">
        <ele>1069.1235352</ele>
        <time>2010-10-30T13:10:04Z</time>
      </trkpt>
      <trkpt lat="44.01908" lon="6.63961">
        <ele>1066.2392578</ele>
        <time>2010-10-30T13:10:11Z</time>
      </trkpt>
      <trkpt lat="44.01924" lon="6.63962">
        <ele>1065.2780762</ele>
        <time>2010-10-30T13:10:15Z</time>
      </trkpt>
      <trkpt lat="44.01935" lon="6.63946">
        <ele>1064.3166504</ele>
        <time>2010-10-30T13:10:19Z</time>
      </trkpt>
      <trkpt lat="44.01941" lon="6.63924">
        <ele>1065.7587891</ele>
        <time>2010-10-30T13:10:23Z</time>
      </trkpt>
      <trkpt lat="44.01955" lon="6.63898">
        <ele>1067.6811523</ele>
        <time>2010-10-30T13:10:30Z</time>
      </trkpt>
      <trkpt lat="44.01972" lon="6.6387">
        <ele>1068.6428223</ele>
        <time>2010-10-30T13:10:37Z</time>
      </trkpt>
      <trkpt lat="44.01986" lon="6.63854">
        <ele>1068.1621094</ele>
        <time>2010-10-30T13:10:42Z</time>
      </trkpt>
      <trkpt lat="44.01997" lon="6.63843">
        <ele>1067.2006836</ele>
        <time>2010-10-30T13:10:45Z</time>
      </trkpt>
      <trkpt lat="44.02019" lon="6.6381">
        <ele>1063.3554688</ele>
        <time>2010-10-30T13:10:51Z</time>
      </trkpt>
      <trkpt lat="44.02045" lon="6.63766">
        <ele>1058.5488281</ele>
        <time>2010-10-30T13:10:58Z</time>
      </trkpt>
      <trkpt lat="44.02054" lon="6.63754">
        <ele>1057.5876465</ele>
        <time>2010-10-30T13:11:00Z</time>
      </trkpt>
      <trkpt lat="44.02075" lon="6.63707">
        <ele>1054.2231445</ele>
        <time>2010-10-30T13:11:06Z</time>
      </trkpt>
      <trkpt lat="44.02093" lon="6.6366">
        <ele>1050.8581543</ele>
        <time>2010-10-30T13:11:11Z</time>
      </trkpt>
      <trkpt lat="44.02113" lon="6.63605">
        <ele>1047.0129395</ele>
        <time>2010-10-30T13:11:16Z</time>
      </trkpt>
      <trkpt lat="44.0214" lon="6.63552">
        <ele>1043.1677246</ele>
        <time>2010-10-30T13:11:21Z</time>
      </trkpt>
      <trkpt lat="44.0216" lon="6.63493">
        <ele>1039.8032227</ele>
        <time>2010-10-30T13:11:26Z</time>
      </trkpt>
      <trkpt lat="44.02169" lon="6.63462">
        <ele>1035.9577637</ele>
        <time>2010-10-30T13:11:29Z</time>
      </trkpt>
      <trkpt lat="44.02176" lon="6.63449">
        <ele>1032.5932617</ele>
        <time>2010-10-30T13:11:32Z</time>
      </trkpt>
      <trkpt lat="44.02178" lon="6.63445">
        <ele>1029.7092285</ele>
        <time>2010-10-30T13:11:35Z</time>
      </trkpt>
      <trkpt lat="44.02189" lon="6.63426">
        <ele>1023.4609375</ele>
        <time>2010-10-30T13:11:41Z</time>
      </trkpt>
      <trkpt lat="44.02211" lon="6.63401">
        <ele>1022.0187988</ele>
        <time>2010-10-30T13:11:46Z</time>
      </trkpt>
      <trkpt lat="44.02223" lon="6.63387">
        <ele>1022.0187988</ele>
        <time>2010-10-30T13:11:49Z</time>
      </trkpt>
      <trkpt lat="44.02228" lon="6.63367">
        <ele>1024.4221191</ele>
        <time>2010-10-30T13:11:53Z</time>
      </trkpt>
      <trkpt lat="44.02227" lon="6.63362">
        <ele>1024.902832</ele>
        <time>2010-10-30T13:11:54Z</time>
      </trkpt>
      <trkpt lat="44.02226" lon="6.63338">
        <ele>1030.1899414</ele>
        <time>2010-10-30T13:12:00Z</time>
      </trkpt>
      <trkpt lat="44.02218" lon="6.63332">
        <ele>1032.1125488</ele>
        <time>2010-10-30T13:12:04Z</time>
      </trkpt>
      <trkpt lat="44.02199" lon="6.63329">
        <ele>1033.5544434</ele>
        <time>2010-10-30T13:12:09Z</time>
      </trkpt>
      <trkpt lat="44.02163" lon="6.6333">
        <ele>1029.7092285</ele>
        <time>2010-10-30T13:12:17Z</time>
      </trkpt>
      <trkpt lat="44.02153" lon="6.63328">
        <ele>1028.7480469</ele>
        <time>2010-10-30T13:12:19Z</time>
      </trkpt>
      <trkpt lat="44.02139" lon="6.6332">
        <ele>1027.3061523</ele>
        <time>2010-10-30T13:12:22Z</time>
      </trkpt>
      <trkpt lat="44.02114" lon="6.63313">
        <ele>1027.3061523</ele>
        <time>2010-10-30T13:12:27Z</time>
      </trkpt>
      <trkpt lat="44.02097" lon="6.63315">
        <ele>1026.8254395</ele>
        <time>2010-10-30T13:12:32Z</time>
      </trkpt>
      <trkpt lat="44.02092" lon="6.63315">
        <ele>1026.3447266</ele>
        <time>2010-10-30T13:12:33Z</time>
      </trkpt>
      <trkpt lat="44.02074" lon="6.63323">
        <ele>1025.3833008</ele>
        <time>2010-10-30T13:12:36Z</time>
      </trkpt>
      <trkpt lat="44.02048" lon="6.63326">
        <ele>1024.4221191</ele>
        <time>2010-10-30T13:12:40Z</time>
      </trkpt>
      <trkpt lat="44.02042" lon="6.63324">
        <ele>1023.4609375</ele>
        <time>2010-10-30T13:12:41Z</time>
      </trkpt>
      <trkpt lat="44.02015" lon="6.6332">
        <ele>1019.1347656</ele>
        <time>2010-10-30T13:12:46Z</time>
      </trkpt>
      <trkpt lat="44.02005" lon="6.63323">
        <ele>1018.1733398</ele>
        <time>2010-10-30T13:12:48Z</time>
      </trkpt>
      <trkpt lat="44.01974" lon="6.63345">
        <ele>1019.1347656</ele>
        <time>2010-10-30T13:12:54Z</time>
      </trkpt>
      <trkpt lat="44.01954" lon="6.63351">
        <ele>1016.7314453</ele>
        <time>2010-10-30T13:12:58Z</time>
      </trkpt>
      <trkpt lat="44.01945" lon="6.63355">
        <ele>1014.8088379</ele>
        <time>2010-10-30T13:13:00Z</time>
      </trkpt>
      <trkpt lat="44.01928" lon="6.63353">
        <ele>1012.8862305</ele>
        <time>2010-10-30T13:13:04Z</time>
      </trkpt>
      <trkpt lat="44.01924" lon="6.63351">
        <ele>1011.9250488</ele>
        <time>2010-10-30T13:13:05Z</time>
      </trkpt>
      <trkpt lat="44.019" lon="6.63333">
        <ele>1015.7702637</ele>
        <time>2010-10-30T13:13:13Z</time>
      </trkpt>
      <trkpt lat="44.01883" lon="6.63324">
        <ele>1018.1733398</ele>
        <time>2010-10-30T13:13:19Z</time>
      </trkpt>
      <trkpt lat="44.01869" lon="6.63313">
        <ele>1019.6154785</ele>
        <time>2010-10-30T13:13:24Z</time>
      </trkpt>
      <trkpt lat="44.0186" lon="6.6332">
        <ele>1019.6154785</ele>
        <time>2010-10-30T13:13:28Z</time>
      </trkpt>
      <trkpt lat="44.01856" lon="6.63326">
        <ele>1019.1347656</ele>
        <time>2010-10-30T13:13:34Z</time>
      </trkpt>
      <trkpt lat="44.01858" lon="6.63324">
        <ele>1020.5769043</ele>
        <time>2010-10-30T13:13:40Z</time>
      </trkpt>
      <trkpt lat="44.01866" lon="6.63318">
        <ele>1023.4609375</ele>
        <time>2010-10-30T13:13:45Z</time>
      </trkpt>
      <trkpt lat="44.01865" lon="6.63313">
        <ele>1022.9802246</ele>
        <time>2010-10-30T13:13:49Z</time>
      </trkpt>
      <trkpt lat="44.01865" lon="6.63312">
        <ele>1021.5380859</ele>
        <time>2010-10-30T13:13:54Z</time>
      </trkpt>
      <trkpt lat="44.01862" lon="6.6332">
        <ele>1021.0576172</ele>
        <time>2010-10-30T13:14:00Z</time>
      </trkpt>
      <trkpt lat="44.01851" lon="6.63324">
        <ele>1019.6154785</ele>
        <time>2010-10-30T13:14:06Z</time>
      </trkpt>
      <trkpt lat="44.01845" lon="6.63322">
        <ele>1019.6154785</ele>
        <time>2010-10-30T13:14:11Z</time>
      </trkpt>
      <trkpt lat="44.01836" lon="6.63322">
        <ele>1019.6154785</ele>
        <time>2010-10-30T13:14:15Z</time>
      </trkpt>
      <trkpt lat="44.01824" lon="6.63332">
        <ele>1018.1733398</ele>
        <time>2010-10-30T13:14:20Z</time>
      </trkpt>
      <trkpt lat="44.01809" lon="6.63348">
        <ele>1015.2895508</ele>
        <time>2010-10-30T13:14:25Z</time>
      </trkpt>
      <trkpt lat="44.01795" lon="6.63365">
        <ele>1009.5217285</ele>
        <time>2010-10-30T13:14:29Z</time>
      </trkpt>
      <trkpt lat="44.01768" lon="6.63386">
        <ele>1002.7922363</ele>
        <time>2010-10-30T13:14:35Z</time>
      </trkpt>
      <trkpt lat="44.01756" lon="6.63396">
        <ele>1000.3891602</ele>
        <time>2010-10-30T13:14:37Z</time>
      </trkpt>
      <trkpt lat="44.01745" lon="6.63408">
        <ele>998.4663086</ele>
        <time>2010-10-30T13:14:39Z</time>
      </trkpt>
      <trkpt lat="44.01723" lon="6.63416">
        <ele>995.5825195</ele>
        <time>2010-10-30T13:14:43Z</time>
      </trkpt>
      <trkpt lat="44.01702" lon="6.63422">
        <ele>993.6599121</ele>
        <time>2010-10-30T13:14:48Z</time>
      </trkpt>
      <trkpt lat="44.01697" lon="6.63433">
        <ele>992.6987305</ele>
        <time>2010-10-30T13:14:50Z</time>
      </trkpt>
      <trkpt lat="44.01673" lon="6.63455">
        <ele>990.2954102</ele>
        <time>2010-10-30T13:14:55Z</time>
      </trkpt>
      <trkpt lat="44.01667" lon="6.63456">
        <ele>990.2954102</ele>
        <time>2010-10-30T13:14:56Z</time>
      </trkpt>
      <trkpt lat="44.01648" lon="6.63458">
        <ele>989.8146973</ele>
        <time>2010-10-30T13:15:00Z</time>
      </trkpt>
      <trkpt lat="44.01625" lon="6.63464">
        <ele>991.2565918</ele>
        <time>2010-10-30T13:15:05Z</time>
      </trkpt>
      <trkpt lat="44.01611" lon="6.63469">
        <ele>990.7758789</ele>
        <time>2010-10-30T13:15:08Z</time>
      </trkpt>
      <trkpt lat="44.01591" lon="6.63479">
        <ele>989.8146973</ele>
        <time>2010-10-30T13:15:14Z</time>
      </trkpt>
      <trkpt lat="44.01589" lon="6.63482">
        <ele>989.8146973</ele>
        <time>2010-10-30T13:15:19Z</time>
      </trkpt>
      <trkpt lat="44.01583" lon="6.63482">
        <ele>989.3339844</ele>
        <time>2010-10-30T13:15:25Z</time>
      </trkpt>
      <trkpt lat="44.01581" lon="6.63483">
        <ele>988.3728027</ele>
        <time>2010-10-30T13:15:26Z</time>
      </trkpt>
      <trkpt lat="44.01576" lon="6.635">
        <ele>985.0080566</ele>
        <time>2010-10-30T13:15:31Z</time>
      </trkpt>
      <trkpt lat="44.01578" lon="6.63523">
        <ele>983.0852051</ele>
        <time>2010-10-30T13:15:35Z</time>
      </trkpt>
      <trkpt lat="44.0158" lon="6.63547">
        <ele>974.9143066</ele>
        <time>2010-10-30T13:15:40Z</time>
      </trkpt>
      <trkpt lat="44.01579" lon="6.63548">
        <ele>971.0688477</ele>
        <time>2010-10-30T13:15:45Z</time>
      </trkpt>
      <trkpt lat="44.01576" lon="6.63551">
        <ele>971.5493164</ele>
        <time>2010-10-30T13:15:52Z</time>
      </trkpt>
      <trkpt lat="44.01573" lon="6.63554">
        <ele>975.3947754</ele>
        <time>2010-10-30T13:15:57Z</time>
      </trkpt>
      <trkpt lat="44.01569" lon="6.63555">
        <ele>976.8369141</ele>
        <time>2010-10-30T13:16:03Z</time>
      </trkpt>
      <trkpt lat="44.01565" lon="6.63554">
        <ele>977.7980957</ele>
        <time>2010-10-30T13:16:07Z</time>
      </trkpt>
      <trkpt lat="44.01554" lon="6.63553">
        <ele>978.2788086</ele>
        <time>2010-10-30T13:16:14Z</time>
      </trkpt>
      <trkpt lat="44.01541" lon="6.63553">
        <ele>977.317627</ele>
        <time>2010-10-30T13:16:20Z</time>
      </trkpt>
      <trkpt lat="44.01538" lon="6.63555">
        <ele>977.317627</ele>
        <time>2010-10-30T13:16:24Z</time>
      </trkpt>
      <trkpt lat="44.01535" lon="6.63558">
        <ele>976.3562012</ele>
        <time>2010-10-30T13:16:29Z</time>
      </trkpt>
      <trkpt lat="44.01532" lon="6.63562">
        <ele>976.3562012</ele>
        <time>2010-10-30T13:16:33Z</time>
      </trkpt>
      <trkpt lat="44.01525" lon="6.63573">
        <ele>975.3947754</ele>
        <time>2010-10-30T13:16:39Z</time>
      </trkpt>
      <trkpt lat="44.01521" lon="6.63581">
        <ele>973.9528809</ele>
        <time>2010-10-30T13:16:46Z</time>
      </trkpt>
      <trkpt lat="44.0152" lon="6.63581">
        <ele>973.9528809</ele>
        <time>2010-10-30T13:16:51Z</time>
      </trkpt>
      <trkpt lat="44.01519" lon="6.63582">
        <ele>973.4724121</ele>
        <time>2010-10-30T13:16:59Z</time>
      </trkpt>
      <trkpt lat="44.01517" lon="6.63586">
        <ele>972.9916992</ele>
        <time>2010-10-30T13:17:04Z</time>
      </trkpt>
      <trkpt lat="44.01511" lon="6.63593">
        <ele>972.9916992</ele>
        <time>2010-10-30T13:17:12Z</time>
      </trkpt>
      <trkpt lat="44.01508" lon="6.63596">
        <ele>972.5109863</ele>
        <time>2010-10-30T13:17:17Z</time>
      </trkpt>
      <trkpt lat="44.01495" lon="6.63594">
        <ele>972.9916992</ele>
        <time>2010-10-30T13:17:26Z</time>
      </trkpt>
      <trkpt lat="44.0148" lon="6.63594">
        <ele>974.4335938</ele>
        <time>2010-10-30T13:17:31Z</time>
      </trkpt>
      <trkpt lat="44.01451" lon="6.63588">
        <ele>972.9916992</ele>
        <time>2010-10-30T13:17:37Z</time>
      </trkpt>
      <trkpt lat="44.01439" lon="6.63585">
        <ele>971.0688477</ele>
        <time>2010-10-30T13:17:39Z</time>
      </trkpt>
      <trkpt lat="44.01423" lon="6.63578">
        <ele>967.7041016</ele>
        <time>2010-10-30T13:17:42Z</time>
      </trkpt>
      <trkpt lat="44.01402" lon="6.63566">
        <ele>967.2236328</ele>
        <time>2010-10-30T13:17:47Z</time>
      </trkpt>
      <trkpt lat="44.01384" lon="6.63557">
        <ele>968.6655273</ele>
        <time>2010-10-30T13:17:51Z</time>
      </trkpt>
      <trkpt lat="44.01375" lon="6.63557">
        <ele>969.1462402</ele>
        <time>2010-10-30T13:17:53Z</time>
      </trkpt>
      <trkpt lat="44.01362" lon="6.63569">
        <ele>968.1848145</ele>
        <time>2010-10-30T13:17:57Z</time>
      </trkpt>
      <trkpt lat="44.01346" lon="6.63578">
        <ele>969.1462402</ele>
        <time>2010-10-30T13:18:02Z</time>
      </trkpt>
      <trkpt lat="44.01328" lon="6.63583">
        <ele>971.0688477</ele>
        <time>2010-10-30T13:18:08Z</time>
      </trkpt>
      <trkpt lat="44.01308" lon="6.63594">
        <ele>969.1462402</ele>
        <time>2010-10-30T13:18:14Z</time>
      </trkpt>
      <trkpt lat="44.01292" lon="6.63604">
        <ele>970.1074219</ele>
        <time>2010-10-30T13:18:19Z</time>
      </trkpt>
      <trkpt lat="44.0128" lon="6.63616">
        <ele>965.3010254</ele>
        <time>2010-10-30T13:18:24Z</time>
      </trkpt>
      <trkpt lat="44.01267" lon="6.63627">
        <ele>963.8588867</ele>
        <time>2010-10-30T13:18:29Z</time>
      </trkpt>
      <trkpt lat="44.01252" lon="6.63651">
        <ele>960.0136719</ele>
        <time>2010-10-30T13:18:35Z</time>
      </trkpt>
      <trkpt lat="44.01236" lon="6.6368">
        <ele>962.4169922</ele>
        <time>2010-10-30T13:18:41Z</time>
      </trkpt>
      <trkpt lat="44.01217" lon="6.63699">
        <ele>955.2070312</ele>
        <time>2010-10-30T13:18:46Z</time>
      </trkpt>
      <trkpt lat="44.01205" lon="6.63718">
        <ele>953.7651367</ele>
        <time>2010-10-30T13:18:51Z</time>
      </trkpt>
      <trkpt lat="44.01188" lon="6.63735">
        <ele>946.074707</ele>
        <time>2010-10-30T13:18:56Z</time>
      </trkpt>
      <trkpt lat="44.0118" lon="6.63761">
        <ele>939.3452148</ele>
        <time>2010-10-30T13:19:02Z</time>
      </trkpt>
      <trkpt lat="44.01173" lon="6.63779">
        <ele>935.9807129</ele>
        <time>2010-10-30T13:19:06Z</time>
      </trkpt>
      <trkpt lat="44.01172" lon="6.63798">
        <ele>932.6162109</ele>
        <time>2010-10-30T13:19:10Z</time>
      </trkpt>
      <trkpt lat="44.01173" lon="6.63814">
        <ele>931.6547852</ele>
        <time>2010-10-30T13:19:14Z</time>
      </trkpt>
      <trkpt lat="44.01174" lon="6.63842">
        <ele>928.2902832</ele>
        <time>2010-10-30T13:19:19Z</time>
      </trkpt>
      <trkpt lat="44.01172" lon="6.63855">
        <ele>924.4450684</ele>
        <time>2010-10-30T13:19:23Z</time>
      </trkpt>
      <trkpt lat="44.01165" lon="6.63859">
        <ele>926.3676758</ele>
        <time>2010-10-30T13:19:28Z</time>
      </trkpt>
      <trkpt lat="44.01152" lon="6.63856">
        <ele>934.0581055</ele>
        <time>2010-10-30T13:19:32Z</time>
      </trkpt>
      <trkpt lat="44.01149" lon="6.63857">
        <ele>934.0581055</ele>
        <time>2010-10-30T13:19:33Z</time>
      </trkpt>
      <trkpt lat="44.01138" lon="6.63856">
        <ele>933.5773926</ele>
        <time>2010-10-30T13:19:37Z</time>
      </trkpt>
      <trkpt lat="44.01129" lon="6.63857">
        <ele>931.6547852</ele>
        <time>2010-10-30T13:19:41Z</time>
      </trkpt>
      <trkpt lat="44.01123" lon="6.63855">
        <ele>930.2128906</ele>
        <time>2010-10-30T13:19:43Z</time>
      </trkpt>
      <trkpt lat="44.01108" lon="6.63859">
        <ele>925.40625</ele>
        <time>2010-10-30T13:19:48Z</time>
      </trkpt>
      <trkpt lat="44.01093" lon="6.63861">
        <ele>928.2902832</ele>
        <time>2010-10-30T13:19:52Z</time>
      </trkpt>
      <trkpt lat="44.01084" lon="6.63864">
        <ele>931.6547852</ele>
        <time>2010-10-30T13:19:55Z</time>
      </trkpt>
      <trkpt lat="44.01066" lon="6.63875">
        <ele>929.2514648</ele>
        <time>2010-10-30T13:20:01Z</time>
      </trkpt>
      <trkpt lat="44.01052" lon="6.6389">
        <ele>926.8483887</ele>
        <time>2010-10-30T13:20:06Z</time>
      </trkpt>
      <trkpt lat="44.01036" lon="6.63897">
        <ele>927.3291016</ele>
        <time>2010-10-30T13:20:10Z</time>
      </trkpt>
      <trkpt lat="44.01022" lon="6.63899">
        <ele>927.3291016</ele>
        <time>2010-10-30T13:20:14Z</time>
      </trkpt>
      <trkpt lat="44.00998" lon="6.63893">
        <ele>923.4836426</ele>
        <time>2010-10-30T13:20:20Z</time>
      </trkpt>
      <trkpt lat="44.00992" lon="6.63891">
        <ele>923.0029297</ele>
        <time>2010-10-30T13:20:21Z</time>
      </trkpt>
      <trkpt lat="44.00973" lon="6.63883">
        <ele>920.5996094</ele>
        <time>2010-10-30T13:20:26Z</time>
      </trkpt>
      <trkpt lat="44.00958" lon="6.63874">
        <ele>916.7543945</ele>
        <time>2010-10-30T13:20:30Z</time>
      </trkpt>
      <trkpt lat="44.0095" lon="6.63851">
        <ele>916.2736816</ele>
        <time>2010-10-30T13:20:34Z</time>
      </trkpt>
      <trkpt lat="44.00947" lon="6.63849">
        <ele>915.3125</ele>
        <time>2010-10-30T13:20:35Z</time>
      </trkpt>
      <trkpt lat="44.00924" lon="6.63845">
        <ele>912.4284668</ele>
        <time>2010-10-30T13:20:41Z</time>
      </trkpt>
      <trkpt lat="44.00916" lon="6.63857">
        <ele>910.5058594</ele>
        <time>2010-10-30T13:20:45Z</time>
      </trkpt>
      <trkpt lat="44.00918" lon="6.63869">
        <ele>909.5446777</ele>
        <time>2010-10-30T13:20:48Z</time>
      </trkpt>
      <trkpt lat="44.00922" lon="6.63874">
        <ele>908.583252</ele>
        <time>2010-10-30T13:20:50Z</time>
      </trkpt>
      <trkpt lat="44.00921" lon="6.6388">
        <ele>907.6218262</ele>
        <time>2010-10-30T13:20:53Z</time>
      </trkpt>
      <trkpt lat="44.00912" lon="6.63869">
        <ele>908.1027832</ele>
        <time>2010-10-30T13:20:57Z</time>
      </trkpt>
      <trkpt lat="44.00902" lon="6.6385">
        <ele>907.6218262</ele>
        <time>2010-10-30T13:21:02Z</time>
      </trkpt>
      <trkpt lat="44.00888" lon="6.63842">
        <ele>901.8540039</ele>
        <time>2010-10-30T13:21:06Z</time>
      </trkpt>
      <trkpt lat="44.0088" lon="6.63848">
        <ele>897.5280762</ele>
        <time>2010-10-30T13:21:09Z</time>
      </trkpt>
      <trkpt lat="44.00875" lon="6.63842">
        <ele>894.644043</ele>
        <time>2010-10-30T13:21:12Z</time>
      </trkpt>
      <trkpt lat="44.0087" lon="6.63846">
        <ele>891.2792969</ele>
        <time>2010-10-30T13:21:15Z</time>
      </trkpt>
      <trkpt lat="44.00862" lon="6.63845">
        <ele>887.434082</ele>
        <time>2010-10-30T13:21:18Z</time>
      </trkpt>
      <trkpt lat="44.00861" lon="6.63845">
        <ele>885.0310059</ele>
        <time>2010-10-30T13:21:21Z</time>
      </trkpt>
      <trkpt lat="44.00861" lon="6.63847">
        <ele>881.6662598</ele>
        <time>2010-10-30T13:21:27Z</time>
      </trkpt>
      <trkpt lat="44.0086" lon="6.63845">
        <ele>882.1469727</ele>
        <time>2010-10-30T13:21:30Z</time>
      </trkpt>
      <trkpt lat="44.00853" lon="6.63831">
        <ele>884.550293</ele>
        <time>2010-10-30T13:21:36Z</time>
      </trkpt>
      <trkpt lat="44.00854" lon="6.63829">
        <ele>882.1469727</ele>
        <time>2010-10-30T13:21:40Z</time>
      </trkpt>
      <trkpt lat="44.00854" lon="6.63829">
        <ele>881.6662598</ele>
        <time>2010-10-30T13:21:41Z</time>
      </trkpt>
      <trkpt lat="44.00844" lon="6.63829">
        <ele>882.6276855</ele>
        <time>2010-10-30T13:21:46Z</time>
      </trkpt>
      <trkpt lat="44.00827" lon="6.63822">
        <ele>879.7436523</ele>
        <time>2010-10-30T13:21:51Z</time>
      </trkpt>
      <trkpt lat="44.00821" lon="6.63819">
        <ele>877.8210449</ele>
        <time>2010-10-30T13:21:55Z</time>
      </trkpt>
      <trkpt lat="44.00818" lon="6.63819">
        <ele>876.3791504</ele>
        <time>2010-10-30T13:22:01Z</time>
      </trkpt>
      <trkpt lat="44.00817" lon="6.63819">
        <ele>875.8981934</ele>
        <time>2010-10-30T13:22:07Z</time>
      </trkpt>
      <trkpt lat="44.00813" lon="6.63818">
        <ele>875.8981934</ele>
        <time>2010-10-30T13:22:19Z</time>
      </trkpt>
      <trkpt lat="44.00806" lon="6.63816">
        <ele>876.3791504</ele>
        <time>2010-10-30T13:22:30Z</time>
      </trkpt>
      <trkpt lat="44.00787" lon="6.63812">
        <ele>875.4174805</ele>
        <time>2010-10-30T13:22:34Z</time>
      </trkpt>
      <trkpt lat="44.00748" lon="6.63805">
        <ele>872.0529785</ele>
        <time>2010-10-30T13:22:40Z</time>
      </trkpt>
      <trkpt lat="44.00741" lon="6.63803">
        <ele>872.0529785</ele>
        <time>2010-10-30T13:22:41Z</time>
      </trkpt>
      <trkpt lat="44.00707" lon="6.63807">
        <ele>867.7270508</ele>
        <time>2010-10-30T13:22:46Z</time>
      </trkpt>
      <trkpt lat="44.00687" lon="6.63799">
        <ele>865.8046875</ele>
        <time>2010-10-30T13:22:50Z</time>
      </trkpt>
      <trkpt lat="44.00668" lon="6.63775">
        <ele>863.4013672</ele>
        <time>2010-10-30T13:22:55Z</time>
      </trkpt>
      <trkpt lat="44.00649" lon="6.6378">
        <ele>861.4787598</ele>
        <time>2010-10-30T13:22:58Z</time>
      </trkpt>
      <trkpt lat="44.00633" lon="6.63799">
        <ele>859.0751953</ele>
        <time>2010-10-30T13:23:01Z</time>
      </trkpt>
      <trkpt lat="44.00628" lon="6.63826">
        <ele>858.1140137</ele>
        <time>2010-10-30T13:23:04Z</time>
      </trkpt>
      <trkpt lat="44.00617" lon="6.63842">
        <ele>855.7106934</ele>
        <time>2010-10-30T13:23:07Z</time>
      </trkpt>
      <trkpt lat="44.00597" lon="6.63833">
        <ele>853.307373</ele>
        <time>2010-10-30T13:23:10Z</time>
      </trkpt>
      <trkpt lat="44.00571" lon="6.63811">
        <ele>852.3459473</ele>
        <time>2010-10-30T13:23:14Z</time>
      </trkpt>
      <trkpt lat="44.00564" lon="6.63814">
        <ele>851.8654785</ele>
        <time>2010-10-30T13:23:16Z</time>
      </trkpt>
      <trkpt lat="44.00562" lon="6.63828">
        <ele>849.9428711</ele>
        <time>2010-10-30T13:23:19Z</time>
      </trkpt>
      <trkpt lat="44.0056" lon="6.63858">
        <ele>848.9814453</ele>
        <time>2010-10-30T13:23:24Z</time>
      </trkpt>
      <trkpt lat="44.00556" lon="6.63871">
        <ele>848.9814453</ele>
        <time>2010-10-30T13:23:26Z</time>
      </trkpt>
      <trkpt lat="44.00543" lon="6.63896">
        <ele>847.5395508</ele>
        <time>2010-10-30T13:23:30Z</time>
      </trkpt>
      <trkpt lat="44.00512" lon="6.6394">
        <ele>842.7329102</ele>
        <time>2010-10-30T13:23:37Z</time>
      </trkpt>
      <trkpt lat="44.00479" lon="6.63987">
        <ele>838.4069824</ele>
        <time>2010-10-30T13:23:44Z</time>
      </trkpt>
      <trkpt lat="44.00465" lon="6.64007">
        <ele>836.0036621</ele>
        <time>2010-10-30T13:23:47Z</time>
      </trkpt>
      <trkpt lat="44.0044" lon="6.64023">
        <ele>835.5229492</ele>
        <time>2010-10-30T13:23:51Z</time>
      </trkpt>
      <trkpt lat="44.00412" lon="6.64022">
        <ele>834.5617676</ele>
        <time>2010-10-30T13:23:55Z</time>
      </trkpt>
      <trkpt lat="44.00372" lon="6.64026">
        <ele>830.2358398</ele>
        <time>2010-10-30T13:24:01Z</time>
      </trkpt>
      <trkpt lat="44.00358" lon="6.64034">
        <ele>825.909668</ele>
        <time>2010-10-30T13:24:03Z</time>
      </trkpt>
      <trkpt lat="44.00346" lon="6.64073">
        <ele>825.909668</ele>
        <time>2010-10-30T13:24:07Z</time>
      </trkpt>
      <trkpt lat="44.0034" lon="6.6411">
        <ele>829.755127</ele>
        <time>2010-10-30T13:24:11Z</time>
      </trkpt>
      <trkpt lat="44.00333" lon="6.64138">
        <ele>831.6777344</ele>
        <time>2010-10-30T13:24:16Z</time>
      </trkpt>
      <trkpt lat="44.00334" lon="6.64141">
        <ele>833.1196289</ele>
        <time>2010-10-30T13:24:18Z</time>
      </trkpt>
      <trkpt lat="44.00339" lon="6.6412">
        <ele>836.484375</ele>
        <time>2010-10-30T13:24:24Z</time>
      </trkpt>
      <trkpt lat="44.0034" lon="6.64113">
        <ele>834.0810547</ele>
        <time>2010-10-30T13:24:27Z</time>
      </trkpt>
      <trkpt lat="44.00327" lon="6.64107">
        <ele>836.9648438</ele>
        <time>2010-10-30T13:24:32Z</time>
      </trkpt>
      <trkpt lat="44.00321" lon="6.64102">
        <ele>835.5229492</ele>
        <time>2010-10-30T13:24:35Z</time>
      </trkpt>
      <trkpt lat="44.00318" lon="6.64113">
        <ele>835.0424805</ele>
        <time>2010-10-30T13:24:39Z</time>
      </trkpt>
      <trkpt lat="44.00315" lon="6.64125">
        <ele>832.1584473</ele>
        <time>2010-10-30T13:24:43Z</time>
      </trkpt>
      <trkpt lat="44.00314" lon="6.64132">
        <ele>831.6777344</ele>
        <time>2010-10-30T13:24:45Z</time>
      </trkpt>
      <trkpt lat="44.00309" lon="6.64162">
        <ele>833.6003418</ele>
        <time>2010-10-30T13:24:51Z</time>
      </trkpt>
      <trkpt lat="44.00304" lon="6.64178">
        <ele>831.1972656</ele>
        <time>2010-10-30T13:24:54Z</time>
      </trkpt>
      <trkpt lat="44.00292" lon="6.64195">
        <ele>829.755127</ele>
        <time>2010-10-30T13:24:58Z</time>
      </trkpt>
      <trkpt lat="44.00276" lon="6.64208">
        <ele>829.2744141</ele>
        <time>2010-10-30T13:25:02Z</time>
      </trkpt>
      <trkpt lat="44.00268" lon="6.64221">
        <ele>832.6391602</ele>
        <time>2010-10-30T13:25:05Z</time>
      </trkpt>
      <trkpt lat="44.00249" lon="6.64229">
        <ele>833.6003418</ele>
        <time>2010-10-30T13:25:11Z</time>
      </trkpt>
      <trkpt lat="44.00244" lon="6.64231">
        <ele>832.6391602</ele>
        <time>2010-10-30T13:25:12Z</time>
      </trkpt>
      <trkpt lat="44.00225" lon="6.64228">
        <ele>832.6391602</ele>
        <time>2010-10-30T13:25:16Z</time>
      </trkpt>
      <trkpt lat="44.00191" lon="6.64198">
        <ele>828.3132324</ele>
        <time>2010-10-30T13:25:23Z</time>
      </trkpt>
      <trkpt lat="44.00159" lon="6.64171">
        <ele>826.3903809</ele>
        <time>2010-10-30T13:25:28Z</time>
      </trkpt>
      <trkpt lat="44.00138" lon="6.64152">
        <ele>823.5065918</ele>
        <time>2010-10-30T13:25:31Z</time>
      </trkpt>
      <trkpt lat="44.00119" lon="6.64141">
        <ele>823.0258789</ele>
        <time>2010-10-30T13:25:34Z</time>
      </trkpt>
      <trkpt lat="44.00108" lon="6.64152">
        <ele>821.5837402</ele>
        <time>2010-10-30T13:25:38Z</time>
      </trkpt>
      <trkpt lat="44.00107" lon="6.64159">
        <ele>822.0644531</ele>
        <time>2010-10-30T13:25:39Z</time>
      </trkpt>
      <trkpt lat="44.00095" lon="6.64218">
        <ele>816.7773438</ele>
        <time>2010-10-30T13:25:47Z</time>
      </trkpt>
      <trkpt lat="44.00073" lon="6.64247">
        <ele>814.3740234</ele>
        <time>2010-10-30T13:25:52Z</time>
      </trkpt>
      <trkpt lat="44.00047" lon="6.64255">
        <ele>811.4899902</ele>
        <time>2010-10-30T13:25:56Z</time>
      </trkpt>
      <trkpt lat="44.00035" lon="6.64247">
        <ele>811.0092773</ele>
        <time>2010-10-30T13:25:58Z</time>
      </trkpt>
      <trkpt lat="43.99998" lon="6.64214">
        <ele>810.0478516</ele>
        <time>2010-10-30T13:26:04Z</time>
      </trkpt>
      <trkpt lat="43.9996" lon="6.64178">
        <ele>813.8933105</ele>
        <time>2010-10-30T13:26:11Z</time>
      </trkpt>
      <trkpt lat="43.99944" lon="6.64164">
        <ele>815.8161621</ele>
        <time>2010-10-30T13:26:14Z</time>
      </trkpt>
      <trkpt lat="43.99921" lon="6.64157">
        <ele>811.9707031</ele>
        <time>2010-10-30T13:26:18Z</time>
      </trkpt>
      <trkpt lat="43.99901" lon="6.64164">
        <ele>808.1254883</ele>
        <time>2010-10-30T13:26:22Z</time>
      </trkpt>
      <trkpt lat="43.99884" lon="6.64184">
        <ele>809.0866699</ele>
        <time>2010-10-30T13:26:26Z</time>
      </trkpt>
      <trkpt lat="43.9986" lon="6.64212">
        <ele>812.9321289</ele>
        <time>2010-10-30T13:26:31Z</time>
      </trkpt>
      <trkpt lat="43.99856" lon="6.64217">
        <ele>812.451416</ele>
        <time>2010-10-30T13:26:32Z</time>
      </trkpt>
      <trkpt lat="43.99828" lon="6.64227">
        <ele>809.5673828</ele>
        <time>2010-10-30T13:26:37Z</time>
      </trkpt>
      <trkpt lat="43.99791" lon="6.64241">
        <ele>809.0866699</ele>
        <time>2010-10-30T13:26:44Z</time>
      </trkpt>
      <trkpt lat="43.99765" lon="6.64252">
        <ele>809.5673828</ele>
        <time>2010-10-30T13:26:49Z</time>
      </trkpt>
      <trkpt lat="43.99756" lon="6.64254">
        <ele>807.1640625</ele>
        <time>2010-10-30T13:26:51Z</time>
      </trkpt>
      <trkpt lat="43.99726" lon="6.64271">
        <ele>810.0478516</ele>
        <time>2010-10-30T13:26:59Z</time>
      </trkpt>
      <trkpt lat="43.99697" lon="6.64281">
        <ele>812.451416</ele>
        <time>2010-10-30T13:27:07Z</time>
      </trkpt>
      <trkpt lat="43.99666" lon="6.64284">
        <ele>811.9707031</ele>
        <time>2010-10-30T13:27:14Z</time>
      </trkpt>
      <trkpt lat="43.99647" lon="6.64287">
        <ele>808.605957</ele>
        <time>2010-10-30T13:27:18Z</time>
      </trkpt>
      <trkpt lat="43.99611" lon="6.64297">
        <ele>806.6833496</ele>
        <time>2010-10-30T13:27:25Z</time>
      </trkpt>
      <trkpt lat="43.99581" lon="6.64293">
        <ele>804.2802734</ele>
        <time>2010-10-30T13:27:30Z</time>
      </trkpt>
      <trkpt lat="43.99556" lon="6.64276">
        <ele>802.3574219</ele>
        <time>2010-10-30T13:27:36Z</time>
      </trkpt>
      <trkpt lat="43.99545" lon="6.6427">
        <ele>801.8769531</ele>
        <time>2010-10-30T13:27:40Z</time>
      </trkpt>
      <trkpt lat="43.99535" lon="6.64265">
        <ele>803.3188477</ele>
        <time>2010-10-30T13:27:45Z</time>
      </trkpt>
      <trkpt lat="43.99524" lon="6.64272">
        <ele>805.2414551</ele>
        <time>2010-10-30T13:27:51Z</time>
      </trkpt>
      <trkpt lat="43.99525" lon="6.64277">
        <ele>816.2966309</ele>
        <time>2010-10-30T13:27:57Z</time>
      </trkpt>
      <trkpt lat="43.9952" lon="6.64279">
        <ele>823.9870605</ele>
        <time>2010-10-30T13:28:05Z</time>
      </trkpt>
      <trkpt lat="43.9951" lon="6.64292">
        <ele>834.0810547</ele>
        <time>2010-10-30T13:28:11Z</time>
      </trkpt>
      <trkpt lat="43.995" lon="6.64302">
        <ele>833.1196289</ele>
        <time>2010-10-30T13:28:15Z</time>
      </trkpt>
      <trkpt lat="43.99482" lon="6.64298">
        <ele>829.2744141</ele>
        <time>2010-10-30T13:28:21Z</time>
      </trkpt>
      <trkpt lat="43.99466" lon="6.643">
        <ele>821.5837402</ele>
        <time>2010-10-30T13:28:28Z</time>
      </trkpt>
      <trkpt lat="43.99446" lon="6.64307">
        <ele>814.8547363</ele>
        <time>2010-10-30T13:28:35Z</time>
      </trkpt>
      <trkpt lat="43.99426" lon="6.6432">
        <ele>812.451416</ele>
        <time>2010-10-30T13:28:40Z</time>
      </trkpt>
      <trkpt lat="43.99407" lon="6.64337">
        <ele>810.0478516</ele>
        <time>2010-10-30T13:28:45Z</time>
      </trkpt>
      <trkpt lat="43.99398" lon="6.64345">
        <ele>810.5285645</ele>
        <time>2010-10-30T13:28:49Z</time>
      </trkpt>
      <trkpt lat="43.9939" lon="6.64359">
        <ele>811.0092773</ele>
        <time>2010-10-30T13:28:54Z</time>
      </trkpt>
      <trkpt lat="43.99382" lon="6.64366">
        <ele>810.0478516</ele>
        <time>2010-10-30T13:28:57Z</time>
      </trkpt>
      <trkpt lat="43.99361" lon="6.64372">
        <ele>803.7995605</ele>
        <time>2010-10-30T13:29:01Z</time>
      </trkpt>
      <trkpt lat="43.99336" lon="6.64386">
        <ele>799.9543457</ele>
        <time>2010-10-30T13:29:07Z</time>
      </trkpt>
      <trkpt lat="43.99315" lon="6.64399">
        <ele>798.9929199</ele>
        <time>2010-10-30T13:29:12Z</time>
      </trkpt>
      <trkpt lat="43.99295" lon="6.64424">
        <ele>800.9155273</ele>
        <time>2010-10-30T13:29:17Z</time>
      </trkpt>
      <trkpt lat="43.99281" lon="6.64445">
        <ele>799.4736328</ele>
        <time>2010-10-30T13:29:22Z</time>
      </trkpt>
      <trkpt lat="43.99277" lon="6.64455">
        <ele>797.0703125</ele>
        <time>2010-10-30T13:29:24Z</time>
      </trkpt>
      <trkpt lat="43.99273" lon="6.64468">
        <ele>803.7995605</ele>
        <time>2010-10-30T13:29:26Z</time>
      </trkpt>
      <trkpt lat="43.99252" lon="6.64485">
        <ele>803.7995605</ele>
        <time>2010-10-30T13:29:31Z</time>
      </trkpt>
      <trkpt lat="43.99221" lon="6.64498">
        <ele>797.5510254</ele>
        <time>2010-10-30T13:29:37Z</time>
      </trkpt>
      <trkpt lat="43.9921" lon="6.64497">
        <ele>797.0703125</ele>
        <time>2010-10-30T13:29:39Z</time>
      </trkpt>
      <trkpt lat="43.99186" lon="6.64495">
        <ele>796.1091309</ele>
        <time>2010-10-30T13:29:45Z</time>
      </trkpt>
      <trkpt lat="43.9918" lon="6.64497">
        <ele>796.5898438</ele>
        <time>2010-10-30T13:29:47Z</time>
      </trkpt>
      <trkpt lat="43.99173" lon="6.64509">
        <ele>796.1091309</ele>
        <time>2010-10-30T13:29:51Z</time>
      </trkpt>
      <trkpt lat="43.99167" lon="6.64517">
        <ele>793.2248535</ele>
        <time>2010-10-30T13:29:54Z</time>
      </trkpt>
      <trkpt lat="43.99167" lon="6.64531">
        <ele>792.2636719</ele>
        <time>2010-10-30T13:29:57Z</time>
      </trkpt>
      <trkpt lat="43.99175" lon="6.64541">
        <ele>790.8215332</ele>
        <time>2010-10-30T13:29:59Z</time>
      </trkpt>
      <trkpt lat="43.99195" lon="6.64579">
        <ele>791.782959</ele>
        <time>2010-10-30T13:30:04Z</time>
      </trkpt>
      <trkpt lat="43.99193" lon="6.64601">
        <ele>791.782959</ele>
        <time>2010-10-30T13:30:07Z</time>
      </trkpt>
      <trkpt lat="43.99184" lon="6.64604">
        <ele>791.782959</ele>
        <time>2010-10-30T13:30:09Z</time>
      </trkpt>
      <trkpt lat="43.99173" lon="6.64603">
        <ele>792.2636719</ele>
        <time>2010-10-30T13:30:12Z</time>
      </trkpt>
      <trkpt lat="43.99161" lon="6.64608">
        <ele>792.7443848</ele>
        <time>2010-10-30T13:30:18Z</time>
      </trkpt>
      <trkpt lat="43.99154" lon="6.64609">
        <ele>794.1862793</ele>
        <time>2010-10-30T13:30:23Z</time>
      </trkpt>
      <trkpt lat="43.99154" lon="6.64609">
        <ele>795.1474609</ele>
        <time>2010-10-30T13:30:24Z</time>
      </trkpt>
      <trkpt lat="43.99149" lon="6.64617">
        <ele>796.1091309</ele>
        <time>2010-10-30T13:30:28Z</time>
      </trkpt>
      <trkpt lat="43.99128" lon="6.64645">
        <ele>794.666748</ele>
        <time>2010-10-30T13:30:35Z</time>
      </trkpt>
      <trkpt lat="43.99121" lon="6.64656">
        <ele>794.1862793</ele>
        <time>2010-10-30T13:30:37Z</time>
      </trkpt>
      <trkpt lat="43.99115" lon="6.6467">
        <ele>792.2636719</ele>
        <time>2010-10-30T13:30:39Z</time>
      </trkpt>
      <trkpt lat="43.99102" lon="6.64692">
        <ele>792.2636719</ele>
        <time>2010-10-30T13:30:44Z</time>
      </trkpt>
      <trkpt lat="43.99079" lon="6.64711">
        <ele>786.0151367</ele>
        <time>2010-10-30T13:30:50Z</time>
      </trkpt>
      <trkpt lat="43.99071" lon="6.64718">
        <ele>784.5732422</ele>
        <time>2010-10-30T13:30:52Z</time>
      </trkpt>
      <trkpt lat="43.99058" lon="6.64733">
        <ele>786.4958496</ele>
        <time>2010-10-30T13:30:57Z</time>
      </trkpt>
      <trkpt lat="43.99043" lon="6.64748">
        <ele>786.0151367</ele>
        <time>2010-10-30T13:31:02Z</time>
      </trkpt>
      <trkpt lat="43.99027" lon="6.64756">
        <ele>785.5344238</ele>
        <time>2010-10-30T13:31:06Z</time>
      </trkpt>
      <trkpt lat="43.99014" lon="6.64757">
        <ele>787.9377441</ele>
        <time>2010-10-30T13:31:09Z</time>
      </trkpt>
      <trkpt lat="43.98977" lon="6.6476">
        <ele>787.9377441</ele>
        <time>2010-10-30T13:31:18Z</time>
      </trkpt>
      <trkpt lat="43.98958" lon="6.64756">
        <ele>786.9763184</ele>
        <time>2010-10-30T13:31:23Z</time>
      </trkpt>
      <trkpt lat="43.98937" lon="6.64747">
        <ele>786.4958496</ele>
        <time>2010-10-30T13:31:29Z</time>
      </trkpt>
      <trkpt lat="43.98918" lon="6.64738">
        <ele>786.0151367</ele>
        <time>2010-10-30T13:31:35Z</time>
      </trkpt>
      <trkpt lat="43.9891" lon="6.64734">
        <ele>786.9763184</ele>
        <time>2010-10-30T13:31:39Z</time>
      </trkpt>
      <trkpt lat="43.98895" lon="6.64727">
        <ele>786.4958496</ele>
        <time>2010-10-30T13:31:44Z</time>
      </trkpt>
      <trkpt lat="43.9888" lon="6.64718">
        <ele>786.4958496</ele>
        <time>2010-10-30T13:31:48Z</time>
      </trkpt>
      <trkpt lat="43.98856" lon="6.64714">
        <ele>784.5732422</ele>
        <time>2010-10-30T13:31:53Z</time>
      </trkpt>
      <trkpt lat="43.98842" lon="6.64716">
        <ele>784.5732422</ele>
        <time>2010-10-30T13:31:57Z</time>
      </trkpt>
      <trkpt lat="43.98833" lon="6.64719">
        <ele>786.4958496</ele>
        <time>2010-10-30T13:32:03Z</time>
      </trkpt>
      <trkpt lat="43.98831" lon="6.64709">
        <ele>787.4570312</ele>
        <time>2010-10-30T13:32:07Z</time>
      </trkpt>
      <trkpt lat="43.98815" lon="6.64704">
        <ele>788.8991699</ele>
        <time>2010-10-30T13:32:12Z</time>
      </trkpt>
      <trkpt lat="43.98798" lon="6.64702">
        <ele>788.418457</ele>
        <time>2010-10-30T13:32:18Z</time>
      </trkpt>
      <trkpt lat="43.98782" lon="6.64698">
        <ele>791.3022461</ele>
        <time>2010-10-30T13:32:24Z</time>
      </trkpt>
      <trkpt lat="43.98768" lon="6.64704">
        <ele>791.782959</ele>
        <time>2010-10-30T13:32:29Z</time>
      </trkpt>
      <trkpt lat="43.9875" lon="6.64713">
        <ele>792.2636719</ele>
        <time>2010-10-30T13:32:36Z</time>
      </trkpt>
      <trkpt lat="43.98729" lon="6.64725">
        <ele>790.3410645</ele>
        <time>2010-10-30T13:32:43Z</time>
      </trkpt>
      <trkpt lat="43.98709" lon="6.64732">
        <ele>794.1862793</ele>
        <time>2010-10-30T13:32:50Z</time>
      </trkpt>
      <trkpt lat="43.98692" lon="6.6474">
        <ele>796.1091309</ele>
        <time>2010-10-30T13:32:57Z</time>
      </trkpt>
      <trkpt lat="43.98689" lon="6.64744">
        <ele>795.1474609</ele>
        <time>2010-10-30T13:32:58Z</time>
      </trkpt>
      <trkpt lat="43.98687" lon="6.64769">
        <ele>796.1091309</ele>
        <time>2010-10-30T13:33:03Z</time>
      </trkpt>
      <trkpt lat="43.9868" lon="6.64781">
        <ele>795.6281738</ele>
        <time>2010-10-30T13:33:06Z</time>
      </trkpt>
      <trkpt lat="43.98677" lon="6.64783">
        <ele>795.6281738</ele>
        <time>2010-10-30T13:33:07Z</time>
      </trkpt>
      <trkpt lat="43.98651" lon="6.64798">
        <ele>796.1091309</ele>
        <time>2010-10-30T13:33:15Z</time>
      </trkpt>
      <trkpt lat="43.98629" lon="6.64811">
        <ele>794.666748</ele>
        <time>2010-10-30T13:33:22Z</time>
      </trkpt>
      <trkpt lat="43.9861" lon="6.64811">
        <ele>795.6281738</ele>
        <time>2010-10-30T13:33:28Z</time>
      </trkpt>
      <trkpt lat="43.986" lon="6.64825">
        <ele>795.6281738</ele>
        <time>2010-10-30T13:33:33Z</time>
      </trkpt>
      <trkpt lat="43.98588" lon="6.64837">
        <ele>797.0703125</ele>
        <time>2010-10-30T13:33:38Z</time>
      </trkpt>
      <trkpt lat="43.98566" lon="6.64848">
        <ele>797.0703125</ele>
        <time>2010-10-30T13:33:44Z</time>
      </trkpt>
      <trkpt lat="43.98558" lon="6.64852">
        <ele>797.5510254</ele>
        <time>2010-10-30T13:33:46Z</time>
      </trkpt>
      <trkpt lat="43.98529" lon="6.64868">
        <ele>793.7055664</ele>
        <time>2010-10-30T13:33:53Z</time>
      </trkpt>
      <trkpt lat="43.98503" lon="6.64884">
        <ele>792.7443848</ele>
        <time>2010-10-30T13:33:59Z</time>
      </trkpt>
      <trkpt lat="43.98479" lon="6.64902">
        <ele>791.3022461</ele>
        <time>2010-10-30T13:34:05Z</time>
      </trkpt>
      <trkpt lat="43.98442" lon="6.64925">
        <ele>793.2248535</ele>
        <time>2010-10-30T13:34:13Z</time>
      </trkpt>
      <trkpt lat="43.98414" lon="6.64943">
        <ele>788.8991699</ele>
        <time>2010-10-30T13:34:19Z</time>
      </trkpt>
      <trkpt lat="43.98374" lon="6.64968">
        <ele>787.9377441</ele>
        <time>2010-10-30T13:34:27Z</time>
      </trkpt>
      <trkpt lat="43.98326" lon="6.64995">
        <ele>785.0539551</ele>
        <time>2010-10-30T13:34:36Z</time>
      </trkpt>
      <trkpt lat="43.98284" lon="6.65012">
        <ele>778.3244629</ele>
        <time>2010-10-30T13:34:43Z</time>
      </trkpt>
      <trkpt lat="43.98232" lon="6.6503">
        <ele>769.6728516</ele>
        <time>2010-10-30T13:34:51Z</time>
      </trkpt>
      <trkpt lat="43.98206" lon="6.65036">
        <ele>769.1921387</ele>
        <time>2010-10-30T13:34:55Z</time>
      </trkpt>
      <trkpt lat="43.98168" lon="6.65023">
        <ele>768.2307129</ele>
        <time>2010-10-30T13:35:00Z</time>
      </trkpt>
      <trkpt lat="43.98143" lon="6.65013">
        <ele>770.1533203</ele>
        <time>2010-10-30T13:35:03Z</time>
      </trkpt>
      <trkpt lat="43.98109" lon="6.6503">
        <ele>777.3632812</ele>
        <time>2010-10-30T13:35:07Z</time>
      </trkpt>
      <trkpt lat="43.98092" lon="6.65064">
        <ele>774.479248</ele>
        <time>2010-10-30T13:35:10Z</time>
      </trkpt>
      <trkpt lat="43.9807" lon="6.65137">
        <ele>768.7114258</ele>
        <time>2010-10-30T13:35:16Z</time>
      </trkpt>
      <trkpt lat="43.98065" lon="6.65148">
        <ele>767.2695312</ele>
        <time>2010-10-30T13:35:17Z</time>
      </trkpt>
      <trkpt lat="43.98036" lon="6.6518">
        <ele>763.4240723</ele>
        <time>2010-10-30T13:35:21Z</time>
      </trkpt>
      <trkpt lat="43.98019" lon="6.65193">
        <ele>762.4626465</ele>
        <time>2010-10-30T13:35:23Z</time>
      </trkpt>
      <trkpt lat="43.97993" lon="6.65217">
        <ele>760.0593262</ele>
        <time>2010-10-30T13:35:26Z</time>
      </trkpt>
      <trkpt lat="43.97952" lon="6.65232">
        <ele>758.6174316</ele>
        <time>2010-10-30T13:35:30Z</time>
      </trkpt>
      <trkpt lat="43.97901" lon="6.65242">
        <ele>754.291748</ele>
        <time>2010-10-30T13:35:35Z</time>
      </trkpt>
      <trkpt lat="43.9786" lon="6.65228">
        <ele>751.4077148</ele>
        <time>2010-10-30T13:35:39Z</time>
      </trkpt>
      <trkpt lat="43.97819" lon="6.65219">
        <ele>749.4851074</ele>
        <time>2010-10-30T13:35:43Z</time>
      </trkpt>
      <trkpt lat="43.97788" lon="6.65223">
        <ele>748.0432129</ele>
        <time>2010-10-30T13:35:46Z</time>
      </trkpt>
      <trkpt lat="43.97724" lon="6.6526">
        <ele>744.6782227</ele>
        <time>2010-10-30T13:35:53Z</time>
      </trkpt>
      <trkpt lat="43.97649" lon="6.65298">
        <ele>741.7944336</ele>
        <time>2010-10-30T13:36:01Z</time>
      </trkpt>
      <trkpt lat="43.9758" lon="6.65328">
        <ele>736.0266113</ele>
        <time>2010-10-30T13:36:08Z</time>
      </trkpt>
      <trkpt lat="43.97521" lon="6.65354">
        <ele>730.2585449</ele>
        <time>2010-10-30T13:36:14Z</time>
      </trkpt>
      <trkpt lat="43.97471" lon="6.65373">
        <ele>726.4133301</ele>
        <time>2010-10-30T13:36:19Z</time>
      </trkpt>
      <trkpt lat="43.97439" lon="6.65406">
        <ele>723.0488281</ele>
        <time>2010-10-30T13:36:23Z</time>
      </trkpt>
      <trkpt lat="43.97402" lon="6.65459">
        <ele>719.6843262</ele>
        <time>2010-10-30T13:36:29Z</time>
      </trkpt>
      <trkpt lat="43.97363" lon="6.65514">
        <ele>716.800293</ele>
        <time>2010-10-30T13:36:36Z</time>
      </trkpt>
      <trkpt lat="43.97333" lon="6.65555">
        <ele>715.3581543</ele>
        <time>2010-10-30T13:36:42Z</time>
      </trkpt>
      <trkpt lat="43.9731" lon="6.65592">
        <ele>716.3195801</ele>
        <time>2010-10-30T13:36:47Z</time>
      </trkpt>
      <trkpt lat="43.97275" lon="6.65657">
        <ele>713.9160156</ele>
        <time>2010-10-30T13:36:56Z</time>
      </trkpt>
      <trkpt lat="43.97254" lon="6.65694">
        <ele>711.5129395</ele>
        <time>2010-10-30T13:37:02Z</time>
      </trkpt>
      <trkpt lat="43.97244" lon="6.65711">
        <ele>709.590332</ele>
        <time>2010-10-30T13:37:05Z</time>
      </trkpt>
      <trkpt lat="43.97233" lon="6.65747">
        <ele>708.1484375</ele>
        <time>2010-10-30T13:37:10Z</time>
      </trkpt>
      <trkpt lat="43.97227" lon="6.65761">
        <ele>708.6289062</ele>
        <time>2010-10-30T13:37:12Z</time>
      </trkpt>
      <trkpt lat="43.97193" lon="6.65824">
        <ele>707.6677246</ele>
        <time>2010-10-30T13:37:21Z</time>
      </trkpt>
      <trkpt lat="43.97166" lon="6.65872">
        <ele>704.3032227</ele>
        <time>2010-10-30T13:37:28Z</time>
      </trkpt>
      <trkpt lat="43.97149" lon="6.65901">
        <ele>704.3032227</ele>
        <time>2010-10-30T13:37:32Z</time>
      </trkpt>
      <trkpt lat="43.97125" lon="6.65957">
        <ele>707.1870117</ele>
        <time>2010-10-30T13:37:39Z</time>
      </trkpt>
      <trkpt lat="43.97096" lon="6.66019">
        <ele>709.1096191</ele>
        <time>2010-10-30T13:37:47Z</time>
      </trkpt>
      <trkpt lat="43.97089" lon="6.66036">
        <ele>710.0708008</ele>
        <time>2010-10-30T13:37:49Z</time>
      </trkpt>
      <trkpt lat="43.97057" lon="6.66081">
        <ele>709.1096191</ele>
        <time>2010-10-30T13:37:55Z</time>
      </trkpt>
      <trkpt lat="43.97021" lon="6.66108">
        <ele>706.7062988</ele>
        <time>2010-10-30T13:38:00Z</time>
      </trkpt>
      <trkpt lat="43.97013" lon="6.66113">
        <ele>706.2255859</ele>
        <time>2010-10-30T13:38:01Z</time>
      </trkpt>
      <trkpt lat="43.96978" lon="6.6615">
        <ele>703.3417969</ele>
        <time>2010-10-30T13:38:06Z</time>
      </trkpt>
      <trkpt lat="43.9695" lon="6.66194">
        <ele>699.4963379</ele>
        <time>2010-10-30T13:38:11Z</time>
      </trkpt>
      <trkpt lat="43.96933" lon="6.6624">
        <ele>695.1704102</ele>
        <time>2010-10-30T13:38:16Z</time>
      </trkpt>
      <trkpt lat="43.96913" lon="6.66317">
        <ele>696.1318359</ele>
        <time>2010-10-30T13:38:24Z</time>
      </trkpt>
      <trkpt lat="43.96888" lon="6.66382">
        <ele>696.6125488</ele>
        <time>2010-10-30T13:38:31Z</time>
      </trkpt>
      <trkpt lat="43.96857" lon="6.66462">
        <ele>696.6125488</ele>
        <time>2010-10-30T13:38:40Z</time>
      </trkpt>
      <trkpt lat="43.96827" lon="6.66518">
        <ele>697.0930176</ele>
        <time>2010-10-30T13:38:47Z</time>
      </trkpt>
      <trkpt lat="43.96793" lon="6.66552">
        <ele>697.0930176</ele>
        <time>2010-10-30T13:38:53Z</time>
      </trkpt>
      <trkpt lat="43.96759" lon="6.66583">
        <ele>695.651123</ele>
        <time>2010-10-30T13:38:59Z</time>
      </trkpt>
      <trkpt lat="43.96709" lon="6.66634">
        <ele>696.6125488</ele>
        <time>2010-10-30T13:39:08Z</time>
      </trkpt>
      <trkpt lat="43.96661" lon="6.66683">
        <ele>694.6896973</ele>
        <time>2010-10-30T13:39:17Z</time>
      </trkpt>
      <trkpt lat="43.96632" lon="6.66711">
        <ele>692.767334</ele>
        <time>2010-10-30T13:39:23Z</time>
      </trkpt>
      <trkpt lat="43.96625" lon="6.66713">
        <ele>693.7285156</ele>
        <time>2010-10-30T13:39:25Z</time>
      </trkpt>
      <trkpt lat="43.96609" lon="6.66706">
        <ele>691.3251953</ele>
        <time>2010-10-30T13:39:30Z</time>
      </trkpt>
      <trkpt lat="43.96608" lon="6.66703">
        <ele>691.8059082</ele>
        <time>2010-10-30T13:39:34Z</time>
      </trkpt>
      <trkpt lat="43.96606" lon="6.66705">
        <ele>692.767334</ele>
        <time>2010-10-30T13:39:41Z</time>
      </trkpt>
      <trkpt lat="43.96606" lon="6.66706">
        <ele>691.8059082</ele>
        <time>2010-10-30T13:39:50Z</time>
      </trkpt>
      <trkpt lat="43.96607" lon="6.66705">
        <ele>691.3251953</ele>
        <time>2010-10-30T13:40:05Z</time>
      </trkpt>
      <trkpt lat="43.96611" lon="6.66703">
        <ele>692.2866211</ele>
        <time>2010-10-30T13:40:11Z</time>
      </trkpt>
      <trkpt lat="43.96613" lon="6.66703">
        <ele>694.2092285</ele>
        <time>2010-10-30T13:40:18Z</time>
      </trkpt>
      <trkpt lat="43.96609" lon="6.66691">
        <ele>686.0380859</ele>
        <time>2010-10-30T13:40:45Z</time>
      </trkpt>
      <trkpt lat="43.9661" lon="6.66699">
        <ele>704.7836914</ele>
        <time>2010-10-30T13:42:08Z</time>
      </trkpt>
      <trkpt lat="43.96611" lon="6.66699">
        <ele>706.2255859</ele>
        <time>2010-10-30T13:42:20Z</time>
      </trkpt>
      <trkpt lat="43.9661" lon="6.66695">
        <ele>689.4025879</ele>
        <time>2010-10-30T13:44:22Z</time>
      </trkpt>
      <trkpt lat="43.96611" lon="6.66699">
        <ele>692.767334</ele>
        <time>2010-10-30T13:46:26Z</time>
      </trkpt>
      <trkpt lat="43.96613" lon="6.66701">
        <ele>691.3251953</ele>
        <time>2010-10-30T13:47:04Z</time>
      </trkpt>
      <trkpt lat="43.9661" lon="6.66701">
        <ele>691.8059082</ele>
        <time>2010-10-30T13:47:10Z</time>
      </trkpt>
      <trkpt lat="43.9661" lon="6.66704">
        <ele>694.2092285</ele>
        <time>2010-10-30T13:47:23Z</time>
      </trkpt>
    </trkseg>
  </trk>
</gpx>